/* DATA DESCRIPTION:
Citation:	Geldmacher, Jörg (2026): Master tracks in different resolutions of SONNE cruise SO320/2, Honolulu - Vancouver, 2026-06-19 - 2026-08-03 [dataset]. GEOMAR - Helmholtz Centre for Ocean Research Kiel, PANGAEA, https://doi.pangaea.de/10.1594/PANGAEA.996845 (DOI registration in progress)
Abstract:	Raw data acquired by position sensors on board RV SONNE during expedition SO320/2 were processed to receive a validated master track which can be used as reference of further expedition data. During SO320/2 the motion reference unit Kongsberg SeaTex AS MRU-5 combined with Kongsberg SeaTex AS Seapath 320 and two GPS receivers SAAB MGL-4 were used as navigation sensors. Data were downloaded from Insightics Marine DSHIP Extraction (https://dship.o2a-data.de/) with a resolution of 1 sec. Processing and evaluation of the data is outlined in the data processing report. Processed data are provided as a master track with 1 sec resolution derived from the position sensors' data selected by priority and a generalized track with a reduced set of the most significant positions of the master track.
Other version:	Generalized master track of SONNE cruise SO320/2 (URI: https://download.pangaea.de/reference/141241/attachments/SO320_2_mastertrack_generalized.zip)
	Geldmacher, Jörg (2026): Master track of SONNE cruise SO320/2 in 1 sec resolution (zipped, 169 MB) [dataset]. GEOMAR - Helmholtz Centre for Ocean Research Kiel, PANGAEA, https://doi.pangaea.de/10.1594/PANGAEA.996846
Data processing report:	Processing report for navigation sensors from SONNE cruise SO320/2 (URI: https://download.pangaea.de/reference/141243/attachments/SO320_2_nav.pdf)
Further details:	Event list of SONNE cruise SO320/2 (URI: https://www.pangaea.de/expeditions/events/SO320/2)
	Trackline map of navigation sensors from SONNE cruise SO320/2 (URI: https://download.pangaea.de/reference/141244/attachments/SO320_2_nav.png)
Project(s):	AI BaseCamp - Helmholtz DataHub Earth & Environment (AI_BaseCamp)
	DAM Marine Data - Research Vessels (DAM_ResearchVessels) (URI: https://www.allianz-meeresforschung.de/en/activities/data-management-and-digitalisation/underway-research-data)
Funding:	Bundesministerium für ­Forschung, Technologie und Raumfahrt (BMFTR) (URI: https://www.bmbf.de/DE/Home/home_node.html), grant/award no. 03F1001E: Auf- und Ausbau Dateninfrastruktur und -management für Daten aus dem Betrieb deutscher Forschungsschiffe; Vorhaben: Bathymetrie-, Sedimentecholot-, Seismik- sowie weitere Unterwegs- und Forschungsmissionsdaten (URI: https://foerderportal.bund.de/foekat/jsp/SucheAction.do?actionMode=view&fkz=03F1001E)
Coverage:	MEDIAN LATITUDE: 36.518656 * MEDIAN LONGITUDE: -171.550297 * SOUTH-BOUND LATITUDE: 21.225857 * WEST-BOUND LONGITUDE: 173.159074 * NORTH-BOUND LATITUDE: 49.319391 * EAST-BOUND LONGITUDE: -122.996852
	DATE/TIME START: 2026-06-19T19:20:02 * DATE/TIME END: 2026-08-03T15:10:53
Event(s):	SO320/2-track * LATITUDE START: 21.297038 * LONGITUDE START: -157.868926 * LATITUDE END: 49.288414 * LONGITUDE END: -123.092923 * DATE/TIME START: 2026-06-19T19:00:02 * DATE/TIME END: 2026-08-03T15:10:53 * CAMPAIGN: SO320/2 (HESS EVOLUTION) * BASIS: Sonne_2 (URI: https://uol.de/icbm/forschungsplattformen-schiffe/sonne) * METHOD/DEVICE: Underway cruise track measurements (CT) * COMMENT: Honolulu - Vancouver
Comment:	This dataset contains the master track in 10 min resolution, for other resolutions please see "Other version" references.
Parameter(s):	DATE/TIME (Date/Time) * GEOCODE
	LATITUDE (Latitude) * GEOCODE
	LONGITUDE (Longitude) * GEOCODE
	Speed [kn] (Speed) * METHOD/DEVICE: Calculated * COMMENT: 10-min average
	Course [deg] (Course) * METHOD/DEVICE: Calculated * COMMENT: 10-min average
License:	Creative Commons Attribution 4.0 International (CC-BY-4.0) (URI: https://creativecommons.org/licenses/by/4.0/)
Status:	Curation Level: Enhanced curation (URI: https://wiki.pangaea.de/wiki/Curation_levels)
Size:	12912 data points
*/
Date/Time	Latitude	Longitude	Speed [kn]	Course [deg]
2026-06-19T19:20	21.29705	-157.86896	0.012	278.9
2026-06-19T19:30	21.29825	-157.86888	0.433	3.9
2026-06-19T19:40	21.30184	-157.86727	1.396	22.7
2026-06-19T19:50	21.29967	-157.86882	0.938	213.8
2026-06-19T20:00	21.28342	-157.87922	6.791	210.9
2026-06-19T20:10	21.27018	-157.89400	6.870	226.3
2026-06-19T20:20	21.25679	-157.92141	10.386	242.5
2026-06-19T20:30	21.24598	-157.95138	10.794	249.0
2026-06-19T20:40	21.23509	-157.98198	11.002	249.2
2026-06-19T20:50	21.22586	-158.01181	10.557	251.7
2026-06-19T21:00	21.22586	-158.04492	11.131	270.0
2026-06-19T21:10	21.22840	-158.07615	10.539	275.0
2026-06-19T21:20	21.23258	-158.10818	10.870	277.9
2026-06-19T21:30	21.23824	-158.13897	10.546	281.1
2026-06-19T21:40	21.24346	-158.16813	9.977	280.8
2026-06-19T21:50	21.24867	-158.19735	9.997	280.8
2026-06-19T22:00	21.25400	-158.22684	10.095	280.9
2026-06-19T22:10	21.25943	-158.25653	10.165	281.0
2026-06-19T22:20	21.26462	-158.28592	10.050	280.7
2026-06-19T22:30	21.26989	-158.31506	9.975	280.9
2026-06-19T22:40	21.27511	-158.34424	9.981	280.8
2026-06-19T22:50	21.28035	-158.37294	9.825	281.0
2026-06-19T23:00	21.28600	-158.40162	9.848	281.9
2026-06-19T23:10	21.30985	-158.41726	10.038	328.4
2026-06-19T23:20	21.33628	-158.43289	10.832	331.0
2026-06-19T23:30	21.36375	-158.44942	11.303	330.6
2026-06-19T23:40	21.38877	-158.46439	10.285	330.8
2026-06-19T23:50	21.41525	-158.48022	10.880	330.8
2026-06-20T00:00	21.44158	-158.49596	10.817	330.8
2026-06-20T00:10	21.46885	-158.51237	11.221	330.6
2026-06-20T00:20	21.49557	-158.52833	10.975	330.8
2026-06-20T00:30	21.52145	-158.54375	10.623	330.9
2026-06-20T00:40	21.54722	-158.55933	10.615	330.5
2026-06-20T00:50	21.57444	-158.57567	11.193	330.7
2026-06-20T01:00	21.60020	-158.59109	10.583	330.8
2026-06-20T01:10	21.62620	-158.60669	10.689	330.7
2026-06-20T01:20	21.65299	-158.62262	10.990	330.9
2026-06-20T01:30	21.67994	-158.63889	11.095	330.6
2026-06-20T01:40	21.70730	-158.65530	11.244	330.7
2026-06-20T01:50	21.73402	-158.67130	10.979	330.8
2026-06-20T02:00	21.76099	-158.68746	11.081	330.8
2026-06-20T02:10	21.78736	-158.70340	10.856	330.5
2026-06-20T02:20	21.81333	-158.71893	10.665	330.8
2026-06-20T02:30	21.83894	-158.73441	10.543	330.6
2026-06-20T02:40	21.86447	-158.74979	10.505	330.6
2026-06-20T02:50	21.88968	-158.76487	10.351	330.8
2026-06-20T03:00	21.91461	-158.77969	10.220	331.0
2026-06-20T03:10	21.93758	-158.79353	9.450	330.7
2026-06-20T03:20	21.96012	-158.80713	9.274	330.6
2026-06-20T03:30	21.98339	-158.82110	9.559	330.8
2026-06-20T03:40	22.00851	-158.83623	10.333	330.7
2026-06-20T03:50	22.03356	-158.85132	10.301	330.7
2026-06-20T04:00	22.05814	-158.86602	10.089	330.9
2026-06-20T04:10	22.08296	-158.88103	10.217	330.6
2026-06-20T04:20	22.10780	-158.89599	10.211	330.7
2026-06-20T04:30	22.13273	-158.91100	10.250	330.7
2026-06-20T04:40	22.15756	-158.92591	10.200	330.8
2026-06-20T04:50	22.18165	-158.94046	9.912	330.6
2026-06-20T05:00	22.20577	-158.95493	9.906	330.8
2026-06-20T05:10	22.23026	-158.96971	10.073	330.7
2026-06-20T05:20	22.25476	-158.98443	10.064	330.8
2026-06-20T05:30	22.27916	-158.99910	10.026	330.8
2026-06-20T05:40	22.30355	-159.01384	10.032	330.6
2026-06-20T05:50	22.32791	-159.02848	10.007	330.8
2026-06-20T06:00	22.35226	-159.04315	10.007	330.7
2026-06-20T06:10	22.37580	-159.05899	9.960	328.0
2026-06-20T06:20	22.39399	-159.08170	9.995	310.7
2026-06-20T06:30	22.41263	-159.10505	10.259	310.6
2026-06-20T06:40	22.43130	-159.12854	10.302	310.5
2026-06-20T06:50	22.44996	-159.15224	10.352	310.3
2026-06-20T07:00	22.46827	-159.17516	10.073	310.7
2026-06-20T07:10	22.48675	-159.19847	10.210	310.5
2026-06-20T07:20	22.50486	-159.22128	9.997	310.5
2026-06-20T07:30	22.52274	-159.24382	9.872	310.5
2026-06-20T07:40	22.54080	-159.26664	9.986	310.4
2026-06-20T07:50	22.55883	-159.28925	9.925	310.6
2026-06-20T08:00	22.57676	-159.31192	9.914	310.4
2026-06-20T08:10	22.59495	-159.33485	10.045	310.5
2026-06-20T08:20	22.61341	-159.35809	10.181	310.6
2026-06-20T08:30	22.63161	-159.38117	10.079	310.4
2026-06-20T08:40	22.64973	-159.40392	9.978	310.6
2026-06-20T08:50	22.66795	-159.42699	10.081	310.4
2026-06-20T09:00	22.68622	-159.44999	10.074	310.6
2026-06-20T09:10	22.70427	-159.47271	9.951	310.6
2026-06-20T09:20	22.72225	-159.49555	9.965	310.3
2026-06-20T09:30	22.74029	-159.51831	9.959	310.5
2026-06-20T09:40	22.75828	-159.54099	9.924	310.5
2026-06-20T09:50	22.77649	-159.56394	10.045	310.6
2026-06-20T10:00	22.79450	-159.58672	9.953	310.5
2026-06-20T10:10	22.81264	-159.60973	10.042	310.4
2026-06-20T10:20	22.83084	-159.63260	10.019	310.6
2026-06-20T10:30	22.84904	-159.65565	10.065	310.4
2026-06-20T10:40	22.86733	-159.67876	10.097	310.5
2026-06-20T10:50	22.88566	-159.70198	10.135	310.4
2026-06-20T11:00	22.90365	-159.72455	9.894	310.7
2026-06-20T11:10	22.92169	-159.74750	9.997	310.3
2026-06-20T11:20	22.93979	-159.77022	9.953	310.7
2026-06-20T11:30	22.95796	-159.79338	10.082	310.3
2026-06-20T11:40	22.97618	-159.81637	10.047	310.6
2026-06-20T11:50	22.99455	-159.83961	10.146	310.5
2026-06-20T12:00	23.01303	-159.86296	10.196	310.5
2026-06-20T12:10	23.03122	-159.88597	10.044	310.5
2026-06-20T12:20	23.04963	-159.90931	10.176	310.4
2026-06-20T12:30	23.06794	-159.93251	10.120	310.5
2026-06-20T12:40	23.08638	-159.95578	10.166	310.6
2026-06-20T12:50	23.10496	-159.97939	10.281	310.4
2026-06-20T13:00	23.12361	-160.00292	10.278	310.6
2026-06-20T13:10	23.14222	-160.02655	10.291	310.4
2026-06-20T13:20	23.16065	-160.04983	10.163	310.6
2026-06-20T13:30	23.17903	-160.07315	10.159	310.4
2026-06-20T13:40	23.19740	-160.09648	10.160	310.4
2026-06-20T13:50	23.21616	-160.12012	10.326	310.6
2026-06-20T14:00	23.23485	-160.14388	10.343	310.4
2026-06-20T14:10	23.25376	-160.16777	10.421	310.6
2026-06-20T14:20	23.27259	-160.19169	10.413	310.4
2026-06-20T14:30	23.29144	-160.21553	10.398	310.6
2026-06-20T14:40	23.31012	-160.23929	10.333	310.4
2026-06-20T14:50	23.32828	-160.26228	10.021	310.5
2026-06-20T15:00	23.34634	-160.28514	9.961	310.6
2026-06-20T15:10	23.36457	-160.30830	10.074	310.4
2026-06-20T15:20	23.38303	-160.33175	10.203	310.5
2026-06-20T15:30	23.40094	-160.35441	9.878	310.6
2026-06-20T15:40	23.41887	-160.37720	9.910	310.4
2026-06-20T15:50	23.43702	-160.40029	10.035	310.4
2026-06-20T16:00	23.45515	-160.42318	9.981	310.6
2026-06-20T16:10	23.47313	-160.44613	9.962	310.4
2026-06-20T16:20	23.49126	-160.46908	9.996	310.6
2026-06-20T16:30	23.50965	-160.49251	10.174	310.4
2026-06-20T16:40	23.52832	-160.51615	10.293	310.6
2026-06-20T16:50	23.54683	-160.53960	10.206	310.6
2026-06-20T17:00	23.56530	-160.56311	10.212	310.4
2026-06-20T17:10	23.58363	-160.58647	10.139	310.4
2026-06-20T17:20	23.60194	-160.60966	10.094	310.6
2026-06-20T17:30	23.62002	-160.63269	9.997	310.4
2026-06-20T17:40	23.63819	-160.65575	10.026	310.5
2026-06-20T17:50	23.65656	-160.67908	10.140	310.5
2026-06-20T18:00	23.67504	-160.70262	10.215	310.4
2026-06-20T18:10	23.69359	-160.72617	10.235	310.5
2026-06-20T18:20	23.71152	-160.74901	9.911	310.5
2026-06-20T18:30	23.72984	-160.77232	10.122	310.5
2026-06-20T18:40	23.74801	-160.79536	10.014	310.6
2026-06-20T18:50	23.76600	-160.81831	9.952	310.4
2026-06-20T19:00	23.78410	-160.84130	9.982	310.5
2026-06-20T19:10	23.80201	-160.86412	9.899	310.5
2026-06-20T19:20	23.81970	-160.88670	9.786	310.4
2026-06-20T19:30	23.83734	-160.90910	9.726	310.6
2026-06-20T19:40	23.85488	-160.93142	9.685	310.5
2026-06-20T19:50	23.87246	-160.95385	9.722	310.4
2026-06-20T20:00	23.89006	-160.97629	9.726	310.5
2026-06-20T20:10	23.90787	-160.99896	9.832	310.5
2026-06-20T20:20	23.92574	-161.02169	9.862	310.5
2026-06-20T20:30	23.94373	-161.04462	9.935	310.5
2026-06-20T20:40	23.96187	-161.06780	10.035	310.4
2026-06-20T20:50	23.98002	-161.09072	9.972	310.8
2026-06-20T21:00	23.99807	-161.11386	10.001	310.3
2026-06-20T21:10	24.01612	-161.13695	9.988	310.4
2026-06-20T21:20	24.03396	-161.15931	9.757	311.0
2026-06-20T21:30	24.05190	-161.18248	9.980	310.1
2026-06-20T21:40	24.07025	-161.20585	10.129	310.5
2026-06-20T21:50	24.08864	-161.22944	10.187	310.3
2026-06-20T22:00	24.10734	-161.25309	10.279	310.8
2026-06-20T22:10	24.12598	-161.27703	10.333	310.3
2026-06-20T22:20	24.14485	-161.30104	10.403	310.6
2026-06-20T22:30	24.16360	-161.32502	10.370	310.4
2026-06-20T22:40	24.18234	-161.34897	10.357	310.5
2026-06-20T22:50	24.20111	-161.37294	10.366	310.5
2026-06-20T23:00	24.21987	-161.39692	10.369	310.5
2026-06-20T23:10	24.23872	-161.42090	10.387	310.6
2026-06-20T23:20	24.25752	-161.44503	10.414	310.4
2026-06-20T23:30	24.27635	-161.46902	10.381	310.6
2026-06-20T23:40	24.29498	-161.49274	10.269	310.6
2026-06-20T23:50	24.31362	-161.51666	10.321	310.4
2026-06-21T00:00	24.33215	-161.54034	10.234	310.5
2026-06-21T00:10	24.35056	-161.56375	10.137	310.6
2026-06-21T00:20	24.36845	-161.58674	9.912	310.4
2026-06-21T00:30	24.38660	-161.60991	10.015	310.5
2026-06-21T00:40	24.40457	-161.63290	9.928	310.5
2026-06-21T00:50	24.42271	-161.65608	10.014	310.5
2026-06-21T01:00	24.44074	-161.67915	9.959	310.5
2026-06-21T01:10	24.45844	-161.70174	9.762	310.6
2026-06-21T01:20	24.47656	-161.72495	10.014	310.5
2026-06-21T01:30	24.49479	-161.74830	10.072	310.5
2026-06-21T01:40	24.51285	-161.77142	9.977	310.5
2026-06-21T01:50	24.53081	-161.79435	9.908	310.6
2026-06-21T02:00	24.54645	-161.81470	8.719	310.0
2026-06-21T02:10	24.56046	-161.83249	7.700	310.7
2026-06-21T02:20	24.57549	-161.85583	9.364	305.1
2026-06-21T02:30	24.58968	-161.87986	9.383	302.9
2026-06-21T02:40	24.60479	-161.90459	9.753	303.8
2026-06-21T02:50	24.62002	-161.93001	9.963	303.2
2026-06-21T03:00	24.63522	-161.95547	9.973	303.2
2026-06-21T03:10	24.65046	-161.98086	9.958	303.3
2026-06-21T03:20	24.66550	-162.00612	9.881	303.1
2026-06-21T03:30	24.68050	-162.03130	9.849	303.1
2026-06-21T03:40	24.69575	-162.05662	9.939	303.4
2026-06-21T03:50	24.71111	-162.08233	10.065	303.2
2026-06-21T04:00	24.72645	-162.10799	10.048	303.2
2026-06-21T04:10	24.74172	-162.13359	10.016	303.2
2026-06-21T04:20	24.75705	-162.15929	10.053	303.2
2026-06-21T04:30	24.77257	-162.18517	10.141	303.3
2026-06-21T04:40	24.78829	-162.21148	10.298	303.2
2026-06-21T04:50	24.80420	-162.23826	10.461	303.1
2026-06-21T05:00	24.81958	-162.26376	10.004	303.5
2026-06-21T05:10	24.83458	-162.28908	9.880	303.0
2026-06-21T05:20	24.84960	-162.31404	9.788	303.4
2026-06-21T05:30	24.86474	-162.33942	9.923	303.2
2026-06-21T05:40	24.87996	-162.36490	9.965	303.2
2026-06-21T05:50	24.89516	-162.39032	9.944	303.2
2026-06-21T06:00	24.91048	-162.41610	10.067	303.1
2026-06-21T06:10	24.92574	-162.44155	9.962	303.3
2026-06-21T06:20	24.94110	-162.46725	10.048	303.2
2026-06-21T06:30	24.95651	-162.49321	10.132	303.1
2026-06-21T06:40	24.97198	-162.51899	10.089	303.4
2026-06-21T06:50	24.98749	-162.54506	10.181	303.1
2026-06-21T07:00	25.00293	-162.57082	10.076	303.3
2026-06-21T07:10	25.01816	-162.59641	9.991	303.1
2026-06-21T07:20	25.03347	-162.62182	9.954	303.5
2026-06-21T07:30	25.04978	-162.64514	9.609	307.5
2026-06-21T07:40	25.06287	-162.67121	9.725	298.9
2026-06-21T07:50	25.07793	-162.69661	9.903	303.1
2026-06-21T08:00	25.09298	-162.72206	9.911	303.0
2026-06-21T08:10	25.10772	-162.74661	9.605	303.4
2026-06-21T08:20	25.12229	-162.77100	9.525	303.3
2026-06-21T08:30	25.13694	-162.79566	9.615	303.1
2026-06-21T08:40	25.15188	-162.82073	9.786	303.2
2026-06-21T08:50	25.16696	-162.84597	9.856	303.3
2026-06-21T09:00	25.18195	-162.87114	9.817	303.2
2026-06-21T09:10	25.19722	-162.89684	10.020	303.1
2026-06-21T09:20	25.21223	-162.92197	9.811	303.3
2026-06-21T09:30	25.22732	-162.94741	9.907	303.1
2026-06-21T09:40	25.24259	-162.97297	9.979	303.3
2026-06-21T09:50	25.25797	-162.99877	10.062	303.2
2026-06-21T10:00	25.27369	-163.02516	10.291	303.2
2026-06-21T10:10	25.28966	-163.05188	10.427	303.3
2026-06-21T10:20	25.30571	-163.07898	10.549	303.1
2026-06-21T10:30	25.32192	-163.10615	10.596	303.3
2026-06-21T10:40	25.33801	-163.13338	10.588	303.0
2026-06-21T10:50	25.35412	-163.16033	10.516	303.4
2026-06-21T11:00	25.37014	-163.18728	10.496	303.2
2026-06-21T11:10	25.38606	-163.21395	10.400	303.3
2026-06-21T11:20	25.40208	-163.24110	10.545	303.0
2026-06-21T11:30	25.41807	-163.26806	10.492	303.1
2026-06-21T11:40	25.43424	-163.29499	10.516	303.5
2026-06-21T11:50	25.45003	-163.32165	10.367	303.1
2026-06-21T12:00	25.46564	-163.34787	10.212	303.2
2026-06-21T12:10	25.48093	-163.37355	9.999	303.3
2026-06-21T12:20	25.49614	-163.39918	9.970	303.2
2026-06-21T12:30	25.51103	-163.42445	9.806	303.0
2026-06-21T12:40	25.52604	-163.44968	9.821	303.3
2026-06-21T12:50	25.54114	-163.47498	9.855	303.3
2026-06-21T13:00	25.55641	-163.50070	10.006	303.2
2026-06-21T13:10	25.57172	-163.52646	10.020	303.2
2026-06-21T13:20	25.58716	-163.55251	10.122	303.2
2026-06-21T13:30	25.60265	-163.57868	10.166	303.1
2026-06-21T13:40	25.61820	-163.60483	10.172	303.3
2026-06-21T13:50	25.63376	-163.63101	10.180	303.2
2026-06-21T14:00	25.64930	-163.65724	10.190	303.2
2026-06-21T14:10	25.66474	-163.68322	10.099	303.3
2026-06-21T14:20	25.68004	-163.70901	10.021	303.2
2026-06-21T14:30	25.69533	-163.73486	10.035	303.1
2026-06-21T14:40	25.71087	-163.76094	10.145	303.3
2026-06-21T14:50	25.72653	-163.78741	10.272	303.2
2026-06-21T15:00	25.74277	-163.81468	10.603	303.3
2026-06-21T15:10	25.75915	-163.84233	10.733	303.2
2026-06-21T15:20	25.77513	-163.86940	10.497	303.1
2026-06-21T15:30	25.79055	-163.89531	10.068	303.3
2026-06-21T15:40	25.80601	-163.92144	10.137	303.2
2026-06-21T15:50	25.82150	-163.94740	10.096	303.4
2026-06-21T16:00	25.83688	-163.97356	10.129	303.0
2026-06-21T16:10	25.85234	-163.99965	10.124	303.2
2026-06-21T16:20	25.86774	-164.02559	10.070	303.3
2026-06-21T16:30	25.88305	-164.05153	10.050	303.1
2026-06-21T16:40	25.89846	-164.07760	10.105	303.2
2026-06-21T16:50	25.91405	-164.10376	10.166	303.4
2026-06-21T17:00	25.92956	-164.13007	10.188	303.1
2026-06-21T17:10	25.94473	-164.15570	9.934	303.2
2026-06-21T17:20	25.95955	-164.18077	9.717	303.2
2026-06-21T17:30	25.97448	-164.20591	9.752	303.3
2026-06-21T17:40	25.98923	-164.23085	9.665	303.2
2026-06-21T17:50	26.00415	-164.25614	9.789	303.1
2026-06-21T18:00	26.01959	-164.28220	10.102	303.3
2026-06-21T18:10	26.03509	-164.30842	10.155	303.2
2026-06-21T18:20	26.05053	-164.33460	10.132	303.1
2026-06-21T18:30	26.06614	-164.36094	10.208	303.3
2026-06-21T18:40	26.08185	-164.38748	10.279	303.3
2026-06-21T18:50	26.09687	-164.41286	9.830	303.2
2026-06-21T19:00	26.11168	-164.43800	9.723	303.1
2026-06-21T19:10	26.12766	-164.46505	10.469	303.2
2026-06-21T19:20	26.14373	-164.49222	10.519	303.2
2026-06-21T19:30	26.15995	-164.51973	10.637	303.2
2026-06-21T19:40	26.17577	-164.54647	10.352	303.3
2026-06-21T19:50	26.19146	-164.57298	10.262	303.3
2026-06-21T20:00	26.20707	-164.59945	10.236	303.2
2026-06-21T20:10	26.22311	-164.62660	10.500	303.2
2026-06-21T20:20	26.23952	-164.65434	10.733	303.3
2026-06-21T20:30	26.25612	-164.68238	10.853	303.3
2026-06-21T20:40	26.27258	-164.71041	10.820	303.1
2026-06-21T20:50	26.28925	-164.73867	10.920	303.2
2026-06-21T21:00	26.30576	-164.76658	10.796	303.3
2026-06-21T21:10	26.32223	-164.79443	10.772	303.3
2026-06-21T21:20	26.33864	-164.82218	10.728	303.3
2026-06-21T21:30	26.35489	-164.84994	10.699	303.0
2026-06-21T21:40	26.37128	-164.87759	10.698	303.4
2026-06-21T21:50	26.38772	-164.90553	10.783	303.1
2026-06-21T22:00	26.40451	-164.93401	10.998	303.2
2026-06-21T22:10	26.42146	-164.96286	11.127	303.1
2026-06-21T22:20	26.43851	-164.99155	11.106	303.4
2026-06-21T22:30	26.45527	-165.02025	11.046	303.0
2026-06-21T22:40	26.47219	-165.04898	11.086	303.2
2026-06-21T22:50	26.48893	-165.07723	10.921	303.4
2026-06-21T23:00	26.50569	-165.10557	10.948	303.3
2026-06-21T23:10	26.52244	-165.13401	10.969	303.2
2026-06-21T23:20	26.53882	-165.16205	10.790	303.0
2026-06-21T23:30	26.55541	-165.19027	10.879	303.2
2026-06-21T23:40	26.57222	-165.21866	10.965	303.4
2026-06-21T23:50	26.58881	-165.24683	10.864	303.2
2026-06-22T00:00	26.60524	-165.27472	10.755	303.2
2026-06-22T00:10	26.62157	-165.30265	10.743	303.1
2026-06-22T00:20	26.63788	-165.33029	10.663	303.3
2026-06-22T00:30	26.65403	-165.35770	10.566	303.3
2026-06-22T00:40	26.67009	-165.38510	10.548	303.1
2026-06-22T00:50	26.68616	-165.41252	10.551	303.1
2026-06-22T01:00	26.70243	-165.44017	10.652	303.2
2026-06-22T01:10	26.71883	-165.46804	10.737	303.2
2026-06-22T01:20	26.73531	-165.49622	10.831	303.1
2026-06-22T01:30	26.75197	-165.52443	10.880	303.3
2026-06-22T01:40	26.76863	-165.55271	10.891	303.3
2026-06-22T01:50	26.78536	-165.58099	10.908	303.4
2026-06-22T02:00	26.80206	-165.60966	11.007	303.0
2026-06-22T02:10	26.81881	-165.63820	10.976	303.2
2026-06-22T02:20	26.83544	-165.66646	10.879	303.3
2026-06-22T02:30	26.85207	-165.69452	10.824	303.4
2026-06-22T02:40	26.86835	-165.72244	10.716	303.0
2026-06-22T02:50	26.88464	-165.75012	10.653	303.3
2026-06-22T03:00	26.90086	-165.77777	10.628	303.2
2026-06-22T03:10	26.91695	-165.80523	10.551	303.2
2026-06-22T03:20	26.93301	-165.83250	10.495	303.3
2026-06-22T03:30	26.94884	-165.85968	10.424	303.0
2026-06-22T03:40	26.96476	-165.88666	10.385	303.4
2026-06-22T03:50	26.98070	-165.91388	10.451	303.2
2026-06-22T04:00	26.99689	-165.94158	10.633	303.1
2026-06-22T04:10	27.01349	-165.96986	10.864	303.2
2026-06-22T04:20	27.02992	-165.99796	10.785	303.1
2026-06-22T04:30	27.04656	-166.02609	10.828	303.4
2026-06-22T04:40	27.06305	-166.05432	10.828	303.1
2026-06-22T04:50	27.07928	-166.08204	10.641	303.2
2026-06-22T05:00	27.09583	-166.11033	10.853	303.2
2026-06-22T05:10	27.11228	-166.13840	10.775	303.2
2026-06-22T05:20	27.12840	-166.16592	10.559	303.2
2026-06-22T05:30	27.14415	-166.19285	10.325	303.2
2026-06-22T05:40	27.15968	-166.21928	10.152	303.3
2026-06-22T05:50	27.17502	-166.24556	10.071	303.1
2026-06-22T06:00	27.19046	-166.27186	10.093	303.3
2026-06-22T06:10	27.20582	-166.29813	10.071	303.2
2026-06-22T06:20	27.22146	-166.32466	10.193	303.4
2026-06-22T06:30	27.23702	-166.35138	10.227	303.1
2026-06-22T06:40	27.25253	-166.37790	10.166	303.2
2026-06-22T06:50	27.26776	-166.40398	9.989	303.2
2026-06-22T07:00	27.28229	-166.42860	9.459	303.5
2026-06-22T07:10	27.29753	-166.45514	10.114	302.7
2026-06-22T07:20	27.31298	-166.48131	10.054	303.5
2026-06-22T07:30	27.32835	-166.50749	10.038	303.3
2026-06-22T07:40	27.34373	-166.53381	10.081	303.2
2026-06-22T07:50	27.35923	-166.56029	10.144	303.2
2026-06-22T08:00	27.37464	-166.58681	10.137	303.1
2026-06-22T08:10	27.39021	-166.61341	10.187	303.3
2026-06-22T08:20	27.40560	-166.63981	10.099	303.1
2026-06-22T08:30	27.42093	-166.66612	10.059	303.1
2026-06-22T08:40	27.43629	-166.69226	10.021	303.4
2026-06-22T08:50	27.45168	-166.71864	10.089	303.2
2026-06-22T09:00	27.46724	-166.74513	10.153	303.4
2026-06-22T09:10	27.48261	-166.77173	10.144	302.9
2026-06-22T09:20	27.49843	-166.79878	10.349	303.2
2026-06-22T09:30	27.51425	-166.82576	10.332	303.4
2026-06-22T09:40	27.53028	-166.85323	10.500	303.2
2026-06-22T09:50	27.54625	-166.88063	10.473	303.2
2026-06-22T10:00	27.56197	-166.90765	10.318	303.1
2026-06-22T10:10	27.57763	-166.93442	10.240	303.3
2026-06-22T10:20	27.59332	-166.96129	10.271	303.2
2026-06-22T10:30	27.60919	-166.98834	10.353	303.4
2026-06-22T10:40	27.62497	-167.01551	10.367	303.1
2026-06-22T10:50	27.64079	-167.04273	10.388	303.1
2026-06-22T11:00	27.65657	-167.06972	10.314	303.3
2026-06-22T11:10	27.67226	-167.09665	10.282	303.2
2026-06-22T11:20	27.68779	-167.12341	10.204	303.1
2026-06-22T11:30	27.70363	-167.15043	10.333	303.4
2026-06-22T11:40	27.71915	-167.17727	10.220	303.0
2026-06-22T11:50	27.73498	-167.20424	10.316	303.4
2026-06-22T12:00	27.75080	-167.23141	10.367	303.2
2026-06-22T12:10	27.76649	-167.25824	10.249	303.3
2026-06-22T12:20	27.78196	-167.28496	10.176	303.1
2026-06-22T12:30	27.79755	-167.31180	10.230	303.1
2026-06-22T12:40	27.81319	-167.33872	10.259	303.2
2026-06-22T12:50	27.82887	-167.36553	10.237	303.3
2026-06-22T13:00	27.84451	-167.39240	10.246	303.2
2026-06-22T13:10	27.86021	-167.41941	10.292	303.2
2026-06-22T13:20	27.87584	-167.44643	10.281	303.1
2026-06-22T13:30	27.89163	-167.47343	10.305	303.3
2026-06-22T13:40	27.90719	-167.50014	10.183	303.3
2026-06-22T13:50	27.92275	-167.52685	10.180	303.3
2026-06-22T14:00	27.93820	-167.55356	10.159	303.1
2026-06-22T14:10	27.95380	-167.58048	10.243	303.1
2026-06-22T14:20	27.96950	-167.60734	10.245	303.4
2026-06-22T14:30	27.98510	-167.63423	10.233	303.2
2026-06-22T14:40	28.00082	-167.66115	10.264	303.4
2026-06-22T14:50	28.01656	-167.68835	10.339	303.1
2026-06-22T15:00	28.03239	-167.71555	10.360	303.3
2026-06-22T15:10	28.04847	-167.74318	10.520	303.3
2026-06-22T15:20	28.06459	-167.77099	10.575	303.2
2026-06-22T15:30	28.08075	-167.79885	10.595	303.2
2026-06-22T15:40	28.09687	-167.82667	10.574	303.2
2026-06-22T15:50	28.11294	-167.85431	10.517	303.3
2026-06-22T16:00	28.12896	-167.88191	10.494	303.2
2026-06-22T16:10	28.14507	-167.90968	10.558	303.2
2026-06-22T16:20	28.16131	-167.93766	10.637	303.2
2026-06-22T16:30	28.17785	-167.96613	10.826	303.2
2026-06-22T16:40	28.19424	-167.99440	10.740	303.2
2026-06-22T16:50	28.21052	-168.02246	10.665	303.2
2026-06-22T17:00	28.22685	-168.05062	10.696	303.2
2026-06-22T17:10	28.24307	-168.07848	10.598	303.3
2026-06-22T17:20	28.25915	-168.10640	10.583	303.1
2026-06-22T17:30	28.27543	-168.13435	10.630	303.3
2026-06-22T17:40	28.29157	-168.16223	10.580	303.2
2026-06-22T17:50	28.30775	-168.19025	10.627	303.1
2026-06-22T18:00	28.32400	-168.21811	10.596	303.4
2026-06-22T18:10	28.33896	-168.24382	9.772	303.3
2026-06-22T18:20	28.35321	-168.26912	9.519	302.5
2026-06-22T18:30	28.36516	-168.29402	8.993	298.5
2026-06-22T18:40	28.37714	-168.31890	8.992	298.6
2026-06-22T18:50	28.38911	-168.34387	9.012	298.5
2026-06-22T19:00	28.40110	-168.36890	9.034	298.4
2026-06-22T19:10	28.41436	-168.39669	10.019	298.4
2026-06-22T19:20	28.42770	-168.42460	10.067	298.4
2026-06-22T19:30	28.44179	-168.45393	10.589	298.5
2026-06-22T19:40	28.45578	-168.48330	10.583	298.3
2026-06-22T19:50	28.46964	-168.51228	10.449	298.4
2026-06-22T20:00	28.48191	-168.53801	9.272	298.4
2026-06-22T20:10	28.49355	-168.56215	8.718	298.6
2026-06-22T20:20	28.49969	-168.56480	2.359	339.1
2026-06-22T20:30	28.49964	-168.56487	0.031	229.9
2026-06-22T20:40	28.49995	-168.56481	0.113	10.8
2026-06-22T20:50	28.49983	-168.56479	0.043	171.9
2026-06-22T21:00	28.49986	-168.56481	0.013	318.5
2026-06-22T21:10	28.49972	-168.56483	0.051	184.6
2026-06-22T21:20	28.49976	-168.56482	0.016	3.4
2026-06-22T21:30	28.49971	-168.56483	0.017	183.2
2026-06-22T21:40	28.49990	-168.56485	0.067	352.3
2026-06-22T21:50	28.49974	-168.56483	0.057	173.7
2026-06-22T22:00	28.49973	-168.56482	0.007	125.6
2026-06-22T22:10	28.49977	-168.56477	0.021	40.8
2026-06-22T22:20	28.49981	-168.56475	0.016	25.4
2026-06-22T22:30	28.49979	-168.56483	0.027	249.1
2026-06-22T22:40	28.49989	-168.56480	0.038	15.0
2026-06-22T22:50	28.49989	-168.56486	0.019	274.3
2026-06-22T23:00	28.50680	-168.56564	2.492	354.3
2026-06-22T23:10	28.51701	-168.59046	8.678	295.0
2026-06-22T23:20	28.52702	-168.61476	8.497	295.0
2026-06-22T23:30	28.53797	-168.64158	9.366	294.8
2026-06-22T23:40	28.55000	-168.67048	10.124	295.2
2026-06-22T23:50	28.56197	-168.69947	10.137	295.1
2026-06-23T00:00	28.57395	-168.72862	10.189	295.0
2026-06-23T00:10	28.58639	-168.75714	10.078	296.3
2026-06-23T00:20	28.59861	-168.78547	9.987	296.1
2026-06-23T00:30	28.61083	-168.81381	9.988	296.0
2026-06-23T00:40	28.62293	-168.84229	10.011	295.7
2026-06-23T00:50	28.63568	-168.87032	9.984	297.3
2026-06-23T01:00	28.64879	-168.89808	9.969	298.2
2026-06-23T01:10	28.66190	-168.92623	10.077	297.9
2026-06-23T01:20	28.67507	-168.95426	10.052	298.0
2026-06-23T01:30	28.68831	-168.98252	10.128	298.0
2026-06-23T01:40	28.70171	-169.01095	10.198	298.1
2026-06-23T01:50	28.71511	-169.03975	10.303	297.8
2026-06-23T02:00	28.72875	-169.06871	10.386	298.1
2026-06-23T02:10	28.74242	-169.09802	10.491	297.9
2026-06-23T02:20	28.75620	-169.12730	10.497	298.1
2026-06-23T02:30	28.77003	-169.15687	10.585	297.9
2026-06-23T02:40	28.78399	-169.18663	10.662	298.0
2026-06-23T02:50	28.79806	-169.21660	10.734	298.1
2026-06-23T03:00	28.81212	-169.24678	10.793	297.9
2026-06-23T03:10	28.82622	-169.27667	10.718	298.2
2026-06-23T03:20	28.84034	-169.30688	10.809	298.0
2026-06-23T03:30	28.85436	-169.33686	10.724	298.0
2026-06-23T03:40	28.86849	-169.36698	10.785	298.1
2026-06-23T03:50	28.88273	-169.39730	10.855	298.1
2026-06-23T04:00	28.89675	-169.42746	10.772	297.8
2026-06-23T04:10	28.91080	-169.45727	10.680	298.2
2026-06-23T04:20	28.92450	-169.48678	10.535	297.8
2026-06-23T04:30	28.93810	-169.51577	10.371	298.1
2026-06-23T04:40	28.95158	-169.54454	10.291	298.1
2026-06-23T04:50	28.96500	-169.57321	10.249	298.0
2026-06-23T05:00	28.97842	-169.60185	10.243	298.1
2026-06-23T05:10	28.99174	-169.63041	10.202	298.0
2026-06-23T05:20	29.00523	-169.65932	10.326	298.0
2026-06-23T05:30	29.01891	-169.68858	10.458	298.0
2026-06-23T05:40	29.03257	-169.71773	10.417	298.1
2026-06-23T05:50	29.04630	-169.74702	10.471	298.1
2026-06-23T06:00	29.05996	-169.77622	10.432	298.0
2026-06-23T06:10	29.07350	-169.80519	10.346	298.0
2026-06-23T06:20	29.08688	-169.83389	10.243	298.0
2026-06-23T06:30	29.10045	-169.86291	10.362	298.0
2026-06-23T06:40	29.11400	-169.89201	10.381	297.9
2026-06-23T06:50	29.12753	-169.92085	10.303	298.1
2026-06-23T07:00	29.14108	-169.94983	10.346	298.0
2026-06-23T07:10	29.15455	-169.97868	10.297	298.0
2026-06-23T07:20	29.16804	-170.00756	10.305	298.0
2026-06-23T07:30	29.18135	-170.03617	10.199	297.9
2026-06-23T07:40	29.19443	-170.06429	10.024	297.9
2026-06-23T07:50	29.20752	-170.09236	10.010	298.0
2026-06-23T08:00	29.22067	-170.12041	10.011	298.1
2026-06-23T08:10	29.23380	-170.14857	10.042	298.0
2026-06-23T08:20	29.24703	-170.17699	10.128	298.0
2026-06-23T08:30	29.26042	-170.20559	10.204	298.1
2026-06-23T08:40	29.27384	-170.23452	10.299	297.9
2026-06-23T08:50	29.28735	-170.26337	10.293	298.1
2026-06-23T09:00	29.30091	-170.29251	10.378	298.0
2026-06-23T09:10	29.31078	-170.32343	10.353	290.0
2026-06-23T09:20	29.31643	-170.35687	10.710	280.9
2026-06-23T09:30	29.32196	-170.39022	10.676	280.7
2026-06-23T09:40	29.32744	-170.42306	10.514	280.8
2026-06-23T09:50	29.33295	-170.45593	10.525	280.9
2026-06-23T10:00	29.33845	-170.48875	10.509	280.8
2026-06-23T10:10	29.34381	-170.52132	10.422	280.6
2026-06-23T10:20	29.34929	-170.55391	10.435	280.9
2026-06-23T10:30	29.35475	-170.58661	10.467	280.8
2026-06-23T10:40	29.36021	-170.61950	10.526	280.7
2026-06-23T10:50	29.36579	-170.65261	10.598	280.9
2026-06-23T11:00	29.37124	-170.68538	10.489	280.8
2026-06-23T11:10	29.37672	-170.71806	10.459	280.9
2026-06-23T11:20	29.38210	-170.75080	10.470	280.6
2026-06-23T11:30	29.38763	-170.78372	10.538	280.9
2026-06-23T11:40	29.39315	-170.81681	10.589	280.8
2026-06-23T11:50	29.39872	-170.85008	10.646	280.8
2026-06-23T12:00	29.40426	-170.88330	10.627	280.8
2026-06-23T12:10	29.40985	-170.91674	10.698	280.8
2026-06-23T12:20	29.41545	-170.95049	10.797	280.7
2026-06-23T12:30	29.42102	-170.98415	10.764	280.7
2026-06-23T12:40	29.42667	-171.01785	10.781	280.8
2026-06-23T12:50	29.43224	-171.05113	10.645	280.8
2026-06-23T13:00	29.43769	-171.08382	10.454	280.8
2026-06-23T13:10	29.44310	-171.11628	10.380	280.8
2026-06-23T13:20	29.44855	-171.14888	10.429	280.8
2026-06-23T13:30	29.45386	-171.18112	10.304	280.7
2026-06-23T13:40	29.45924	-171.21312	10.237	280.9
2026-06-23T13:50	29.46459	-171.24527	10.278	280.8
2026-06-23T14:00	29.46997	-171.27741	10.277	280.8
2026-06-23T14:10	29.47531	-171.30989	10.379	280.6
2026-06-23T14:20	29.48079	-171.34229	10.363	281.0
2026-06-23T14:30	29.48614	-171.37450	10.296	280.8
2026-06-23T14:40	29.49150	-171.40659	10.258	280.8
2026-06-23T14:50	29.49680	-171.43841	10.170	280.8
2026-06-23T15:00	29.50206	-171.47002	10.104	280.8
2026-06-23T15:10	29.50733	-171.50176	10.142	280.7
2026-06-23T15:20	29.51262	-171.53347	10.134	280.8
2026-06-23T15:30	29.51793	-171.56529	10.172	280.8
2026-06-23T15:40	29.52315	-171.59667	10.024	280.8
2026-06-23T15:50	29.52836	-171.62788	9.976	280.8
2026-06-23T16:00	29.53349	-171.65868	9.841	280.8
2026-06-23T16:10	29.53856	-171.68897	9.678	280.9
2026-06-23T16:20	29.54360	-171.71924	9.671	280.8
2026-06-23T16:30	29.54865	-171.74977	9.753	280.7
2026-06-23T16:40	29.55370	-171.78022	9.723	280.7
2026-06-23T16:50	29.55881	-171.81076	9.758	280.8
2026-06-23T17:00	29.56391	-171.84120	9.726	280.9
2026-06-23T17:10	29.56890	-171.87110	9.550	280.8
2026-06-23T17:20	29.57401	-171.90189	9.836	280.8
2026-06-23T17:30	29.57912	-171.93284	9.879	280.7
2026-06-23T17:40	29.58432	-171.96386	9.910	280.9
2026-06-23T17:50	29.58942	-171.99484	9.889	280.7
2026-06-23T18:00	29.59459	-172.02576	9.875	280.8
2026-06-23T18:10	29.59976	-172.05678	9.907	280.8
2026-06-23T18:20	29.60498	-172.08784	9.920	280.9
2026-06-23T18:30	29.61025	-172.11938	10.072	280.8
2026-06-23T18:40	29.61538	-172.15100	10.087	280.5
2026-06-23T18:50	29.62048	-172.18058	9.456	281.2
2026-06-23T19:00	29.62386	-172.19984	6.160	281.4
2026-06-23T19:10	29.62716	-172.21874	6.045	281.3
2026-06-23T19:20	29.63224	-172.22945	3.822	298.5
2026-06-23T19:30	29.62900	-172.20931	6.421	100.4
2026-06-23T19:40	29.62237	-172.17839	9.985	103.8
2026-06-23T19:50	29.61781	-172.15924	6.226	105.2
2026-06-23T20:00	29.61698	-172.15483	1.416	102.2
2026-06-23T20:10	29.61705	-172.15496	0.051	302.6
2026-06-23T20:20	29.61702	-172.15495	0.013	157.7
2026-06-23T20:30	29.61691	-172.15490	0.041	158.2
2026-06-23T20:40	29.61694	-172.15492	0.013	317.8
2026-06-23T20:50	29.61697	-172.15485	0.026	62.6
2026-06-23T21:00	29.61701	-172.15500	0.050	287.8
2026-06-23T21:10	29.61699	-172.15494	0.022	111.7
2026-06-23T21:20	29.61744	-172.15784	0.924	280.0
2026-06-23T21:30	29.61773	-172.15972	0.600	280.0
2026-06-23T21:40	29.61780	-172.15979	0.032	318.4
2026-06-23T21:50	29.61772	-172.15972	0.037	141.7
2026-06-23T22:00	29.61767	-172.15977	0.023	229.4
2026-06-23T22:10	29.61764	-172.15923	0.170	93.8
2026-06-23T22:20	29.61755	-172.15879	0.141	103.4
2026-06-23T22:30	29.61757	-172.15803	0.239	88.2
2026-06-23T22:40	29.61756	-172.15774	0.091	92.3
2026-06-23T22:50	29.61744	-172.15693	0.257	100.0
2026-06-23T23:00	29.61737	-172.15682	0.043	122.1
2026-06-23T23:10	29.61733	-172.15618	0.201	94.4
2026-06-23T23:20	29.61727	-172.15624	0.028	219.7
2026-06-23T23:30	29.61722	-172.15621	0.020	159.2
2026-06-23T23:40	29.61727	-172.15622	0.020	354.6
2026-06-23T23:50	29.61741	-172.15620	0.048	7.1
2026-06-24T00:00	29.61730	-172.15624	0.041	197.2
2026-06-24T00:10	29.61723	-172.15622	0.025	169.1
2026-06-24T00:20	29.61726	-172.15621	0.012	14.8
2026-06-24T00:30	29.61733	-172.15621	0.023	4.7
2026-06-24T00:40	29.61686	-172.15536	0.314	122.5
2026-06-24T00:50	29.61577	-172.16822	4.051	264.5
2026-06-24T01:00	29.62019	-172.17480	2.602	307.6
2026-06-24T01:10	29.62003	-172.17476	0.059	166.9
2026-06-24T01:20	29.61995	-172.17480	0.032	208.3
2026-06-24T01:30	29.62005	-172.17481	0.033	356.1
2026-06-24T01:40	29.62004	-172.17493	0.038	265.1
2026-06-24T01:50	29.62006	-172.17477	0.051	79.5
2026-06-24T02:00	29.61997	-172.17483	0.040	209.6
2026-06-24T02:10	29.62005	-172.17486	0.033	346.1
2026-06-24T02:20	29.62136	-172.17760	0.981	298.6
2026-06-24T02:30	29.62262	-172.18033	0.969	297.9
2026-06-24T02:40	29.62263	-172.18047	0.043	272.9
2026-06-24T02:50	29.62269	-172.18041	0.028	41.1
2026-06-24T03:00	29.62259	-172.18040	0.036	171.9
2026-06-24T03:10	29.62257	-172.18043	0.014	243.5
2026-06-24T03:20	29.62267	-172.18038	0.038	27.5
2026-06-24T03:30	29.62270	-172.18038	0.011	351.7
2026-06-24T03:40	29.62266	-172.18038	0.014	171.1
2026-06-24T03:50	29.62269	-172.18041	0.015	313.3
2026-06-24T04:00	29.62260	-172.18031	0.044	135.8
2026-06-24T04:10	29.62261	-172.18035	0.012	287.2
2026-06-24T04:20	29.62259	-172.18040	0.017	248.0
2026-06-24T04:30	29.62246	-172.18031	0.057	148.7
2026-06-24T04:40	29.63309	-172.18831	4.567	326.7
2026-06-24T04:50	29.65267	-172.20605	8.964	321.6
2026-06-24T05:00	29.67503	-172.22484	9.955	323.7
2026-06-24T05:10	29.69745	-172.24373	9.989	323.6
2026-06-24T05:20	29.71986	-172.26275	10.011	323.5
2026-06-24T05:30	29.74219	-172.28163	9.961	323.6
2026-06-24T05:40	29.76495	-172.30081	10.139	323.7
2026-06-24T05:50	29.78768	-172.32011	10.154	323.5
2026-06-24T06:00	29.81005	-172.33908	9.986	323.5
2026-06-24T06:10	29.83249	-172.35812	10.022	323.5
2026-06-24T06:20	29.85501	-172.37711	10.031	323.7
2026-06-24T06:30	29.87746	-172.39615	10.020	323.5
2026-06-24T06:40	29.89977	-172.41507	9.957	323.5
2026-06-24T06:50	29.92215	-172.43404	9.988	323.6
2026-06-24T07:00	29.94484	-172.45321	10.110	323.6
2026-06-24T07:10	29.96743	-172.47268	10.140	323.1
2026-06-24T07:20	29.99281	-172.48587	9.996	335.7
2026-06-24T07:30	30.01847	-172.49967	10.172	334.9
2026-06-24T07:40	30.04424	-172.51340	10.193	335.1
2026-06-24T07:50	30.06995	-172.52719	10.183	335.0
2026-06-24T08:00	30.09617	-172.53698	9.897	342.0
2026-06-24T08:10	30.12440	-172.53703	10.133	359.9
2026-06-24T08:20	30.14906	-172.53685	8.850	0.3
2026-06-24T08:30	30.15630	-172.52841	3.701	45.4
2026-06-24T08:40	30.14899	-172.51930	3.869	132.7
2026-06-24T08:50	30.12722	-172.52002	7.817	181.7
2026-06-24T09:00	30.09848	-172.51736	10.352	175.4
2026-06-24T09:10	30.08772	-172.51036	4.436	150.5
2026-06-24T09:20	30.08847	-172.50712	1.046	75.2
2026-06-24T09:30	30.08855	-172.50716	0.030	337.0
2026-06-24T09:40	30.08848	-172.50718	0.026	196.8
2026-06-24T09:50	30.08851	-172.50714	0.017	47.2
2026-06-24T10:00	30.08857	-172.50721	0.030	315.8
2026-06-24T10:10	30.08846	-172.50720	0.040	177.3
2026-06-24T10:20	30.08852	-172.50725	0.026	326.9
2026-06-24T10:30	30.08846	-172.50918	0.602	267.8
2026-06-24T10:40	30.08835	-172.51232	0.981	267.8
2026-06-24T10:50	30.08841	-172.51235	0.023	335.1
2026-06-24T11:00	30.08842	-172.51238	0.011	294.0
2026-06-24T11:10	30.08830	-172.51240	0.044	187.4
2026-06-24T11:20	30.08832	-172.51235	0.015	64.8
2026-06-24T11:30	30.08841	-172.51234	0.035	6.7
2026-06-24T11:40	30.08829	-172.51235	0.046	182.3
2026-06-24T11:50	30.08829	-172.51237	0.008	285.4
2026-06-24T12:00	30.08839	-172.51240	0.037	347.9
2026-06-24T12:10	30.08832	-172.51239	0.028	173.6
2026-06-24T12:20	30.08829	-172.51240	0.008	206.4
2026-06-24T12:30	30.08835	-172.51237	0.020	22.3
2026-06-24T12:40	30.08865	-172.51221	0.120	25.6
2026-06-24T12:50	30.09979	-172.52776	6.290	309.5
2026-06-24T13:00	30.11406	-172.55565	10.100	300.5
2026-06-24T13:10	30.12882	-172.58338	10.145	301.5
2026-06-24T13:20	30.14439	-172.61085	10.231	303.1
2026-06-24T13:30	30.15991	-172.63840	10.242	303.0
2026-06-24T13:40	30.17568	-172.66613	10.338	303.2
2026-06-24T13:50	30.19137	-172.69384	10.314	303.1
2026-06-24T14:00	30.20682	-172.72122	10.182	303.0
2026-06-24T14:10	30.22320	-172.74768	10.128	305.5
2026-06-24T14:20	30.24502	-172.76806	10.083	320.9
2026-06-24T14:30	30.27083	-172.78294	10.363	333.4
2026-06-24T14:40	30.29739	-172.79736	10.539	334.8
2026-06-24T14:50	30.32443	-172.81211	10.738	334.7
2026-06-24T15:00	30.35115	-172.82678	10.622	334.5
2026-06-24T15:10	30.37747	-172.84131	10.476	334.4
2026-06-24T15:20	30.40382	-172.85564	10.456	334.8
2026-06-24T15:30	30.42985	-172.86994	10.351	334.5
2026-06-24T15:40	30.45625	-172.88447	10.498	334.5
2026-06-24T15:50	30.48308	-172.89921	10.666	334.6
2026-06-24T16:00	30.50985	-172.91383	10.631	334.7
2026-06-24T16:10	30.53659	-172.92853	10.627	334.6
2026-06-24T16:20	30.56342	-172.94334	10.674	334.5
2026-06-24T16:30	30.59014	-172.95794	10.609	334.7
2026-06-24T16:40	30.61678	-172.97260	10.591	334.6
2026-06-24T16:50	30.64324	-172.98710	10.513	334.6
2026-06-24T17:00	30.67012	-172.99946	10.383	338.3
2026-06-24T17:10	30.69311	-172.99035	8.723	18.9
2026-06-24T17:20	30.69320	-172.95895	9.744	89.8
2026-06-24T17:30	30.67226	-172.94078	9.395	143.1
2026-06-24T17:40	30.64664	-172.92701	10.142	155.1
2026-06-24T17:50	30.62100	-172.91324	10.148	155.1
2026-06-24T18:00	30.59612	-172.89980	9.859	154.9
2026-06-24T18:10	30.57345	-172.88887	8.819	157.4
2026-06-24T18:20	30.54784	-172.89827	9.644	197.6
2026-06-24T18:30	30.52104	-172.90645	9.951	194.8
2026-06-24T18:40	30.50147	-172.91042	7.134	189.9
2026-06-24T18:50	30.49836	-172.90454	2.142	121.4
2026-06-24T19:00	30.49794	-172.90446	0.151	170.8
2026-06-24T19:10	30.49799	-172.90444	0.019	16.7
2026-06-24T19:20	30.49793	-172.90451	0.030	219.6
2026-06-24T19:30	30.49791	-172.90450	0.005	165.1
2026-06-24T19:40	30.49789	-172.90443	0.025	111.0
2026-06-24T19:50	30.49791	-172.90451	0.028	288.8
2026-06-24T20:00	30.49789	-172.90443	0.026	111.8
2026-06-24T20:10	30.49793	-172.90450	0.026	307.8
2026-06-24T20:20	30.49841	-172.90453	0.172	356.7
2026-06-24T20:30	30.50109	-172.90541	1.000	344.1
2026-06-24T20:40	30.50315	-172.90613	0.771	343.3
2026-06-24T20:50	30.50322	-172.90617	0.030	329.8
2026-06-24T21:00	30.50324	-172.90607	0.033	79.2
2026-06-24T21:10	30.50321	-172.90614	0.023	248.4
2026-06-24T21:20	30.50310	-172.90608	0.043	154.3
2026-06-24T21:30	30.50314	-172.90606	0.013	29.2
2026-06-24T21:40	30.50315	-172.90612	0.019	282.1
2026-06-24T21:50	30.50321	-172.90608	0.025	28.0
2026-06-24T22:00	30.50318	-172.90611	0.014	219.9
2026-06-24T22:10	30.50319	-172.90612	0.006	328.3
2026-06-24T22:20	30.50310	-172.90609	0.035	166.3
2026-06-24T22:30	30.50321	-172.90611	0.040	352.9
2026-06-24T22:40	30.50321	-172.90614	0.010	263.8
2026-06-24T22:50	30.50322	-172.90616	0.008	302.2
2026-06-24T23:00	30.50333	-172.90619	0.042	346.8
2026-06-24T23:10	30.50900	-172.90650	2.039	357.3
2026-06-24T23:20	30.53777	-172.91804	10.932	340.9
2026-06-24T23:30	30.56575	-172.93084	10.803	338.4
2026-06-24T23:40	30.59333	-172.94348	10.647	338.4
2026-06-24T23:50	30.61831	-172.95466	9.617	338.8
2026-06-25T00:00	30.61865	-172.95205	0.820	81.5
2026-06-25T00:10	30.61891	-172.95195	0.098	18.1
2026-06-25T00:20	30.61892	-172.95192	0.010	77.8
2026-06-25T00:30	30.61893	-172.95244	0.164	271.6
2026-06-25T00:40	30.61907	-172.95563	0.990	272.9
2026-06-25T00:50	30.61909	-172.95576	0.040	280.3
2026-06-25T01:00	30.61899	-172.95576	0.033	184.2
2026-06-25T01:10	30.61909	-172.95579	0.036	346.1
2026-06-25T01:20	30.61907	-172.95550	0.090	94.6
2026-06-25T01:30	30.61904	-172.95491	0.184	93.9
2026-06-25T01:40	30.61905	-172.95496	0.016	287.9
2026-06-25T01:50	30.61908	-172.95493	0.015	49.8
2026-06-25T02:00	30.61895	-172.95501	0.052	211.5
2026-06-25T02:10	30.61910	-172.95499	0.053	7.7
2026-06-25T02:20	30.61905	-172.95506	0.029	232.6
2026-06-25T02:30	30.62297	-172.95305	1.540	24.0
2026-06-25T02:40	30.64086	-172.97649	9.705	311.4
2026-06-25T02:50	30.66109	-173.00199	10.742	312.5
2026-06-25T03:00	30.68263	-173.02626	10.793	315.8
2026-06-25T03:10	30.70386	-173.05044	10.695	315.5
2026-06-25T03:20	30.72515	-173.07476	10.737	315.4
2026-06-25T03:30	30.74649	-173.09911	10.756	315.4
2026-06-25T03:40	30.76765	-173.12323	10.660	315.5
2026-06-25T03:50	30.78895	-173.14750	10.726	315.5
2026-06-25T04:00	30.81000	-173.17150	10.601	315.4
2026-06-25T04:10	30.83101	-173.19564	10.624	315.2
2026-06-25T04:20	30.85143	-173.22064	10.662	313.4
2026-06-25T04:30	30.86983	-173.24785	10.707	308.1
2026-06-25T04:40	30.88845	-173.27552	10.867	307.9
2026-06-25T04:50	30.90718	-173.30327	10.910	308.1
2026-06-25T05:00	30.92591	-173.33111	10.929	308.0
2026-06-25T05:10	30.94452	-173.35870	10.841	308.1
2026-06-25T05:20	30.96337	-173.38660	10.968	308.1
2026-06-25T05:30	30.98209	-173.41456	10.953	307.9
2026-06-25T05:40	31.00099	-173.44255	10.998	308.1
2026-06-25T05:50	31.01923	-173.47080	10.918	306.9
2026-06-25T06:00	31.03654	-173.49957	10.850	305.0
2026-06-25T06:10	31.05391	-173.52848	10.898	304.9
2026-06-25T06:20	31.07144	-173.55758	10.975	305.0
2026-06-25T06:30	31.08858	-173.58597	10.716	305.1
2026-06-25T06:40	31.10553	-173.61421	10.636	304.9
2026-06-25T06:50	31.12268	-173.64246	10.680	305.2
2026-06-25T07:00	31.12697	-173.67266	9.453	279.4
2026-06-25T07:10	31.10211	-173.67981	9.194	193.9
2026-06-25T07:20	31.08601	-173.67994	5.779	180.4
2026-06-25T07:30	31.09342	-173.68625	3.301	323.8
2026-06-25T07:40	31.11832	-173.67297	9.834	24.7
2026-06-25T07:50	31.13846	-173.66085	8.141	27.4
2026-06-25T08:00	31.14161	-173.65548	2.008	55.7
2026-06-25T08:10	31.14148	-173.65496	0.167	106.5
2026-06-25T08:20	31.14153	-173.65493	0.022	26.2
2026-06-25T08:30	31.14154	-173.65493	0.002	304.9
2026-06-25T08:40	31.14154	-173.65493	0.001	0.0
2026-06-25T08:50	31.14154	-173.65502	0.027	270.8
2026-06-25T09:00	31.14183	-173.65822	0.995	275.9
2026-06-25T09:10	31.14197	-173.65963	0.438	276.7
2026-06-25T09:20	31.14191	-173.65956	0.031	136.7
2026-06-25T09:30	31.14190	-173.65960	0.010	249.4
2026-06-25T09:40	31.14189	-173.65964	0.013	263.5
2026-06-25T09:50	31.14194	-173.65966	0.020	337.1
2026-06-25T10:00	31.14202	-173.65960	0.034	31.9
2026-06-25T10:10	31.14200	-173.65963	0.011	227.9
2026-06-25T10:20	31.14193	-173.65959	0.030	157.5
2026-06-25T10:30	31.14201	-173.65966	0.036	323.8
2026-06-25T10:40	31.14208	-173.65920	0.146	79.6
2026-06-25T10:50	31.14665	-173.67355	4.725	290.3
2026-06-25T11:00	31.16512	-173.69686	9.787	312.6
2026-06-25T11:10	31.18407	-173.72043	9.961	313.1
2026-06-25T11:20	31.20365	-173.74462	10.253	313.3
2026-06-25T11:30	31.22552	-173.76776	10.613	317.7
2026-06-25T11:40	31.24774	-173.79050	10.623	318.7
2026-06-25T11:50	31.27069	-173.81155	10.491	321.8
2026-06-25T12:00	31.29308	-173.83200	10.214	321.9
2026-06-25T12:10	31.31528	-173.85224	10.122	321.9
2026-06-25T12:20	31.33749	-173.87251	10.131	321.9
2026-06-25T12:30	31.35968	-173.89277	10.121	321.9
2026-06-25T12:40	31.38169	-173.91285	10.034	322.0
2026-06-25T12:50	31.40378	-173.93315	10.101	321.8
2026-06-25T13:00	31.42615	-173.95353	10.190	322.0
2026-06-25T13:10	31.44883	-173.97425	10.343	321.9
2026-06-25T13:20	31.47186	-173.99533	10.509	321.9
2026-06-25T13:30	31.49493	-174.01638	10.516	322.0
2026-06-25T13:40	31.51801	-174.03753	10.533	321.9
2026-06-25T13:50	31.54123	-174.05878	10.594	321.9
2026-06-25T14:00	31.56447	-174.08007	10.605	321.9
2026-06-25T14:10	31.58778	-174.10147	10.643	321.8
2026-06-25T14:20	31.61108	-174.12261	10.591	322.2
2026-06-25T14:30	31.63446	-174.14416	10.691	321.8
2026-06-25T14:40	31.65782	-174.16552	10.649	322.0
2026-06-25T14:50	31.68105	-174.18668	10.573	322.1
2026-06-25T15:00	31.70430	-174.20820	10.644	321.6
2026-06-25T15:10	31.72780	-174.22970	10.712	322.0
2026-06-25T15:20	31.75115	-174.25121	10.669	321.8
2026-06-25T15:30	31.77637	-174.26403	9.871	336.5
2026-06-25T15:40	31.78336	-174.23716	8.616	73.0
2026-06-25T15:50	31.78265	-174.20394	10.192	91.4
2026-06-25T16:00	31.76552	-174.18001	9.573	130.0
2026-06-25T16:10	31.74851	-174.15624	9.513	129.9
2026-06-25T16:20	31.72928	-174.13385	9.743	135.1
2026-06-25T16:30	31.70809	-174.11302	9.935	139.9
2026-06-25T16:40	31.68698	-174.09231	9.893	140.0
2026-06-25T16:50	31.66419	-174.07559	9.658	147.9
2026-06-25T17:00	31.63676	-174.07320	9.878	175.7
2026-06-25T17:10	31.60926	-174.07308	9.874	179.8
2026-06-25T17:20	31.59925	-174.06687	4.070	152.0
2026-06-25T17:30	31.59907	-174.06679	0.069	161.5
2026-06-25T17:40	31.59912	-174.06674	0.024	38.9
2026-06-25T17:50	31.59910	-174.06676	0.009	211.4
2026-06-25T18:00	31.59907	-174.06677	0.009	195.3
2026-06-25T18:10	31.59912	-174.06681	0.019	321.5
2026-06-25T18:20	31.59962	-174.06650	0.205	27.0
2026-06-25T18:30	31.60219	-174.06521	1.004	23.3
2026-06-25T18:40	31.60400	-174.06430	0.705	23.2
2026-06-25T18:50	31.60402	-174.06425	0.020	61.5
2026-06-25T19:00	31.60405	-174.06428	0.012	313.8
2026-06-25T19:10	31.60403	-174.06432	0.014	247.3
2026-06-25T19:20	31.60404	-174.06429	0.008	64.0
2026-06-25T19:30	31.60405	-174.06433	0.011	279.5
2026-06-25T19:40	31.60396	-174.06437	0.032	203.2
2026-06-25T19:50	31.60401	-174.06427	0.035	64.5
2026-06-25T20:00	31.60397	-174.06437	0.035	249.1
2026-06-25T20:10	31.60394	-174.06433	0.017	133.9
2026-06-25T20:20	31.60403	-174.06428	0.036	25.9
2026-06-25T20:30	31.60395	-174.06437	0.040	221.9
2026-06-25T20:40	31.61054	-174.06291	2.408	10.7
2026-06-25T20:50	31.63756	-174.07304	10.191	342.2
2026-06-25T21:00	31.66463	-174.08300	10.186	342.5
2026-06-25T21:10	31.69186	-174.09279	10.231	342.9
2026-06-25T21:20	31.71848	-174.10227	9.990	343.1
2026-06-25T21:30	31.74439	-174.11167	9.738	342.8
2026-06-25T21:40	31.77048	-174.12101	9.797	343.0
2026-06-25T21:50	31.79679	-174.13047	9.882	342.9
2026-06-25T22:00	31.82308	-174.13978	9.860	343.2
2026-06-25T22:10	31.84925	-174.14921	9.832	342.9
2026-06-25T22:20	31.87517	-174.15849	9.729	343.0
2026-06-25T22:30	31.90117	-174.16784	9.765	342.9
2026-06-25T22:40	31.92776	-174.17734	9.980	343.1
2026-06-25T22:50	31.95441	-174.18686	10.003	343.1
2026-06-25T23:00	31.98116	-174.19690	10.087	342.3
2026-06-25T23:10	32.00803	-174.20719	10.146	341.9
2026-06-25T23:20	32.03483	-174.21734	10.110	342.1
2026-06-25T23:30	32.06138	-174.22747	10.024	342.0
2026-06-25T23:40	32.08716	-174.23949	9.961	338.4
2026-06-25T23:50	32.10336	-174.24352	5.946	348.0
2026-06-26T00:00	32.10329	-174.24176	0.541	92.7
2026-06-26T00:10	32.10350	-174.24217	0.146	300.1
2026-06-26T00:20	32.10347	-174.24220	0.013	230.3
2026-06-26T00:30	32.10348	-174.24214	0.020	81.9
2026-06-26T00:40	32.10357	-174.24219	0.035	333.9
2026-06-26T00:50	32.10346	-174.24223	0.041	200.7
2026-06-26T01:00	32.10356	-174.24220	0.038	15.8
2026-06-26T01:10	32.10429	-174.24336	0.440	306.4
2026-06-26T01:20	32.10564	-174.24526	0.758	309.9
2026-06-26T01:30	32.10563	-174.24524	0.009	110.7
2026-06-26T01:40	32.10567	-174.24525	0.012	342.3
2026-06-26T01:50	32.10558	-174.24526	0.033	187.0
2026-06-26T02:00	32.10559	-174.24522	0.014	63.3
2026-06-26T02:10	32.10563	-174.24523	0.012	348.7
2026-06-26T02:20	32.10566	-174.24530	0.025	299.4
2026-06-26T02:30	32.10560	-174.24529	0.022	171.3
2026-06-26T02:40	32.10557	-174.24519	0.031	113.6
2026-06-26T02:50	32.10560	-174.24527	0.026	298.4
2026-06-26T03:00	32.10556	-174.24523	0.020	139.6
2026-06-26T03:10	32.10560	-174.24525	0.015	336.9
2026-06-26T03:20	32.11397	-174.25090	3.468	330.1
2026-06-26T03:30	32.13384	-174.26980	9.178	321.0
2026-06-26T03:40	32.15571	-174.28863	9.736	323.8
2026-06-26T03:50	32.17831	-174.30772	9.991	324.3
2026-06-26T04:00	32.20106	-174.32723	10.110	323.9
2026-06-26T04:10	32.22483	-174.34751	10.544	324.1
2026-06-26T04:20	32.24812	-174.36741	10.334	324.0
2026-06-26T04:30	32.27137	-174.38753	10.362	323.7
2026-06-26T04:40	32.29411	-174.40689	10.077	324.1
2026-06-26T04:50	32.31677	-174.42631	10.062	324.0
2026-06-26T05:00	32.33935	-174.44588	10.070	323.7
2026-06-26T05:10	32.36200	-174.46519	10.038	324.1
2026-06-26T05:20	32.38470	-174.48467	10.083	323.9
2026-06-26T05:30	32.40744	-174.50429	10.117	323.8
2026-06-26T05:40	32.43023	-174.52383	10.120	324.0
2026-06-26T05:50	32.45282	-174.54323	10.033	323.9
2026-06-26T06:00	32.47562	-174.56283	10.132	323.9
2026-06-26T06:10	32.49892	-174.58165	10.138	325.6
2026-06-26T06:20	32.52114	-174.60091	9.901	323.7
2026-06-26T06:30	32.53967	-174.61806	8.455	321.9
2026-06-26T06:40	32.56097	-174.63787	9.736	321.8
2026-06-26T06:50	32.58299	-174.65681	9.782	323.9
2026-06-26T07:00	32.60544	-174.67483	9.746	325.8
2026-06-26T07:10	32.62791	-174.69377	9.912	324.5
2026-06-26T07:20	32.65024	-174.71311	9.940	323.8
2026-06-26T07:30	32.67295	-174.73281	10.114	323.7
2026-06-26T07:40	32.69525	-174.75198	9.902	324.0
2026-06-26T07:50	32.71735	-174.77103	9.820	323.9
2026-06-26T08:00	32.73442	-174.78557	7.555	324.2
2026-06-26T08:10	32.75578	-174.80416	9.520	323.7
2026-06-26T08:20	32.77838	-174.82360	10.032	324.0
2026-06-26T08:30	32.80121	-174.84340	10.162	323.8
2026-06-26T08:40	32.82429	-174.86329	10.252	324.0
2026-06-26T08:50	32.84719	-174.88304	10.169	323.9
2026-06-26T09:00	32.87016	-174.90283	10.201	324.0
2026-06-26T09:10	32.89352	-174.92299	10.375	323.9
2026-06-26T09:20	32.91701	-174.94340	10.458	323.8
2026-06-26T09:30	32.94016	-174.96337	10.281	324.0
2026-06-26T09:40	32.96314	-174.98323	10.211	323.9
2026-06-26T09:50	32.98554	-175.00260	9.954	323.9
2026-06-26T10:00	33.00797	-175.02200	9.967	323.9
2026-06-26T10:10	33.03040	-175.04139	9.965	323.9
2026-06-26T10:20	33.05267	-175.06075	9.912	323.8
2026-06-26T10:30	33.07526	-175.08026	10.030	324.0
2026-06-26T10:40	33.09762	-175.09962	9.936	323.9
2026-06-26T10:50	33.11997	-175.11891	9.920	324.0
2026-06-26T11:00	33.14234	-175.13827	9.939	323.9
2026-06-26T11:10	33.16493	-175.15786	10.042	323.9
2026-06-26T11:20	33.18756	-175.17746	10.053	323.9
2026-06-26T11:30	33.20984	-175.19694	9.931	323.7
2026-06-26T11:40	33.23246	-175.21643	10.030	324.1
2026-06-26T11:50	33.25507	-175.23608	10.053	323.9
2026-06-26T12:00	33.27771	-175.25576	10.068	323.9
2026-06-26T12:10	33.30020	-175.27529	9.995	323.9
2026-06-26T12:20	33.32280	-175.29493	10.050	323.9
2026-06-26T12:30	33.34551	-175.31455	10.074	324.1
2026-06-26T12:40	33.36783	-175.33389	9.911	324.0
2026-06-26T12:50	33.39037	-175.35350	10.020	323.9
2026-06-26T13:00	33.41294	-175.37316	10.039	323.9
2026-06-26T13:10	33.43556	-175.39282	10.051	323.9
2026-06-26T13:20	33.45795	-175.41236	9.963	323.8
2026-06-26T13:30	33.48073	-175.43202	10.100	324.1
2026-06-26T13:40	33.50324	-175.45172	10.023	323.8
2026-06-26T13:50	33.52580	-175.47122	10.004	324.1
2026-06-26T14:00	33.54843	-175.49100	10.072	323.8
2026-06-26T14:10	33.57116	-175.51080	10.102	323.9
2026-06-26T14:20	33.59341	-175.53015	9.884	323.9
2026-06-26T14:30	33.61571	-175.54965	9.925	323.8
2026-06-26T14:40	33.63821	-175.56918	9.986	324.0
2026-06-26T14:50	33.66083	-175.58896	10.065	323.8
2026-06-26T15:00	33.68348	-175.60865	10.058	324.0
2026-06-26T15:10	33.70574	-175.62801	9.882	324.0
2026-06-26T15:20	33.72813	-175.64750	9.943	324.0
2026-06-26T15:30	33.75125	-175.66540	9.891	327.1
2026-06-26T15:40	33.73895	-175.65164	6.047	136.9
2026-06-26T15:50	33.71099	-175.64973	10.061	176.7
2026-06-26T16:00	33.68509	-175.64807	9.314	176.9
2026-06-26T16:10	33.65991	-175.64647	9.055	176.9
2026-06-26T16:20	33.63492	-175.64440	8.998	176.0
2026-06-26T16:30	33.62324	-175.63930	4.467	159.9
2026-06-26T16:40	33.62281	-175.63951	0.167	202.9
2026-06-26T16:50	33.62279	-175.63937	0.043	97.7
2026-06-26T17:00	33.62280	-175.63938	0.004	326.9
2026-06-26T17:10	33.62281	-175.63939	0.004	313.7
2026-06-26T17:20	33.62280	-175.63939	0.004	209.2
2026-06-26T17:30	33.62280	-175.63939	0.001	0.0
2026-06-26T17:40	33.62282	-175.63951	0.036	278.1
2026-06-26T17:50	33.62283	-175.63950	0.006	39.9
2026-06-26T18:00	33.62373	-175.63944	0.323	3.3
2026-06-26T18:10	33.62650	-175.63945	0.996	359.8
2026-06-26T18:20	33.62911	-175.63947	0.938	359.7
2026-06-26T18:30	33.62912	-175.63954	0.022	272.9
2026-06-26T18:40	33.62909	-175.63949	0.019	124.1
2026-06-26T18:50	33.62910	-175.63950	0.007	330.1
2026-06-26T19:00	33.62917	-175.63948	0.026	12.1
2026-06-26T19:10	33.62907	-175.63944	0.038	161.2
2026-06-26T19:20	33.62911	-175.63944	0.012	357.2
2026-06-26T19:30	33.62910	-175.63947	0.011	262.2
2026-06-26T19:40	33.62910	-175.63949	0.006	255.1
2026-06-26T19:50	33.62911	-175.63941	0.025	79.1
2026-06-26T20:00	33.62908	-175.63944	0.014	221.8
2026-06-26T20:10	33.62909	-175.63951	0.020	275.2
2026-06-26T20:20	33.62907	-175.63944	0.020	108.2
2026-06-26T20:30	33.62909	-175.63946	0.009	321.5
2026-06-26T20:40	33.62910	-175.63942	0.013	80.3
2026-06-26T20:50	33.62908	-175.63942	0.005	160.3
2026-06-26T21:00	33.62911	-175.63950	0.026	293.4
2026-06-26T21:10	33.62917	-175.63948	0.022	14.1
2026-06-26T21:20	33.62916	-175.63952	0.013	249.2
2026-06-26T21:30	33.62905	-175.63949	0.041	166.3
2026-06-26T21:40	33.62906	-175.63945	0.013	64.4
2026-06-26T21:50	33.62915	-175.63951	0.037	331.3
2026-06-26T22:00	33.62915	-175.63948	0.007	104.6
2026-06-26T22:10	33.62911	-175.63953	0.021	225.7
2026-06-26T22:20	33.62754	-175.64032	0.612	202.9
2026-06-26T22:30	33.62277	-175.64301	1.893	205.2
2026-06-26T22:40	33.62278	-175.64299	0.008	65.9
2026-06-26T22:50	33.62286	-175.64305	0.035	326.4
2026-06-26T23:00	33.62287	-175.64312	0.022	281.4
2026-06-26T23:10	33.62290	-175.64301	0.035	72.7
2026-06-26T23:20	33.62286	-175.64311	0.034	241.5
2026-06-26T23:30	33.62289	-175.64302	0.028	68.0
2026-06-26T23:40	33.62290	-175.64305	0.009	296.0
2026-06-26T23:50	33.62285	-175.64305	0.017	183.1
2026-06-27T00:00	33.62415	-175.64292	0.469	4.7
2026-06-27T00:10	33.62693	-175.64275	0.999	3.1
2026-06-27T00:20	33.62810	-175.64272	0.418	0.9
2026-06-27T00:30	33.62808	-175.64276	0.013	249.7
2026-06-27T00:40	33.62805	-175.64271	0.022	123.3
2026-06-27T00:50	33.62809	-175.64273	0.018	331.7
2026-06-27T01:00	33.62813	-175.64275	0.014	333.4
2026-06-27T01:10	33.62814	-175.64275	0.003	15.6
2026-06-27T01:20	33.62812	-175.64270	0.018	108.5
2026-06-27T01:30	33.62810	-175.64275	0.018	249.3
2026-06-27T01:40	33.62804	-175.64268	0.032	139.2
2026-06-27T01:50	33.62807	-175.64263	0.019	52.3
2026-06-27T02:00	33.62814	-175.64270	0.032	320.5
2026-06-27T02:10	33.62812	-175.64271	0.006	204.0
2026-06-27T02:20	33.62811	-175.64275	0.012	246.2
2026-06-27T02:30	33.62809	-175.64273	0.007	145.4
2026-06-27T02:40	33.63399	-175.65621	4.571	297.6
2026-06-27T02:50	33.64312	-175.66476	4.165	321.9
2026-06-27T03:00	33.64226	-175.66575	0.429	223.7
2026-06-27T03:10	33.64224	-175.66569	0.019	111.7
2026-06-27T03:20	33.64226	-175.66566	0.010	54.0
2026-06-27T03:30	33.64228	-175.66571	0.017	295.6
2026-06-27T03:40	33.64232	-175.66575	0.019	321.5
2026-06-27T03:50	33.64232	-175.66577	0.006	281.3
2026-06-27T04:00	33.64229	-175.66572	0.019	128.0
2026-06-27T04:10	33.64234	-175.66578	0.025	315.4
2026-06-27T04:20	33.64377	-175.66579	0.512	359.6
2026-06-27T04:30	33.64657	-175.66571	1.006	1.5
2026-06-27T04:40	33.64684	-175.66567	0.100	6.2
2026-06-27T04:50	33.64681	-175.66568	0.013	189.0
2026-06-27T05:00	33.64683	-175.66576	0.026	288.0
2026-06-27T05:10	33.64684	-175.66563	0.039	84.2
2026-06-27T05:20	33.64681	-175.66573	0.030	251.4
2026-06-27T05:30	33.64685	-175.66575	0.015	328.9
2026-06-27T05:40	33.64686	-175.66577	0.007	300.9
2026-06-27T05:50	33.64684	-175.66567	0.032	101.2
2026-06-27T06:00	33.64688	-175.66574	0.026	307.3
2026-06-27T06:10	33.64684	-175.66560	0.043	110.8
2026-06-27T06:20	33.64681	-175.66564	0.016	228.1
2026-06-27T06:30	33.64675	-175.66592	0.087	255.6
2026-06-27T06:40	33.65666	-175.66713	3.578	354.2
2026-06-27T06:50	33.67214	-175.67947	6.680	326.3
2026-06-27T07:00	33.68061	-175.71173	10.154	287.5
2026-06-27T07:10	33.68872	-175.74383	10.070	286.8
2026-06-27T07:20	33.69672	-175.77561	9.962	286.8
2026-06-27T07:30	33.70478	-175.80764	10.041	286.8
2026-06-27T07:40	33.71284	-175.83965	10.036	286.8
2026-06-27T07:50	33.72094	-175.87197	10.128	286.7
2026-06-27T08:00	33.72919	-175.90494	10.329	286.7
2026-06-27T08:10	33.73734	-175.93755	10.212	286.7
2026-06-27T08:20	33.74559	-175.97026	10.253	286.8
2026-06-27T08:30	33.75382	-176.00293	10.239	286.8
2026-06-27T08:40	33.76196	-176.03523	10.120	286.8
2026-06-27T08:50	33.76998	-176.06692	9.934	286.9
2026-06-27T09:00	33.77720	-176.09914	10.005	285.0
2026-06-27T09:10	33.78082	-176.13222	10.004	277.5
2026-06-27T09:20	33.78419	-176.16503	9.913	277.0
2026-06-27T09:30	33.78771	-176.19762	9.856	277.4
2026-06-27T09:40	33.79121	-176.23068	9.993	277.2
2026-06-27T09:50	33.79480	-176.26473	10.291	277.2
2026-06-27T10:00	33.79842	-176.29851	10.213	277.3
2026-06-27T10:10	33.80195	-176.33226	10.199	277.1
2026-06-27T10:20	33.80563	-176.36622	10.267	277.4
2026-06-27T10:30	33.80905	-176.39993	10.181	276.9
2026-06-27T10:40	33.81266	-176.43364	10.190	277.3
2026-06-27T10:50	33.81607	-176.46528	9.563	277.4
2026-06-27T11:00	33.81943	-176.49720	9.645	277.2
2026-06-27T11:10	33.83602	-176.51871	8.782	312.8
2026-06-27T11:20	33.86013	-176.53426	9.831	331.7
2026-06-27T11:30	33.88412	-176.54981	9.797	331.6
2026-06-27T11:40	33.90764	-176.56492	9.581	331.8
2026-06-27T11:50	33.93098	-176.57979	9.493	332.0
2026-06-27T12:00	33.95506	-176.59543	9.833	331.6
2026-06-27T12:10	33.97990	-176.61134	10.115	331.9
2026-06-27T12:20	34.00496	-176.62751	10.218	331.8
2026-06-27T12:30	34.02996	-176.64361	10.187	331.8
2026-06-27T12:40	34.05380	-176.65869	9.681	332.2
2026-06-27T12:50	34.06396	-176.68828	9.568	292.4
2026-06-27T13:00	34.06912	-176.72036	9.767	280.9
2026-06-27T13:10	34.06920	-176.75494	10.336	270.2
2026-06-27T13:20	34.06925	-176.78848	10.023	270.1
2026-06-27T13:30	34.06911	-176.82171	9.934	269.7
2026-06-27T13:40	34.06251	-176.84796	8.197	253.2
2026-06-27T13:50	34.05974	-176.81832	8.915	96.4
2026-06-27T14:00	34.05976	-176.78559	9.785	90.0
2026-06-27T14:10	34.05913	-176.76712	5.527	92.3
2026-06-27T14:20	34.05912	-176.76698	0.043	97.2
2026-06-27T14:30	34.05909	-176.76696	0.013	151.8
2026-06-27T14:40	34.05913	-176.76689	0.026	53.2
2026-06-27T14:50	34.05913	-176.76697	0.025	270.8
2026-06-27T15:00	34.05914	-176.76693	0.013	72.9
2026-06-27T15:10	34.05910	-176.76692	0.014	166.4
2026-06-27T15:20	34.05904	-176.76691	0.022	179.2
2026-06-27T15:30	34.06048	-176.76547	0.672	39.9
2026-06-27T15:40	34.06261	-176.76335	0.994	39.6
2026-06-27T15:50	34.06395	-176.76205	0.621	39.0
2026-06-27T16:00	34.06397	-176.76200	0.016	70.2
2026-06-27T16:10	34.06395	-176.76196	0.012	118.1
2026-06-27T16:20	34.06396	-176.76196	0.002	7.9
2026-06-27T16:30	34.06402	-176.76198	0.022	343.5
2026-06-27T16:40	34.06402	-176.76199	0.004	294.8
2026-06-27T16:50	34.06399	-176.76200	0.011	195.5
2026-06-27T17:00	34.06399	-176.76210	0.028	272.2
2026-06-27T17:10	34.06402	-176.76208	0.012	29.9
2026-06-27T17:20	34.06396	-176.76204	0.025	152.7
2026-06-27T17:30	34.06404	-176.76206	0.029	346.4
2026-06-27T17:40	34.06403	-176.76197	0.029	95.7
2026-06-27T17:50	34.06724	-176.75983	1.319	29.0
2026-06-27T18:00	34.07167	-176.78909	8.891	280.3
2026-06-27T18:10	34.07636	-176.82151	9.833	279.9
2026-06-27T18:20	34.08035	-176.84832	8.141	280.1
2026-06-27T18:30	34.08485	-176.87858	9.187	280.1
2026-06-27T18:40	34.08951	-176.91083	9.781	279.9
2026-06-27T18:50	34.09433	-176.94346	9.901	280.1
2026-06-27T19:00	34.09909	-176.97584	9.828	280.0
2026-06-27T19:10	34.10390	-177.00856	9.927	280.0
2026-06-27T19:20	34.10879	-177.04193	10.123	280.0
2026-06-27T19:30	34.10466	-177.07370	9.607	261.1
2026-06-27T19:40	34.09006	-177.10299	10.202	239.1
2026-06-27T19:50	34.07546	-177.13226	10.200	239.1
2026-06-27T20:00	34.06099	-177.16116	10.079	239.0
2026-06-27T20:10	34.04668	-177.18991	10.016	239.1
2026-06-27T20:20	34.03228	-177.21812	9.896	238.5
2026-06-27T20:30	34.01687	-177.24472	9.691	235.2
2026-06-27T20:40	34.01112	-177.26266	5.749	248.9
2026-06-27T20:50	34.01437	-177.25895	1.614	43.5
2026-06-27T21:00	34.01425	-177.25994	0.302	261.6
2026-06-27T21:10	34.01417	-177.26080	0.258	263.7
2026-06-27T21:20	34.01416	-177.26080	0.006	177.0
2026-06-27T21:30	34.01420	-177.26087	0.026	306.0
2026-06-27T21:40	34.01419	-177.26085	0.007	105.3
2026-06-27T21:50	34.01413	-177.26087	0.022	193.3
2026-06-27T22:00	34.01412	-177.26086	0.006	161.6
2026-06-27T22:10	34.01417	-177.26081	0.024	44.3
2026-06-27T22:20	34.01416	-177.26086	0.015	260.6
2026-06-27T22:30	34.01532	-177.26107	0.421	351.3
2026-06-27T22:40	34.01786	-177.26155	0.924	351.1
2026-06-27T22:50	34.01786	-177.26149	0.018	87.8
2026-06-27T23:00	34.01790	-177.26148	0.013	5.4
2026-06-27T23:10	34.01787	-177.26150	0.010	209.0
2026-06-27T23:20	34.01784	-177.26154	0.016	223.1
2026-06-27T23:30	34.01789	-177.26157	0.022	333.4
2026-06-27T23:40	34.01788	-177.26148	0.025	98.2
2026-06-27T23:50	34.01787	-177.26149	0.006	201.2
2026-06-28T00:00	34.01787	-177.26153	0.011	264.3
2026-06-28T00:10	34.01789	-177.26138	0.045	78.8
2026-06-28T00:20	34.01819	-177.26122	0.119	24.0
2026-06-28T00:30	34.01890	-177.26218	0.384	311.7
2026-06-28T00:40	34.01792	-177.26154	0.400	151.6
2026-06-28T00:50	34.01909	-177.26206	0.448	339.6
2026-06-28T01:00	34.03087	-177.28703	8.582	299.5
2026-06-28T01:10	34.04482	-177.31680	10.213	299.4
2026-06-28T01:20	34.05910	-177.34608	10.146	300.4
2026-06-28T01:30	34.07378	-177.37594	10.367	300.6
2026-06-28T01:40	34.08850	-177.40609	10.446	300.4
2026-06-28T01:50	34.08944	-177.44090	10.409	271.9
2026-06-28T02:00	34.09529	-177.46697	8.067	285.1
2026-06-28T02:10	34.09602	-177.46670	0.273	17.1
2026-06-28T02:20	34.09603	-177.46680	0.029	276.4
2026-06-28T02:30	34.09604	-177.46679	0.005	22.6
2026-06-28T02:40	34.09610	-177.46681	0.022	342.0
2026-06-28T02:50	34.09607	-177.46681	0.012	184.5
2026-06-28T03:00	34.09610	-177.46679	0.014	34.9
2026-06-28T03:10	34.09607	-177.46672	0.022	116.2
2026-06-28T03:20	34.09605	-177.46675	0.011	236.6
2026-06-28T03:30	34.09622	-177.46679	0.062	351.1
2026-06-28T03:40	34.09871	-177.46819	0.986	334.8
2026-06-28T03:50	34.10009	-177.46906	0.558	332.4
2026-06-28T04:00	34.10016	-177.46900	0.033	33.4
2026-06-28T04:10	34.10016	-177.46892	0.023	97.1
2026-06-28T04:20	34.10008	-177.46896	0.029	203.7
2026-06-28T04:30	34.10014	-177.46903	0.029	312.8
2026-06-28T04:40	34.10015	-177.46902	0.006	8.3
2026-06-28T04:50	34.10015	-177.46904	0.005	240.7
2026-06-28T05:00	34.10009	-177.46901	0.022	154.9
2026-06-28T05:10	34.10015	-177.46903	0.021	338.2
2026-06-28T05:20	34.10012	-177.46903	0.011	170.2
2026-06-28T05:30	34.10013	-177.46904	0.005	334.1
2026-06-28T05:40	34.10015	-177.46898	0.019	66.8
2026-06-28T05:50	34.10010	-177.46897	0.018	171.5
2026-06-28T06:00	34.09911	-177.46740	0.588	127.1
2026-06-28T06:10	34.09081	-177.48322	5.590	237.8
2026-06-28T06:20	34.09372	-177.48699	1.535	312.8
2026-06-28T06:30	34.09351	-177.48723	0.103	224.9
2026-06-28T06:40	34.09354	-177.48735	0.036	286.4
2026-06-28T06:50	34.09348	-177.48732	0.024	159.4
2026-06-28T07:00	34.09345	-177.48728	0.015	131.5
2026-06-28T07:10	34.09346	-177.48725	0.011	77.2
2026-06-28T07:20	34.09350	-177.48732	0.028	302.9
2026-06-28T07:30	34.09355	-177.48735	0.018	339.1
2026-06-28T07:40	34.09351	-177.48728	0.024	128.3
2026-06-28T07:50	34.09497	-177.48808	0.578	335.7
2026-06-28T08:00	34.09635	-177.48889	0.549	333.9
2026-06-28T08:10	34.09633	-177.48880	0.025	104.0
2026-06-28T08:20	34.09634	-177.48885	0.014	288.1
2026-06-28T08:30	34.09636	-177.48878	0.020	77.5
2026-06-28T08:40	34.09634	-177.48892	0.042	264.6
2026-06-28T08:50	34.09640	-177.48881	0.040	61.2
2026-06-28T09:00	34.09634	-177.48878	0.023	158.8
2026-06-28T09:10	34.09641	-177.48888	0.040	308.0
2026-06-28T09:20	34.09639	-177.48886	0.009	129.3
2026-06-28T09:30	34.09637	-177.48890	0.015	237.8
2026-06-28T09:40	34.09635	-177.48890	0.007	157.4
2026-06-28T09:50	34.09638	-177.48887	0.014	34.9
2026-06-28T10:00	34.09818	-177.48887	0.647	359.9
2026-06-28T10:10	34.10616	-177.51388	8.001	291.0
2026-06-28T10:20	34.11392	-177.54616	10.039	286.1
2026-06-28T10:30	34.12187	-177.57914	10.258	286.2
2026-06-28T10:40	34.12998	-177.61129	10.034	286.9
2026-06-28T10:50	34.13861	-177.64203	9.690	288.7
2026-06-28T11:00	34.14776	-177.67393	10.080	289.1
2026-06-28T11:10	34.15616	-177.70589	10.007	287.6
2026-06-28T11:20	34.16408	-177.73739	9.827	286.8
2026-06-28T11:30	34.17221	-177.76922	9.941	287.1
2026-06-28T11:40	34.18046	-177.80086	9.900	287.4
2026-06-28T11:50	34.18792	-177.83192	9.650	286.1
2026-06-28T12:00	34.19428	-177.83632	2.637	330.1
2026-06-28T12:10	34.19248	-177.83801	0.820	217.8
2026-06-28T12:20	34.19161	-177.83855	0.352	207.4
2026-06-28T12:30	34.19158	-177.83852	0.015	145.6
2026-06-28T12:40	34.19165	-177.83852	0.027	359.4
2026-06-28T12:50	34.19162	-177.83859	0.022	245.3
2026-06-28T13:00	34.19395	-177.83805	0.852	10.9
2026-06-28T13:10	34.19640	-177.83756	0.893	9.5
2026-06-28T13:20	34.19641	-177.83762	0.020	271.0
2026-06-28T13:30	34.19637	-177.83750	0.038	109.3
2026-06-28T13:40	34.19642	-177.83762	0.040	298.8
2026-06-28T13:50	34.19644	-177.83751	0.033	78.7
2026-06-28T14:00	34.19646	-177.83758	0.021	288.6
2026-06-28T14:10	34.19643	-177.83760	0.011	203.3
2026-06-28T14:20	34.19640	-177.83749	0.036	111.3
2026-06-28T14:30	34.19641	-177.83757	0.026	278.1
2026-06-28T14:40	34.19752	-177.83743	0.400	6.2
2026-06-28T14:50	34.18340	-177.84760	5.910	210.9
2026-06-28T15:00	34.15611	-177.85972	10.448	200.3
2026-06-28T15:10	34.12858	-177.87181	10.528	200.1
2026-06-28T15:20	34.10142	-177.88361	10.372	199.9
2026-06-28T15:30	34.09382	-177.90832	7.871	249.7
2026-06-28T15:40	34.09923	-177.94144	10.084	281.1
2026-06-28T15:50	34.10471	-177.97525	10.291	281.0
2026-06-28T16:00	34.11050	-178.00925	10.369	281.6
2026-06-28T16:10	34.11636	-178.04402	10.600	281.5
2026-06-28T16:20	34.12209	-178.07823	10.425	281.4
2026-06-28T16:30	34.12786	-178.11223	10.366	281.6
2026-06-28T16:40	34.13344	-178.14588	10.248	281.3
2026-06-28T16:50	34.13927	-178.17995	10.388	281.6
2026-06-28T17:00	34.14496	-178.21405	10.386	281.4
2026-06-28T17:10	34.15066	-178.24784	10.296	281.5
2026-06-28T17:20	34.15649	-178.28192	10.390	281.6
2026-06-28T17:30	34.16211	-178.31564	10.270	281.4
2026-06-28T17:40	34.16791	-178.34972	10.385	281.6
2026-06-28T17:50	34.17372	-178.38433	10.541	281.4
2026-06-28T18:00	34.17942	-178.41876	10.481	281.3
2026-06-28T18:10	34.18541	-178.45366	10.635	281.7
2026-06-28T18:20	34.19128	-178.48921	10.821	281.3
2026-06-28T18:30	34.19719	-178.52441	10.717	281.4
2026-06-28T18:40	34.20322	-178.55984	10.794	281.6
2026-06-28T18:50	34.20931	-178.59570	10.922	281.6
2026-06-28T19:00	34.21537	-178.63214	11.089	281.3
2026-06-28T19:10	34.22150	-178.66863	11.108	281.4
2026-06-28T19:20	34.22765	-178.70497	11.065	281.5
2026-06-28T19:30	34.23370	-178.74061	10.851	281.6
2026-06-28T19:40	34.23956	-178.77573	10.687	281.4
2026-06-28T19:50	34.24543	-178.81065	10.628	281.5
2026-06-28T20:00	34.25136	-178.84572	10.673	281.5
2026-06-28T20:10	34.25714	-178.88040	10.549	281.4
2026-06-28T20:20	34.26314	-178.91562	10.724	281.6
2026-06-28T20:30	34.26904	-178.95103	10.768	281.4
2026-06-28T20:40	34.27486	-178.98607	10.657	281.3
2026-06-28T20:50	34.28084	-179.02105	10.648	281.6
2026-06-28T21:00	34.28668	-179.05581	10.573	281.5
2026-06-28T21:10	34.28810	-179.09071	10.418	272.8
2026-06-28T21:20	34.28798	-179.12579	10.459	269.8
2026-06-28T21:30	34.28282	-179.16098	10.654	260.0
2026-06-28T21:40	34.28083	-179.19687	10.723	266.2
2026-06-28T21:50	34.28077	-179.23280	10.713	269.9
2026-06-28T22:00	34.28083	-179.26821	10.559	270.1
2026-06-28T22:10	34.28079	-179.30323	10.440	269.9
2026-06-28T22:20	34.28810	-179.32449	6.860	292.5
2026-06-28T22:30	34.28646	-179.30168	6.825	94.9
2026-06-28T22:40	34.28818	-179.28072	6.281	84.4
2026-06-28T22:50	34.28790	-179.28085	0.106	201.6
2026-06-28T23:00	34.28689	-179.28149	0.409	207.9
2026-06-28T23:10	34.28621	-179.28126	0.254	164.1
2026-06-28T23:20	34.28625	-179.28124	0.015	25.2
2026-06-28T23:30	34.28627	-179.28121	0.011	43.2
2026-06-28T23:40	34.28622	-179.28122	0.021	189.1
2026-06-28T23:50	34.28621	-179.28125	0.010	255.2
2026-06-29T00:00	34.28628	-179.28124	0.026	11.9
2026-06-29T00:10	34.28671	-179.28135	0.159	347.4
2026-06-29T00:20	34.28945	-179.28180	0.995	352.2
2026-06-29T00:30	34.29221	-179.28225	0.999	352.4
2026-06-29T00:40	34.29297	-179.28237	0.276	352.4
2026-06-29T00:50	34.29292	-179.28235	0.021	168.5
2026-06-29T01:00	34.29287	-179.28232	0.020	145.0
2026-06-29T01:10	34.29284	-179.28235	0.015	228.7
2026-06-29T01:20	34.29293	-179.28230	0.034	29.9
2026-06-29T01:30	34.29296	-179.28236	0.023	298.8
2026-06-29T01:40	34.29259	-179.28226	0.135	166.4
2026-06-29T01:50	34.29205	-179.28218	0.198	173.5
2026-06-29T02:00	34.29190	-179.28214	0.052	166.4
2026-06-29T02:10	34.29186	-179.28214	0.014	176.4
2026-06-29T02:20	34.29187	-179.28219	0.016	280.3
2026-06-29T02:30	34.29192	-179.28210	0.032	58.9
2026-06-29T02:40	34.29188	-179.28211	0.014	194.3
2026-06-29T02:50	34.29198	-179.28209	0.036	9.1
2026-06-29T03:00	34.29194	-179.28205	0.018	136.0
2026-06-29T03:10	34.29187	-179.28212	0.031	218.8
2026-06-29T03:20	34.29192	-179.28211	0.019	10.6
2026-06-29T03:30	34.29187	-179.28206	0.023	140.9
2026-06-29T03:40	34.29262	-179.27964	0.769	69.7
2026-06-29T03:50	34.31300	-179.26896	7.985	23.5
2026-06-29T04:00	34.33679	-179.25401	9.634	27.5
2026-06-29T04:10	34.33746	-179.24754	1.944	82.8
2026-06-29T04:20	34.33739	-179.24753	0.026	176.7
2026-06-29T04:30	34.33746	-179.24756	0.025	342.2
2026-06-29T04:40	34.33749	-179.24749	0.024	56.4
2026-06-29T04:50	34.33753	-179.24751	0.012	338.1
2026-06-29T05:00	34.33755	-179.24753	0.011	315.4
2026-06-29T05:10	34.33760	-179.24753	0.018	0.0
2026-06-29T05:20	34.33750	-179.24754	0.034	183.0
2026-06-29T05:30	34.33778	-179.24770	0.110	334.3
2026-06-29T05:40	34.34041	-179.24880	1.002	340.9
2026-06-29T05:50	34.34233	-179.24958	0.725	341.2
2026-06-29T06:00	34.34242	-179.24956	0.036	13.9
2026-06-29T06:10	34.34242	-179.24958	0.007	249.8
2026-06-29T06:20	34.34241	-179.24957	0.003	102.4
2026-06-29T06:30	34.34234	-179.24957	0.025	180.7
2026-06-29T06:40	34.34234	-179.24957	0.001	270.0
2026-06-29T06:50	34.34242	-179.24955	0.029	11.4
2026-06-29T07:00	34.34238	-179.24957	0.015	199.4
2026-06-29T07:10	34.34234	-179.24957	0.014	181.2
2026-06-29T07:20	34.34235	-179.24959	0.006	308.0
2026-06-29T07:30	34.34241	-179.24961	0.020	338.3
2026-06-29T07:40	34.34238	-179.24956	0.018	125.5
2026-06-29T07:50	34.34235	-179.24957	0.010	191.7
2026-06-29T08:00	34.35020	-179.25469	3.206	331.6
2026-06-29T08:10	34.36921	-179.28023	10.224	311.9
2026-06-29T08:20	34.37893	-179.29978	6.789	300.9
2026-06-29T08:30	34.37501	-179.29590	1.821	140.6
2026-06-29T08:40	34.37500	-179.29542	0.143	92.6
2026-06-29T08:50	34.37506	-179.29538	0.025	28.5
2026-06-29T09:00	34.37503	-179.29537	0.011	166.5
2026-06-29T09:10	34.37501	-179.29544	0.022	252.1
2026-06-29T09:20	34.37496	-179.29548	0.020	209.7
2026-06-29T09:30	34.37502	-179.29544	0.025	29.5
2026-06-29T09:40	34.37587	-179.29526	0.309	9.9
2026-06-29T09:50	34.37797	-179.29484	0.765	9.3
2026-06-29T10:00	34.37798	-179.29481	0.012	62.7
2026-06-29T10:10	34.37794	-179.29483	0.017	206.6
2026-06-29T10:20	34.37793	-179.29486	0.010	239.8
2026-06-29T10:30	34.37794	-179.29490	0.012	293.0
2026-06-29T10:40	34.37792	-179.29488	0.007	136.5
2026-06-29T10:50	34.37796	-179.29489	0.013	350.8
2026-06-29T11:00	34.37798	-179.29486	0.010	44.9
2026-06-29T11:10	34.37791	-179.29482	0.031	151.6
2026-06-29T11:20	34.37802	-179.29485	0.041	344.1
2026-06-29T11:30	34.37795	-179.29481	0.027	154.6
2026-06-29T11:40	34.37792	-179.29485	0.013	222.7
2026-06-29T11:50	34.36901	-179.29639	3.234	188.2
2026-06-29T12:00	34.37339	-179.32800	9.546	279.5
2026-06-29T12:10	34.37816	-179.36109	10.002	279.9
2026-06-29T12:20	34.38309	-179.39435	10.062	280.1
2026-06-29T12:30	34.38799	-179.42779	10.113	280.0
2026-06-29T12:40	34.39268	-179.46057	9.903	279.8
2026-06-29T12:50	34.39756	-179.49381	10.051	280.1
2026-06-29T13:00	34.40259	-179.52800	10.339	280.1
2026-06-29T13:10	34.40769	-179.56229	10.373	280.2
2026-06-29T13:20	34.41611	-179.58152	6.473	297.9
2026-06-29T13:30	34.42446	-179.55815	7.575	66.7
2026-06-29T13:40	34.43347	-179.52970	9.064	69.1
2026-06-29T13:50	34.44422	-179.50004	9.636	66.3
2026-06-29T14:00	34.44028	-179.49908	1.446	168.6
2026-06-29T14:10	34.44121	-179.50014	0.460	316.5
2026-06-29T14:20	34.44164	-179.49796	0.668	76.5
2026-06-29T14:30	34.44183	-179.49688	0.329	78.0
2026-06-29T14:40	34.44181	-179.49686	0.010	145.4
2026-06-29T14:50	34.44194	-179.49678	0.054	24.4
2026-06-29T15:00	34.43999	-179.49590	0.747	159.5
2026-06-29T15:10	34.43738	-179.49473	1.001	159.5
2026-06-29T15:20	34.43680	-179.49441	0.229	155.7
2026-06-29T15:30	34.43679	-179.49442	0.005	190.8
2026-06-29T15:40	34.43685	-179.49451	0.036	305.1
2026-06-29T15:50	34.43734	-179.49433	0.186	17.5
2026-06-29T16:00	34.43884	-179.49484	0.559	344.0
2026-06-29T16:10	34.43884	-179.49496	0.036	268.9
2026-06-29T16:20	34.43889	-179.49501	0.023	320.4
2026-06-29T16:30	34.43890	-179.49496	0.016	74.2
2026-06-29T16:40	34.43890	-179.49496	0.002	28.9
2026-06-29T16:50	34.43886	-179.49498	0.016	208.3
2026-06-29T17:00	34.43885	-179.49494	0.013	109.5
2026-06-29T17:10	34.43888	-179.49495	0.010	349.2
2026-06-29T17:20	34.43884	-179.49495	0.015	186.9
2026-06-29T17:30	34.42281	-179.49596	5.766	183.0
2026-06-29T17:40	34.39468	-179.50253	10.290	191.0
2026-06-29T17:50	34.36655	-179.50964	10.325	191.8
2026-06-29T18:00	34.36293	-179.54019	9.191	261.9
2026-06-29T18:10	34.36822	-179.57644	10.965	280.0
2026-06-29T18:20	34.37332	-179.61168	10.656	279.9
2026-06-29T18:30	34.35699	-179.63251	8.537	226.6
2026-06-29T18:40	34.33292	-179.64865	9.893	209.1
2026-06-29T18:50	34.30844	-179.66493	10.043	208.9
2026-06-29T19:00	34.28386	-179.68119	10.072	208.8
2026-06-29T19:10	34.25953	-179.69742	9.988	209.0
2026-06-29T19:20	34.23499	-179.71375	10.071	208.9
2026-06-29T19:30	34.21082	-179.72974	9.905	208.8
2026-06-29T19:40	34.18640	-179.74588	10.009	208.8
2026-06-29T19:50	34.16172	-179.76221	10.117	208.8
2026-06-29T20:00	34.13693	-179.77870	10.174	208.9
2026-06-29T20:10	34.11214	-179.79504	10.155	208.7
2026-06-29T20:20	34.08751	-179.81131	10.093	208.8
2026-06-29T20:30	34.06249	-179.82791	10.264	208.9
2026-06-29T20:40	34.03755	-179.84452	10.242	209.0
2026-06-29T20:50	34.01241	-179.86111	10.303	208.8
2026-06-29T21:00	34.00031	-179.88962	9.573	243.0
2026-06-29T21:10	34.00005	-179.92515	10.628	269.5
2026-06-29T21:20	34.00000	-179.96007	10.445	269.9
2026-06-29T21:30	33.99992	-179.99495	10.436	269.8
2026-06-29T21:40	34.00008	179.96968	10.579	270.3
2026-06-29T21:50	34.00005	179.93467	10.473	269.9
2026-06-29T22:00	33.99537	179.90250	9.769	260.1
2026-06-29T22:10	33.97142	179.88595	9.928	209.9
2026-06-29T22:20	33.94643	179.87070	10.068	206.9
2026-06-29T22:30	33.92177	179.85557	9.948	207.1
2026-06-29T22:40	33.89722	179.84076	9.871	206.7
2026-06-29T22:50	33.87252	179.82566	9.956	207.0
2026-06-29T23:00	33.84729	179.81038	10.153	206.8
2026-06-29T23:10	33.82217	179.79509	10.120	206.9
2026-06-29T23:20	33.79677	179.77975	10.215	206.8
2026-06-29T23:30	33.77117	179.76418	10.311	206.9
2026-06-29T23:40	33.74553	179.74864	10.325	206.9
2026-06-29T23:50	33.72020	179.73338	10.181	206.7
2026-06-30T00:00	33.69347	179.72601	9.853	193.0
2026-06-30T00:10	33.66568	179.72580	9.981	180.4
2026-06-30T00:20	33.63745	179.72574	10.138	180.1
2026-06-30T00:30	33.60994	179.72592	9.883	179.7
2026-06-30T00:40	33.60413	179.74754	6.821	107.8
2026-06-30T00:50	33.60578	179.77326	7.754	85.6
2026-06-30T01:00	33.60527	179.77793	1.414	97.5
2026-06-30T01:10	33.60529	179.77874	0.243	88.0
2026-06-30T01:20	33.60523	179.77889	0.052	114.4
2026-06-30T01:30	33.60526	179.77886	0.013	306.9
2026-06-30T01:40	33.60529	179.77880	0.022	307.8
2026-06-30T01:50	33.60555	179.77701	0.546	279.7
2026-06-30T02:00	33.60576	179.77518	0.557	277.8
2026-06-30T02:10	33.60582	179.77524	0.030	37.3
2026-06-30T02:20	33.60583	179.77522	0.005	302.5
2026-06-30T02:30	33.60571	179.77516	0.047	204.4
2026-06-30T02:40	33.60575	179.77517	0.014	20.4
2026-06-30T02:50	33.60583	179.77513	0.032	332.9
2026-06-30T03:00	33.60588	179.77518	0.024	46.0
2026-06-30T03:10	33.60578	179.77516	0.037	192.3
2026-06-30T03:20	33.60413	179.77858	1.185	119.8
2026-06-30T03:30	33.58917	179.79890	8.137	131.3
2026-06-30T03:40	33.58607	179.80571	2.329	118.5
2026-06-30T03:50	33.58639	179.80551	0.130	331.5
2026-06-30T04:00	33.58633	179.80554	0.023	157.6
2026-06-30T04:10	33.58632	179.80545	0.026	263.7
2026-06-30T04:20	33.58639	179.80556	0.041	55.5
2026-06-30T04:30	33.58635	179.80547	0.030	242.6
2026-06-30T04:40	33.58646	179.80477	0.216	280.4
2026-06-30T04:50	33.58670	179.80145	1.000	275.1
2026-06-30T05:00	33.58673	179.80019	0.381	271.7
2026-06-30T05:10	33.58680	179.80025	0.030	38.2
2026-06-30T05:20	33.58683	179.80018	0.025	297.6
2026-06-30T05:30	33.58684	179.80026	0.025	81.0
2026-06-30T05:40	33.58681	179.80018	0.027	239.5
2026-06-30T05:50	33.58683	179.80026	0.024	66.5
2026-06-30T06:00	33.58676	179.80020	0.031	216.9
2026-06-30T06:10	33.58685	179.80020	0.029	1.8
2026-06-30T06:20	33.58678	179.80026	0.030	140.5
2026-06-30T06:30	33.58672	179.80019	0.031	222.9
2026-06-30T06:40	33.58686	179.80026	0.054	24.2
2026-06-30T06:50	33.58287	179.81947	5.947	103.9
2026-06-30T07:00	33.57613	179.85200	10.074	103.9
2026-06-30T07:10	33.56898	179.88469	10.158	104.7
2026-06-30T07:20	33.56526	179.90161	5.259	104.7
2026-06-30T07:30	33.56489	179.90406	0.751	100.3
2026-06-30T07:40	33.56489	179.90411	0.015	94.0
2026-06-30T07:50	33.56494	179.90407	0.024	327.1
2026-06-30T08:00	33.56484	179.90404	0.037	192.7
2026-06-30T08:10	33.56483	179.90408	0.011	113.5
2026-06-30T08:20	33.56493	179.90401	0.041	331.2
2026-06-30T08:30	33.56495	179.90408	0.022	69.8
2026-06-30T08:40	33.56490	179.90407	0.017	186.1
2026-06-30T08:50	33.56477	179.90300	0.325	261.4
2026-06-30T09:00	33.56436	179.89975	0.990	261.5
2026-06-30T09:10	33.56441	179.89969	0.024	312.8
2026-06-30T09:20	33.56432	179.89965	0.034	198.7
2026-06-30T09:30	33.56441	179.89976	0.046	42.8
2026-06-30T09:40	33.56438	179.89969	0.023	239.9
2026-06-30T09:50	33.56435	179.89971	0.012	147.6
2026-06-30T10:00	33.56433	179.89976	0.015	111.3
2026-06-30T10:10	33.56442	179.89971	0.033	336.1
2026-06-30T10:20	33.56428	179.89969	0.051	189.9
2026-06-30T10:30	33.56432	179.89970	0.016	9.9
2026-06-30T10:40	33.56440	179.89974	0.031	28.5
2026-06-30T10:50	33.56427	179.89967	0.052	205.0
2026-06-30T11:00	33.56436	179.89968	0.034	1.5
2026-06-30T11:10	33.56440	179.89977	0.033	64.6
2026-06-30T11:20	33.55599	179.89752	3.096	192.6
2026-06-30T11:30	33.53495	179.87693	9.770	219.3
2026-06-30T11:40	33.51274	179.85564	10.229	218.8
2026-06-30T11:50	33.49050	179.83423	10.260	218.9
2026-06-30T12:00	33.46865	179.81266	10.184	219.6
2026-06-30T12:10	33.44680	179.79245	9.927	217.8
2026-06-30T12:20	33.42555	179.77322	9.582	217.2
2026-06-30T12:30	33.40397	179.75363	9.741	217.3
2026-06-30T12:40	33.38168	179.73328	10.082	217.4
2026-06-30T12:50	33.35923	179.71287	10.141	217.3
2026-06-30T13:00	33.33678	179.69246	10.141	217.3
2026-06-30T13:10	33.31438	179.67208	10.120	217.4
2026-06-30T13:20	33.29160	179.65138	10.293	217.3
2026-06-30T13:30	33.26890	179.63082	10.242	217.3
2026-06-30T13:40	33.24613	179.61012	10.288	217.4
2026-06-30T13:50	33.22385	179.58992	10.059	217.3
2026-06-30T14:00	33.21558	179.56428	8.292	249.0
2026-06-30T14:10	33.22312	179.53322	9.758	286.1
2026-06-30T14:20	33.22761	179.53392	1.627	7.5
2026-06-30T14:30	33.22763	179.53445	0.160	87.0
2026-06-30T14:40	33.22766	179.53483	0.114	84.6
2026-06-30T14:50	33.22772	179.53489	0.028	44.3
2026-06-30T15:00	33.22773	179.53488	0.006	313.6
2026-06-30T15:10	33.22764	179.53481	0.037	212.9
2026-06-30T15:20	33.22939	179.53477	0.626	359.1
2026-06-30T15:30	33.23217	179.53472	0.999	359.0
2026-06-30T15:40	33.23391	179.53466	0.624	358.5
2026-06-30T15:50	33.23389	179.53467	0.005	160.7
2026-06-30T16:00	33.23383	179.53466	0.022	182.3
2026-06-30T16:10	33.23376	179.53470	0.030	155.9
2026-06-30T16:20	33.23376	179.53477	0.020	81.8
2026-06-30T16:30	33.23373	179.53472	0.020	227.9
2026-06-30T16:40	33.23372	179.53473	0.002	108.8
2026-06-30T16:50	33.23372	179.53468	0.014	264.1
2026-06-30T17:00	33.23380	179.53475	0.037	34.6
2026-06-30T17:10	33.23381	179.53468	0.020	281.4
2026-06-30T17:20	33.23379	179.53470	0.010	158.0
2026-06-30T17:30	33.23371	179.53474	0.034	154.6
2026-06-30T17:40	33.23069	179.53675	1.238	150.8
2026-06-30T17:50	33.23134	179.50881	8.434	271.6
2026-06-30T18:00	33.22917	179.47630	9.843	265.5
2026-06-30T18:10	33.22637	179.44277	10.171	264.3
2026-06-30T18:20	33.22366	179.40891	10.265	264.6
2026-06-30T18:30	33.22091	179.37463	10.395	264.6
2026-06-30T18:40	33.21872	179.33990	10.511	265.7
2026-06-30T18:50	33.22389	179.30544	10.565	280.1
2026-06-30T19:00	33.22969	179.29262	4.396	298.3
2026-06-30T19:10	33.23003	179.29560	0.910	82.2
2026-06-30T19:20	33.23008	179.29564	0.020	32.8
2026-06-30T19:30	33.23006	179.29562	0.009	215.8
2026-06-30T19:40	33.22999	179.29562	0.024	180.7
2026-06-30T19:50	33.23009	179.29561	0.034	356.5
2026-06-30T20:00	33.22999	179.29563	0.036	171.4
2026-06-30T20:10	33.22998	179.29558	0.016	258.4
2026-06-30T20:20	33.23182	179.29361	0.889	318.0
2026-06-30T20:30	33.23336	179.29198	0.742	318.5
2026-06-30T20:40	33.23340	179.29201	0.016	29.3
2026-06-30T20:50	33.23337	179.29196	0.018	225.2
2026-06-30T21:00	33.23328	179.29199	0.033	163.8
2026-06-30T21:10	33.23328	179.29197	0.006	279.6
2026-06-30T21:20	33.23334	179.29200	0.020	21.6
2026-06-30T21:30	33.23334	179.29200	0.003	31.0
2026-06-30T21:40	33.23340	179.29199	0.022	349.7
2026-06-30T21:50	33.23341	179.29200	0.004	52.9
2026-06-30T22:00	33.23337	179.29198	0.015	201.8
2026-06-30T22:10	33.23335	179.29205	0.020	109.7
2026-06-30T22:20	33.23234	179.29581	1.192	107.7
2026-06-30T22:30	33.21382	179.27871	8.417	217.8
2026-06-30T22:40	33.19206	179.25767	10.073	219.1
2026-06-30T22:50	33.16992	179.23721	10.068	217.9
2026-06-30T23:00	33.14907	179.21499	10.056	221.9
2026-06-30T23:10	33.13067	179.19450	9.054	223.1
2026-06-30T23:20	33.12964	179.19840	1.235	107.4
2026-06-30T23:30	33.13013	179.19776	0.263	312.3
2026-06-30T23:40	33.13012	179.19781	0.016	112.8
2026-06-30T23:50	33.13011	179.19773	0.025	262.5
2026-07-01T00:00	33.13013	179.19781	0.025	73.5
2026-07-01T00:10	33.13010	179.19772	0.029	249.9
2026-07-01T00:20	33.13014	179.19776	0.018	43.8
2026-07-01T00:30	33.13005	179.19780	0.032	156.9
2026-07-01T00:40	33.13041	179.19767	0.135	342.9
2026-07-01T00:50	33.13317	179.19730	0.996	353.6
2026-07-01T01:00	33.13394	179.19721	0.278	354.7
2026-07-01T01:10	33.13395	179.19721	0.005	343.3
2026-07-01T01:20	33.13395	179.19723	0.005	103.4
2026-07-01T01:30	33.13398	179.19718	0.017	307.1
2026-07-01T01:40	33.13399	179.19720	0.008	48.8
2026-07-01T01:50	33.13392	179.19719	0.027	189.0
2026-07-01T02:00	33.13399	179.19719	0.025	4.8
2026-07-01T02:10	33.13401	179.19725	0.020	66.8
2026-07-01T02:20	33.13401	179.19722	0.010	259.1
2026-07-01T02:30	33.13397	179.19722	0.014	180.0
2026-07-01T02:40	33.13397	179.19724	0.006	90.0
2026-07-01T02:50	33.13402	179.19722	0.021	340.9
2026-07-01T03:00	33.13214	179.20450	2.300	107.1
2026-07-01T03:10	33.12203	179.23121	8.852	114.2
2026-07-01T03:20	33.12243	179.23680	1.696	85.0
2026-07-01T03:30	33.12244	179.23686	0.017	81.2
2026-07-01T03:40	33.12246	179.23687	0.008	30.5
2026-07-01T03:50	33.12248	179.23688	0.009	21.1
2026-07-01T04:00	33.12246	179.23692	0.014	121.4
2026-07-01T04:10	33.12253	179.23688	0.026	331.9
2026-07-01T04:20	33.12252	179.23683	0.016	260.7
2026-07-01T04:30	33.12249	179.23687	0.017	131.9
2026-07-01T04:40	33.12375	179.23666	0.456	351.9
2026-07-01T04:50	33.12652	179.23626	1.002	353.1
2026-07-01T05:00	33.12901	179.23591	0.902	353.2
2026-07-01T05:10	33.12914	179.23592	0.046	2.6
2026-07-01T05:20	33.12914	179.23589	0.007	285.1
2026-07-01T05:30	33.12905	179.23594	0.036	157.0
2026-07-01T05:40	33.12901	179.23599	0.020	134.0
2026-07-01T05:50	33.12902	179.23595	0.012	287.4
2026-07-01T06:00	33.12901	179.23598	0.010	119.0
2026-07-01T06:10	33.12911	179.23592	0.040	334.6
2026-07-01T06:20	33.12903	179.23588	0.031	204.1
2026-07-01T06:30	33.12902	179.23591	0.010	117.2
2026-07-01T06:40	33.12902	179.23591	0.002	22.8
2026-07-01T06:50	33.12901	179.23593	0.008	129.8
2026-07-01T07:00	33.12904	179.23588	0.019	298.9
2026-07-01T07:10	33.12907	179.23590	0.013	33.1
2026-07-01T07:20	33.12896	179.23612	0.076	120.4
2026-07-01T07:30	33.12237	179.22084	5.187	242.8
2026-07-01T07:40	33.11480	179.18819	10.236	254.6
2026-07-01T07:50	33.10737	179.15528	10.297	255.0
2026-07-01T08:00	33.10014	179.12267	10.192	255.3
2026-07-01T08:10	33.09283	179.09047	10.081	254.9
2026-07-01T08:20	33.08646	179.05808	10.053	256.9
2026-07-01T08:30	33.08029	179.02617	9.898	257.1
2026-07-01T08:40	33.07411	178.99581	9.446	256.4
2026-07-01T08:50	33.06965	178.99500	1.621	188.7
2026-07-01T09:00	33.07005	178.99488	0.148	346.1
2026-07-01T09:10	33.06997	178.99495	0.035	144.4
2026-07-01T09:20	33.06994	178.99496	0.012	174.3
2026-07-01T09:30	33.07001	178.99496	0.027	0.6
2026-07-01T09:40	33.06992	178.99490	0.036	205.9
2026-07-01T09:50	33.06993	178.99490	0.003	306.6
2026-07-01T10:00	33.06993	178.99485	0.015	279.4
2026-07-01T10:10	33.07000	178.99496	0.042	55.9
2026-07-01T10:20	33.07087	178.99488	0.315	355.5
2026-07-01T10:30	33.07322	178.99467	0.845	355.7
2026-07-01T10:40	33.07328	178.99465	0.024	346.9
2026-07-01T10:50	33.07325	178.99469	0.015	132.7
2026-07-01T11:00	33.07324	178.99468	0.006	207.8
2026-07-01T11:10	33.07328	178.99460	0.029	305.4
2026-07-01T11:20	33.07331	178.99467	0.023	65.1
2026-07-01T11:30	33.07325	178.99464	0.022	202.1
2026-07-01T11:40	33.07323	178.99472	0.024	105.7
2026-07-01T11:50	33.07325	178.99472	0.004	28.2
2026-07-01T12:00	33.07332	178.99465	0.035	323.3
2026-07-01T12:10	33.07327	178.99470	0.025	144.1
2026-07-01T12:20	33.07329	178.99467	0.013	310.0
2026-07-01T12:30	33.07331	178.99469	0.007	41.9
2026-07-01T12:40	33.07337	178.99328	0.426	273.2
2026-07-01T12:50	33.07383	178.99001	1.000	279.6
2026-07-01T13:00	33.07408	178.98829	0.530	279.7
2026-07-01T13:10	33.07408	178.98834	0.015	96.8
2026-07-01T13:20	33.07410	178.98832	0.009	319.9
2026-07-01T13:30	33.07413	178.98835	0.016	33.6
2026-07-01T13:40	33.07411	178.98824	0.032	255.9
2026-07-01T13:50	33.07413	178.98832	0.024	72.4
2026-07-01T14:00	33.07415	178.98830	0.008	314.7
2026-07-01T14:10	33.07408	178.98835	0.028	148.9
2026-07-01T14:20	33.07412	178.98825	0.033	298.0
2026-07-01T14:30	33.07504	178.98883	0.372	28.1
2026-07-01T14:40	33.07619	178.98942	0.451	23.1
2026-07-01T14:50	33.07618	178.98950	0.024	97.8
2026-07-01T15:00	33.07623	178.98950	0.016	5.3
2026-07-01T15:10	33.07618	178.98958	0.028	124.2
2026-07-01T15:20	33.07623	178.98950	0.027	303.3
2026-07-01T15:30	33.07616	178.98948	0.023	197.3
2026-07-01T15:40	33.07626	178.98954	0.039	26.3
2026-07-01T15:50	33.07617	178.98957	0.033	162.7
2026-07-01T16:00	33.07623	178.98947	0.037	307.4
2026-07-01T16:10	33.07621	178.98950	0.013	132.0
2026-07-01T16:20	33.07627	178.98946	0.026	328.6
2026-07-01T16:30	33.07620	178.98943	0.027	199.8
2026-07-01T16:40	33.08602	178.99531	3.950	26.8
2026-07-01T16:50	33.11093	179.00914	9.875	25.1
2026-07-01T17:00	33.13639	179.02312	10.070	24.8
2026-07-01T17:10	33.16186	179.03731	10.101	25.1
2026-07-01T17:20	33.18626	179.05208	9.831	27.0
2026-07-01T17:30	33.19008	179.06424	3.920	69.5
2026-07-01T17:40	33.18998	179.06443	0.069	121.2
2026-07-01T17:50	33.19002	179.06446	0.016	35.2
2026-07-01T18:00	33.18989	179.06444	0.046	190.3
2026-07-01T18:10	33.18996	179.06444	0.026	359.3
2026-07-01T18:20	33.19002	179.06446	0.023	18.3
2026-07-01T18:30	33.19000	179.06447	0.007	162.8
2026-07-01T18:40	33.18992	179.06441	0.035	206.5
2026-07-01T18:50	33.19026	179.06508	0.236	58.5
2026-07-01T19:00	33.19192	179.06775	1.003	53.4
2026-07-01T19:10	33.19344	179.07022	0.922	53.9
2026-07-01T19:20	33.19349	179.07029	0.029	52.5
2026-07-01T19:30	33.19352	179.07027	0.013	333.5
2026-07-01T19:40	33.19349	179.07027	0.009	188.0
2026-07-01T19:50	33.19353	179.07032	0.018	51.3
2026-07-01T20:00	33.19342	179.07027	0.039	202.8
2026-07-01T20:10	33.19342	179.07031	0.015	102.8
2026-07-01T20:20	33.19353	179.07023	0.046	328.2
2026-07-01T20:30	33.19353	179.07029	0.018	87.7
2026-07-01T20:40	33.19349	179.07031	0.015	162.1
2026-07-01T20:50	33.19347	179.07036	0.016	114.0
2026-07-01T21:00	33.19349	179.07030	0.019	292.6
2026-07-01T21:10	33.19346	179.07028	0.013	211.7
2026-07-01T21:20	33.19349	179.07033	0.021	54.2
2026-07-01T21:30	33.19124	179.07059	0.812	174.5
2026-07-01T21:40	33.18480	179.04363	8.462	254.1
2026-07-01T21:50	33.17740	179.01121	10.144	254.8
2026-07-01T22:00	33.17010	178.97846	10.233	255.2
2026-07-01T22:10	33.16287	178.94620	10.085	255.1
2026-07-01T22:20	33.15544	178.91367	10.182	254.8
2026-07-01T22:30	33.14819	178.88106	10.188	255.2
2026-07-01T22:40	33.14254	178.84847	10.053	258.4
2026-07-01T22:50	33.13759	178.81494	10.284	260.1
2026-07-01T23:00	33.13277	178.78200	10.102	260.1
2026-07-01T23:10	33.13259	178.74871	10.061	269.6
2026-07-01T23:20	33.13252	178.71588	9.917	269.9
2026-07-01T23:30	33.13253	178.68308	9.912	270.0
2026-07-01T23:40	33.13254	178.64998	10.000	270.0
2026-07-01T23:50	33.13251	178.61656	10.098	269.9
2026-07-02T00:00	33.13245	178.58284	10.189	269.9
2026-07-02T00:10	33.13108	178.54906	10.219	267.2
2026-07-02T00:20	33.12624	178.51544	10.304	260.3
2026-07-02T00:30	33.12124	178.48170	10.353	260.0
2026-07-02T00:40	33.11624	178.44759	10.466	260.1
2026-07-02T00:50	33.10665	178.41587	10.184	250.3
2026-07-02T01:00	33.10389	178.38407	9.663	264.1
2026-07-02T01:10	33.12820	178.38262	8.742	357.1
2026-07-02T01:20	33.13838	178.41145	9.446	67.2
2026-07-02T01:30	33.13882	178.44275	9.460	89.0
2026-07-02T01:40	33.13914	178.46996	8.221	89.2
2026-07-02T01:50	33.13924	178.47248	0.760	87.4
2026-07-02T02:00	33.13924	178.47247	0.002	279.6
2026-07-02T02:10	33.13924	178.47245	0.004	288.8
2026-07-02T02:20	33.13917	178.47253	0.037	139.9
2026-07-02T02:30	33.13919	178.47246	0.023	288.0
2026-07-02T02:40	33.13925	178.47244	0.023	344.6
2026-07-02T02:50	33.13923	178.47252	0.025	104.0
2026-07-02T03:00	33.13921	178.47249	0.011	234.5
2026-07-02T03:10	33.14053	178.47070	0.719	311.2
2026-07-02T03:20	33.14223	178.46825	0.959	309.5
2026-07-02T03:30	33.14224	178.46813	0.036	273.5
2026-07-02T03:40	33.14226	178.46820	0.022	62.9
2026-07-02T03:50	33.14226	178.46821	0.003	128.4
2026-07-02T04:00	33.14229	178.46817	0.018	318.4
2026-07-02T04:10	33.14227	178.46811	0.019	245.3
2026-07-02T04:20	33.14224	178.46811	0.013	184.0
2026-07-02T04:30	33.14227	178.46812	0.011	17.7
2026-07-02T04:40	33.14225	178.46812	0.008	164.3
2026-07-02T04:50	33.14231	178.46814	0.023	9.0
2026-07-02T05:00	33.14229	178.46818	0.016	120.7
2026-07-02T05:10	33.14228	178.46821	0.008	111.6
2026-07-02T05:20	33.14222	178.46818	0.021	202.4
2026-07-02T05:30	33.12833	178.45793	5.873	211.8
2026-07-02T05:40	33.10691	178.43662	10.030	219.9
2026-07-02T05:50	33.08585	178.41547	9.904	220.2
2026-07-02T06:00	33.06470	178.39433	9.926	220.1
2026-07-02T06:10	33.04336	178.37265	10.085	220.6
2026-07-02T06:20	33.02227	178.35089	10.035	221.0
2026-07-02T06:30	33.00091	178.32880	10.173	221.1
2026-07-02T06:40	32.97919	178.30658	10.299	220.8
2026-07-02T06:50	32.95899	178.28258	10.265	225.0
2026-07-02T07:00	32.93925	178.25967	9.921	224.4
2026-07-02T07:10	32.93092	178.25719	3.084	194.1
2026-07-02T07:20	32.93050	178.25723	0.149	175.5
2026-07-02T07:30	32.93047	178.25731	0.026	119.0
2026-07-02T07:40	32.93050	178.25727	0.016	315.6
2026-07-02T07:50	32.93046	178.25724	0.019	210.9
2026-07-02T08:00	32.93052	178.25720	0.027	337.4
2026-07-02T08:10	32.93047	178.25729	0.032	130.3
2026-07-02T08:20	32.93047	178.25719	0.029	273.5
2026-07-02T08:30	32.93050	178.25732	0.041	74.7
2026-07-02T08:40	32.93063	178.25735	0.046	10.5
2026-07-02T08:50	32.93331	178.25763	0.967	5.1
2026-07-02T09:00	32.93403	178.25775	0.262	7.7
2026-07-02T09:10	32.93400	178.25774	0.010	195.7
2026-07-02T09:20	32.93402	178.25773	0.004	341.4
2026-07-02T09:30	32.93405	178.25774	0.014	6.2
2026-07-02T09:40	32.93405	178.25769	0.015	259.3
2026-07-02T09:50	32.93404	178.25764	0.014	267.1
2026-07-02T10:00	32.93407	178.25764	0.009	0.0
2026-07-02T10:10	32.93407	178.25776	0.036	87.2
2026-07-02T10:20	32.93406	178.25775	0.005	204.4
2026-07-02T10:30	32.93405	178.25766	0.029	262.1
2026-07-02T10:40	32.93398	178.25765	0.024	184.4
2026-07-02T10:50	32.93405	178.25764	0.024	351.3
2026-07-02T11:00	32.93398	178.25765	0.025	174.3
2026-07-02T11:10	32.92551	178.25872	3.057	173.9
2026-07-02T11:20	32.94162	178.24604	6.942	326.4
2026-07-02T11:30	32.96959	178.23973	10.225	349.2
2026-07-02T11:40	32.99750	178.23293	10.231	348.4
2026-07-02T11:50	33.02537	178.22615	10.218	348.4
2026-07-02T12:00	33.05209	178.21954	9.800	348.2
2026-07-02T12:10	33.07871	178.21298	9.765	348.3
2026-07-02T12:20	33.10492	178.20587	9.653	347.1
2026-07-02T12:30	33.12608	178.19907	7.872	344.9
2026-07-02T12:40	33.12436	178.20314	1.376	116.7
2026-07-02T12:50	33.12353	178.20361	0.329	154.8
2026-07-02T13:00	33.12358	178.20358	0.021	340.3
2026-07-02T13:10	33.12355	178.20367	0.031	114.9
2026-07-02T13:20	33.12349	178.20362	0.026	217.0
2026-07-02T13:30	33.12481	178.20359	0.474	358.9
2026-07-02T13:40	33.12758	178.20360	0.996	0.1
2026-07-02T13:50	33.12855	178.20359	0.350	359.6
2026-07-02T14:00	33.12855	178.20359	0.003	233.4
2026-07-02T14:10	33.12855	178.20359	0.000	319.9
2026-07-02T14:20	33.12861	178.20361	0.024	20.2
2026-07-02T14:30	33.12863	178.20361	0.005	345.5
2026-07-02T14:40	33.12862	178.20365	0.014	97.5
2026-07-02T14:50	33.12862	178.20360	0.018	268.8
2026-07-02T15:00	33.12850	178.20360	0.043	176.8
2026-07-02T15:10	33.12852	178.20362	0.010	37.5
2026-07-02T15:20	33.12854	178.20362	0.006	333.2
2026-07-02T15:30	33.12859	178.20358	0.020	326.6
2026-07-02T15:40	33.12469	178.18916	4.576	252.2
2026-07-02T15:50	33.12498	178.15429	10.537	270.6
2026-07-02T16:00	33.12501	178.11912	10.630	270.1
2026-07-02T16:10	33.12499	178.08343	10.783	270.0
2026-07-02T16:20	33.12496	178.04822	10.641	270.0
2026-07-02T16:30	33.12506	178.01206	10.926	270.2
2026-07-02T16:40	33.13868	177.98382	9.835	299.8
2026-07-02T16:50	33.15955	177.95894	10.616	314.9
2026-07-02T17:00	33.18028	177.93406	10.577	314.7
2026-07-02T17:10	33.20096	177.90946	10.503	315.0
2026-07-02T17:20	33.22194	177.88440	10.677	314.9
2026-07-02T17:30	33.24316	177.85894	10.823	314.8
2026-07-02T17:40	33.26394	177.83419	10.556	315.0
2026-07-02T17:50	33.28498	177.80913	10.689	315.0
2026-07-02T18:00	33.30594	177.78411	10.657	314.9
2026-07-02T18:10	33.32518	177.75732	10.632	310.6
2026-07-02T18:20	33.32803	177.72327	10.316	275.7
2026-07-02T18:30	33.32796	177.68943	10.200	269.9
2026-07-02T18:40	33.32802	177.65338	10.870	270.1
2026-07-02T18:50	33.32804	177.61895	10.380	270.1
2026-07-02T19:00	33.32803	177.58406	10.518	270.0
2026-07-02T19:10	33.32805	177.54870	10.658	270.1
2026-07-02T19:20	33.32804	177.51368	10.558	270.0
2026-07-02T19:30	33.32813	177.47880	10.517	270.2
2026-07-02T19:40	33.32807	177.44395	10.506	269.9
2026-07-02T19:50	33.32800	177.41008	10.212	269.9
2026-07-02T20:00	33.32803	177.37612	10.237	270.1
2026-07-02T20:10	33.32806	177.34206	10.267	270.1
2026-07-02T20:20	33.32806	177.30754	10.409	270.0
2026-07-02T20:30	33.32807	177.27237	10.603	270.0
2026-07-02T20:40	33.32812	177.23781	10.417	270.1
2026-07-02T20:50	33.32958	177.20907	8.681	273.5
2026-07-02T21:00	33.33284	177.23165	6.908	80.2
2026-07-02T21:10	33.32939	177.26327	9.614	97.4
2026-07-02T21:20	33.32630	177.28812	7.572	98.4
2026-07-02T21:30	33.32600	177.29221	1.239	95.1
2026-07-02T21:40	33.32587	177.29286	0.200	103.5
2026-07-02T21:50	33.32585	177.29287	0.008	145.0
2026-07-02T22:00	33.32582	177.29288	0.012	162.0
2026-07-02T22:10	33.32584	177.29285	0.013	304.1
2026-07-02T22:20	33.32587	177.29289	0.017	55.6
2026-07-02T22:30	33.32585	177.29284	0.017	256.4
2026-07-02T22:40	33.32802	177.29235	0.792	349.2
2026-07-02T22:50	33.33026	177.29186	0.818	349.6
2026-07-02T23:00	33.33032	177.29186	0.023	3.0
2026-07-02T23:10	33.33022	177.29186	0.036	181.4
2026-07-02T23:20	33.33024	177.29185	0.008	344.4
2026-07-02T23:30	33.33030	177.29192	0.028	44.3
2026-07-02T23:40	33.33022	177.29190	0.030	192.3
2026-07-02T23:50	33.33028	177.29190	0.024	359.3
2026-07-03T00:00	33.33029	177.29191	0.004	49.1
2026-07-03T00:10	33.33026	177.29194	0.016	138.4
2026-07-03T00:20	33.33023	177.29192	0.013	216.8
2026-07-03T00:30	33.33023	177.29187	0.016	270.0
2026-07-03T00:40	33.32907	177.29417	0.811	121.0
2026-07-03T00:50	33.30885	177.28356	7.932	203.8
2026-07-03T01:00	33.28731	177.26265	9.980	219.2
2026-07-03T01:10	33.27876	177.25920	3.243	198.7
2026-07-03T01:20	33.27863	177.26040	0.366	97.3
2026-07-03T01:30	33.27858	177.26040	0.018	181.9
2026-07-03T01:40	33.27864	177.26049	0.035	50.3
2026-07-03T01:50	33.27862	177.26042	0.021	245.3
2026-07-03T02:00	33.27860	177.26045	0.008	130.4
2026-07-03T02:10	33.27864	177.26044	0.014	355.1
2026-07-03T02:20	33.27867	177.26045	0.009	17.5
2026-07-03T02:30	33.28025	177.26028	0.569	354.7
2026-07-03T02:40	33.28238	177.26005	0.768	355.0
2026-07-03T02:50	33.28236	177.26003	0.010	229.0
2026-07-03T03:00	33.28230	177.26006	0.023	152.3
2026-07-03T03:10	33.28236	177.26007	0.023	5.3
2026-07-03T03:20	33.28237	177.26008	0.002	51.6
2026-07-03T03:30	33.28226	177.26006	0.039	187.5
2026-07-03T03:40	33.28238	177.26003	0.043	349.5
2026-07-03T03:50	33.28232	177.26010	0.030	135.1
2026-07-03T04:00	33.28230	177.26009	0.008	226.8
2026-07-03T04:10	33.28232	177.26006	0.010	300.8
2026-07-03T04:20	33.28231	177.26002	0.011	246.6
2026-07-03T04:30	33.27929	177.26102	1.122	164.4
2026-07-03T04:40	33.29327	177.23823	8.513	306.1
2026-07-03T04:50	33.30788	177.20905	10.243	300.8
2026-07-03T05:00	33.30803	177.17499	10.271	270.3
2026-07-03T05:10	33.30803	177.13978	10.619	270.0
2026-07-03T05:20	33.30798	177.10417	10.738	269.9
2026-07-03T05:30	33.30794	177.06944	10.471	269.9
2026-07-03T05:40	33.30802	177.03645	9.950	270.2
2026-07-03T05:50	33.30798	177.00359	9.908	269.9
2026-07-03T06:00	33.30806	176.96985	10.173	270.1
2026-07-03T06:10	33.30803	176.93613	10.169	269.9
2026-07-03T06:20	33.30800	176.90183	10.343	270.0
2026-07-03T06:30	33.30794	176.86712	10.467	269.9
2026-07-03T06:40	33.30307	176.83505	9.828	259.8
2026-07-03T06:50	33.27728	176.82979	9.396	189.7
2026-07-03T07:00	33.25430	176.84020	8.831	159.2
2026-07-03T07:10	33.25210	176.87153	9.486	94.8
2026-07-03T07:20	33.25180	176.90304	9.508	90.6
2026-07-03T07:30	33.25160	176.92432	6.420	90.6
2026-07-03T07:40	33.26574	176.90260	8.290	307.8
2026-07-03T07:50	33.27661	176.89334	4.799	324.4
2026-07-03T08:00	33.27607	176.89388	0.255	140.5
2026-07-03T08:10	33.27590	176.89353	0.123	240.8
2026-07-03T08:20	33.27580	176.89347	0.038	204.7
2026-07-03T08:30	33.27582	176.89354	0.020	71.5
2026-07-03T08:40	33.27582	176.89358	0.012	81.5
2026-07-03T08:50	33.27609	176.89347	0.101	341.7
2026-07-03T09:00	33.27885	176.89296	1.004	351.2
2026-07-03T09:10	33.28159	176.89252	0.992	352.3
2026-07-03T09:20	33.28239	176.89239	0.289	352.4
2026-07-03T09:30	33.28236	176.89239	0.008	192.4
2026-07-03T09:40	33.28231	176.89238	0.018	184.8
2026-07-03T09:50	33.28229	176.89237	0.008	200.7
2026-07-03T10:00	33.28235	176.89238	0.019	11.0
2026-07-03T10:10	33.28237	176.89234	0.015	307.1
2026-07-03T10:20	33.28234	176.89230	0.018	235.2
2026-07-03T10:30	33.28227	176.89235	0.032	148.2
2026-07-03T10:40	33.28233	176.89235	0.021	358.3
2026-07-03T10:50	33.28235	176.89242	0.024	65.6
2026-07-03T11:00	33.28181	176.89344	0.362	122.3
2026-07-03T11:10	33.26506	176.88457	6.586	204.0
2026-07-03T11:20	33.24371	176.86269	10.117	220.7
2026-07-03T11:30	33.22236	176.84090	10.099	220.6
2026-07-03T11:40	33.20069	176.81916	10.183	220.2
2026-07-03T11:50	33.17889	176.79743	10.213	220.0
2026-07-03T12:00	33.15717	176.77567	10.202	220.1
2026-07-03T12:10	33.13563	176.75435	10.066	219.8
2026-07-03T12:20	33.11404	176.73287	10.113	219.9
2026-07-03T12:30	33.10051	176.70615	9.423	239.0
2026-07-03T12:40	33.10061	176.67369	9.811	270.2
2026-07-03T12:50	33.10057	176.64123	9.812	269.9
2026-07-03T13:00	33.10063	176.60747	10.202	270.1
2026-07-03T13:10	33.10052	176.57350	10.270	269.8
2026-07-03T13:20	33.10823	176.56513	3.751	317.6
2026-07-03T13:30	33.10290	176.59284	8.590	102.9
2026-07-03T13:40	33.09915	176.61761	7.607	100.2
2026-07-03T13:50	33.09733	176.62079	1.164	124.2
2026-07-03T14:00	33.09743	176.62119	0.125	72.9
2026-07-03T14:10	33.09741	176.62123	0.016	119.0
2026-07-03T14:20	33.09735	176.62124	0.021	172.7
2026-07-03T14:30	33.09737	176.62118	0.019	289.6
2026-07-03T14:40	33.09735	176.62113	0.017	245.7
2026-07-03T14:50	33.09777	176.62095	0.158	340.0
2026-07-03T15:00	33.10036	176.61972	1.002	338.2
2026-07-03T15:10	33.10294	176.61850	0.998	338.3
2026-07-03T15:20	33.10361	176.61816	0.261	337.0
2026-07-03T15:30	33.10357	176.61819	0.014	143.6
2026-07-03T15:40	33.10365	176.61819	0.028	1.2
2026-07-03T15:50	33.10363	176.61822	0.013	133.8
2026-07-03T16:00	33.10357	176.61819	0.022	208.6
2026-07-03T16:10	33.10354	176.61815	0.017	223.9
2026-07-03T16:20	33.10356	176.61820	0.016	69.6
2026-07-03T16:30	33.10354	176.61815	0.016	251.6
2026-07-03T16:40	33.10363	176.61821	0.038	27.7
2026-07-03T16:50	33.10360	176.61822	0.011	164.3
2026-07-03T17:00	33.10363	176.61818	0.014	310.6
2026-07-03T17:10	33.10352	176.61817	0.040	185.2
2026-07-03T17:20	33.09458	176.60501	5.113	231.1
2026-07-03T17:30	33.08389	176.57537	9.747	246.8
2026-07-03T17:40	33.07213	176.54481	10.159	245.4
2026-07-03T17:50	33.06061	176.51491	9.941	245.4
2026-07-03T18:00	33.04922	176.48492	9.948	245.7
2026-07-03T18:10	33.03781	176.45501	9.932	245.6
2026-07-03T18:20	33.02646	176.42485	9.993	245.9
2026-07-03T18:30	33.01440	176.39312	10.529	245.7
2026-07-03T18:40	33.00209	176.36079	10.737	245.7
2026-07-03T18:50	32.99058	176.33045	10.067	245.8
2026-07-03T19:00	32.97912	176.30029	10.014	245.8
2026-07-03T19:10	32.96763	176.27013	10.017	245.7
2026-07-03T19:20	32.95615	176.23987	10.046	245.8
2026-07-03T19:30	32.94445	176.20919	10.195	245.7
2026-07-03T19:40	32.93326	176.18828	7.498	237.6
2026-07-03T19:50	32.93261	176.18929	0.385	127.6
2026-07-03T20:00	32.93257	176.18928	0.014	197.7
2026-07-03T20:10	32.93258	176.18927	0.005	349.0
2026-07-03T20:20	32.93260	176.18928	0.005	22.9
2026-07-03T20:30	32.93260	176.18931	0.009	75.7
2026-07-03T20:40	32.93267	176.18934	0.026	23.8
2026-07-03T20:50	32.93257	176.18929	0.040	200.7
2026-07-03T21:00	32.93259	176.18928	0.011	337.1
2026-07-03T21:10	32.93115	176.18944	0.521	174.7
2026-07-03T21:20	32.92112	176.16451	8.366	244.5
2026-07-03T21:30	32.91010	176.13327	10.256	247.3
2026-07-03T21:40	32.90061	176.10701	8.655	246.8
2026-07-03T21:50	32.89153	176.08162	8.353	247.1
2026-07-03T22:00	32.88075	176.05142	9.935	247.1
2026-07-03T22:10	32.86993	176.02103	9.998	247.1
2026-07-03T22:20	32.85918	175.99122	9.822	246.9
2026-07-03T22:30	32.84836	175.96113	9.916	246.9
2026-07-03T22:40	32.83738	175.93046	10.096	247.0
2026-07-03T22:50	32.83125	175.89853	9.928	257.2
2026-07-03T23:00	32.81222	175.89047	7.257	199.7
2026-07-03T23:10	32.78428	175.89044	10.034	180.1
2026-07-03T23:20	32.76396	175.89113	7.299	178.3
2026-07-03T23:30	32.77947	175.90276	6.591	32.3
2026-07-03T23:40	32.80048	175.91234	8.085	21.1
2026-07-03T23:50	32.79821	175.91467	1.078	139.0
2026-07-04T00:00	32.79802	175.91478	0.076	155.2
2026-07-04T00:10	32.79811	175.91483	0.035	28.2
2026-07-04T00:20	32.79805	175.91473	0.035	237.9
2026-07-04T00:30	32.79803	175.91481	0.027	113.9
2026-07-04T00:40	32.79805	175.91479	0.011	313.7
2026-07-04T00:50	32.79888	175.91431	0.332	334.2
2026-07-04T01:00	32.80144	175.91294	1.011	335.7
2026-07-04T01:10	32.80162	175.91290	0.066	349.2
2026-07-04T01:20	32.80161	175.91288	0.008	226.6
2026-07-04T01:30	32.80158	175.91282	0.019	238.9
2026-07-04T01:40	32.80161	175.91292	0.030	67.6
2026-07-04T01:50	32.80162	175.91291	0.002	326.0
2026-07-04T02:00	32.80154	175.91283	0.037	223.1
2026-07-04T02:10	32.80158	175.91288	0.020	49.3
2026-07-04T02:20	32.80166	175.91283	0.031	333.0
2026-07-04T02:30	32.80165	175.91291	0.022	92.8
2026-07-04T02:40	32.80156	175.91284	0.041	210.8
2026-07-04T02:50	32.80011	175.90815	1.514	250.0
2026-07-04T03:00	32.82570	175.90813	9.188	360.0
2026-07-04T03:10	32.85253	175.90830	9.636	0.3
2026-07-04T03:20	32.87843	175.90818	9.299	359.8
2026-07-04T03:30	32.90709	175.90817	10.293	360.0
2026-07-04T03:40	32.93588	175.90822	10.336	0.1
2026-07-04T03:50	32.96457	175.90811	10.306	359.8
2026-07-04T04:00	32.99294	175.90814	10.186	0.1
2026-07-04T04:10	33.02140	175.90811	10.220	359.9
2026-07-04T04:20	33.04966	175.90804	10.150	359.9
2026-07-04T04:30	33.07800	175.90851	10.179	0.8
2026-07-04T04:40	33.09094	175.93391	8.975	58.8
2026-07-04T04:50	33.08855	175.96571	9.653	95.1
2026-07-04T05:00	33.06355	175.97570	9.473	161.4
2026-07-04T05:10	33.04777	175.94850	9.988	235.5
2026-07-04T05:20	33.03743	175.91492	10.814	249.9
2026-07-04T05:30	33.03818	175.90607	2.691	275.8
2026-07-04T05:40	33.03788	175.90619	0.117	161.1
2026-07-04T05:50	33.03786	175.90619	0.006	185.3
2026-07-04T06:00	33.03790	175.90620	0.014	14.9
2026-07-04T06:10	33.03787	175.90625	0.015	120.7
2026-07-04T06:20	33.03782	175.90622	0.019	201.6
2026-07-04T06:30	33.03784	175.90624	0.006	44.5
2026-07-04T06:40	33.03958	175.90693	0.660	18.6
2026-07-04T06:50	33.04221	175.90798	0.996	18.6
2026-07-04T07:00	33.04276	175.90817	0.206	15.6
2026-07-04T07:10	33.04270	175.90821	0.024	149.4
2026-07-04T07:20	33.04272	175.90818	0.009	305.5
2026-07-04T07:30	33.04275	175.90822	0.016	40.1
2026-07-04T07:40	33.04281	175.90821	0.020	352.0
2026-07-04T07:50	33.04273	175.90820	0.028	184.4
2026-07-04T08:00	33.04274	175.90822	0.007	45.6
2026-07-04T08:10	33.04279	175.90823	0.017	17.3
2026-07-04T08:20	33.04275	175.90821	0.015	212.3
2026-07-04T08:30	33.04278	175.90824	0.012	45.7
2026-07-04T08:40	33.04280	175.90828	0.017	57.2
2026-07-04T08:50	33.03981	175.89686	3.619	252.7
2026-07-04T09:00	33.03974	175.86346	10.102	269.9
2026-07-04T09:10	33.03982	175.83014	10.078	270.2
2026-07-04T09:20	33.03988	175.79686	10.065	270.1
2026-07-04T09:30	33.03992	175.76369	10.034	270.1
2026-07-04T09:40	33.04109	175.73069	9.988	272.4
2026-07-04T09:50	33.04400	175.69832	9.848	276.1
2026-07-04T10:00	33.04692	175.66607	9.811	276.1
2026-07-04T10:10	33.04939	175.63381	9.796	275.2
2026-07-04T10:20	33.05086	175.60112	9.901	273.1
2026-07-04T10:30	33.05214	175.56906	9.707	272.7
2026-07-04T10:40	33.05351	175.53677	9.776	272.9
2026-07-04T10:50	33.05489	175.50435	9.817	272.9
2026-07-04T11:00	33.05624	175.47163	9.908	272.8
2026-07-04T11:10	33.05768	175.43837	10.071	273.0
2026-07-04T11:20	33.05902	175.40522	10.036	272.7
2026-07-04T11:30	33.06050	175.37181	10.117	273.0
2026-07-04T11:40	33.06191	175.33845	10.101	272.9
2026-07-04T11:50	33.06324	175.30623	9.754	272.8
2026-07-04T12:00	33.06458	175.27397	9.767	272.8
2026-07-04T12:10	33.06604	175.24154	9.820	273.1
2026-07-04T12:20	33.06739	175.20956	9.682	272.9
2026-07-04T12:30	33.06873	175.17788	9.589	272.9
2026-07-04T12:40	33.07002	175.14666	9.454	272.8
2026-07-04T12:50	33.07135	175.11598	9.288	273.0
2026-07-04T13:00	33.07263	175.08516	9.330	272.8
2026-07-04T13:10	33.07403	175.05323	9.667	273.0
2026-07-04T13:20	33.07540	175.02060	9.877	272.9
2026-07-04T13:30	33.07686	174.98782	9.925	273.0
2026-07-04T13:40	33.07816	174.95460	10.052	272.7
2026-07-04T13:50	33.07959	174.92119	10.116	272.9
2026-07-04T14:00	33.08369	174.88761	10.257	278.3
2026-07-04T14:10	33.08863	174.85463	10.127	280.1
2026-07-04T14:20	33.09562	174.82206	10.160	284.3
2026-07-04T14:30	33.10985	174.79280	10.216	300.0
2026-07-04T14:40	33.12386	174.76420	10.000	300.2
2026-07-04T14:50	33.13775	174.73557	9.987	300.0
2026-07-04T15:00	33.15175	174.70685	10.026	300.1
2026-07-04T15:10	33.16909	174.70808	6.239	3.4
2026-07-04T15:20	33.16091	174.73989	10.049	107.0
2026-07-04T15:30	33.14780	174.76592	9.164	120.9
2026-07-04T15:40	33.14468	174.76845	1.355	145.7
2026-07-04T15:50	33.14478	174.76869	0.082	64.5
2026-07-04T16:00	33.14479	174.76874	0.014	81.4
2026-07-04T16:10	33.14480	174.76875	0.006	25.3
2026-07-04T16:20	33.14479	174.76884	0.029	97.8
2026-07-04T16:30	33.14477	174.76881	0.014	226.9
2026-07-04T16:40	33.14602	174.77003	0.582	39.2
2026-07-04T16:50	33.14805	174.77242	1.025	44.8
2026-07-04T17:00	33.14929	174.77396	0.645	46.1
2026-07-04T17:10	33.14929	174.77388	0.024	270.0
2026-07-04T17:20	33.14928	174.77389	0.008	144.7
2026-07-04T17:30	33.14937	174.77397	0.039	35.0
2026-07-04T17:40	33.14930	174.77398	0.022	172.2
2026-07-04T17:50	33.14931	174.77393	0.015	272.8
2026-07-04T18:00	33.14930	174.77391	0.006	253.4
2026-07-04T18:10	33.14930	174.77385	0.018	268.8
2026-07-04T18:20	33.14929	174.77391	0.018	105.2
2026-07-04T18:30	33.14929	174.77385	0.018	276.9
2026-07-04T18:40	33.14937	174.77398	0.048	53.0
2026-07-04T18:50	33.14885	174.77423	0.204	157.6
2026-07-04T19:00	33.12929	174.76996	7.143	190.4
2026-07-04T19:10	33.10399	174.76461	9.225	190.1
2026-07-04T19:20	33.08015	174.76052	8.653	188.2
2026-07-04T19:30	33.07394	174.76356	2.412	157.5
2026-07-04T19:40	33.07334	174.76369	0.218	170.0
2026-07-04T19:50	33.07329	174.76370	0.018	166.7
2026-07-04T20:00	33.07329	174.76366	0.013	261.9
2026-07-04T20:10	33.07330	174.76363	0.010	282.9
2026-07-04T20:20	33.07330	174.76365	0.007	75.5
2026-07-04T20:30	33.07337	174.76374	0.038	45.0
2026-07-04T20:40	33.07338	174.76375	0.003	56.6
2026-07-04T20:50	33.07437	174.76457	0.434	34.6
2026-07-04T21:00	33.07571	174.76556	0.565	32.1
2026-07-04T21:10	33.07566	174.76554	0.018	196.9
2026-07-04T21:20	33.07571	174.76560	0.027	43.6
2026-07-04T21:30	33.07572	174.76553	0.021	280.7
2026-07-04T21:40	33.07572	174.76553	0.001	164.3
2026-07-04T21:50	33.07566	174.76555	0.022	171.4
2026-07-04T22:00	33.07570	174.76552	0.017	331.6
2026-07-04T22:10	33.07570	174.76557	0.016	87.4
2026-07-04T22:20	33.07571	174.76558	0.004	34.0
2026-07-04T22:30	33.07572	174.76559	0.005	62.5
2026-07-04T22:40	33.07569	174.76553	0.023	239.7
2026-07-04T22:50	33.07569	174.76606	0.161	89.7
2026-07-04T23:00	33.08931	174.77737	5.966	35.0
2026-07-04T23:10	33.11195	174.78957	8.930	24.4
2026-07-04T23:20	33.11543	174.79648	2.433	59.1
2026-07-04T23:30	33.11451	174.79567	0.410	216.4
2026-07-04T23:40	33.11374	174.79548	0.283	192.1
2026-07-04T23:50	33.11372	174.79565	0.054	99.6
2026-07-05T00:00	33.11369	174.79564	0.011	200.0
2026-07-05T00:10	33.11370	174.79561	0.009	290.9
2026-07-05T00:20	33.11394	174.79578	0.100	29.6
2026-07-05T00:30	33.11654	174.79698	1.004	21.3
2026-07-05T00:40	33.11790	174.79765	0.529	22.5
2026-07-05T00:50	33.11788	174.79765	0.009	184.0
2026-07-05T01:00	33.11780	174.79755	0.041	227.2
2026-07-05T01:10	33.11787	174.79764	0.035	46.9
2026-07-05T01:20	33.11784	174.79757	0.023	242.7
2026-07-05T01:30	33.11785	174.79756	0.006	326.1
2026-07-05T01:40	33.11789	174.79761	0.021	50.3
2026-07-05T01:50	33.11786	174.79764	0.015	144.3
2026-07-05T02:00	33.11780	174.79759	0.024	215.6
2026-07-05T02:10	33.11783	174.79755	0.016	306.7
2026-07-05T02:20	33.11789	174.79770	0.049	64.1
2026-07-05T02:30	33.12299	174.78625	3.915	297.9
2026-07-05T02:40	33.13675	174.76459	8.199	307.1
2026-07-05T02:50	33.15187	174.73764	9.787	303.7
2026-07-05T03:00	33.16735	174.70973	10.097	303.4
2026-07-05T03:10	33.18293	174.68165	10.160	303.4
2026-07-05T03:20	33.19890	174.65304	10.369	303.6
2026-07-05T03:30	33.21506	174.62433	10.432	303.8
2026-07-05T03:40	33.22663	174.61276	5.428	320.0
2026-07-05T03:50	33.20340	174.61886	8.544	167.5
2026-07-05T04:00	33.17561	174.62082	9.996	176.6
2026-07-05T04:10	33.15167	174.62848	8.906	164.9
2026-07-05T04:20	33.14626	174.63123	2.111	156.8
2026-07-05T04:30	33.14639	174.63154	0.103	64.2
2026-07-05T04:40	33.14640	174.63163	0.029	81.4
2026-07-05T04:50	33.14634	174.63159	0.023	209.1
2026-07-05T05:00	33.14638	174.63161	0.013	17.4
2026-07-05T05:10	33.14637	174.63157	0.012	251.0
2026-07-05T05:20	33.14632	174.63159	0.017	163.3
2026-07-05T05:30	33.14638	174.63164	0.028	39.1
2026-07-05T05:40	33.14635	174.63159	0.020	233.0
2026-07-05T05:50	33.14640	174.63161	0.020	16.5
2026-07-05T06:00	33.14776	174.63343	0.735	48.3
2026-07-05T06:10	33.14948	174.63596	0.983	51.1
2026-07-05T06:20	33.14977	174.63639	0.164	52.1
2026-07-05T06:30	33.14973	174.63634	0.018	232.8
2026-07-05T06:40	33.14975	174.63632	0.008	311.2
2026-07-05T06:50	33.14972	174.63636	0.015	125.5
2026-07-05T07:00	33.14979	174.63644	0.033	42.5
2026-07-05T07:10	33.14977	174.63645	0.008	150.1
2026-07-05T07:20	33.14978	174.63643	0.005	286.6
2026-07-05T07:30	33.14972	174.63639	0.025	212.5
2026-07-05T07:40	33.14980	174.63641	0.030	13.8
2026-07-05T07:50	33.14976	174.63636	0.022	221.9
2026-07-05T08:00	33.14971	174.63639	0.018	154.4
2026-07-05T08:10	33.14975	174.63634	0.021	316.7
2026-07-05T08:20	33.14975	174.63638	0.011	93.8
2026-07-05T08:30	33.14977	174.63641	0.011	61.6
2026-07-05T08:40	33.14992	174.63867	0.685	85.5
2026-07-05T08:50	33.16996	174.63696	7.217	355.9
2026-07-05T09:00	33.19998	174.63255	10.862	353.0
2026-07-05T09:10	33.22827	174.62925	10.208	354.4
2026-07-05T09:20	33.24945	174.60999	9.574	322.6
2026-07-05T09:30	33.27054	174.58949	9.777	320.8
2026-07-05T09:40	33.29252	174.56837	10.143	321.1
2026-07-05T09:50	33.31404	174.54739	9.988	320.7
2026-07-05T10:00	33.33537	174.52680	9.860	321.0
2026-07-05T10:10	33.35694	174.50585	9.993	320.8
2026-07-05T10:20	33.38182	174.49015	10.111	332.1
2026-07-05T10:30	33.40715	174.47593	10.054	334.8
2026-07-05T10:40	33.43256	174.46190	10.057	335.2
2026-07-05T10:50	33.45834	174.44816	10.142	335.9
2026-07-05T11:00	33.48446	174.43422	10.277	335.9
2026-07-05T11:10	33.50948	174.42068	9.863	335.6
2026-07-05T11:20	33.53423	174.40699	9.799	335.1
2026-07-05T11:30	33.55911	174.39314	9.859	335.0
2026-07-05T11:40	33.58624	174.38776	9.876	350.6
2026-07-05T11:50	33.61451	174.38784	10.151	0.1
2026-07-05T12:00	33.63994	174.38211	9.294	349.3
2026-07-05T12:10	33.62387	174.37322	6.359	204.8
2026-07-05T12:20	33.59886	174.37655	9.040	173.6
2026-07-05T12:30	33.59249	174.38236	2.874	142.6
2026-07-05T12:40	33.59253	174.38168	0.206	274.0
2026-07-05T12:50	33.59254	174.38156	0.035	273.0
2026-07-05T13:00	33.59257	174.38155	0.011	337.3
2026-07-05T13:10	33.59253	174.38161	0.023	126.9
2026-07-05T13:20	33.59253	174.38155	0.018	275.8
2026-07-05T13:30	33.59258	174.38162	0.026	55.1
2026-07-05T13:40	33.59255	174.38157	0.018	239.6
2026-07-05T13:50	33.59258	174.38176	0.058	81.0
2026-07-05T14:00	33.59396	174.38442	0.942	58.0
2026-07-05T14:10	33.59545	174.38718	0.988	57.3
2026-07-05T14:20	33.59568	174.38764	0.162	58.8
2026-07-05T14:30	33.59567	174.38763	0.007	209.9
2026-07-05T14:40	33.59568	174.38768	0.016	71.2
2026-07-05T14:50	33.59569	174.38767	0.006	328.5
2026-07-05T15:00	33.59572	174.38767	0.008	351.4
2026-07-05T15:10	33.59573	174.38763	0.012	293.3
2026-07-05T15:20	33.59570	174.38766	0.013	136.1
2026-07-05T15:30	33.59568	174.38770	0.014	132.4
2026-07-05T15:40	33.59572	174.38767	0.017	334.1
2026-07-05T15:50	33.59569	174.38771	0.017	133.7
2026-07-05T16:00	33.59572	174.38761	0.031	290.7
2026-07-05T16:10	33.59570	174.38764	0.010	123.6
2026-07-05T16:20	33.59570	174.38762	0.007	254.8
2026-07-05T16:30	33.59285	174.38467	1.353	220.9
2026-07-05T16:40	33.61592	174.38352	8.293	357.6
2026-07-05T16:50	33.64428	174.38357	10.182	0.1
2026-07-05T17:00	33.66799	174.37130	9.281	336.6
2026-07-05T17:10	33.67827	174.34095	9.832	292.1
2026-07-05T17:20	33.68769	174.31013	9.854	290.1
2026-07-05T17:30	33.69727	174.27864	10.061	290.0
2026-07-05T17:40	33.70697	174.24680	10.171	290.0
2026-07-05T17:50	33.71684	174.21447	10.331	290.1
2026-07-05T18:00	33.72669	174.18230	10.284	290.1
2026-07-05T18:10	33.73671	174.15112	10.024	291.1
2026-07-05T18:20	33.74759	174.12323	9.235	295.0
2026-07-05T18:30	33.75731	174.09815	8.294	294.9
2026-07-05T18:40	33.76716	174.07305	8.322	295.2
2026-07-05T18:50	33.77891	174.04308	9.928	295.1
2026-07-05T19:00	33.79060	174.01318	9.902	295.1
2026-07-05T19:10	33.80434	173.98471	9.860	300.0
2026-07-05T19:20	33.81586	173.96074	8.292	299.9
2026-07-05T19:30	33.82720	173.93723	8.140	300.0
2026-07-05T19:40	33.84040	173.90986	9.475	300.0
2026-07-05T19:50	33.85388	173.88169	9.733	299.8
2026-07-05T20:00	33.86770	173.85305	9.912	300.1
2026-07-05T20:10	33.88145	173.82452	9.871	300.0
2026-07-05T20:20	33.89503	173.79636	9.744	300.0
2026-07-05T20:30	33.90851	173.76823	9.717	299.9
2026-07-05T20:40	33.92162	173.74102	9.410	300.0
2026-07-05T20:50	33.93247	173.71862	7.755	300.2
2026-07-05T21:00	33.94447	173.69370	8.618	300.0
2026-07-05T21:10	33.95710	173.66749	9.059	300.0
2026-07-05T21:20	33.96523	173.63972	8.811	289.4
2026-07-05T21:30	33.97128	173.60856	9.573	283.1
2026-07-05T21:40	33.97730	173.57729	9.603	283.0
2026-07-05T21:50	33.98328	173.54622	9.541	283.0
2026-07-05T22:00	33.98928	173.51539	9.473	283.1
2026-07-05T22:10	33.99521	173.48424	9.558	282.9
2026-07-05T22:20	34.00121	173.45287	9.629	283.0
2026-07-05T22:30	34.00627	173.42126	9.630	280.9
2026-07-05T22:40	34.01071	173.39414	8.266	281.1
2026-07-05T22:50	34.01432	173.39656	1.486	29.1
2026-07-05T23:00	34.01372	173.39526	0.445	240.9
2026-07-05T23:10	34.01358	173.39510	0.068	224.4
2026-07-05T23:20	34.01362	173.39511	0.014	18.6
2026-07-05T23:30	34.01354	173.39517	0.034	151.6
2026-07-05T23:40	34.01355	173.39512	0.014	283.2
2026-07-05T23:50	34.01354	173.39514	0.007	108.1
2026-07-06T00:00	34.01355	173.39513	0.006	310.6
2026-07-06T00:10	34.01355	173.39511	0.005	270.0
2026-07-06T00:20	34.01546	173.39491	0.689	354.9
2026-07-06T00:30	34.01651	173.39478	0.381	354.1
2026-07-06T00:40	34.01649	173.39477	0.010	190.9
2026-07-06T00:50	34.01649	173.39473	0.012	270.0
2026-07-06T01:00	34.01644	173.39477	0.022	146.3
2026-07-06T01:10	34.01646	173.39474	0.012	315.8
2026-07-06T01:20	34.01649	173.39480	0.019	60.9
2026-07-06T01:30	34.01652	173.39482	0.011	31.7
2026-07-06T01:40	34.01646	173.39484	0.020	157.4
2026-07-06T01:50	34.01644	173.39478	0.020	239.4
2026-07-06T02:00	34.01647	173.39478	0.014	1.3
2026-07-06T02:10	34.01712	173.39541	0.297	38.8
2026-07-06T02:20	34.01567	173.37993	4.659	263.6
2026-07-06T02:30	34.01737	173.34632	10.069	273.5
2026-07-06T02:40	34.02062	173.33050	4.872	283.9
2026-07-06T02:50	34.02070	173.33052	0.027	10.8
2026-07-06T03:00	34.02052	173.33060	0.066	160.2
2026-07-06T03:10	34.02051	173.33062	0.008	114.2
2026-07-06T03:20	34.02048	173.33069	0.024	116.3
2026-07-06T03:30	34.02095	173.33118	0.220	40.9
2026-07-06T03:40	34.02132	173.33149	0.165	35.5
2026-07-06T03:50	34.02123	173.33150	0.032	175.7
2026-07-06T04:00	34.02126	173.33153	0.014	40.7
2026-07-06T04:10	34.02235	173.33227	0.449	29.3
2026-07-06T04:20	34.02480	173.33384	0.997	28.2
2026-07-06T04:30	34.02725	173.33542	1.001	28.2
2026-07-06T04:40	34.02767	173.33571	0.173	29.4
2026-07-06T04:50	34.02765	173.33566	0.018	238.5
2026-07-06T05:00	34.02766	173.33577	0.034	82.1
2026-07-06T05:10	34.02769	173.33567	0.031	289.9
2026-07-06T05:20	34.02765	173.33569	0.015	160.5
2026-07-06T05:30	34.02766	173.33577	0.024	82.4
2026-07-06T05:40	34.02767	173.33572	0.015	282.4
2026-07-06T05:50	34.02766	173.33576	0.011	108.5
2026-07-06T06:00	34.02764	173.33571	0.015	252.0
2026-07-06T06:10	34.02768	173.33580	0.029	65.1
2026-07-06T06:20	34.02767	173.33580	0.003	185.9
2026-07-06T06:30	34.02768	173.33576	0.011	287.6
2026-07-06T06:40	34.02765	173.33572	0.016	226.5
2026-07-06T06:50	34.02769	173.33575	0.017	23.5
2026-07-06T07:00	34.02790	173.33536	0.138	303.6
2026-07-06T07:10	34.02824	173.33486	0.193	308.7
2026-07-06T07:20	34.03985	173.32856	4.576	335.7
2026-07-06T07:30	34.06685	173.31935	10.082	344.2
2026-07-06T07:40	34.09379	173.31031	10.045	344.4
2026-07-06T07:50	34.12042	173.29974	10.073	341.7
2026-07-06T08:00	34.14697	173.28860	10.100	340.8
2026-07-06T08:10	34.17281	173.27738	9.864	340.2
2026-07-06T08:20	34.18045	173.24895	8.922	287.9
2026-07-06T08:30	34.18052	173.21672	9.621	270.1
2026-07-06T08:40	34.18032	173.18901	8.270	269.5
2026-07-06T08:50	34.18040	173.16744	6.439	270.3
2026-07-06T09:00	34.19634	173.15907	6.246	336.4
2026-07-06T09:10	34.20353	173.18925	9.367	74.0
2026-07-06T09:20	34.21433	173.21958	9.849	66.8
2026-07-06T09:30	34.22538	173.25075	10.112	66.9
2026-07-06T09:40	34.23774	173.28116	10.098	63.9
2026-07-06T09:50	34.24990	173.31104	9.927	63.9
2026-07-06T10:00	34.26225	173.34084	9.933	63.5
2026-07-06T10:10	34.27479	173.37160	10.219	63.8
2026-07-06T10:20	34.29620	173.38951	9.360	34.8
2026-07-06T10:30	34.32485	173.38961	10.291	0.2
2026-07-06T10:40	34.35237	173.38963	9.883	0.0
2026-07-06T10:50	34.37953	173.38949	9.757	359.8
2026-07-06T11:00	34.40664	173.38942	9.736	359.9
2026-07-06T11:10	34.43325	173.38949	9.560	0.1
2026-07-06T11:20	34.45998	173.38951	9.600	0.0
2026-07-06T11:30	34.48633	173.38952	9.468	0.0
2026-07-06T11:40	34.51195	173.38954	9.200	0.0
2026-07-06T11:50	34.53703	173.38954	9.008	0.0
2026-07-06T12:00	34.56135	173.38122	9.080	344.2
2026-07-06T12:10	34.58514	173.36977	9.198	338.3
2026-07-06T12:20	34.58181	173.35365	4.934	256.0
2026-07-06T12:30	34.56246	173.36272	7.455	158.8
2026-07-06T12:40	34.55776	173.36490	1.810	159.0
2026-07-06T12:50	34.55810	173.36555	0.228	57.5
2026-07-06T13:00	34.55932	173.36674	0.565	38.9
2026-07-06T13:10	34.55938	173.36671	0.025	336.6
2026-07-06T13:20	34.55940	173.36670	0.004	335.7
2026-07-06T13:30	34.55944	173.36673	0.018	26.9
2026-07-06T13:40	34.55940	173.36675	0.016	161.5
2026-07-06T13:50	34.55943	173.36666	0.029	295.7
2026-07-06T14:00	34.55998	173.36732	0.277	45.2
2026-07-06T14:10	34.56200	173.36961	0.997	43.1
2026-07-06T14:20	34.56248	173.37024	0.253	46.9
2026-07-06T14:30	34.56252	173.37023	0.013	357.4
2026-07-06T14:40	34.56254	173.37022	0.010	334.2
2026-07-06T14:50	34.56254	173.37021	0.002	270.0
2026-07-06T15:00	34.56253	173.37025	0.014	118.5
2026-07-06T15:10	34.56248	173.37024	0.018	194.2
2026-07-06T15:20	34.56249	173.37021	0.009	300.1
2026-07-06T15:30	34.56250	173.37021	0.005	0.0
2026-07-06T15:40	34.56253	173.37024	0.012	41.9
2026-07-06T15:50	34.56233	173.37102	0.242	106.3
2026-07-06T16:00	34.57317	173.36818	3.983	347.8
2026-07-06T16:10	34.59571	173.35793	8.650	339.4
2026-07-06T16:20	34.62026	173.34674	9.424	339.4
2026-07-06T16:30	34.64469	173.33565	9.373	339.4
2026-07-06T16:40	34.66946	173.32439	9.503	339.4
2026-07-06T16:50	34.69447	173.31303	9.595	339.4
2026-07-06T17:00	34.71956	173.30165	9.626	339.5
2026-07-06T17:10	34.74533	173.29535	9.442	348.6
2026-07-06T17:20	34.77176	173.29323	9.515	356.2
2026-07-06T17:30	34.79789	173.29312	9.386	359.8
2026-07-06T17:40	34.82371	173.29673	9.338	6.6
2026-07-06T17:50	34.84858	173.30718	9.451	19.1
2026-07-06T18:00	34.87317	173.31804	9.401	20.0
2026-07-06T18:10	34.89796	173.32859	9.437	19.3
2026-07-06T18:20	34.92450	173.32862	9.533	0.1
2026-07-06T18:30	34.94758	173.32870	8.291	0.2
2026-07-06T18:40	34.95819	173.33654	4.462	31.3
2026-07-06T18:50	34.94625	173.36399	9.183	117.8
2026-07-06T19:00	34.94547	173.37812	4.188	93.8
2026-07-06T19:10	34.94604	173.37844	0.226	25.0
2026-07-06T19:20	34.94631	173.37846	0.095	3.4
2026-07-06T19:30	34.94632	173.37844	0.007	301.3
2026-07-06T19:40	34.94629	173.37841	0.015	215.9
2026-07-06T19:50	34.94631	173.37856	0.044	76.8
2026-07-06T20:00	34.94624	173.37853	0.029	199.4
2026-07-06T20:10	34.94669	173.37660	0.592	286.1
2026-07-06T20:20	34.94750	173.37337	0.999	286.8
2026-07-06T20:30	34.94792	173.37163	0.536	286.6
2026-07-06T20:40	34.94794	173.37164	0.008	14.7
2026-07-06T20:50	34.94788	173.37173	0.037	132.0
2026-07-06T21:00	34.94792	173.37166	0.026	309.2
2026-07-06T21:10	34.94794	173.37174	0.024	68.8
2026-07-06T21:20	34.94792	173.37175	0.008	167.3
2026-07-06T21:30	34.94788	173.37162	0.040	249.7
2026-07-06T21:40	34.94787	173.37172	0.031	102.0
2026-07-06T21:50	34.94788	173.37173	0.007	20.1
2026-07-06T22:00	34.94796	173.37173	0.027	3.8
2026-07-06T22:10	34.94790	173.37167	0.026	224.9
2026-07-06T22:20	34.94788	173.37176	0.029	111.2
2026-07-06T22:30	34.94803	173.37225	0.156	68.7
2026-07-06T22:40	34.96132	173.36177	5.690	327.0
2026-07-06T22:50	34.98080	173.33781	9.960	314.7
2026-07-06T23:00	35.00157	173.31554	9.949	318.6
2026-07-06T23:10	35.02260	173.29330	10.014	319.0
2026-07-06T23:20	35.04452	173.27174	10.128	321.0
2026-07-06T23:30	35.06741	173.25175	10.125	324.3
2026-07-06T23:40	35.07409	173.25306	2.431	9.1
2026-07-06T23:50	35.07416	173.25210	0.284	275.1
2026-07-07T00:00	35.07419	173.25207	0.011	316.0
2026-07-07T00:10	35.07412	173.25208	0.023	179.2
2026-07-07T00:20	35.07414	173.25212	0.013	60.7
2026-07-07T00:30	35.07413	173.25211	0.003	210.4
2026-07-07T00:40	35.07418	173.25208	0.018	331.3
2026-07-07T00:50	35.07536	173.25214	0.425	2.4
2026-07-07T01:00	35.07740	173.25222	0.733	1.9
2026-07-07T01:10	35.07741	173.25226	0.012	79.7
2026-07-07T01:20	35.07739	173.25224	0.009	216.5
2026-07-07T01:30	35.07739	173.25221	0.012	273.5
2026-07-07T01:40	35.07740	173.25226	0.016	79.8
2026-07-07T01:50	35.07734	173.25232	0.027	135.8
2026-07-07T02:00	35.07741	173.25228	0.027	328.9
2026-07-07T02:10	35.07733	173.25226	0.029	187.6
2026-07-07T02:20	35.07739	173.25229	0.025	19.2
2026-07-07T02:30	35.07741	173.25227	0.008	307.7
2026-07-07T02:40	35.07739	173.25231	0.013	122.7
2026-07-07T02:50	35.07476	173.26132	2.825	109.5
2026-07-07T03:00	35.06165	173.26877	5.199	155.0
2026-07-07T03:10	35.06453	173.26524	1.468	314.8
2026-07-07T03:20	35.06448	173.26525	0.019	171.9
2026-07-07T03:30	35.06446	173.26536	0.035	98.9
2026-07-07T03:40	35.06453	173.26562	0.079	72.1
2026-07-07T03:50	35.06450	173.26567	0.020	127.4
2026-07-07T04:00	35.06448	173.26563	0.014	243.2
2026-07-07T04:10	35.06455	173.26563	0.027	358.1
2026-07-07T04:20	35.06453	173.26556	0.021	248.6
2026-07-07T04:30	35.06537	173.26272	0.892	289.6
2026-07-07T04:40	35.06620	173.25995	0.871	290.1
2026-07-07T04:50	35.06625	173.25992	0.021	330.1
2026-07-07T05:00	35.06622	173.25990	0.010	200.1
2026-07-07T05:10	35.06627	173.25991	0.018	6.4
2026-07-07T05:20	35.06620	173.25982	0.038	224.2
2026-07-07T05:30	35.06625	173.25986	0.023	32.1
2026-07-07T05:40	35.06624	173.25983	0.011	254.5
2026-07-07T05:50	35.06625	173.25991	0.023	80.3
2026-07-07T06:00	35.06622	173.25982	0.028	243.7
2026-07-07T06:10	35.06624	173.25988	0.019	70.0
2026-07-07T06:20	35.06624	173.25981	0.019	275.4
2026-07-07T06:30	35.06627	173.25985	0.014	46.8
2026-07-07T06:40	35.06622	173.25981	0.021	211.8
2026-07-07T06:50	35.06711	173.26199	0.719	63.6
2026-07-07T07:00	35.07837	173.28652	8.296	60.8
2026-07-07T07:10	35.09009	173.31509	9.430	63.5
2026-07-07T07:20	35.10145	173.34505	9.739	65.2
2026-07-07T07:30	35.11311	173.37418	9.568	64.0
2026-07-07T07:40	35.12330	173.40375	9.463	67.2
2026-07-07T07:50	35.13240	173.43401	9.511	69.9
2026-07-07T08:00	35.14132	173.46360	9.301	69.8
2026-07-07T08:10	35.15032	173.49332	9.348	69.8
2026-07-07T08:20	35.15930	173.52323	9.395	69.9
2026-07-07T08:30	35.16817	173.55281	9.288	69.9
2026-07-07T08:40	35.17744	173.58340	9.619	69.8
2026-07-07T08:50	35.18652	173.61386	9.558	70.0
2026-07-07T09:00	35.19544	173.64332	9.260	69.8
2026-07-07T09:10	35.20413	173.67227	9.090	69.9
2026-07-07T09:20	35.21296	173.70121	9.103	69.6
2026-07-07T09:30	35.21973	173.73004	8.840	74.0
2026-07-07T09:40	35.20681	173.71591	6.237	221.9
2026-07-07T09:50	35.19906	173.68473	9.606	253.2
2026-07-07T10:00	35.19552	173.65978	7.467	260.2
2026-07-07T10:10	35.20364	173.66593	3.435	31.9
2026-07-07T10:20	35.20253	173.66504	0.477	213.3
2026-07-07T10:30	35.19975	173.66284	1.191	213.0
2026-07-07T10:40	35.19712	173.66082	1.117	212.3
2026-07-07T10:50	35.19714	173.66004	0.229	271.8
2026-07-07T11:00	35.19717	173.66004	0.011	352.5
2026-07-07T11:10	35.19711	173.66002	0.023	192.7
2026-07-07T11:20	35.19893	173.66015	0.656	3.3
2026-07-07T11:30	35.20171	173.66034	0.998	3.2
2026-07-07T11:40	35.20283	173.66039	0.405	2.1
2026-07-07T11:50	35.20279	173.66039	0.015	176.7
2026-07-07T12:00	35.20283	173.66039	0.013	0.0
2026-07-07T12:10	35.20279	173.66045	0.020	130.2
2026-07-07T12:20	35.20283	173.66036	0.029	300.4
2026-07-07T12:30	35.20279	173.66044	0.027	122.3
2026-07-07T12:40	35.20282	173.66041	0.014	318.8
2026-07-07T12:50	35.20280	173.66038	0.011	217.0
2026-07-07T13:00	35.20278	173.66044	0.017	109.0
2026-07-07T13:10	35.20276	173.66046	0.010	143.2
2026-07-07T13:20	35.20243	173.66004	0.171	225.6
2026-07-07T13:30	35.20235	173.66001	0.028	202.6
2026-07-07T13:40	35.20239	173.66008	0.027	58.3
2026-07-07T13:50	35.20718	173.67985	6.076	73.5
2026-07-07T14:00	35.21342	173.70922	8.946	75.5
2026-07-07T14:10	35.21939	173.73843	8.872	76.0
2026-07-07T14:20	35.22547	173.76815	9.032	76.0
2026-07-07T14:30	35.23169	173.79816	9.123	75.8
2026-07-07T14:40	35.23787	173.82837	9.176	76.0
2026-07-07T14:50	35.24408	173.85914	9.341	76.2
2026-07-07T15:00	35.25042	173.89048	9.511	76.1
2026-07-07T15:10	35.25699	173.92225	9.655	75.9
2026-07-07T15:20	35.26356	173.95456	9.809	76.1
2026-07-07T15:30	35.27024	173.98716	9.897	76.0
2026-07-07T15:40	35.27720	174.02133	10.375	76.0
2026-07-07T15:50	35.28403	174.05485	10.174	76.0
2026-07-07T16:00	35.29103	174.08902	10.375	76.0
2026-07-07T16:10	35.29743	174.12109	9.720	76.3
2026-07-07T16:20	35.30330	174.15142	9.178	76.7
2026-07-07T16:30	35.30958	174.15703	2.796	36.2
2026-07-07T16:40	35.30822	174.15670	0.498	191.0
2026-07-07T16:50	35.30665	174.15645	0.569	187.7
2026-07-07T17:00	35.30539	174.15620	0.459	189.1
2026-07-07T17:10	35.30468	174.15600	0.264	192.7
2026-07-07T17:20	35.30476	174.15600	0.031	359.4
2026-07-07T17:30	35.30521	174.15576	0.176	336.0
2026-07-07T17:40	35.30791	174.15494	1.000	345.9
2026-07-07T17:50	35.30973	174.15440	0.673	346.4
2026-07-07T18:00	35.30977	174.15437	0.018	330.2
2026-07-07T18:10	35.30976	174.15438	0.005	124.9
2026-07-07T18:20	35.30971	174.15438	0.019	179.1
2026-07-07T18:30	35.30973	174.15440	0.010	27.7
2026-07-07T18:40	35.30972	174.15441	0.005	135.5
2026-07-07T18:50	35.30976	174.15445	0.018	43.7
2026-07-07T19:00	35.30967	174.15436	0.043	220.9
2026-07-07T19:10	35.30970	174.15433	0.013	314.8
2026-07-07T19:20	35.30974	174.15445	0.039	65.8
2026-07-07T19:30	35.30967	174.15443	0.026	192.2
2026-07-07T19:40	35.30699	174.15758	1.337	136.1
2026-07-07T19:50	35.29113	174.17907	8.515	132.0
2026-07-07T20:00	35.27254	174.20430	9.993	131.9
2026-07-07T20:10	35.25313	174.23068	10.442	131.9
2026-07-07T20:20	35.23417	174.25705	10.334	131.2
2026-07-07T20:30	35.21551	174.28355	10.293	130.6
2026-07-07T20:40	35.19718	174.30893	9.970	131.3
2026-07-07T20:50	35.17798	174.33496	10.317	131.9
2026-07-07T21:00	35.15934	174.36013	10.001	132.1
2026-07-07T21:10	35.14052	174.38554	10.093	132.0
2026-07-07T21:20	35.12197	174.41062	9.961	132.0
2026-07-07T21:30	35.10311	174.43612	10.127	132.0
2026-07-07T21:40	35.08410	174.46179	10.201	132.0
2026-07-07T21:50	35.06474	174.48804	10.416	131.9
2026-07-07T22:00	35.04606	174.51311	9.993	132.2
2026-07-07T22:10	35.02705	174.53872	10.193	132.1
2026-07-07T22:20	35.00877	174.56339	9.812	132.0
2026-07-07T22:30	34.99246	174.58678	9.062	130.3
2026-07-07T22:40	34.97979	174.60933	8.071	124.3
2026-07-07T22:50	34.97767	174.61216	1.133	132.2
2026-07-07T23:00	34.97715	174.61157	0.255	223.2
2026-07-07T23:10	34.97719	174.61165	0.026	61.5
2026-07-07T23:20	34.97713	174.61170	0.026	141.1
2026-07-07T23:30	34.97716	174.61178	0.026	62.5
2026-07-07T23:40	34.97714	174.61170	0.025	251.9
2026-07-07T23:50	34.97715	174.61167	0.008	303.4
2026-07-08T00:00	34.97886	174.61096	0.648	341.0
2026-07-08T00:10	34.98136	174.60985	0.957	339.9
2026-07-08T00:20	34.98133	174.60985	0.012	177.1
2026-07-08T00:30	34.98131	174.60988	0.011	127.6
2026-07-08T00:40	34.98137	174.60987	0.023	352.7
2026-07-08T00:50	34.98136	174.60986	0.006	219.5
2026-07-08T01:00	34.98137	174.60983	0.007	278.3
2026-07-08T01:10	34.98137	174.60983	0.001	320.5
2026-07-08T01:20	34.98133	174.60980	0.017	210.8
2026-07-08T01:30	34.98140	174.60962	0.060	295.0
2026-07-08T01:40	34.98174	174.60967	0.125	7.7
2026-07-08T01:50	34.98303	174.60740	0.816	304.4
2026-07-08T02:00	35.00808	174.59424	9.802	336.6
2026-07-08T02:10	35.03555	174.57639	11.189	331.9
2026-07-08T02:20	35.06263	174.55840	11.086	331.4
2026-07-08T02:30	35.08834	174.54194	10.437	332.2
2026-07-08T02:40	35.11438	174.52536	10.558	332.4
2026-07-08T02:50	35.14046	174.50883	10.563	332.5
2026-07-08T03:00	35.16570	174.49282	10.223	332.5
2026-07-08T03:10	35.19080	174.47687	10.173	332.4
2026-07-08T03:20	35.21627	174.46077	10.307	332.6
2026-07-08T03:30	35.24163	174.44459	10.283	332.4
2026-07-08T03:40	35.26695	174.42842	10.268	332.4
2026-07-08T03:50	35.29233	174.41237	10.269	332.6
2026-07-08T04:00	35.31810	174.39605	10.433	332.6
2026-07-08T04:10	35.34416	174.37947	10.556	332.5
2026-07-08T04:20	35.36996	174.36306	10.451	332.5
2026-07-08T04:30	35.39498	174.34702	10.154	332.3
2026-07-08T04:40	35.41960	174.33146	9.960	332.6
2026-07-08T04:50	35.44091	174.32358	7.996	343.2
2026-07-08T05:00	35.42590	174.33339	6.114	151.8
2026-07-08T05:10	35.40447	174.33610	7.740	174.1
2026-07-08T05:20	35.40154	174.33825	1.229	149.0
2026-07-08T05:30	35.40160	174.33830	0.027	35.4
2026-07-08T05:40	35.40159	174.33823	0.020	260.7
2026-07-08T05:50	35.40162	174.33821	0.011	327.5
2026-07-08T06:00	35.40154	174.33817	0.030	208.5
2026-07-08T06:10	35.40158	174.33816	0.013	350.9
2026-07-08T06:20	35.40156	174.33818	0.010	146.2
2026-07-08T06:30	35.40276	174.33881	0.470	23.2
2026-07-08T06:40	35.40527	174.34027	1.000	25.6
2026-07-08T06:50	35.40668	174.34114	0.568	26.6
2026-07-08T07:00	35.40669	174.34118	0.014	85.5
2026-07-08T07:10	35.40665	174.34115	0.016	216.0
2026-07-08T07:20	35.40670	174.34116	0.018	12.2
2026-07-08T07:30	35.40671	174.34117	0.005	45.0
2026-07-08T07:40	35.40671	174.34116	0.004	270.0
2026-07-08T07:50	35.40665	174.34112	0.022	207.5
2026-07-08T08:00	35.40667	174.34107	0.017	293.3
2026-07-08T08:10	35.40665	174.34104	0.012	234.3
2026-07-08T08:20	35.40670	174.34118	0.045	67.8
2026-07-08T08:30	35.40670	174.34110	0.023	270.0
2026-07-08T08:40	35.40670	174.34109	0.002	281.5
2026-07-08T08:50	35.40664	174.34103	0.028	223.0
2026-07-08T09:00	35.40666	174.34118	0.047	80.8
2026-07-08T09:10	35.42011	174.35424	6.172	38.5
2026-07-08T09:20	35.44511	174.37506	10.869	34.3
2026-07-08T09:30	35.46935	174.39425	10.373	32.9
2026-07-08T09:40	35.49375	174.41342	10.419	32.7
2026-07-08T09:50	35.51624	174.43541	10.344	38.6
2026-07-08T10:00	35.54010	174.45624	10.532	35.5
2026-07-08T10:10	35.56358	174.47646	10.315	35.1
2026-07-08T10:20	35.58687	174.49690	10.297	35.6
2026-07-08T10:30	35.61038	174.51716	10.326	35.1
2026-07-08T10:40	35.63372	174.53720	10.241	35.0
2026-07-08T10:50	35.65744	174.55777	10.442	35.3
2026-07-08T11:00	35.68099	174.57820	10.364	35.3
2026-07-08T11:10	35.70451	174.59852	10.341	35.2
2026-07-08T11:20	35.72825	174.61909	10.442	35.2
2026-07-08T11:30	35.75132	174.63896	10.128	35.1
2026-07-08T11:40	35.77403	174.65863	9.985	35.2
2026-07-08T11:50	35.79716	174.67882	10.198	35.4
2026-07-08T12:00	35.82033	174.69900	10.208	35.3
2026-07-08T12:10	35.84380	174.71940	10.330	35.3
2026-07-08T12:20	35.86730	174.73962	10.309	35.0
2026-07-08T12:30	35.89096	174.76019	10.411	35.3
2026-07-08T12:40	35.91466	174.78086	10.441	35.3
2026-07-08T12:50	35.93825	174.80143	10.392	35.4
2026-07-08T13:00	35.96164	174.82162	10.264	35.1
2026-07-08T13:10	35.98495	174.84198	10.274	35.4
2026-07-08T13:20	36.00852	174.86223	10.325	34.9
2026-07-08T13:30	36.03181	174.88246	10.242	35.2
2026-07-08T13:40	36.05487	174.90267	10.168	35.4
2026-07-08T13:50	36.07778	174.92263	10.082	35.3
2026-07-08T14:00	36.10342	174.92625	9.275	6.5
2026-07-08T14:10	36.12970	174.91476	10.017	340.5
2026-07-08T14:20	36.14861	174.89598	8.725	321.1
2026-07-08T14:30	36.16736	174.87680	8.754	320.3
2026-07-08T14:40	36.18875	174.85460	10.043	319.9
2026-07-08T14:50	36.19914	174.85220	3.799	349.4
2026-07-08T15:00	36.17990	174.86640	8.054	149.1
2026-07-08T15:10	36.16645	174.87384	5.298	155.8
2026-07-08T15:20	36.16591	174.87399	0.197	167.4
2026-07-08T15:30	36.16583	174.87418	0.063	118.3
2026-07-08T15:40	36.16580	174.87410	0.027	242.5
2026-07-08T15:50	36.16586	174.87420	0.037	51.9
2026-07-08T16:00	36.16584	174.87422	0.011	138.5
2026-07-08T16:10	36.16581	174.87429	0.022	115.6
2026-07-08T16:20	36.16573	174.87439	0.041	130.8
2026-07-08T16:30	36.16563	174.87475	0.109	109.6
2026-07-08T16:40	36.16507	174.87806	0.985	101.9
2026-07-08T16:50	36.16481	174.87980	0.517	100.4
2026-07-08T17:00	36.16475	174.87970	0.037	236.4
2026-07-08T17:10	36.16472	174.87969	0.011	187.7
2026-07-08T17:20	36.16475	174.87964	0.018	306.5
2026-07-08T17:30	36.16481	174.87970	0.027	41.9
2026-07-08T17:40	36.16472	174.87977	0.037	147.6
2026-07-08T17:50	36.16472	174.87975	0.007	273.1
2026-07-08T18:00	36.16476	174.87982	0.025	54.8
2026-07-08T18:10	36.16476	174.87982	0.001	219.0
2026-07-08T18:20	36.16478	174.87977	0.017	304.3
2026-07-08T18:30	36.16479	174.87982	0.013	83.9
2026-07-08T18:40	36.16479	174.87981	0.004	287.1
2026-07-08T18:50	36.16351	174.88658	2.027	103.1
2026-07-08T19:00	36.16321	174.91461	8.167	90.8
2026-07-08T19:10	36.16317	174.94919	10.074	90.1
2026-07-08T19:20	36.16309	174.98351	9.998	90.1
2026-07-08T19:30	36.16319	175.01800	10.050	89.8
2026-07-08T19:40	36.16312	175.05171	9.822	90.1
2026-07-08T19:50	36.16304	175.08489	9.667	90.2
2026-07-08T20:00	36.14574	175.09083	6.451	164.4
2026-07-08T20:10	36.13936	175.06243	8.587	254.5
2026-07-08T20:20	36.13264	175.03464	8.455	253.4
2026-07-08T20:30	36.12459	175.02719	3.617	216.9
2026-07-08T20:40	36.12445	175.02697	0.080	233.4
2026-07-08T20:50	36.12444	175.02640	0.167	268.0
2026-07-08T21:00	36.12443	175.02639	0.001	208.4
2026-07-08T21:10	36.12442	175.02636	0.010	243.4
2026-07-08T21:20	36.12437	175.02638	0.019	165.7
2026-07-08T21:30	36.12437	175.02642	0.013	85.2
2026-07-08T21:40	36.12443	175.02641	0.020	351.6
2026-07-08T21:50	36.12649	175.02653	0.741	2.7
2026-07-08T22:00	36.12804	175.02661	0.559	2.5
2026-07-08T22:10	36.12806	175.02660	0.009	329.9
2026-07-08T22:20	36.12805	175.02658	0.009	228.1
2026-07-08T22:30	36.12811	175.02660	0.024	18.2
2026-07-08T22:40	36.12810	175.02656	0.014	253.6
2026-07-08T22:50	36.12812	175.02661	0.016	66.5
2026-07-08T23:00	36.12811	175.02665	0.013	102.9
2026-07-08T23:10	36.12812	175.02665	0.003	325.9
2026-07-08T23:20	36.12807	175.02659	0.022	222.5
2026-07-08T23:30	36.12802	175.02661	0.019	161.7
2026-07-08T23:40	36.12810	175.02661	0.027	356.9
2026-07-08T23:50	36.13903	175.02939	4.011	11.6
2026-07-09T00:00	36.16507	175.03456	9.476	9.2
2026-07-09T00:10	36.19258	175.03952	9.989	8.3
2026-07-09T00:20	36.21980	175.04496	9.908	9.2
2026-07-09T00:30	36.24725	175.05028	9.985	8.9
2026-07-09T00:40	36.27457	175.05558	9.936	8.9
2026-07-09T00:50	36.30233	175.06103	10.102	9.0
2026-07-09T01:00	36.32995	175.06645	10.048	9.0
2026-07-09T01:10	36.35729	175.07184	9.946	9.1
2026-07-09T01:20	36.38536	175.07709	10.199	8.6
2026-07-09T01:30	36.41350	175.08234	10.226	8.6
2026-07-09T01:40	36.44124	175.08747	10.078	8.5
2026-07-09T01:50	36.46920	175.09269	10.160	8.6
2026-07-09T02:00	36.49703	175.09794	10.116	8.7
2026-07-09T02:10	36.51450	175.10673	6.776	22.1
2026-07-09T02:20	36.48976	175.09613	9.410	199.1
2026-07-09T02:30	36.46409	175.08438	9.834	200.3
2026-07-09T02:40	36.43921	175.07733	9.168	192.9
2026-07-09T02:50	36.43483	175.07835	1.602	169.4
2026-07-09T03:00	36.43490	175.07851	0.053	61.2
2026-07-09T03:10	36.43492	175.07847	0.012	298.1
2026-07-09T03:20	36.43489	175.07844	0.011	216.6
2026-07-09T03:30	36.43488	175.07858	0.039	94.8
2026-07-09T03:40	36.43487	175.07844	0.039	263.1
2026-07-09T03:50	36.43489	175.07846	0.009	37.5
2026-07-09T04:00	36.43490	175.07852	0.016	79.4
2026-07-09T04:10	36.43664	175.07906	0.647	14.1
2026-07-09T04:20	36.43933	175.07990	0.997	14.2
2026-07-09T04:30	36.44005	175.08024	0.274	20.9
2026-07-09T04:40	36.44008	175.08024	0.010	358.4
2026-07-09T04:50	36.44007	175.08020	0.012	266.6
2026-07-09T05:00	36.44002	175.08017	0.021	196.4
2026-07-09T05:10	36.44009	175.08014	0.028	339.1
2026-07-09T05:20	36.44009	175.08022	0.022	88.2
2026-07-09T05:30	36.44006	175.08010	0.036	251.2
2026-07-09T05:40	36.44010	175.08014	0.018	34.7
2026-07-09T05:50	36.44009	175.08024	0.031	100.8
2026-07-09T06:00	36.44008	175.08022	0.006	251.0
2026-07-09T06:10	36.44008	175.08025	0.008	85.0
2026-07-09T06:20	36.44006	175.08015	0.029	256.5
2026-07-09T06:30	36.43973	175.08112	0.306	113.0
2026-07-09T06:40	36.46072	175.08046	7.544	358.5
2026-07-09T06:50	36.49024	175.08220	10.618	2.7
2026-07-09T07:00	36.51983	175.08358	10.641	2.2
2026-07-09T07:10	36.54977	175.08492	10.762	2.1
2026-07-09T07:20	36.57911	175.08619	10.550	2.0
2026-07-09T07:30	36.60835	175.08760	10.516	2.2
2026-07-09T07:40	36.63730	175.08897	10.411	2.2
2026-07-09T07:50	36.66658	175.09022	10.527	2.0
2026-07-09T08:00	36.69643	175.09150	10.730	2.0
2026-07-09T08:10	36.72706	175.09296	11.016	2.2
2026-07-09T08:20	36.75753	175.09423	10.954	1.9
2026-07-09T08:30	36.78749	175.09572	10.775	2.3
2026-07-09T08:40	36.81774	175.09710	10.877	2.1
2026-07-09T08:50	36.84818	175.09846	10.945	2.0
2026-07-09T09:00	36.87847	175.09968	10.890	1.9
2026-07-09T09:10	36.90831	175.10117	10.731	2.3
2026-07-09T09:20	36.93833	175.10236	10.794	1.8
2026-07-09T09:30	36.96829	175.10381	10.774	2.2
2026-07-09T09:40	36.99863	175.10522	10.908	2.1
2026-07-09T09:50	37.02940	175.10662	11.065	2.1
2026-07-09T10:00	37.06048	175.10801	11.176	2.0
2026-07-09T10:10	37.09186	175.10946	11.287	2.1
2026-07-09T10:20	37.12298	175.11068	11.187	1.8
2026-07-09T10:30	37.15307	175.11223	10.821	2.4
2026-07-09T10:40	37.18234	175.11383	10.530	2.5
2026-07-09T10:50	37.21121	175.11543	10.383	2.5
2026-07-09T11:00	37.23998	175.11578	10.340	0.6
2026-07-09T11:10	37.26880	175.11593	10.357	0.2
2026-07-09T11:20	37.29734	175.11593	10.257	360.0
2026-07-09T11:30	37.32549	175.11597	10.116	0.1
2026-07-09T11:40	37.35160	175.11601	9.383	0.1
2026-07-09T11:50	37.34681	175.12827	3.915	116.1
2026-07-09T12:00	37.32085	175.12390	9.414	187.7
2026-07-09T12:10	37.29407	175.11952	9.705	187.4
2026-07-09T12:20	37.28520	175.12175	3.250	168.6
2026-07-09T12:30	37.28527	175.12209	0.101	76.6
2026-07-09T12:40	37.28524	175.12219	0.031	112.2
2026-07-09T12:50	37.28531	175.12218	0.028	353.5
2026-07-09T13:00	37.28525	175.12209	0.034	230.5
2026-07-09T13:10	37.28530	175.12221	0.037	61.7
2026-07-09T13:20	37.28526	175.12212	0.028	239.8
2026-07-09T13:30	37.28534	175.12217	0.032	28.0
2026-07-09T13:40	37.28525	175.12210	0.039	213.7
2026-07-09T13:50	37.28698	175.12346	0.735	32.2
2026-07-09T14:00	37.28923	175.12548	0.995	35.7
2026-07-09T14:10	37.29003	175.12626	0.366	37.8
2026-07-09T14:20	37.29002	175.12622	0.015	244.9
2026-07-09T14:30	37.29000	175.12626	0.015	111.8
2026-07-09T14:40	37.29003	175.12622	0.015	310.5
2026-07-09T14:50	37.29002	175.12624	0.006	137.3
2026-07-09T15:00	37.28996	175.12618	0.025	217.6
2026-07-09T15:10	37.29002	175.12618	0.022	359.3
2026-07-09T15:20	37.28998	175.12620	0.016	161.7
2026-07-09T15:30	37.28996	175.12622	0.008	149.1
2026-07-09T15:40	37.29003	175.12613	0.035	312.4
2026-07-09T15:50	37.28999	175.12618	0.022	132.2
2026-07-09T16:00	37.29005	175.12617	0.024	347.3
2026-07-09T16:10	37.29003	175.12612	0.017	241.6
2026-07-09T16:20	37.28987	175.12634	0.087	132.0
2026-07-09T16:30	37.29652	175.11244	4.652	300.9
2026-07-09T16:40	37.31517	175.08679	9.956	312.3
2026-07-09T16:50	37.33414	175.06085	10.095	312.5
2026-07-09T17:00	37.35309	175.03469	10.135	312.2
2026-07-09T17:10	37.37232	175.00856	10.195	312.7
2026-07-09T17:20	37.39237	174.98099	10.696	312.3
2026-07-09T17:30	37.41226	174.95375	10.587	312.5
2026-07-09T17:40	37.43187	174.92681	10.455	312.4
2026-07-09T17:50	37.45157	174.89975	10.499	312.4
2026-07-09T18:00	37.47109	174.87299	10.389	312.5
2026-07-09T18:10	37.49023	174.84640	10.265	312.1
2026-07-09T18:20	37.50946	174.81963	10.317	312.0
2026-07-09T18:30	37.52873	174.79285	10.334	312.1
2026-07-09T18:40	37.54816	174.76565	10.454	311.9
2026-07-09T18:50	37.57193	174.74809	9.911	329.5
2026-07-09T19:00	37.58658	174.77214	8.662	52.5
2026-07-09T19:10	37.56531	174.78785	8.869	149.5
2026-07-09T19:20	37.54743	174.76561	9.041	224.7
2026-07-09T19:30	37.54134	174.75657	3.390	229.8
2026-07-09T19:40	37.54137	174.75653	0.016	312.8
2026-07-09T19:50	37.54155	174.75666	0.076	28.7
2026-07-09T20:00	37.54155	174.75668	0.008	95.1
2026-07-09T20:10	37.54150	174.75671	0.018	159.6
2026-07-09T20:20	37.54154	174.75668	0.016	329.6
2026-07-09T20:30	37.54154	174.75674	0.019	92.2
2026-07-09T20:40	37.54176	174.75875	0.578	82.2
2026-07-09T20:50	37.54201	174.76220	0.993	84.8
2026-07-09T21:00	37.54202	174.76268	0.136	88.5
2026-07-09T21:10	37.54206	174.76268	0.017	4.0
2026-07-09T21:20	37.54203	174.76266	0.014	205.9
2026-07-09T21:30	37.54206	174.76267	0.013	19.9
2026-07-09T21:40	37.54198	174.76264	0.029	199.1
2026-07-09T21:50	37.54205	174.76264	0.025	0.0
2026-07-09T22:00	37.54201	174.76268	0.019	141.5
2026-07-09T22:10	37.54202	174.76260	0.023	278.0
2026-07-09T22:20	37.54207	174.76260	0.017	1.9
2026-07-09T22:30	37.54198	174.76268	0.038	145.2
2026-07-09T22:40	37.54201	174.76257	0.033	285.7
2026-07-09T22:50	37.54207	174.76268	0.040	55.7
2026-07-09T23:00	37.53656	174.76271	1.980	179.7
2026-07-09T23:10	37.53088	174.79172	8.548	103.8
2026-07-09T23:20	37.52719	174.82269	8.963	98.5
2026-07-09T23:30	37.52742	174.84489	6.355	89.2
2026-07-09T23:40	37.52838	174.84624	0.519	48.2
2026-07-09T23:50	37.52831	174.84741	0.336	94.7
2026-07-10T00:00	37.52824	174.84772	0.091	105.8
2026-07-10T00:10	37.52828	174.84764	0.027	306.6
2026-07-10T00:20	37.52830	174.84771	0.019	73.4
2026-07-10T00:30	37.52831	174.84774	0.011	55.5
2026-07-10T00:40	37.52829	174.84770	0.014	233.5
2026-07-10T00:50	37.52830	174.84771	0.006	24.5
2026-07-10T01:00	37.52888	174.84571	0.607	290.0
2026-07-10T01:10	37.52976	174.84239	1.002	288.3
2026-07-10T01:20	37.52987	174.84211	0.090	298.5
2026-07-10T01:30	37.52986	174.84213	0.007	124.6
2026-07-10T01:40	37.52984	174.84221	0.023	112.7
2026-07-10T01:50	37.52987	174.84216	0.017	309.9
2026-07-10T02:00	37.52981	174.84211	0.025	218.5
2026-07-10T02:10	37.52984	174.84213	0.012	33.4
2026-07-10T02:20	37.52985	174.84212	0.004	327.5
2026-07-10T02:30	37.52983	174.84216	0.013	128.3
2026-07-10T02:40	37.52991	174.84216	0.027	1.2
2026-07-10T02:50	37.52989	174.84221	0.015	109.4
2026-07-10T03:00	37.52986	174.84223	0.012	154.5
2026-07-10T03:10	37.52985	174.84227	0.013	107.8
2026-07-10T03:20	37.53115	174.85328	3.186	81.5
2026-07-10T03:30	37.53853	174.88546	9.582	73.9
2026-07-10T03:40	37.54693	174.91898	10.058	72.5
2026-07-10T03:50	37.55521	174.95308	10.200	73.0
2026-07-10T04:00	37.56352	174.98706	10.171	72.9
2026-07-10T04:10	37.57171	175.02100	10.145	73.1
2026-07-10T04:20	37.57993	175.05467	10.074	72.9
2026-07-10T04:30	37.58811	175.08847	10.102	73.1
2026-07-10T04:40	37.61395	175.09997	9.852	19.5
2026-07-10T04:50	37.63130	175.06919	10.785	305.3
2026-07-10T05:00	37.61022	175.05395	8.738	209.9
2026-07-10T05:10	37.58453	175.05975	9.382	169.8
2026-07-10T05:20	37.55746	175.06566	9.874	170.1
2026-07-10T05:30	37.53101	175.07248	9.704	168.4
2026-07-10T05:40	37.52258	175.07864	3.505	149.8
2026-07-10T05:50	37.52242	175.07871	0.058	160.0
2026-07-10T06:00	37.52238	175.07881	0.035	119.8
2026-07-10T06:10	37.52244	175.07880	0.025	356.0
2026-07-10T06:20	37.52239	175.07877	0.021	204.6
2026-07-10T06:30	37.52243	175.07872	0.020	314.4
2026-07-10T06:40	37.52244	175.07874	0.004	55.9
2026-07-10T06:50	37.52240	175.07870	0.017	214.0
2026-07-10T07:00	37.52240	175.07869	0.003	292.7
2026-07-10T07:10	37.52349	175.07982	0.507	39.3
2026-07-10T07:20	37.52515	175.08149	0.764	39.0
2026-07-10T07:30	37.52514	175.08157	0.022	91.8
2026-07-10T07:40	37.52519	175.08155	0.019	340.3
2026-07-10T07:50	37.52516	175.08148	0.023	235.6
2026-07-10T08:00	37.52515	175.08153	0.013	97.9
2026-07-10T08:10	37.52516	175.08146	0.020	276.3
2026-07-10T08:20	37.52513	175.08145	0.011	203.1
2026-07-10T08:30	37.52511	175.08145	0.007	172.4
2026-07-10T08:40	37.52515	175.08144	0.015	353.5
2026-07-10T08:50	37.52515	175.08146	0.004	94.8
2026-07-10T09:00	37.52513	175.08146	0.007	182.4
2026-07-10T09:10	37.52512	175.08146	0.005	189.1
2026-07-10T09:20	37.52512	175.08148	0.008	79.5
2026-07-10T09:30	37.52444	175.07637	1.484	260.4
2026-07-10T09:40	37.54546	175.05856	9.113	326.0
2026-07-10T09:50	37.56854	175.03739	10.273	323.9
2026-07-10T10:00	37.59124	175.01554	10.274	322.6
2026-07-10T10:10	37.61341	174.99160	10.507	319.3
2026-07-10T10:20	37.62815	174.97978	6.283	327.5
2026-07-10T10:30	37.63024	174.97937	0.760	351.2
2026-07-10T10:40	37.63074	174.97614	0.941	281.0
2026-07-10T10:50	37.62957	174.97961	1.079	113.0
2026-07-10T11:00	37.62943	174.98120	0.457	96.3
2026-07-10T11:10	37.62955	174.98121	0.044	2.6
2026-07-10T11:20	37.62947	174.98127	0.034	148.7
2026-07-10T11:30	37.62947	174.98126	0.004	295.8
2026-07-10T11:40	37.62947	174.98126	0.003	198.8
2026-07-10T11:50	37.62956	174.98122	0.035	342.7
2026-07-10T12:00	37.62952	174.98128	0.022	135.2
2026-07-10T12:10	37.63055	174.98260	0.529	45.5
2026-07-10T12:20	37.63231	174.98500	0.935	47.4
2026-07-10T12:30	37.63236	174.98506	0.024	38.5
2026-07-10T12:40	37.63233	174.98512	0.022	122.2
2026-07-10T12:50	37.63240	174.98510	0.028	346.9
2026-07-10T13:00	37.63238	174.98510	0.006	190.6
2026-07-10T13:10	37.63234	174.98508	0.018	192.2
2026-07-10T13:20	37.63230	174.98507	0.014	195.2
2026-07-10T13:30	37.63237	174.98506	0.025	350.7
2026-07-10T13:40	37.63235	174.98501	0.014	253.6
2026-07-10T13:50	37.63239	174.98504	0.015	30.6
2026-07-10T14:00	37.63235	174.98508	0.019	138.2
2026-07-10T14:10	37.63240	174.98502	0.027	315.7
2026-07-10T14:20	37.63240	174.98499	0.007	248.2
2026-07-10T14:30	37.64101	174.98592	3.109	4.9
2026-07-10T14:40	37.66992	174.98595	10.388	0.0
2026-07-10T14:50	37.69902	174.98589	10.457	359.9
2026-07-10T15:00	37.72732	174.97825	10.403	347.9
2026-07-10T15:10	37.75452	174.96565	10.416	339.8
2026-07-10T15:20	37.77880	174.94841	10.018	330.6
2026-07-10T15:30	37.79407	174.91742	10.404	301.8
2026-07-10T15:40	37.80866	174.88542	10.524	299.9
2026-07-10T15:50	37.82118	174.85254	10.399	295.6
2026-07-10T16:00	37.82644	174.81527	10.792	280.1
2026-07-10T16:10	37.83169	174.77795	10.805	280.1
2026-07-10T16:20	37.83513	174.74079	10.663	276.7
2026-07-10T16:30	37.81861	174.75535	7.244	145.1
2026-07-10T16:40	37.80492	174.78494	9.767	120.2
2026-07-10T16:50	37.79242	174.81520	9.730	117.5
2026-07-10T17:00	37.79284	174.84814	9.394	89.1
2026-07-10T17:10	37.79684	174.87562	7.968	79.6
2026-07-10T17:20	37.79781	174.87837	0.859	66.0
2026-07-10T17:30	37.79789	174.87841	0.032	22.6
2026-07-10T17:40	37.79789	174.87837	0.013	268.5
2026-07-10T17:50	37.79782	174.87844	0.035	139.3
2026-07-10T18:00	37.79778	174.87849	0.018	140.1
2026-07-10T18:10	37.79784	174.87848	0.020	355.9
2026-07-10T18:20	37.79784	174.87850	0.006	73.3
2026-07-10T18:30	37.79778	174.87849	0.023	191.6
2026-07-10T18:40	37.79778	174.87848	0.001	345.2
2026-07-10T18:50	37.79896	174.87938	0.493	31.1
2026-07-10T19:00	37.80133	174.88121	1.000	31.5
2026-07-10T19:10	37.80199	174.88177	0.286	33.7
2026-07-10T19:20	37.80204	174.88174	0.019	338.0
2026-07-10T19:30	37.80199	174.88177	0.018	149.4
2026-07-10T19:40	37.80201	174.88175	0.009	306.0
2026-07-10T19:50	37.80197	174.88173	0.015	193.4
2026-07-10T20:00	37.80192	174.88174	0.017	172.1
2026-07-10T20:10	37.80203	174.88170	0.041	343.1
2026-07-10T20:20	37.80202	174.88168	0.008	230.6
2026-07-10T20:30	37.80203	174.88174	0.017	76.8
2026-07-10T20:40	37.80196	174.88175	0.027	173.9
2026-07-10T20:50	37.80202	174.88172	0.024	338.0
2026-07-10T21:00	37.80203	174.88172	0.006	24.1
2026-07-10T21:10	37.80196	174.88175	0.027	166.6
2026-07-10T21:20	37.80199	174.88175	0.012	2.8
2026-07-10T21:30	37.80196	174.88174	0.013	193.1
2026-07-10T21:40	37.80937	174.88713	3.076	30.0
2026-07-10T21:50	37.83517	174.90230	10.231	25.0
2026-07-10T22:00	37.86192	174.91789	10.590	24.8
2026-07-10T22:10	37.88862	174.93357	10.586	25.0
2026-07-10T22:20	37.91573	174.94956	10.754	25.1
2026-07-10T22:30	37.94275	174.96545	10.713	25.0
2026-07-10T22:40	37.96952	174.98128	10.624	25.1
2026-07-10T22:50	37.99515	174.99634	10.157	24.9
2026-07-10T23:00	38.02109	175.01082	10.194	23.8
2026-07-10T23:10	38.04811	175.02404	10.412	21.1
2026-07-10T23:20	38.07496	175.03748	10.377	21.6
2026-07-10T23:30	38.10207	175.05097	10.471	21.5
2026-07-10T23:40	38.12934	175.06468	10.544	21.7
2026-07-10T23:50	38.15656	175.07817	10.508	21.4
2026-07-11T00:00	38.18475	175.08692	10.430	13.8
2026-07-11T00:10	38.21331	175.09262	10.392	8.9
2026-07-11T00:20	38.24170	175.09824	10.327	8.9
2026-07-11T00:30	38.27005	175.10401	10.323	9.1
2026-07-11T00:40	38.29863	175.10971	10.395	8.9
2026-07-11T00:50	38.32713	175.11531	10.366	8.8
2026-07-11T01:00	38.35570	175.12116	10.403	9.2
2026-07-11T01:10	38.38402	175.12676	10.302	8.8
2026-07-11T01:20	38.41207	175.13238	10.207	9.0
2026-07-11T01:30	38.44007	175.13796	10.187	8.9
2026-07-11T01:40	38.46324	175.14256	8.427	8.9
2026-07-11T01:50	38.46075	175.12877	3.999	257.1
2026-07-11T02:00	38.43745	175.11176	9.659	209.9
2026-07-11T02:10	38.41935	175.10015	7.286	206.8
2026-07-11T02:20	38.41888	175.10001	0.173	193.4
2026-07-11T02:30	38.41890	175.10010	0.026	74.1
2026-07-11T02:40	38.41897	175.10009	0.025	355.4
2026-07-11T02:50	38.41893	175.09999	0.033	241.3
2026-07-11T03:00	38.41894	175.09999	0.004	3.8
2026-07-11T03:10	38.41889	175.10005	0.024	136.6
2026-07-11T03:20	38.41889	175.10007	0.005	60.9
2026-07-11T03:30	38.41876	175.10011	0.049	167.7
2026-07-11T03:40	38.41789	175.10270	0.797	113.0
2026-07-11T03:50	38.41683	175.10576	0.947	113.8
2026-07-11T04:00	38.41679	175.10593	0.050	105.8
2026-07-11T04:10	38.41672	175.10598	0.030	156.3
2026-07-11T04:20	38.41678	175.10598	0.024	0.0
2026-07-11T04:30	38.41673	175.10592	0.024	218.7
2026-07-11T04:40	38.41676	175.10595	0.015	36.5
2026-07-11T04:50	38.41675	175.10599	0.011	120.8
2026-07-11T05:00	38.41677	175.10595	0.012	310.3
2026-07-11T05:10	38.41673	175.10602	0.023	125.8
2026-07-11T05:20	38.41679	175.10589	0.042	301.0
2026-07-11T05:30	38.41675	175.10598	0.029	121.8
2026-07-11T05:40	38.41675	175.10596	0.005	281.4
2026-07-11T05:50	38.41679	175.10595	0.015	345.7
2026-07-11T06:00	38.41393	175.10112	1.710	233.0
2026-07-11T06:10	38.43572	175.10948	8.180	16.8
2026-07-11T06:20	38.46197	175.11955	9.857	16.8
2026-07-11T06:30	38.48800	175.12966	9.781	17.0
2026-07-11T06:40	38.51382	175.13962	9.700	16.9
2026-07-11T06:50	38.53970	175.14961	9.718	16.9
2026-07-11T07:00	38.56574	175.15973	9.787	17.0
2026-07-11T07:10	38.58951	175.17716	9.859	29.9
2026-07-11T07:20	38.60742	175.20688	10.571	52.5
2026-07-11T07:30	38.62529	175.23668	10.577	52.6
2026-07-11T07:40	38.64935	175.24972	9.398	23.0
2026-07-11T07:50	38.67814	175.25002	10.347	0.5
2026-07-11T08:00	38.70690	175.25003	10.338	0.0
2026-07-11T08:10	38.73586	175.25007	10.411	0.1
2026-07-11T08:20	38.76461	175.25004	10.332	360.0
2026-07-11T08:30	38.79328	175.25000	10.307	359.9
2026-07-11T08:40	38.82165	175.24998	10.197	360.0
2026-07-11T08:50	38.84981	175.25006	10.122	0.1
2026-07-11T09:00	38.87758	175.25005	9.984	360.0
2026-07-11T09:10	38.90500	175.25004	9.856	360.0
2026-07-11T09:20	38.93215	175.25004	9.758	360.0
2026-07-11T09:30	38.95985	175.24997	9.960	359.9
2026-07-11T09:40	38.98765	175.24984	9.992	359.8
2026-07-11T09:50	39.00801	175.24276	7.581	344.8
2026-07-11T10:00	38.99199	175.23030	6.735	211.3
2026-07-11T10:10	38.96681	175.22911	9.058	182.1
2026-07-11T10:20	38.96213	175.23407	2.183	140.4
2026-07-11T10:30	38.96263	175.23299	0.352	300.6
2026-07-11T10:40	38.96270	175.23271	0.083	287.9
2026-07-11T10:50	38.96267	175.23268	0.013	214.2
2026-07-11T11:00	38.96266	175.23278	0.026	99.4
2026-07-11T11:10	38.96262	175.23281	0.018	149.8
2026-07-11T11:20	38.96261	175.23270	0.030	265.9
2026-07-11T11:30	38.96308	175.23224	0.211	322.6
2026-07-11T11:40	38.96504	175.22971	1.001	314.8
2026-07-11T11:50	38.96636	175.22803	0.669	315.1
2026-07-11T12:00	38.96639	175.22799	0.016	308.6
2026-07-11T12:10	38.96637	175.22795	0.013	233.2
2026-07-11T12:20	38.96636	175.22807	0.035	95.3
2026-07-11T12:30	38.96636	175.22802	0.016	268.7
2026-07-11T12:40	38.96637	175.22803	0.006	49.5
2026-07-11T12:50	38.96629	175.22806	0.029	164.9
2026-07-11T13:00	38.96636	175.22800	0.031	326.1
2026-07-11T13:10	38.96636	175.22804	0.012	91.8
2026-07-11T13:20	38.96633	175.22793	0.032	252.1
2026-07-11T13:30	38.96640	175.22804	0.039	52.7
2026-07-11T13:40	38.96657	175.22799	0.063	345.3
2026-07-11T13:50	38.97431	175.21070	5.593	299.9
2026-07-11T14:00	38.98317	175.17786	9.747	289.1
2026-07-11T14:10	38.99231	175.14396	10.063	289.1
2026-07-11T14:20	39.00141	175.10996	10.082	288.9
2026-07-11T14:30	39.01058	175.07590	10.106	289.1
2026-07-11T14:40	39.01982	175.04122	10.278	288.9
2026-07-11T14:50	39.03067	175.00716	10.317	292.2
2026-07-11T15:00	39.04177	174.97298	10.380	292.6
2026-07-11T15:10	39.05270	174.93830	10.484	292.0
2026-07-11T15:20	39.06283	174.90286	10.579	290.2
2026-07-11T15:30	39.07319	174.86767	10.541	290.7
2026-07-11T15:40	39.08244	174.83183	10.578	288.3
2026-07-11T15:50	39.08761	174.79444	10.638	280.1
2026-07-11T16:00	39.09281	174.75664	10.753	280.0
2026-07-11T16:10	39.10237	174.72076	10.623	288.9
2026-07-11T16:20	39.11241	174.68531	10.563	290.0
2026-07-11T16:30	39.12266	174.64923	10.756	290.1
2026-07-11T16:40	39.13315	174.61235	10.992	290.1
2026-07-11T16:50	39.14346	174.57580	10.882	289.9
2026-07-11T17:00	39.15406	174.54223	10.141	292.1
2026-07-11T17:10	39.15095	174.56592	6.725	99.6
2026-07-11T17:20	39.14453	174.59773	9.199	104.5
2026-07-11T17:30	39.14376	174.62694	8.180	91.9
2026-07-11T17:40	39.14638	174.62831	1.016	22.3
2026-07-11T17:50	39.14620	174.62848	0.078	142.9
2026-07-11T18:00	39.14621	174.62844	0.013	273.1
2026-07-11T18:10	39.14619	174.62850	0.018	108.3
2026-07-11T18:20	39.14615	174.62848	0.015	202.8
2026-07-11T18:30	39.14617	174.62849	0.009	28.4
2026-07-11T18:40	39.14624	174.62852	0.026	18.4
2026-07-11T18:50	39.14623	174.62844	0.023	261.9
2026-07-11T19:00	39.14623	174.62847	0.009	98.8
2026-07-11T19:10	39.14627	174.62849	0.016	10.8
2026-07-11T19:20	39.14775	174.63042	0.759	45.5
2026-07-11T19:30	39.14972	174.63294	1.000	44.8
2026-07-11T19:40	39.14995	174.63314	0.097	35.2
2026-07-11T19:50	39.14990	174.63321	0.026	127.6
2026-07-11T20:00	39.14994	174.63312	0.030	301.0
2026-07-11T20:10	39.14986	174.63325	0.047	127.1
2026-07-11T20:20	39.14987	174.63314	0.031	274.6
2026-07-11T20:30	39.14986	174.63325	0.031	99.2
2026-07-11T20:40	39.14985	174.63326	0.005	142.1
2026-07-11T20:50	39.14989	174.63309	0.050	286.8
2026-07-11T21:00	39.14994	174.63323	0.042	61.4
2026-07-11T21:10	39.14987	174.63321	0.026	189.2
2026-07-11T21:20	39.14987	174.63317	0.010	272.0
2026-07-11T21:30	39.14992	174.63321	0.021	27.0
2026-07-11T21:40	39.14988	174.63311	0.030	241.9
2026-07-11T21:50	39.14989	174.63318	0.018	88.8
2026-07-11T22:00	39.15496	174.63462	1.867	12.5
2026-07-11T22:10	39.16313	174.60181	9.638	287.8
2026-07-11T22:20	39.16932	174.57378	8.154	285.9
2026-07-11T22:30	39.17216	174.57564	1.146	27.0
2026-07-11T22:40	39.17251	174.57450	0.343	291.7
2026-07-11T22:50	39.17263	174.57451	0.042	1.1
2026-07-11T23:00	39.17266	174.57447	0.015	312.0
2026-07-11T23:10	39.17262	174.57444	0.016	203.2
2026-07-11T23:20	39.17262	174.57451	0.019	85.7
2026-07-11T23:30	39.17265	174.57450	0.010	341.8
2026-07-11T23:40	39.17260	174.57448	0.019	200.5
2026-07-11T23:50	39.17256	174.57447	0.015	192.8
2026-07-12T00:00	39.17419	174.57489	0.601	11.4
2026-07-12T00:10	39.17693	174.57556	1.000	10.8
2026-07-12T00:20	39.17707	174.57553	0.053	351.6
2026-07-12T00:30	39.17702	174.57557	0.022	151.5
2026-07-12T00:40	39.17701	174.57564	0.020	102.6
2026-07-12T00:50	39.17705	174.57565	0.014	17.1
2026-07-12T01:00	39.17698	174.57557	0.033	221.0
2026-07-12T01:10	39.17701	174.57551	0.021	308.4
2026-07-12T01:20	39.17708	174.57557	0.027	37.4
2026-07-12T01:30	39.17707	174.57563	0.016	91.3
2026-07-12T01:40	39.17691	174.57560	0.060	188.8
2026-07-12T01:50	39.17696	174.57552	0.028	311.5
2026-07-12T02:00	39.17701	174.57557	0.024	33.1
2026-07-12T02:10	39.17699	174.57559	0.012	151.4
2026-07-12T02:20	39.17703	174.57564	0.020	41.1
2026-07-12T02:30	39.17709	174.57562	0.025	350.3
2026-07-12T02:40	39.17613	174.56567	2.804	262.9
2026-07-12T02:50	39.16394	174.54462	7.342	233.4
2026-07-12T03:00	39.17662	174.51637	9.125	300.0
2026-07-12T03:10	39.18981	174.48688	9.516	299.9
2026-07-12T03:20	39.20283	174.45784	9.375	300.0
2026-07-12T03:30	39.21581	174.42882	9.362	299.9
2026-07-12T03:40	39.22076	174.42816	1.790	354.1
2026-07-12T03:50	39.20990	174.46094	9.962	113.1
2026-07-12T04:00	39.21090	174.48485	6.696	86.9
2026-07-12T04:10	39.21205	174.48407	0.467	332.4
2026-07-12T04:20	39.21200	174.48404	0.022	206.8
2026-07-12T04:30	39.21210	174.48410	0.041	26.7
2026-07-12T04:40	39.21209	174.48407	0.010	242.4
2026-07-12T04:50	39.21204	174.48400	0.026	228.6
2026-07-12T05:00	39.21207	174.48405	0.018	47.9
2026-07-12T05:10	39.21202	174.48406	0.019	166.0
2026-07-12T05:20	39.21205	174.48404	0.012	320.0
2026-07-12T05:30	39.21208	174.48407	0.015	38.7
2026-07-12T05:40	39.21285	174.48462	0.315	29.2
2026-07-12T05:50	39.21534	174.48613	0.992	25.3
2026-07-12T06:00	39.21622	174.48677	0.361	29.4
2026-07-12T06:10	39.21622	174.48673	0.012	273.5
2026-07-12T06:20	39.21622	174.48670	0.008	280.8
2026-07-12T06:30	39.21618	174.48662	0.027	237.6
2026-07-12T06:40	39.21621	174.48672	0.030	73.5
2026-07-12T06:50	39.21623	174.48662	0.030	289.6
2026-07-12T07:00	39.21621	174.48676	0.041	103.8
2026-07-12T07:10	39.21622	174.48658	0.051	274.9
2026-07-12T07:20	39.21623	174.48665	0.019	74.5
2026-07-12T07:30	39.21619	174.48665	0.015	174.6
2026-07-12T07:40	39.21621	174.48672	0.021	69.2
2026-07-12T07:50	39.21623	174.48667	0.017	290.6
2026-07-12T08:00	39.21617	174.48672	0.026	148.4
2026-07-12T08:10	39.21645	174.48649	0.118	327.4
2026-07-12T08:20	39.22229	174.47068	4.894	295.4
2026-07-12T08:30	39.23335	174.44005	9.441	294.9
2026-07-12T08:40	39.24489	174.40819	9.829	295.0
2026-07-12T08:50	39.25652	174.37639	9.820	295.2
2026-07-12T09:00	39.26826	174.34454	9.850	295.4
2026-07-12T09:10	39.27022	174.30801	10.234	273.9
2026-07-12T09:20	39.27024	174.27023	10.555	270.1
2026-07-12T09:30	39.27206	174.23369	10.233	273.7
2026-07-12T09:40	39.28393	174.20079	10.133	294.9
2026-07-12T09:50	39.29592	174.16771	10.196	295.0
2026-07-12T10:00	39.30783	174.13466	10.177	294.9
2026-07-12T10:10	39.31974	174.10217	10.032	295.3
2026-07-12T10:20	39.33035	174.06987	9.792	292.9
2026-07-12T10:30	39.31750	174.07454	4.801	164.2
2026-07-12T10:40	39.30699	174.09190	6.147	127.9
2026-07-12T10:50	39.30881	174.09815	1.863	69.4
2026-07-12T11:00	39.30976	174.09901	0.416	35.3
2026-07-12T11:10	39.30974	174.09895	0.020	245.5
2026-07-12T11:20	39.30976	174.09894	0.010	341.8
2026-07-12T11:30	39.30974	174.09906	0.035	104.9
2026-07-12T11:40	39.30973	174.09897	0.024	266.6
2026-07-12T11:50	39.30975	174.09908	0.031	79.2
2026-07-12T12:00	39.30967	174.09901	0.034	212.6
2026-07-12T12:10	39.30998	174.09898	0.112	355.6
2026-07-12T12:20	39.31275	174.09911	0.995	2.1
2026-07-12T12:30	39.31494	174.09925	0.791	2.9
2026-07-12T12:40	39.31499	174.09920	0.024	316.8
2026-07-12T12:50	39.31493	174.09932	0.040	121.2
2026-07-12T13:00	39.31496	174.09927	0.017	301.8
2026-07-12T13:10	39.31497	174.09923	0.010	293.9
2026-07-12T13:20	39.31493	174.09922	0.017	193.6
2026-07-12T13:30	39.31495	174.09924	0.011	40.2
2026-07-12T13:40	39.31503	174.09927	0.029	14.0
2026-07-12T13:50	39.31499	174.09927	0.013	173.7
2026-07-12T14:00	39.31494	174.09931	0.021	152.8
2026-07-12T14:10	39.31498	174.09929	0.014	337.2
2026-07-12T14:20	39.31492	174.09917	0.038	239.5
2026-07-12T14:30	39.32802	174.09915	4.708	359.9
2026-07-12T14:40	39.35383	174.09921	9.278	0.1
2026-07-12T14:50	39.37995	174.09920	9.391	360.0
2026-07-12T15:00	39.40235	174.10330	8.132	8.1
2026-07-12T15:10	39.38020	174.11030	8.197	166.2
2026-07-12T15:20	39.36974	174.12107	4.814	141.4
2026-07-12T15:30	39.37303	174.12101	1.182	359.2
2026-07-12T15:40	39.37321	174.12103	0.066	5.3
2026-07-12T15:50	39.37317	174.12107	0.018	139.3
2026-07-12T16:00	39.37311	174.12105	0.021	192.1
2026-07-12T16:10	39.37313	174.12112	0.019	71.6
2026-07-12T16:20	39.37311	174.12117	0.016	114.5
2026-07-12T16:30	39.37318	174.12117	0.022	359.3
2026-07-12T16:40	39.37317	174.12121	0.012	105.4
2026-07-12T16:50	39.37307	174.12121	0.035	179.1
2026-07-12T17:00	39.37030	174.12095	0.997	184.2
2026-07-12T17:10	39.36915	174.12073	0.418	188.5
2026-07-12T17:20	39.36916	174.12073	0.004	4.4
2026-07-12T17:30	39.36914	174.12080	0.021	115.7
2026-07-12T17:40	39.36916	174.12076	0.014	301.5
2026-07-12T17:50	39.36919	174.12083	0.024	64.7
2026-07-12T18:00	39.36915	174.12076	0.023	237.6
2026-07-12T18:10	39.36917	174.12074	0.010	311.2
2026-07-12T18:20	39.36916	174.12083	0.026	102.9
2026-07-12T18:30	39.36906	174.12074	0.041	215.3
2026-07-12T18:40	39.36915	174.12085	0.042	44.7
2026-07-12T18:50	39.36915	174.12087	0.007	72.8
2026-07-12T19:00	39.36915	174.12081	0.019	264.5
2026-07-12T19:10	39.36926	174.12080	0.039	355.4
2026-07-12T19:20	39.36354	174.09965	6.248	250.8
2026-07-12T19:30	39.35247	174.06414	10.679	248.1
2026-07-12T19:40	39.34249	174.03068	10.005	249.0
2026-07-12T19:50	39.34058	173.99795	9.163	265.7
2026-07-12T20:00	39.36152	173.98024	9.003	326.7
2026-07-12T20:10	39.38520	173.96291	9.792	330.4
2026-07-12T20:20	39.40911	173.94591	9.818	331.1
2026-07-12T20:30	39.43295	173.92887	9.797	331.0
2026-07-12T20:40	39.45666	173.91196	9.740	331.1
2026-07-12T20:50	39.48010	173.89521	9.633	331.0
2026-07-12T21:00	39.50362	173.87839	9.668	331.0
2026-07-12T21:10	39.52738	173.86145	9.759	331.1
2026-07-12T21:20	39.55093	173.84461	9.676	331.0
2026-07-12T21:30	39.57585	173.83365	9.463	341.2
2026-07-12T21:40	39.60283	173.83341	9.702	359.6
2026-07-12T21:50	39.62983	173.83331	9.706	359.8
2026-07-12T22:00	39.65680	173.83325	9.695	359.9
2026-07-12T22:10	39.68377	173.83319	9.695	359.9
2026-07-12T22:20	39.71095	173.83313	9.773	359.9
2026-07-12T22:30	39.72733	173.80819	9.088	310.4
2026-07-12T22:40	39.72735	173.77011	10.570	270.1
2026-07-12T22:50	39.71215	173.74383	9.116	233.2
2026-07-12T23:00	39.68370	173.74384	10.228	180.0
2026-07-12T23:10	39.67537	173.75569	4.449	132.3
2026-07-12T23:20	39.67686	173.75480	0.590	335.3
2026-07-12T23:30	39.67695	173.75484	0.034	21.8
2026-07-12T23:40	39.67694	173.75478	0.019	259.2
2026-07-12T23:50	39.67693	173.75486	0.024	95.1
2026-07-13T00:00	39.67697	173.75492	0.020	53.6
2026-07-13T00:10	39.67693	173.75492	0.012	188.2
2026-07-13T00:20	39.67696	173.75483	0.025	291.3
2026-07-13T00:30	39.67699	173.75487	0.014	43.8
2026-07-13T00:40	39.67763	173.75487	0.230	359.9
2026-07-13T00:50	39.68021	173.75486	0.928	359.9
2026-07-13T01:00	39.68107	173.75486	0.310	0.0
2026-07-13T01:10	39.68097	173.75478	0.043	213.0
2026-07-13T01:20	39.68104	173.75488	0.038	49.9
2026-07-13T01:30	39.68097	173.75488	0.024	181.3
2026-07-13T01:40	39.68104	173.75481	0.033	320.4
2026-07-13T01:50	39.68103	173.75494	0.038	96.5
2026-07-13T02:00	39.68098	173.75480	0.044	248.8
2026-07-13T02:10	39.68107	173.75484	0.032	21.6
2026-07-13T02:20	39.68102	173.75480	0.019	210.4
2026-07-13T02:30	39.68104	173.75495	0.043	78.5
2026-07-13T02:40	39.68106	173.75484	0.032	283.0
2026-07-13T02:50	39.68103	173.75494	0.030	114.2
2026-07-13T03:00	39.68929	173.76250	3.636	35.3
2026-07-13T03:10	39.70347	173.78876	8.898	55.0
2026-07-13T03:20	39.71868	173.81654	9.457	54.7
2026-07-13T03:30	39.73446	173.84540	9.817	54.7
2026-07-13T03:40	39.75028	173.87439	9.853	54.8
2026-07-13T03:50	39.76582	173.90311	9.730	55.0
2026-07-13T04:00	39.78119	173.93132	9.582	54.8
2026-07-13T04:10	39.79650	173.95940	9.536	54.7
2026-07-13T04:20	39.81174	173.98744	9.513	54.8
2026-07-13T04:30	39.82722	174.01577	9.626	54.7
2026-07-13T04:40	39.84268	174.04416	9.633	54.8
2026-07-13T04:50	39.85835	174.07284	9.741	54.7
2026-07-13T05:00	39.87412	174.10163	9.785	54.6
2026-07-13T05:10	39.88963	174.13038	9.723	55.0
2026-07-13T05:20	39.90513	174.15885	9.656	54.7
2026-07-13T05:30	39.92097	174.18784	9.841	54.6
2026-07-13T05:40	39.93615	174.21600	9.514	55.0
2026-07-13T05:50	39.95169	174.24432	9.623	54.5
2026-07-13T06:00	39.96712	174.27286	9.651	54.9
2026-07-13T06:10	39.98259	174.30105	9.578	54.5
2026-07-13T06:20	39.99820	174.32920	9.598	54.2
2026-07-13T06:30	40.01356	174.35703	9.472	54.3
2026-07-13T06:40	40.02879	174.38453	9.367	54.2
2026-07-13T06:50	40.02373	174.37771	2.620	226.1
2026-07-13T07:00	40.03130	174.34237	10.139	285.6
2026-07-13T07:10	40.03780	174.32703	4.839	298.9
2026-07-13T07:20	40.03820	174.32660	0.185	319.8
2026-07-13T07:30	40.03869	174.32703	0.213	34.1
2026-07-13T07:40	40.03895	174.32725	0.113	31.3
2026-07-13T07:50	40.03874	174.32713	0.082	202.5
2026-07-13T08:00	40.03905	174.32706	0.114	349.1
2026-07-13T08:10	40.03905	174.32706	0.003	174.5
2026-07-13T08:20	40.03905	174.32715	0.026	83.8
2026-07-13T08:30	40.03855	174.32568	0.445	246.2
2026-07-13T08:40	40.03739	174.32242	0.992	245.2
2026-07-13T08:50	40.03722	174.32179	0.184	250.6
2026-07-13T09:00	40.03720	174.32178	0.008	192.4
2026-07-13T09:10	40.03722	174.32192	0.038	81.4
2026-07-13T09:20	40.03721	174.32178	0.040	266.9
2026-07-13T09:30	40.03721	174.32184	0.018	97.0
2026-07-13T09:40	40.03723	174.32187	0.010	46.5
2026-07-13T09:50	40.03724	174.32189	0.009	43.2
2026-07-13T10:00	40.03725	174.32183	0.016	283.3
2026-07-13T10:10	40.03719	174.32178	0.028	209.8
2026-07-13T10:20	40.03719	174.32186	0.022	83.3
2026-07-13T10:30	40.03726	174.32183	0.025	342.8
2026-07-13T10:40	40.03715	174.32189	0.042	160.6
2026-07-13T10:50	40.03680	174.33481	3.574	92.0
2026-07-13T11:00	40.01929	174.36208	9.820	129.9
2026-07-13T11:10	39.99734	174.38615	10.324	139.9
2026-07-13T11:20	39.97313	174.40379	9.977	150.7
2026-07-13T11:30	39.94636	174.41662	10.258	159.8
2026-07-13T11:40	39.91989	174.42875	10.093	160.6
2026-07-13T11:50	39.89192	174.43657	10.286	167.8
2026-07-13T12:00	39.86441	174.44420	10.114	167.9
2026-07-13T12:10	39.83690	174.45197	10.123	167.7
2026-07-13T12:20	39.80935	174.45981	10.139	167.6
2026-07-13T12:30	39.78183	174.46746	10.119	167.9
2026-07-13T12:40	39.75402	174.47540	10.238	167.6
2026-07-13T12:50	39.72630	174.48323	10.201	167.7
2026-07-13T13:00	39.69862	174.49106	10.185	167.7
2026-07-13T13:10	39.67283	174.50096	9.673	163.5
2026-07-13T13:20	39.66833	174.53251	8.913	100.4
2026-07-13T13:30	39.68580	174.53279	6.279	0.7
2026-07-13T13:40	39.68923	174.49892	9.488	277.5
2026-07-13T13:50	39.69308	174.49769	1.428	346.2
2026-07-13T14:00	39.69324	174.49755	0.070	324.5
2026-07-13T14:10	39.69319	174.49756	0.020	166.3
2026-07-13T14:20	39.69323	174.49768	0.036	67.5
2026-07-13T14:30	39.69320	174.49765	0.014	224.8
2026-07-13T14:40	39.69318	174.49753	0.033	259.4
2026-07-13T14:50	39.69325	174.49766	0.044	53.4
2026-07-13T15:00	39.69321	174.49757	0.030	238.2
2026-07-13T15:10	39.69347	174.49773	0.103	25.8
2026-07-13T15:20	39.69606	174.49908	1.003	22.1
2026-07-13T15:30	39.69838	174.50034	0.906	22.6
2026-07-13T15:40	39.69833	174.50039	0.024	143.4
2026-07-13T15:50	39.69840	174.50034	0.029	331.9
2026-07-13T16:00	39.69837	174.50038	0.014	129.7
2026-07-13T16:10	39.69842	174.50036	0.018	344.7
2026-07-13T16:20	39.69836	174.50043	0.028	142.3
2026-07-13T16:30	39.69835	174.50037	0.017	262.5
2026-07-13T16:40	39.69842	174.50040	0.026	20.6
2026-07-13T16:50	39.69834	174.50038	0.028	192.4
2026-07-13T17:00	39.69832	174.50043	0.016	124.5
2026-07-13T17:10	39.69837	174.50032	0.034	302.4
2026-07-13T17:20	39.69839	174.50033	0.008	6.0
2026-07-13T17:30	39.69835	174.50044	0.035	115.5
2026-07-13T17:40	39.69835	174.50034	0.029	271.4
2026-07-13T17:50	39.70153	174.50674	2.114	57.3
2026-07-13T18:00	39.68627	174.53293	9.109	127.0
2026-07-13T18:10	39.67008	174.56323	10.235	124.7
2026-07-13T18:20	39.65424	174.59329	10.109	124.3
2026-07-13T18:30	39.63798	174.62391	10.325	124.5
2026-07-13T18:40	39.62181	174.65433	10.260	124.5
2026-07-13T18:50	39.60531	174.68534	10.468	124.5
2026-07-13T19:00	39.58860	174.71640	10.521	124.8
2026-07-13T19:10	39.57248	174.74701	10.303	124.2
2026-07-13T19:20	39.55633	174.77638	10.023	125.4
2026-07-13T19:30	39.54064	174.80669	10.148	123.7
2026-07-13T19:40	39.52420	174.83767	10.455	124.4
2026-07-13T19:50	39.50769	174.86851	10.439	124.6
2026-07-13T20:00	39.49088	174.89988	10.623	124.7
2026-07-13T20:10	39.47451	174.93098	10.473	124.2
2026-07-13T20:20	39.46987	174.94711	4.794	110.3
2026-07-13T20:30	39.46985	174.94735	0.066	96.5
2026-07-13T20:40	39.46980	174.94726	0.030	229.7
2026-07-13T20:50	39.46982	174.94731	0.015	59.5
2026-07-13T21:00	39.46991	174.94722	0.043	323.1
2026-07-13T21:10	39.46986	174.94729	0.030	133.7
2026-07-13T21:20	39.46990	174.94723	0.023	308.0
2026-07-13T21:30	39.46982	174.94720	0.029	197.8
2026-07-13T21:40	39.46988	174.94720	0.022	0.7
2026-07-13T21:50	39.46915	174.95170	1.282	101.8
2026-07-13T22:00	39.45049	174.98015	10.385	130.2
2026-07-13T22:10	39.43162	175.00927	10.579	129.9
2026-07-13T22:20	39.41584	175.04046	10.383	123.1
2026-07-13T22:30	39.39929	175.07169	10.548	124.3
2026-07-13T22:40	39.38313	175.10198	10.254	124.5
2026-07-13T22:50	39.36714	175.13192	10.139	124.5
2026-07-13T23:00	39.35108	175.16195	10.176	124.5
2026-07-13T23:10	39.33496	175.19212	10.223	124.5
2026-07-13T23:20	39.31891	175.22243	10.242	124.3
2026-07-13T23:30	39.30259	175.25270	10.292	124.8
2026-07-13T23:40	39.28766	175.28061	9.462	124.5
2026-07-13T23:50	39.27197	175.30998	9.958	124.5
2026-07-14T00:00	39.25627	175.33946	9.986	124.4
2026-07-14T00:10	39.24035	175.36909	10.065	124.6
2026-07-14T00:20	39.22433	175.39904	10.164	124.5
2026-07-14T00:30	39.20868	175.42831	9.932	124.5
2026-07-14T00:40	39.19275	175.45794	10.074	124.7
2026-07-14T00:50	39.17682	175.48774	10.113	124.5
2026-07-14T01:00	39.16071	175.51795	10.248	124.4
2026-07-14T01:10	39.14445	175.54844	10.344	124.4
2026-07-14T01:20	39.12894	175.57710	9.769	124.8
2026-07-14T01:30	39.11407	175.60488	9.438	124.5
2026-07-14T01:40	39.09866	175.63353	9.753	124.6
2026-07-14T01:50	39.08304	175.66285	9.949	124.4
2026-07-14T02:00	39.06806	175.69075	9.491	124.5
2026-07-14T02:10	39.05277	175.71923	9.692	124.5
2026-07-14T02:20	39.03761	175.74738	9.592	124.6
2026-07-14T02:30	39.02235	175.77589	9.694	124.5
2026-07-14T02:40	39.00738	175.80373	9.482	124.6
2026-07-14T02:50	38.99240	175.83166	9.507	124.5
2026-07-14T03:00	38.97721	175.86005	9.655	124.4
2026-07-14T03:10	38.96184	175.88856	9.724	124.6
2026-07-14T03:20	38.94645	175.91724	9.767	124.5
2026-07-14T03:30	38.93101	175.94602	9.803	124.5
2026-07-14T03:40	38.91539	175.97497	9.881	124.6
2026-07-14T03:50	38.90041	176.00263	9.451	124.7
2026-07-14T04:00	38.88587	176.03000	9.296	124.2
2026-07-14T04:10	38.87100	176.05744	9.382	124.7
2026-07-14T04:20	38.85633	176.08477	9.317	124.5
2026-07-14T04:30	38.84149	176.11223	9.382	124.6
2026-07-14T04:40	38.82664	176.13995	9.448	124.4
2026-07-14T04:50	38.81171	176.16766	9.461	124.6
2026-07-14T05:00	38.79680	176.19531	9.447	124.5
2026-07-14T05:10	38.78224	176.22243	9.252	124.4
2026-07-14T05:20	38.76750	176.24966	9.314	124.7
2026-07-14T05:30	38.75309	176.27655	9.170	124.4
2026-07-14T05:40	38.73856	176.30342	9.192	124.6
2026-07-14T05:50	38.72338	176.33154	9.616	124.6
2026-07-14T06:00	38.70837	176.35941	9.523	124.5
2026-07-14T06:10	38.69355	176.38699	9.420	124.5
2026-07-14T06:20	38.67868	176.41444	9.400	124.6
2026-07-14T06:30	38.66415	176.44142	9.224	124.5
2026-07-14T06:40	38.64854	176.47037	9.902	124.5
2026-07-14T06:50	38.63285	176.49935	9.930	124.6
2026-07-14T07:00	38.61747	176.52778	9.737	124.6
2026-07-14T07:10	38.60211	176.55633	9.764	124.4
2026-07-14T07:20	38.58673	176.58492	9.777	124.4
2026-07-14T07:30	38.57137	176.61327	9.718	124.6
2026-07-14T07:40	38.55633	176.64116	9.550	124.5
2026-07-14T07:50	38.54170	176.66822	9.273	124.5
2026-07-14T08:00	38.52707	176.69517	9.249	124.7
2026-07-14T08:10	38.51251	176.72217	9.247	124.5
2026-07-14T08:20	38.49791	176.74916	9.256	124.5
2026-07-14T08:30	38.48363	176.77538	9.013	124.7
2026-07-14T08:40	38.46953	176.80171	9.001	124.3
2026-07-14T08:50	38.45582	176.82691	8.661	124.7
2026-07-14T09:00	38.44170	176.85290	8.930	124.6
2026-07-14T09:10	38.42767	176.87897	8.928	124.4
2026-07-14T09:20	38.41340	176.90540	9.065	124.4
2026-07-14T09:30	38.39896	176.93188	9.112	124.7
2026-07-14T09:40	38.38463	176.95851	9.125	124.4
2026-07-14T09:50	38.37020	176.98519	9.160	124.5
2026-07-14T10:00	38.35573	177.01168	9.125	124.7
2026-07-14T10:10	38.34148	177.03814	9.072	124.4
2026-07-14T10:20	38.32702	177.06474	9.150	124.6
2026-07-14T10:30	38.31249	177.09152	9.209	124.5
2026-07-14T10:40	38.29802	177.11815	9.161	124.6
2026-07-14T10:50	38.28392	177.14430	8.974	124.4
2026-07-14T11:00	38.26958	177.17063	9.068	124.6
2026-07-14T11:10	38.25527	177.19707	9.088	124.4
2026-07-14T11:20	38.24091	177.22338	9.070	124.7
2026-07-14T11:30	38.22680	177.24958	8.994	124.3
2026-07-14T11:40	38.21253	177.27595	9.066	124.5
2026-07-14T11:50	38.19804	177.30239	9.130	124.8
2026-07-14T12:00	38.18339	177.32932	9.278	124.6
2026-07-14T12:10	38.16893	177.35616	9.220	124.3
2026-07-14T12:20	38.15439	177.38290	9.214	124.5
2026-07-14T12:30	38.13969	177.40979	9.283	124.7
2026-07-14T12:40	38.12500	177.43701	9.360	124.3
2026-07-14T12:50	38.11017	177.46425	9.391	124.5
2026-07-14T13:00	38.09553	177.49121	9.292	124.5
2026-07-14T13:10	38.08066	177.51843	9.399	124.7
2026-07-14T13:20	38.06585	177.54570	9.401	124.5
2026-07-14T13:30	38.05052	177.57385	9.713	124.5
2026-07-14T13:40	38.03533	177.60179	9.638	124.5
2026-07-14T13:50	38.02009	177.62970	9.640	124.6
2026-07-14T14:00	38.00508	177.65842	9.787	123.4
2026-07-14T14:10	37.99040	177.68339	8.849	126.6
2026-07-14T14:20	37.99649	177.65832	7.461	287.1
2026-07-14T14:30	38.01785	177.64490	8.573	333.6
2026-07-14T14:40	38.02014	177.64784	1.173	45.5
2026-07-14T14:50	38.02010	177.64789	0.020	137.2
2026-07-14T15:00	38.02018	177.64776	0.046	308.4
2026-07-14T15:10	38.02018	177.64780	0.011	91.9
2026-07-14T15:20	38.02013	177.64777	0.019	209.6
2026-07-14T15:30	38.02016	177.64773	0.015	309.8
2026-07-14T15:40	38.02016	177.64775	0.007	80.6
2026-07-14T15:50	38.02020	177.64766	0.030	298.8
2026-07-14T16:00	38.02021	177.64763	0.008	298.1
2026-07-14T16:10	38.01870	177.64606	0.704	219.3
2026-07-14T16:20	38.01683	177.64403	0.885	220.6
2026-07-14T16:30	38.01684	177.64416	0.036	85.4
2026-07-14T16:40	38.01683	177.64416	0.003	175.0
2026-07-14T16:50	38.01689	177.64407	0.035	309.5
2026-07-14T17:00	38.01682	177.64414	0.034	139.8
2026-07-14T17:10	38.01686	177.64404	0.033	297.0
2026-07-14T17:20	38.01688	177.64403	0.008	338.4
2026-07-14T17:30	38.01689	177.64404	0.005	64.6
2026-07-14T17:40	38.01683	177.64413	0.032	129.5
2026-07-14T17:50	38.01683	177.64406	0.019	268.9
2026-07-14T18:00	38.01690	177.64407	0.025	7.1
2026-07-14T18:10	38.01688	177.64418	0.031	105.5
2026-07-14T18:20	38.01692	177.64408	0.032	299.6
2026-07-14T18:30	38.01683	177.64406	0.034	187.6
2026-07-14T18:40	38.01710	177.64427	0.114	31.6
2026-07-14T18:50	38.00059	177.64871	6.067	168.0
2026-07-14T19:00	37.97075	177.65196	10.761	175.1
2026-07-14T19:10	37.94110	177.65541	10.704	174.7
2026-07-14T19:20	37.91140	177.65938	10.732	173.9
2026-07-14T19:30	37.88206	177.66285	10.594	174.7
2026-07-14T19:40	37.85271	177.66605	10.585	175.1
2026-07-14T19:50	37.82365	177.66925	10.485	175.0
2026-07-14T20:00	37.79488	177.67239	10.379	175.1
2026-07-14T20:10	37.76633	177.67549	10.298	175.1
2026-07-14T20:20	37.73831	177.67831	10.103	175.4
2026-07-14T20:30	37.74474	177.66899	3.524	311.0
2026-07-14T20:40	37.76732	177.68785	9.738	33.5
2026-07-14T20:50	37.78936	177.70680	9.589	34.3
2026-07-14T21:00	37.79512	177.71906	4.065	59.3
2026-07-14T21:10	37.79533	177.71923	0.087	33.1
2026-07-14T21:20	37.79532	177.71921	0.005	225.9
2026-07-14T21:30	37.79530	177.71915	0.019	246.9
2026-07-14T21:40	37.79532	177.71916	0.009	5.2
2026-07-14T21:50	37.79533	177.71914	0.005	309.0
2026-07-14T22:00	37.79547	177.71911	0.050	351.4
2026-07-14T22:10	37.79543	177.71912	0.014	176.4
2026-07-14T22:20	37.79540	177.71912	0.011	182.9
2026-07-14T22:30	37.79567	177.71814	0.296	289.2
2026-07-14T22:40	37.79653	177.71501	0.945	289.1
2026-07-14T22:50	37.79665	177.71481	0.071	308.0
2026-07-14T23:00	37.79661	177.71477	0.018	217.0
2026-07-14T23:10	37.79655	177.71481	0.026	155.4
2026-07-14T23:20	37.79658	177.71484	0.014	29.2
2026-07-14T23:30	37.79660	177.71479	0.015	299.9
2026-07-14T23:40	37.79657	177.71480	0.010	171.9
2026-07-14T23:50	37.79653	177.71487	0.028	128.4
2026-07-15T00:00	37.79661	177.71482	0.034	335.1
2026-07-15T00:10	37.79656	177.71490	0.030	129.2
2026-07-15T00:20	37.79616	177.71481	0.146	190.6
2026-07-15T00:30	37.79610	177.71486	0.025	148.8
2026-07-15T00:40	37.79649	177.71506	0.150	23.4
2026-07-15T00:50	37.79359	177.71673	1.144	155.4
2026-07-15T01:00	37.76553	177.71291	10.142	186.2
2026-07-15T01:10	37.73698	177.71004	10.293	184.6
2026-07-15T01:20	37.70828	177.70761	10.340	183.9
2026-07-15T01:30	37.67937	177.70529	10.409	183.7
2026-07-15T01:40	37.65004	177.70277	10.568	183.9
2026-07-15T01:50	37.62074	177.70036	10.552	183.7
2026-07-15T02:00	37.59171	177.69776	10.457	184.1
2026-07-15T02:10	37.59418	177.69221	1.817	299.1
2026-07-15T02:20	37.61021	177.71514	8.728	48.7
2026-07-15T02:30	37.62122	177.74189	8.610	62.6
2026-07-15T02:40	37.62253	177.74594	1.250	67.9
2026-07-15T02:50	37.62249	177.74596	0.017	152.1
2026-07-15T03:00	37.62257	177.74594	0.031	344.5
2026-07-15T03:10	37.62250	177.74594	0.024	173.9
2026-07-15T03:20	37.62254	177.74591	0.017	326.9
2026-07-15T03:30	37.62257	177.74608	0.050	78.0
2026-07-15T03:40	37.62260	177.74606	0.011	328.5
2026-07-15T03:50	37.62256	177.74604	0.014	205.9
2026-07-15T04:00	37.62259	177.74605	0.012	5.3
2026-07-15T04:10	37.62169	177.74413	0.636	239.4
2026-07-15T04:20	37.62041	177.74159	0.859	237.5
2026-07-15T04:30	37.62041	177.74162	0.007	93.0
2026-07-15T04:40	37.62043	177.74160	0.010	328.1
2026-07-15T04:50	37.62039	177.74161	0.014	167.9
2026-07-15T05:00	37.62047	177.74159	0.027	350.2
2026-07-15T05:10	37.62048	177.74157	0.008	307.4
2026-07-15T05:20	37.62046	177.74166	0.026	109.9
2026-07-15T05:30	37.62051	177.74155	0.036	299.5
2026-07-15T05:40	37.62050	177.74158	0.011	111.6
2026-07-15T05:50	37.62045	177.74159	0.016	173.9
2026-07-15T06:00	37.62046	177.74164	0.016	75.4
2026-07-15T06:10	37.62051	177.74157	0.027	310.9
2026-07-15T06:20	37.62051	177.74157	0.000	218.5
2026-07-15T06:30	37.62045	177.74161	0.025	155.9
2026-07-15T06:40	37.60748	177.73960	4.694	187.0
2026-07-15T06:50	37.57961	177.73109	10.307	193.7
2026-07-15T07:00	37.55142	177.72365	10.354	191.9
2026-07-15T07:10	37.52323	177.71633	10.345	191.7
2026-07-15T07:20	37.49537	177.71191	10.090	187.2
2026-07-15T07:30	37.46749	177.71183	10.021	180.1
2026-07-15T07:40	37.43981	177.71185	9.946	180.0
2026-07-15T07:50	37.41224	177.71185	9.910	180.0
2026-07-15T08:00	37.38475	177.71189	9.877	179.9
2026-07-15T08:10	37.35657	177.71179	10.127	180.2
2026-07-15T08:20	37.32836	177.71190	10.139	179.8
2026-07-15T08:30	37.31861	177.70128	4.644	221.0
2026-07-15T08:40	37.33833	177.70153	7.086	0.6
2026-07-15T08:50	37.36574	177.69884	9.881	355.5
2026-07-15T09:00	37.39021	177.69969	8.797	1.6
2026-07-15T09:10	37.39146	177.70358	1.201	68.1
2026-07-15T09:20	37.39174	177.70401	0.159	50.7
2026-07-15T09:30	37.39173	177.70400	0.003	247.3
2026-07-15T09:40	37.39171	177.70395	0.017	241.6
2026-07-15T09:50	37.39181	177.70396	0.034	2.9
2026-07-15T10:00	37.39172	177.70393	0.033	192.1
2026-07-15T10:10	37.39184	177.70403	0.052	31.7
2026-07-15T10:20	37.39182	177.70399	0.014	234.2
2026-07-15T10:30	37.39107	177.70183	0.673	246.5
2026-07-15T10:40	37.38999	177.69880	0.953	245.9
2026-07-15T10:50	37.39002	177.69883	0.014	40.4
2026-07-15T11:00	37.39002	177.69887	0.010	83.9
2026-07-15T11:10	37.39001	177.69888	0.005	146.4
2026-07-15T11:20	37.39000	177.69878	0.027	263.0
2026-07-15T11:30	37.39003	177.69883	0.017	47.0
2026-07-15T11:40	37.39006	177.69881	0.012	335.1
2026-07-15T11:50	37.39005	177.69881	0.005	173.5
2026-07-15T12:00	37.39007	177.69880	0.006	335.8
2026-07-15T12:10	37.39004	177.69880	0.008	184.0
2026-07-15T12:20	37.39005	177.69884	0.010	85.9
2026-07-15T12:30	37.39007	177.69880	0.012	312.9
2026-07-15T12:40	37.39003	177.69885	0.020	132.8
2026-07-15T12:50	37.39776	177.69721	2.818	350.4
2026-07-15T13:00	37.39151	177.66456	9.628	256.5
2026-07-15T13:10	37.36620	177.65414	9.573	198.2
2026-07-15T13:20	37.33804	177.65400	10.119	180.2
2026-07-15T13:30	37.31030	177.65407	9.967	179.9
2026-07-15T13:40	37.28255	177.65410	9.975	179.9
2026-07-15T13:50	37.25509	177.65896	9.964	172.0
2026-07-15T14:00	37.22743	177.66510	10.097	169.9
2026-07-15T14:10	37.19957	177.67113	10.161	170.2
2026-07-15T14:20	37.17179	177.67735	10.142	169.9
2026-07-15T14:30	37.14390	177.68349	10.177	170.0
2026-07-15T14:40	37.11587	177.68716	10.126	174.0
2026-07-15T14:50	37.09225	177.67165	9.591	207.7
2026-07-15T15:00	37.09789	177.63577	10.525	281.1
2026-07-15T15:10	37.12335	177.64044	9.250	8.4
2026-07-15T15:20	37.14076	177.66636	9.732	50.0
2026-07-15T15:30	37.15710	177.69324	9.711	52.8
2026-07-15T15:40	37.16013	177.71644	6.760	80.7
2026-07-15T15:50	37.16002	177.71767	0.356	96.8
2026-07-15T16:00	37.16003	177.71770	0.011	61.1
2026-07-15T16:10	37.16003	177.71770	0.001	208.1
2026-07-15T16:20	37.16007	177.71772	0.017	17.4
2026-07-15T16:30	37.16006	177.71772	0.005	162.9
2026-07-15T16:40	37.16009	177.71771	0.011	342.6
2026-07-15T16:50	37.16004	177.71774	0.020	156.3
2026-07-15T17:00	37.15992	177.71769	0.044	198.7
2026-07-15T17:10	37.15973	177.71482	0.827	265.2
2026-07-15T17:20	37.15964	177.71397	0.247	262.6
2026-07-15T17:30	37.15968	177.71398	0.013	8.6
2026-07-15T17:40	37.15970	177.71398	0.008	353.5
2026-07-15T17:50	37.15971	177.71397	0.006	329.6
2026-07-15T18:00	37.15971	177.71394	0.007	278.5
2026-07-15T18:10	37.15967	177.71399	0.020	138.8
2026-07-15T18:20	37.15967	177.71398	0.003	241.0
2026-07-15T18:30	37.15967	177.71391	0.020	267.9
2026-07-15T18:40	37.15971	177.71394	0.018	25.2
2026-07-15T18:50	37.15970	177.71396	0.008	133.6
2026-07-15T19:00	37.15970	177.71388	0.023	269.1
2026-07-15T19:10	37.15962	177.71392	0.028	153.6
2026-07-15T19:20	37.15966	177.71386	0.022	303.2
2026-07-15T19:30	37.15966	177.71389	0.009	94.8
2026-07-15T19:40	37.15969	177.71390	0.013	20.0
2026-07-15T19:50	37.14111	177.71206	6.699	184.5
2026-07-15T20:00	37.11288	177.70858	10.193	185.7
2026-07-15T20:10	37.08462	177.70526	10.201	185.4
2026-07-15T20:20	37.05680	177.70213	10.036	185.2
2026-07-15T20:30	37.02891	177.69874	10.073	185.6
2026-07-15T20:40	37.00128	177.69562	9.966	185.2
2026-07-15T20:50	36.97437	177.68973	9.818	190.0
2026-07-15T21:00	36.95727	177.65903	10.777	235.2
2026-07-15T21:10	36.96590	177.62768	9.557	289.0
2026-07-15T21:20	36.99470	177.62708	10.348	359.0
2026-07-15T21:30	37.02357	177.62701	10.375	359.9
2026-07-15T21:40	37.04403	177.63950	8.187	26.1
2026-07-15T21:50	37.04838	177.67533	10.439	81.4
2026-07-15T22:00	37.05209	177.71188	10.612	82.8
2026-07-15T22:10	37.05601	177.74810	10.526	82.3
2026-07-15T22:20	37.05970	177.78408	10.445	82.7
2026-07-15T22:30	37.06350	177.82048	10.573	82.6
2026-07-15T22:40	37.06738	177.85717	10.657	82.5
2026-07-15T22:50	37.07119	177.89389	10.662	82.6
2026-07-15T23:00	37.07499	177.93054	10.642	82.6
2026-07-15T23:10	37.07897	177.96735	10.694	82.3
2026-07-15T23:20	37.08307	178.00544	11.064	82.3
2026-07-15T23:30	37.08683	178.04083	10.280	82.4
2026-07-15T23:40	37.09056	178.07626	10.288	82.5
2026-07-15T23:50	37.09414	178.11131	10.170	82.7
2026-07-16T00:00	37.09766	178.14640	10.180	82.8
2026-07-16T00:10	37.10130	178.18127	10.123	82.6
2026-07-16T00:20	37.10497	178.21626	10.158	82.5
2026-07-16T00:30	37.10872	178.25245	10.503	82.6
2026-07-16T00:40	37.11248	178.28857	10.483	82.6
2026-07-16T00:50	37.11626	178.32434	10.383	82.5
2026-07-16T01:00	37.11996	178.35974	10.274	82.6
2026-07-16T01:10	37.12371	178.39568	10.429	82.6
2026-07-16T01:20	37.12751	178.43217	10.587	82.6
2026-07-16T01:30	37.13128	178.46818	10.450	82.5
2026-07-16T01:40	37.13507	178.50389	10.364	82.4
2026-07-16T01:50	37.13809	178.53356	8.605	82.8
2026-07-16T02:00	37.14133	178.56422	8.897	82.5
2026-07-16T02:10	37.14498	178.59852	9.955	82.4
2026-07-16T02:20	37.14856	178.63303	10.008	82.6
2026-07-16T02:30	37.15217	178.66785	10.100	82.6
2026-07-16T02:40	37.15584	178.70266	10.100	82.5
2026-07-16T02:50	37.15945	178.73802	10.252	82.7
2026-07-16T03:00	37.16326	178.77338	10.261	82.3
2026-07-16T03:10	37.16694	178.80845	10.173	82.5
2026-07-16T03:20	37.17056	178.84367	10.213	82.7
2026-07-16T03:30	37.17421	178.87809	9.983	82.5
2026-07-16T03:40	37.17775	178.91275	10.048	82.7
2026-07-16T03:50	37.18145	178.94765	10.122	82.4
2026-07-16T04:00	37.18509	178.98246	10.095	82.5
2026-07-16T04:10	37.18879	179.01744	10.143	82.5
2026-07-16T04:20	37.19243	179.05209	10.048	82.5
2026-07-16T04:30	37.19598	179.08669	10.028	82.7
2026-07-16T04:40	37.20125	179.12108	10.066	79.2
2026-07-16T04:50	37.20699	179.15584	10.203	78.3
2026-07-16T05:00	37.21273	179.19025	10.103	78.2
2026-07-16T05:10	37.21839	179.22470	10.106	78.4
2026-07-16T05:20	37.22406	179.25933	10.159	78.4
2026-07-16T05:30	37.22984	179.29427	10.254	78.3
2026-07-16T05:40	37.23557	179.32923	10.254	78.4
2026-07-16T05:50	37.24134	179.36404	10.213	78.3
2026-07-16T06:00	37.24720	179.39946	10.393	78.3
2026-07-16T06:10	37.25305	179.43533	10.515	78.5
2026-07-16T06:20	37.25892	179.47109	10.487	78.4
2026-07-16T06:30	37.26491	179.50721	10.595	78.3
2026-07-16T06:40	37.27092	179.54364	10.685	78.3
2026-07-16T06:50	37.27694	179.58047	10.795	78.4
2026-07-16T07:00	37.28303	179.61736	10.816	78.3
2026-07-16T07:10	37.28906	179.65435	10.840	78.5
2026-07-16T07:20	37.29511	179.69114	10.786	78.4
2026-07-16T07:30	37.30118	179.72808	10.827	78.4
2026-07-16T07:40	37.30734	179.76535	10.925	78.3
2026-07-16T07:50	37.31346	179.80238	10.855	78.3
2026-07-16T08:00	37.31947	179.83939	10.840	78.5
2026-07-16T08:10	37.32555	179.87628	10.811	78.3
2026-07-16T08:20	37.33165	179.91294	10.744	78.2
2026-07-16T08:30	37.33769	179.95015	10.899	78.5
2026-07-16T08:40	37.34395	179.98738	10.916	78.1
2026-07-16T08:50	37.34991	-179.97542	10.886	78.6
2026-07-16T09:00	37.35616	-179.93766	11.061	78.3
2026-07-16T09:10	37.36235	-179.90005	11.016	78.3
2026-07-16T09:20	37.36843	-179.86312	10.815	78.3
2026-07-16T09:30	37.37456	-179.82581	10.925	78.3
2026-07-16T09:40	37.38071	-179.78845	10.942	78.3
2026-07-16T09:50	37.38667	-179.75165	10.765	78.5
2026-07-16T10:00	37.39282	-179.71468	10.829	78.2
2026-07-16T10:10	37.39896	-179.67726	10.953	78.4
2026-07-16T10:20	37.40498	-179.64003	10.893	78.5
2026-07-16T10:30	37.41102	-179.60359	10.669	78.2
2026-07-16T10:40	37.41701	-179.56720	10.652	78.3
2026-07-16T10:50	37.42288	-179.53105	10.574	78.5
2026-07-16T11:00	37.42892	-179.49488	10.590	78.2
2026-07-16T11:10	37.43482	-179.45861	10.608	78.5
2026-07-16T11:20	37.44084	-179.42229	10.629	78.2
2026-07-16T11:30	37.44673	-179.38625	10.542	78.4
2026-07-16T11:40	37.45264	-179.35004	10.591	78.4
2026-07-16T11:50	37.45858	-179.31379	10.602	78.4
2026-07-16T12:00	37.46440	-179.27817	10.415	78.4
2026-07-16T12:10	37.47035	-179.24224	10.513	78.3
2026-07-16T12:20	37.47616	-179.20647	10.455	78.5
2026-07-16T12:30	37.48199	-179.17095	10.387	78.4
2026-07-16T12:40	37.48784	-179.13537	10.404	78.3
2026-07-16T12:50	37.49370	-179.09960	10.456	78.4
2026-07-16T13:00	37.49953	-179.06395	10.422	78.4
2026-07-16T13:10	37.50543	-179.02814	10.469	78.3
2026-07-16T13:20	37.51131	-178.99231	10.474	78.4
2026-07-16T13:30	37.51727	-178.95603	10.604	78.3
2026-07-16T13:40	37.52324	-178.91961	10.642	78.4
2026-07-16T13:50	37.52914	-178.88315	10.649	78.5
2026-07-16T14:00	37.53517	-178.84704	10.561	78.1
2026-07-16T14:10	37.54105	-178.81108	10.504	78.4
2026-07-16T14:20	37.54702	-178.77454	10.675	78.4
2026-07-16T14:30	37.55301	-178.73827	10.598	78.3
2026-07-16T14:40	37.55888	-178.70191	10.614	78.5
2026-07-16T14:50	37.56479	-178.66594	10.506	78.3
2026-07-16T15:00	37.57075	-178.62974	10.575	78.3
2026-07-16T15:10	37.57656	-178.59413	10.398	78.4
2026-07-16T15:20	37.58246	-178.55857	10.389	78.2
2026-07-16T15:30	37.58816	-178.52330	10.292	78.5
2026-07-16T15:40	37.59413	-178.48744	10.479	78.2
2026-07-16T15:50	37.59985	-178.45180	10.396	78.6
2026-07-16T16:00	37.59468	-178.41857	9.683	101.1
2026-07-16T16:10	37.58702	-178.38746	9.311	107.2
2026-07-16T16:20	37.58614	-178.38579	0.572	123.3
2026-07-16T16:30	37.58621	-178.38593	0.046	300.8
2026-07-16T16:40	37.58632	-178.38655	0.183	282.9
2026-07-16T16:50	37.58638	-178.38697	0.119	280.1
2026-07-16T17:00	37.58640	-178.38686	0.029	79.4
2026-07-16T17:10	37.58642	-178.38691	0.016	298.9
2026-07-16T17:20	37.58638	-178.38693	0.013	204.1
2026-07-16T17:30	37.58636	-178.38696	0.012	217.4
2026-07-16T17:40	37.58638	-178.38691	0.017	60.5
2026-07-16T17:50	37.58641	-178.38699	0.027	290.4
2026-07-16T18:00	37.58842	-178.38716	0.725	356.3
2026-07-16T18:10	37.59119	-178.38738	0.999	356.3
2026-07-16T18:20	37.59185	-178.38742	0.236	357.4
2026-07-16T18:30	37.59190	-178.38749	0.026	310.0
2026-07-16T18:40	37.59183	-178.38741	0.034	134.2
2026-07-16T18:50	37.59186	-178.38737	0.013	45.5
2026-07-16T19:00	37.59185	-178.38740	0.008	259.8
2026-07-16T19:10	37.59187	-178.38738	0.009	47.6
2026-07-16T19:20	37.59180	-178.38744	0.030	213.8
2026-07-16T19:30	37.59184	-178.38749	0.019	314.7
2026-07-16T19:40	37.59187	-178.38748	0.011	7.3
2026-07-16T19:50	37.59188	-178.38745	0.009	62.9
2026-07-16T20:00	37.59183	-178.38739	0.026	133.4
2026-07-16T20:10	37.59184	-178.38750	0.031	275.3
2026-07-16T20:20	37.59186	-178.38748	0.009	34.1
2026-07-16T20:30	37.59187	-178.38752	0.011	284.8
2026-07-16T20:40	37.59184	-178.38696	0.160	93.1
2026-07-16T20:50	37.59168	-178.38848	0.439	262.4
2026-07-16T21:00	37.60221	-178.38127	4.309	28.6
2026-07-16T21:10	37.62936	-178.37003	10.273	18.2
2026-07-16T21:20	37.62894	-178.36472	1.526	95.7
2026-07-16T21:30	37.62869	-178.36447	0.114	141.7
2026-07-16T21:40	37.62868	-178.36444	0.009	109.8
2026-07-16T21:50	37.62868	-178.36442	0.008	116.7
2026-07-16T22:00	37.62874	-178.36453	0.039	307.1
2026-07-16T22:10	37.62863	-178.36450	0.042	167.7
2026-07-16T22:20	37.62862	-178.36447	0.010	116.7
2026-07-16T22:30	37.62860	-178.36448	0.005	211.5
2026-07-16T22:40	37.62869	-178.36439	0.040	36.2
2026-07-16T22:50	37.62951	-178.36140	0.905	71.1
2026-07-16T23:00	37.63010	-178.35828	0.916	76.5
2026-07-16T23:10	37.63002	-178.35796	0.096	108.3
2026-07-16T23:20	37.63003	-178.35799	0.010	295.9
2026-07-16T23:30	37.62999	-178.35796	0.015	144.9
2026-07-16T23:40	37.63000	-178.35793	0.009	87.7
2026-07-16T23:50	37.63007	-178.35797	0.029	334.6
2026-07-17T00:00	37.62998	-178.35790	0.038	146.9
2026-07-17T00:10	37.62999	-178.35793	0.010	298.6
2026-07-17T00:20	37.63010	-178.35790	0.041	14.0
2026-07-17T00:30	37.63011	-178.35797	0.021	272.0
2026-07-17T00:40	37.63012	-178.35793	0.011	67.3
2026-07-17T00:50	37.63010	-178.35787	0.018	111.7
2026-07-17T01:00	37.63012	-178.35787	0.009	356.2
2026-07-17T01:10	37.63013	-178.35806	0.052	273.9
2026-07-17T01:20	37.61939	-178.34912	4.628	146.5
2026-07-17T01:30	37.59996	-178.32775	9.280	138.8
2026-07-17T01:40	37.58127	-178.30514	9.322	136.1
2026-07-17T01:50	37.57504	-178.30405	2.263	172.1
2026-07-17T02:00	37.57503	-178.30382	0.066	90.6
2026-07-17T02:10	37.57505	-178.30384	0.008	316.6
2026-07-17T02:20	37.57505	-178.30386	0.004	294.2
2026-07-17T02:30	37.57505	-178.30383	0.008	100.5
2026-07-17T02:40	37.57504	-178.30384	0.006	222.9
2026-07-17T02:50	37.57503	-178.30383	0.005	106.5
2026-07-17T03:00	37.57504	-178.30382	0.003	10.0
2026-07-17T03:10	37.57632	-178.30329	0.484	18.5
2026-07-17T03:20	37.57895	-178.30215	0.999	19.0
2026-07-17T03:30	37.57978	-178.30177	0.319	20.0
2026-07-17T03:40	37.57971	-178.30176	0.025	173.5
2026-07-17T03:50	37.57974	-178.30186	0.032	291.1
2026-07-17T04:00	37.57974	-178.30187	0.003	231.9
2026-07-17T04:10	37.57974	-178.30178	0.026	91.6
2026-07-17T04:20	37.57974	-178.30180	0.005	286.5
2026-07-17T04:30	37.57973	-178.30183	0.009	245.3
2026-07-17T04:40	37.57974	-178.30181	0.007	47.8
2026-07-17T04:50	37.57977	-178.30196	0.045	280.1
2026-07-17T05:00	37.57976	-178.30187	0.027	95.3
2026-07-17T05:10	37.57976	-178.30190	0.010	272.1
2026-07-17T05:20	37.57900	-178.30259	0.337	215.6
2026-07-17T05:30	37.56873	-178.32516	7.436	240.2
2026-07-17T05:40	37.55648	-178.35767	10.291	244.7
2026-07-17T05:50	37.54490	-178.38842	9.733	244.7
2026-07-17T06:00	37.53366	-178.41826	9.447	244.7
2026-07-17T06:10	37.52215	-178.44867	9.635	244.6
2026-07-17T06:20	37.51054	-178.48029	9.966	245.2
2026-07-17T06:30	37.50396	-178.50191	6.627	249.1
2026-07-17T06:40	37.50169	-178.50350	0.935	209.2
2026-07-17T06:50	37.50157	-178.50343	0.045	154.9
2026-07-17T07:00	37.50160	-178.50350	0.022	291.5
2026-07-17T07:10	37.50156	-178.50342	0.027	119.9
2026-07-17T07:20	37.50156	-178.50340	0.005	59.6
2026-07-17T07:30	37.50161	-178.50346	0.022	313.8
2026-07-17T07:40	37.50159	-178.50344	0.009	141.5
2026-07-17T07:50	37.50153	-178.50347	0.022	201.7
2026-07-17T08:00	37.50308	-178.50391	0.573	347.2
2026-07-17T08:10	37.50582	-178.50467	1.007	347.6
2026-07-17T08:20	37.50621	-178.50483	0.146	341.2
2026-07-17T08:30	37.50624	-178.50482	0.014	12.7
2026-07-17T08:40	37.50626	-178.50481	0.005	36.1
2026-07-17T08:50	37.50625	-178.50472	0.026	94.0
2026-07-17T09:00	37.50624	-178.50475	0.010	252.6
2026-07-17T09:10	37.50623	-178.50472	0.009	119.2
2026-07-17T09:20	37.50626	-178.50473	0.008	354.1
2026-07-17T09:30	37.50623	-178.50482	0.029	253.4
2026-07-17T09:40	37.50625	-178.50487	0.014	294.5
2026-07-17T09:50	37.50628	-178.50476	0.030	71.5
2026-07-17T10:00	37.50625	-178.50483	0.021	239.6
2026-07-17T10:10	37.50626	-178.50487	0.014	287.4
2026-07-17T10:20	37.50586	-178.50513	0.161	207.1
2026-07-17T10:30	37.50389	-178.51387	2.601	254.2
2026-07-17T10:40	37.50266	-178.51633	0.833	237.8
2026-07-17T10:50	37.50245	-178.51678	0.147	240.5
2026-07-17T11:00	37.50244	-178.51685	0.019	256.8
2026-07-17T11:10	37.50238	-178.51676	0.034	129.9
2026-07-17T11:20	37.50238	-178.51672	0.012	95.1
2026-07-17T11:30	37.50237	-178.51677	0.018	255.9
2026-07-17T11:40	37.50239	-178.51677	0.010	15.4
2026-07-17T11:50	37.50239	-178.51673	0.011	97.3
2026-07-17T12:00	37.50237	-178.51668	0.015	123.3
2026-07-17T12:10	37.50485	-178.51541	0.964	22.3
2026-07-17T12:20	37.50576	-178.51488	0.362	24.6
2026-07-17T12:30	37.50577	-178.51487	0.004	25.6
2026-07-17T12:40	37.50576	-178.51497	0.027	257.8
2026-07-17T12:50	37.50577	-178.51492	0.015	65.6
2026-07-17T13:00	37.50579	-178.51501	0.025	279.2
2026-07-17T13:10	37.50583	-178.51489	0.037	66.4
2026-07-17T13:20	37.50579	-178.51489	0.012	185.5
2026-07-17T13:30	37.50575	-178.51495	0.024	226.7
2026-07-17T13:40	37.50577	-178.51499	0.015	304.5
2026-07-17T13:50	37.50577	-178.51491	0.024	90.9
2026-07-17T14:00	37.50576	-178.51494	0.009	235.1
2026-07-17T14:10	37.50469	-178.51503	0.385	183.8
2026-07-17T14:20	37.49209	-178.49595	7.095	129.7
2026-07-17T14:30	37.47519	-178.47131	9.309	130.7
2026-07-17T14:40	37.45808	-178.44696	9.299	131.4
2026-07-17T14:50	37.44020	-178.42140	9.742	131.3
2026-07-17T15:00	37.42232	-178.39559	9.799	131.0
2026-07-17T15:10	37.40431	-178.36993	9.797	131.3
2026-07-17T15:20	37.38646	-178.34431	9.751	131.1
2026-07-17T15:30	37.36838	-178.31841	9.870	131.2
2026-07-17T15:40	37.35041	-178.29269	9.806	131.2
2026-07-17T15:50	37.33219	-178.26681	9.900	131.4
2026-07-17T16:00	37.31869	-178.24743	7.380	131.1
2026-07-17T16:10	37.30246	-178.22431	8.835	131.3
2026-07-17T16:20	37.28093	-178.20580	9.386	145.5
2026-07-17T16:30	37.25267	-178.20202	10.214	173.9
2026-07-17T16:40	37.22386	-178.19878	10.394	174.9
2026-07-17T16:50	37.19557	-178.19540	10.212	174.5
2026-07-17T17:00	37.16876	-178.19218	9.677	174.5
2026-07-17T17:10	37.14642	-178.18974	8.059	175.0
2026-07-17T17:20	37.12434	-178.18729	7.966	174.9
2026-07-17T17:30	37.10223	-178.18467	7.983	174.6
2026-07-17T17:40	37.07952	-178.18215	8.190	174.9
2026-07-17T17:50	37.05696	-178.17939	8.148	174.4
2026-07-17T18:00	37.03401	-178.17684	8.279	174.9
2026-07-17T18:10	37.01172	-178.17418	8.045	174.5
2026-07-17T18:20	36.98906	-178.17152	8.179	174.6
2026-07-17T18:30	36.96631	-178.16909	8.206	175.1
2026-07-17T18:40	36.94306	-178.16641	8.391	174.7
2026-07-17T18:50	36.91992	-178.16376	8.350	174.7
2026-07-17T19:00	36.89690	-178.16106	8.306	174.6
2026-07-17T19:10	36.87427	-178.15842	8.170	174.6
2026-07-17T19:20	36.85008	-178.15560	8.730	174.6
2026-07-17T19:30	36.82501	-178.15281	9.044	174.9
2026-07-17T19:40	36.80019	-178.14995	8.956	174.7
2026-07-17T19:50	36.77505	-178.14711	9.073	174.8
2026-07-17T20:00	36.74986	-178.14419	9.091	174.7
2026-07-17T20:10	36.72488	-178.14111	9.018	174.3
2026-07-17T20:20	36.69967	-178.13833	9.096	174.9
2026-07-17T20:30	36.67444	-178.13557	9.101	174.9
2026-07-17T20:40	36.64941	-178.13246	9.037	174.3
2026-07-17T20:50	36.62434	-178.12966	9.046	174.9
2026-07-17T21:00	36.59915	-178.12688	9.088	174.9
2026-07-17T21:10	36.57404	-178.12405	9.059	174.8
2026-07-17T21:20	36.54876	-178.12099	9.128	174.4
2026-07-17T21:30	36.52311	-178.11817	9.249	174.9
2026-07-17T21:40	36.49703	-178.11519	9.413	174.7
2026-07-17T21:50	36.47115	-178.11216	9.339	174.6
2026-07-17T22:00	36.44545	-178.10926	9.272	174.8
2026-07-17T22:10	36.41984	-178.10631	9.242	174.7
2026-07-17T22:20	36.39718	-178.09685	8.595	161.3
2026-07-17T22:30	36.38322	-178.07376	8.376	126.8
2026-07-17T22:40	36.36806	-178.05165	8.422	130.3
2026-07-17T22:50	36.35413	-178.03181	7.633	130.9
2026-07-17T23:00	36.35409	-178.02475	2.052	90.4
2026-07-17T23:10	36.35435	-178.02455	0.110	33.1
2026-07-17T23:20	36.35431	-178.02461	0.022	230.0
2026-07-17T23:30	36.35426	-178.02457	0.020	149.3
2026-07-17T23:40	36.35425	-178.02458	0.004	226.1
2026-07-17T23:50	36.35426	-178.02467	0.026	278.1
2026-07-18T00:00	36.35427	-178.02457	0.027	80.0
2026-07-18T00:10	36.35431	-178.02463	0.021	303.8
2026-07-18T00:20	36.35438	-178.02468	0.031	334.7
2026-07-18T00:30	36.35670	-178.02602	0.920	334.9
2026-07-18T00:40	36.35839	-178.02699	0.669	335.0
2026-07-18T00:50	36.35840	-178.02692	0.022	85.3
2026-07-18T01:00	36.35833	-178.02695	0.024	206.1
2026-07-18T01:10	36.35838	-178.02699	0.019	324.5
2026-07-18T01:20	36.35840	-178.02698	0.009	30.0
2026-07-18T01:30	36.35842	-178.02704	0.021	292.4
2026-07-18T01:40	36.35843	-178.02701	0.011	63.0
2026-07-18T01:50	36.35834	-178.02694	0.039	149.4
2026-07-18T02:00	36.35839	-178.02695	0.018	353.7
2026-07-18T02:10	36.35833	-178.02698	0.023	202.4
2026-07-18T02:20	36.35836	-178.02693	0.016	58.3
2026-07-18T02:30	36.35843	-178.02695	0.026	343.1
2026-07-18T02:40	36.35835	-178.02690	0.033	149.7
2026-07-18T02:50	36.35815	-178.02628	0.194	111.8
2026-07-18T03:00	36.33761	-178.02659	7.380	180.7
2026-07-18T03:10	36.30706	-178.02725	10.977	181.0
2026-07-18T03:20	36.27728	-178.02776	10.703	180.8
2026-07-18T03:30	36.27170	-178.03229	2.397	213.3
2026-07-18T03:40	36.27166	-178.03222	0.025	128.4
2026-07-18T03:50	36.27168	-178.03218	0.014	53.2
2026-07-18T04:00	36.27168	-178.03220	0.006	259.5
2026-07-18T04:10	36.27163	-178.03221	0.019	190.6
2026-07-18T04:20	36.27182	-178.03209	0.079	26.9
2026-07-18T04:30	36.27186	-178.03212	0.014	330.6
2026-07-18T04:40	36.27188	-178.03208	0.013	50.1
2026-07-18T04:50	36.27189	-178.03283	0.217	271.2
2026-07-18T05:00	36.27212	-178.03625	1.000	274.6
2026-07-18T05:10	36.27227	-178.03826	0.588	275.5
2026-07-18T05:20	36.27226	-178.03829	0.010	227.9
2026-07-18T05:30	36.27222	-178.03826	0.015	152.7
2026-07-18T05:40	36.27220	-178.03824	0.012	136.6
2026-07-18T05:50	36.27221	-178.03823	0.006	26.8
2026-07-18T06:00	36.27222	-178.03820	0.009	73.4
2026-07-18T06:10	36.27222	-178.03823	0.008	262.5
2026-07-18T06:20	36.27224	-178.03826	0.014	321.0
2026-07-18T06:30	36.27227	-178.03833	0.023	288.8
2026-07-18T06:40	36.27220	-178.03823	0.038	127.8
2026-07-18T06:50	36.27226	-178.03832	0.034	304.6
2026-07-18T07:00	36.27226	-178.03823	0.027	83.0
2026-07-18T07:10	36.27228	-178.03830	0.021	283.9
2026-07-18T07:20	36.27220	-178.03667	0.475	93.3
2026-07-18T07:30	36.24758	-178.03150	8.972	170.3
2026-07-18T07:40	36.21948	-178.02429	10.313	168.3
2026-07-18T07:50	36.19058	-178.01679	10.613	168.1
2026-07-18T08:00	36.16203	-178.00922	10.490	167.8
2026-07-18T08:10	36.13332	-178.00179	10.542	168.1
2026-07-18T08:20	36.10460	-177.99428	10.549	168.0
2026-07-18T08:30	36.07586	-177.98668	10.561	167.9
2026-07-18T08:40	36.04746	-177.97922	10.433	168.0
2026-07-18T08:50	36.01909	-177.97170	10.427	167.8
2026-07-18T09:00	35.99054	-177.96438	10.477	168.2
2026-07-18T09:10	35.96175	-177.95682	10.575	168.0
2026-07-18T09:20	35.93308	-177.94941	10.528	168.1
2026-07-18T09:30	35.90470	-177.94189	10.428	167.8
2026-07-18T09:40	35.87601	-177.93442	10.538	168.1
2026-07-18T09:50	35.84689	-177.92677	10.696	167.9
2026-07-18T10:00	35.81784	-177.91924	10.667	168.1
2026-07-18T10:10	35.78859	-177.91164	10.742	168.1
2026-07-18T10:20	35.75941	-177.90395	10.723	167.9
2026-07-18T10:30	35.73043	-177.89644	10.641	168.1
2026-07-18T10:40	35.70157	-177.88885	10.606	167.9
2026-07-18T10:50	35.67285	-177.88142	10.545	168.1
2026-07-18T11:00	35.64393	-177.87389	10.622	168.0
2026-07-18T11:10	35.61484	-177.86636	10.681	168.1
2026-07-18T11:20	35.58581	-177.85872	10.670	167.9
2026-07-18T11:30	35.55712	-177.85129	10.536	168.1
2026-07-18T11:40	35.52869	-177.84392	10.440	168.0
2026-07-18T11:50	35.50050	-177.83652	10.359	167.9
2026-07-18T12:00	35.47211	-177.82925	10.420	168.2
2026-07-18T12:10	35.44342	-177.82173	10.541	167.9
2026-07-18T12:20	35.41463	-177.81431	10.569	168.1
2026-07-18T12:30	35.38585	-177.80678	10.577	167.9
2026-07-18T12:40	35.35719	-177.79931	10.528	167.9
2026-07-18T12:50	35.32936	-177.79229	10.209	168.3
2026-07-18T13:00	35.30194	-177.78518	10.070	168.0
2026-07-18T13:10	35.27419	-177.77762	10.214	167.4
2026-07-18T13:20	35.24645	-177.77042	10.191	168.0
2026-07-18T13:30	35.21912	-177.76345	10.030	168.2
2026-07-18T13:40	35.19163	-177.75303	10.339	162.7
2026-07-18T13:50	35.17248	-177.72837	10.011	133.4
2026-07-18T14:00	35.16661	-177.69618	9.727	102.5
2026-07-18T14:10	35.16652	-177.66349	9.645	90.2
2026-07-18T14:20	35.16664	-177.62970	9.967	89.8
2026-07-18T14:30	35.16665	-177.59588	9.978	90.0
2026-07-18T14:40	35.16659	-177.56124	10.218	90.1
2026-07-18T14:50	35.16658	-177.52689	10.131	90.0
2026-07-18T15:00	35.16634	-177.49067	10.686	90.5
2026-07-18T15:10	35.14192	-177.47465	9.967	151.7
2026-07-18T15:20	35.13353	-177.50498	9.445	251.4
2026-07-18T15:30	35.13576	-177.53880	10.013	274.6
2026-07-18T15:40	35.13930	-177.57023	9.360	277.8
2026-07-18T15:50	35.14345	-177.57101	1.509	351.2
2026-07-18T16:00	35.14366	-177.57133	0.122	309.6
2026-07-18T16:10	35.14363	-177.57130	0.015	147.4
2026-07-18T16:20	35.14367	-177.57136	0.022	312.4
2026-07-18T16:30	35.14366	-177.57144	0.024	262.1
2026-07-18T16:40	35.14624	-177.57206	0.943	348.9
2026-07-18T16:50	35.14720	-177.57227	0.349	349.7
2026-07-18T17:00	35.14715	-177.57223	0.019	146.2
2026-07-18T17:10	35.14713	-177.57224	0.010	194.2
2026-07-18T17:20	35.14717	-177.57227	0.016	333.8
2026-07-18T17:30	35.14711	-177.57224	0.022	156.2
2026-07-18T17:40	35.14711	-177.57230	0.020	264.8
2026-07-18T17:50	35.14716	-177.57233	0.022	337.3
2026-07-18T18:00	35.14796	-177.57120	0.440	49.4
2026-07-18T18:10	35.13552	-177.56774	4.583	167.1
2026-07-18T18:20	35.11479	-177.56670	7.456	177.6
2026-07-18T18:30	35.11627	-177.56356	1.069	60.1
2026-07-18T18:40	35.11662	-177.56342	0.134	17.8
2026-07-18T18:50	35.11653	-177.56341	0.033	173.4
2026-07-18T19:00	35.11653	-177.56338	0.008	103.7
2026-07-18T19:10	35.11660	-177.56332	0.030	33.7
2026-07-18T19:20	35.11654	-177.56340	0.029	228.9
2026-07-18T19:30	35.11706	-177.56357	0.191	344.3
2026-07-18T19:40	35.11962	-177.56473	0.982	339.6
2026-07-18T19:50	35.11991	-177.56486	0.109	340.3
2026-07-18T20:00	35.11986	-177.56489	0.018	215.2
2026-07-18T20:10	35.11986	-177.56489	0.001	337.7
2026-07-18T20:20	35.11980	-177.56487	0.024	165.1
2026-07-18T20:30	35.11989	-177.56481	0.039	30.0
2026-07-18T20:40	35.11988	-177.56481	0.004	180.0
2026-07-18T20:50	35.11980	-177.56487	0.034	211.2
2026-07-18T21:00	35.11988	-177.56490	0.027	341.1
2026-07-18T21:10	35.11986	-177.56491	0.008	214.7
2026-07-18T21:20	35.11981	-177.56485	0.025	134.2
2026-07-18T21:30	35.11886	-177.56066	1.284	105.4
2026-07-18T21:40	35.10417	-177.54135	7.765	132.8
2026-07-18T21:50	35.08691	-177.51969	8.909	134.1
2026-07-18T22:00	35.07105	-177.49739	8.707	130.9
2026-07-18T22:10	35.05578	-177.47383	8.862	128.2
2026-07-18T22:20	35.04109	-177.44939	8.943	126.2
2026-07-18T22:30	35.03080	-177.42815	7.283	120.5
2026-07-18T22:40	35.03315	-177.42724	0.887	17.7
2026-07-18T22:50	35.03328	-177.42744	0.074	306.9
2026-07-18T23:00	35.03316	-177.42739	0.042	162.9
2026-07-18T23:10	35.03323	-177.42743	0.026	336.8
2026-07-18T23:20	35.03329	-177.42736	0.031	43.3
2026-07-18T23:30	35.03329	-177.42738	0.006	266.7
2026-07-18T23:40	35.03327	-177.42732	0.020	119.1
2026-07-18T23:50	35.03323	-177.42733	0.011	195.3
2026-07-19T00:00	35.03331	-177.42741	0.036	317.3
2026-07-19T00:10	35.03326	-177.42740	0.019	171.0
2026-07-19T00:20	35.03328	-177.42733	0.021	71.2
2026-07-19T00:30	35.03328	-177.42739	0.016	270.0
2026-07-19T00:40	35.03325	-177.42734	0.018	122.8
2026-07-19T00:50	35.03325	-177.42737	0.008	267.4
2026-07-19T01:00	35.03322	-177.42733	0.014	136.8
2026-07-19T01:10	35.03330	-177.42734	0.027	358.1
2026-07-19T01:20	35.03555	-177.42544	0.984	34.7
2026-07-19T01:30	35.03760	-177.42374	0.893	34.2
2026-07-19T01:40	35.03761	-177.42378	0.013	288.1
2026-07-19T01:50	35.03765	-177.42371	0.025	62.9
2026-07-19T02:00	35.03765	-177.42375	0.014	278.6
2026-07-19T02:10	35.03764	-177.42378	0.009	251.5
2026-07-19T02:20	35.03760	-177.42367	0.037	117.5
2026-07-19T02:30	35.03758	-177.42374	0.022	254.9
2026-07-19T02:40	35.03760	-177.42368	0.021	66.2
2026-07-19T02:50	35.03764	-177.42370	0.015	340.7
2026-07-19T03:00	35.03759	-177.42369	0.018	174.5
2026-07-19T03:10	35.03766	-177.42370	0.022	353.2
2026-07-19T03:20	35.03760	-177.42361	0.034	125.7
2026-07-19T03:30	35.02908	-177.40696	5.794	121.9
2026-07-19T03:40	35.01000	-177.37666	11.276	127.4
2026-07-19T03:50	34.99511	-177.34743	10.160	121.8
2026-07-19T04:00	34.99750	-177.34196	1.831	62.1
2026-07-19T04:10	34.99754	-177.34191	0.021	48.4
2026-07-19T04:20	34.99758	-177.34192	0.016	341.6
2026-07-19T04:30	34.99751	-177.34197	0.027	211.7
2026-07-19T04:40	34.99754	-177.34197	0.009	358.0
2026-07-19T04:50	34.99753	-177.34197	0.004	164.7
2026-07-19T05:00	34.99756	-177.34210	0.041	288.2
2026-07-19T05:10	34.99896	-177.34272	0.534	340.1
2026-07-19T05:20	35.00057	-177.34331	0.605	343.1
2026-07-19T05:30	35.00055	-177.34327	0.015	116.4
2026-07-19T05:40	35.00056	-177.34332	0.017	283.7
2026-07-19T05:50	35.00061	-177.34330	0.018	24.1
2026-07-19T06:00	35.00052	-177.34338	0.040	218.1
2026-07-19T06:10	35.00057	-177.34331	0.028	47.8
2026-07-19T06:20	35.00062	-177.34331	0.017	1.0
2026-07-19T06:30	35.00082	-177.34333	0.073	355.3
2026-07-19T06:40	35.00097	-177.34326	0.058	19.3
2026-07-19T06:50	35.00056	-177.34333	0.151	187.1
2026-07-19T07:00	35.00836	-177.33032	4.758	53.9
2026-07-19T07:10	35.02491	-177.30324	9.968	53.4
2026-07-19T07:20	35.04151	-177.27559	10.115	53.9
2026-07-19T07:30	35.05875	-177.24711	10.449	53.6
2026-07-19T07:40	35.07635	-177.21797	10.677	53.7
2026-07-19T07:50	35.09342	-177.18931	10.452	54.1
2026-07-19T08:00	35.11084	-177.16012	10.649	54.0
2026-07-19T08:10	35.12810	-177.13178	10.415	53.4
2026-07-19T08:20	35.13250	-177.09813	10.053	81.0
2026-07-19T08:30	35.12657	-177.06227	10.796	101.4
2026-07-19T08:40	35.12063	-177.02750	10.481	101.7
2026-07-19T08:50	35.11500	-176.99321	10.323	101.3
2026-07-19T09:00	35.10943	-176.96068	9.807	101.8
2026-07-19T09:10	35.10383	-176.92734	10.047	101.5
2026-07-19T09:20	35.09808	-176.89305	10.332	101.5
2026-07-19T09:30	35.09229	-176.85885	10.308	101.6
2026-07-19T09:40	35.08630	-176.82393	10.534	101.8
2026-07-19T09:50	35.08038	-176.78850	10.674	101.5
2026-07-19T10:00	35.07451	-176.75410	10.376	101.7
2026-07-19T10:10	35.06525	-176.72190	10.075	109.3
2026-07-19T10:20	35.03717	-176.71899	10.124	175.1
2026-07-19T10:30	35.00834	-176.72134	10.381	183.8
2026-07-19T10:40	34.97941	-176.72417	10.425	184.6
2026-07-19T10:50	34.95649	-176.72538	8.240	182.5
2026-07-19T11:00	34.95899	-176.72184	1.378	49.3
2026-07-19T11:10	34.95960	-176.72210	0.232	340.8
2026-07-19T11:20	34.95955	-176.72213	0.021	208.8
2026-07-19T11:30	34.95958	-176.72210	0.013	43.4
2026-07-19T11:40	34.95965	-176.72208	0.027	14.7
2026-07-19T11:50	34.95959	-176.72206	0.022	165.2
2026-07-19T12:00	34.95980	-176.72491	0.846	275.2
2026-07-19T12:10	34.95986	-176.72535	0.131	278.7
2026-07-19T12:20	34.95989	-176.72534	0.010	16.4
2026-07-19T12:30	34.95981	-176.72532	0.030	169.1
2026-07-19T12:40	34.95983	-176.72534	0.011	321.7
2026-07-19T12:50	34.95985	-176.72531	0.013	55.2
2026-07-19T13:00	34.95981	-176.72543	0.038	248.0
2026-07-19T13:10	34.95987	-176.72537	0.029	36.2
2026-07-19T13:20	34.96030	-176.72525	0.158	13.3
2026-07-19T13:30	34.97053	-176.70661	6.623	56.3
2026-07-19T13:40	34.98583	-176.67920	9.793	55.8
2026-07-19T13:50	35.00238	-176.65046	10.369	55.0
2026-07-19T14:00	35.01909	-176.62094	10.590	55.5
2026-07-19T14:10	35.03548	-176.59207	10.367	55.4
2026-07-19T14:20	35.04404	-176.55891	10.269	72.6
2026-07-19T14:30	35.03135	-176.52440	11.167	114.1
2026-07-19T14:40	35.01635	-176.49087	11.278	118.5
2026-07-19T14:50	35.00205	-176.45842	10.881	118.2
2026-07-19T15:00	34.98572	-176.42880	10.538	123.8
2026-07-19T15:10	34.95830	-176.42087	10.128	166.6
2026-07-19T15:20	34.92983	-176.42379	10.261	184.8
2026-07-19T15:30	34.90087	-176.42697	10.447	185.2
2026-07-19T15:40	34.89364	-176.42816	2.620	187.7
2026-07-19T15:50	34.89410	-176.42832	0.173	344.1
2026-07-19T16:00	34.89413	-176.42812	0.058	80.0
2026-07-19T16:10	34.89439	-176.42801	0.100	19.6
2026-07-19T16:20	34.89437	-176.42807	0.021	246.4
2026-07-19T16:30	34.89587	-176.42845	0.550	348.4
2026-07-19T16:40	34.89861	-176.42903	1.000	350.1
2026-07-19T16:50	34.90028	-176.42941	0.609	349.3
2026-07-19T17:00	34.90025	-176.42942	0.010	192.1
2026-07-19T17:10	34.90024	-176.42932	0.029	102.0
2026-07-19T17:20	34.90025	-176.42946	0.042	278.3
2026-07-19T17:30	34.90028	-176.42945	0.010	17.0
2026-07-19T17:40	34.90020	-176.42935	0.042	134.9
2026-07-19T17:50	34.90018	-176.42926	0.026	105.2
2026-07-19T18:00	34.90025	-176.42939	0.046	305.1
2026-07-19T18:10	34.90018	-176.42936	0.026	161.3
2026-07-19T18:20	34.90026	-176.42941	0.030	333.9
2026-07-19T18:30	34.89802	-176.44055	3.394	256.3
2026-07-19T18:40	34.89754	-176.45531	4.371	267.8
2026-07-19T18:50	34.89781	-176.45502	0.129	41.6
2026-07-19T19:00	34.89791	-176.45508	0.040	333.1
2026-07-19T19:10	34.89791	-176.45510	0.006	273.7
2026-07-19T19:20	34.89785	-176.45505	0.028	145.2
2026-07-19T19:30	34.89929	-176.45742	0.872	306.3
2026-07-19T19:40	34.90089	-176.46005	0.969	306.5
2026-07-19T19:50	34.90111	-176.46039	0.128	308.1
2026-07-19T20:00	34.90114	-176.46042	0.014	329.1
2026-07-19T20:10	34.90115	-176.46043	0.003	292.0
2026-07-19T20:20	34.90114	-176.46038	0.014	100.7
2026-07-19T20:30	34.90111	-176.46046	0.025	245.7
2026-07-19T20:40	34.90114	-176.46041	0.019	55.0
2026-07-19T20:50	34.90105	-176.46035	0.037	151.2
2026-07-19T21:00	34.90106	-176.46035	0.004	343.3
2026-07-19T21:10	34.90130	-176.46015	0.106	35.3
2026-07-19T21:20	34.88607	-176.45088	6.122	153.4
2026-07-19T21:30	34.86038	-176.43560	10.276	153.9
2026-07-19T21:40	34.83350	-176.41936	10.786	153.5
2026-07-19T21:50	34.80681	-176.40301	10.742	153.2
2026-07-19T22:00	34.78005	-176.38681	10.745	153.5
2026-07-19T22:10	34.75406	-176.37098	10.448	153.3
2026-07-19T22:20	34.72798	-176.35527	10.464	153.6
2026-07-19T22:30	34.70163	-176.33925	10.591	153.3
2026-07-19T22:40	34.67434	-176.32272	10.959	153.4
2026-07-19T22:50	34.64693	-176.30602	11.023	153.3
2026-07-19T23:00	34.61974	-176.28962	10.915	153.5
2026-07-19T23:10	34.59289	-176.27331	10.791	153.3
2026-07-19T23:20	34.56600	-176.25706	10.798	153.4
2026-07-19T23:30	34.53984	-176.24128	10.505	153.5
2026-07-19T23:40	34.51444	-176.22574	10.225	153.1
2026-07-19T23:50	34.48863	-176.21026	10.350	153.6
2026-07-20T00:00	34.46317	-176.19470	10.250	153.2
2026-07-20T00:10	34.43665	-176.17884	10.630	153.6
2026-07-20T00:20	34.41088	-176.16286	10.409	152.8
2026-07-20T00:30	34.38955	-176.17682	8.717	208.5
2026-07-20T00:40	34.40312	-176.20148	8.813	303.6
2026-07-20T00:50	34.42676	-176.21899	9.964	328.5
2026-07-20T01:00	34.45047	-176.23617	9.932	329.0
2026-07-20T01:10	34.47454	-176.25240	9.902	330.8
2026-07-20T01:20	34.47998	-176.24935	2.157	24.9
2026-07-20T01:30	34.48021	-176.25122	0.563	278.4
2026-07-20T01:40	34.48034	-176.25147	0.088	302.8
2026-07-20T01:50	34.48036	-176.25135	0.035	80.6
2026-07-20T02:00	34.48040	-176.25146	0.037	295.0
2026-07-20T02:10	34.48038	-176.25142	0.014	120.5
2026-07-20T02:20	34.48037	-176.25145	0.009	248.1
2026-07-20T02:30	34.48121	-176.25038	0.437	46.5
2026-07-20T02:40	34.48238	-176.24889	0.612	46.6
2026-07-20T02:50	34.48241	-176.24890	0.011	349.4
2026-07-20T03:00	34.48233	-176.24882	0.036	141.8
2026-07-20T03:10	34.48234	-176.24882	0.004	24.3
2026-07-20T03:20	34.48239	-176.24891	0.031	298.3
2026-07-20T03:30	34.48240	-176.24889	0.009	46.6
2026-07-20T03:40	34.48235	-176.24885	0.023	151.3
2026-07-20T03:50	34.48240	-176.24888	0.023	333.1
2026-07-20T04:00	34.48242	-176.24886	0.008	60.0
2026-07-20T04:10	34.48414	-176.24493	1.324	62.1
2026-07-20T04:20	34.48853	-176.21434	9.234	80.2
2026-07-20T04:30	34.49314	-176.18029	10.261	80.7
2026-07-20T04:40	34.49758	-176.14682	10.079	80.9
2026-07-20T04:50	34.50206	-176.11320	10.128	80.8
2026-07-20T05:00	34.51870	-176.08849	9.472	50.9
2026-07-20T05:10	34.53940	-176.06739	9.726	40.1
2026-07-20T05:20	34.52079	-176.05507	7.622	151.3
2026-07-20T05:30	34.49413	-176.06230	9.813	192.6
2026-07-20T05:40	34.49655	-176.06349	0.937	337.8
2026-07-20T05:50	34.49655	-176.06343	0.016	90.0
2026-07-20T06:00	34.49653	-176.06342	0.007	148.2
2026-07-20T06:10	34.49656	-176.06349	0.024	297.0
2026-07-20T06:20	34.49660	-176.06344	0.019	49.2
2026-07-20T06:30	34.49659	-176.06343	0.004	147.2
2026-07-20T06:40	34.49659	-176.06352	0.026	268.4
2026-07-20T06:50	34.49658	-176.06354	0.006	263.1
2026-07-20T07:00	34.49674	-176.06422	0.209	285.5
2026-07-20T07:10	34.49741	-176.06750	1.004	283.9
2026-07-20T07:20	34.49762	-176.06842	0.284	284.9
2026-07-20T07:30	34.49761	-176.06840	0.006	110.9
2026-07-20T07:40	34.49760	-176.06834	0.020	99.3
2026-07-20T07:50	34.49763	-176.06840	0.021	303.2
2026-07-20T08:00	34.49763	-176.06832	0.021	91.0
2026-07-20T08:10	34.49763	-176.06833	0.002	258.6
2026-07-20T08:20	34.49761	-176.06838	0.018	241.9
2026-07-20T08:30	34.49762	-176.06839	0.003	348.3
2026-07-20T08:40	34.49762	-176.06842	0.010	284.0
2026-07-20T08:50	34.49764	-176.06839	0.010	54.4
2026-07-20T09:00	34.49764	-176.06841	0.004	290.4
2026-07-20T09:10	34.49765	-176.06837	0.010	79.6
2026-07-20T09:20	34.49756	-176.06831	0.037	149.7
2026-07-20T09:30	34.50372	-176.06488	2.438	24.7
2026-07-20T09:40	34.53016	-176.05000	10.474	25.0
2026-07-20T09:50	34.55608	-176.03552	10.259	24.8
2026-07-20T10:00	34.58168	-176.02104	10.151	25.1
2026-07-20T10:10	34.60490	-176.00237	10.017	33.6
2026-07-20T10:20	34.62667	-175.98028	10.205	40.0
2026-07-20T10:30	34.64858	-175.95796	10.289	40.1
2026-07-20T10:40	34.66485	-175.93090	9.933	54.0
2026-07-20T10:50	34.67883	-175.90155	10.056	60.0
2026-07-20T11:00	34.69279	-175.87213	10.065	60.1
2026-07-20T11:10	34.70876	-175.84471	9.955	54.8
2026-07-20T11:20	34.73047	-175.85350	8.222	341.5
2026-07-20T11:30	34.70847	-175.87246	9.699	215.4
2026-07-20T11:40	34.68471	-175.89041	10.061	212.0
2026-07-20T11:50	34.66139	-175.90652	9.646	209.7
2026-07-20T12:00	34.65905	-175.91505	2.666	251.7
2026-07-20T12:10	34.65910	-175.91385	0.355	87.2
2026-07-20T12:20	34.65873	-175.91307	0.269	120.0
2026-07-20T12:30	34.65871	-175.91287	0.060	94.8
2026-07-20T12:40	34.65872	-175.91287	0.003	5.9
2026-07-20T12:50	34.65863	-175.91292	0.036	206.2
2026-07-20T13:00	34.65866	-175.91284	0.026	70.7
2026-07-20T13:10	34.65867	-175.91283	0.006	32.4
2026-07-20T13:20	34.65866	-175.91290	0.021	260.2
2026-07-20T13:30	34.65867	-175.91287	0.008	62.0
2026-07-20T13:40	34.65993	-175.91375	0.524	330.1
2026-07-20T13:50	34.66207	-175.91536	0.905	328.1
2026-07-20T14:00	34.66208	-175.91528	0.025	85.9
2026-07-20T14:10	34.66209	-175.91535	0.020	280.4
2026-07-20T14:20	34.66208	-175.91540	0.018	259.5
2026-07-20T14:30	34.66206	-175.91535	0.016	109.2
2026-07-20T14:40	34.66211	-175.91535	0.015	358.9
2026-07-20T14:50	34.66209	-175.91535	0.005	166.7
2026-07-20T15:00	34.66206	-175.91532	0.014	137.6
2026-07-20T15:10	34.66205	-175.91532	0.006	192.4
2026-07-20T15:20	34.66205	-175.91541	0.027	269.2
2026-07-20T15:30	34.66204	-175.91540	0.004	140.4
2026-07-20T15:40	34.66206	-175.91537	0.013	53.5
2026-07-20T15:50	34.66204	-175.91538	0.008	205.3
2026-07-20T16:00	34.66099	-175.91456	0.447	147.1
2026-07-20T16:10	34.66573	-175.88962	7.594	77.0
2026-07-20T16:20	34.67332	-175.85670	10.145	74.4
2026-07-20T16:30	34.68060	-175.82456	9.888	74.7
2026-07-20T16:40	34.68805	-175.79215	9.982	74.4
2026-07-20T16:50	34.69149	-175.76770	7.361	80.3
2026-07-20T17:00	34.69051	-175.79292	7.492	267.3
2026-07-20T17:10	34.69428	-175.79671	1.758	320.3
2026-07-20T17:20	34.69395	-175.79613	0.208	124.7
2026-07-20T17:30	34.69389	-175.79543	0.209	96.2
2026-07-20T17:40	34.69384	-175.79564	0.063	253.9
2026-07-20T17:50	34.69384	-175.79565	0.003	263.1
2026-07-20T18:00	34.69384	-175.79551	0.041	90.5
2026-07-20T18:10	34.69388	-175.79559	0.027	303.4
2026-07-20T18:20	34.69384	-175.79566	0.023	238.4
2026-07-20T18:30	34.69384	-175.79566	0.000	180.0
2026-07-20T18:40	34.69383	-175.79565	0.005	157.6
2026-07-20T18:50	34.69443	-175.79605	0.245	331.0
2026-07-20T19:00	34.69674	-175.79797	1.006	325.6
2026-07-20T19:10	34.69700	-175.79816	0.111	329.0
2026-07-20T19:20	34.69701	-175.79818	0.007	303.7
2026-07-20T19:30	34.69700	-175.79816	0.006	131.6
2026-07-20T19:40	34.69704	-175.79814	0.015	28.8
2026-07-20T19:50	34.69707	-175.79818	0.016	309.2
2026-07-20T20:00	34.69697	-175.79820	0.036	187.7
2026-07-20T20:10	34.69699	-175.79822	0.011	316.8
2026-07-20T20:20	34.69697	-175.79824	0.009	212.2
2026-07-20T20:30	34.69699	-175.79822	0.011	42.0
2026-07-20T20:40	34.69703	-175.79816	0.022	47.8
2026-07-20T20:50	34.69702	-175.79818	0.009	234.8
2026-07-20T21:00	34.69701	-175.79818	0.004	153.6
2026-07-20T21:10	34.69700	-175.79817	0.006	146.6
2026-07-20T21:20	34.69703	-175.79823	0.024	305.2
2026-07-20T21:30	34.69663	-175.79836	0.149	195.1
2026-07-20T21:40	34.69111	-175.81982	6.668	252.7
2026-07-20T21:50	34.68252	-175.83690	5.932	238.7
2026-07-20T22:00	34.68209	-175.83738	0.211	223.0
2026-07-20T22:10	34.68214	-175.83717	0.064	76.1
2026-07-20T22:20	34.68215	-175.83711	0.020	78.6
2026-07-20T22:30	34.68214	-175.83724	0.039	265.8
2026-07-20T22:40	34.68215	-175.83724	0.006	0.0
2026-07-20T22:50	34.68213	-175.83724	0.009	182.0
2026-07-20T23:00	34.68214	-175.83712	0.036	86.0
2026-07-20T23:10	34.68213	-175.83711	0.004	115.0
2026-07-20T23:20	34.68216	-175.83721	0.031	286.4
2026-07-20T23:30	34.68254	-175.83724	0.137	355.3
2026-07-20T23:40	34.68529	-175.83784	1.004	349.9
2026-07-20T23:50	34.68531	-175.83791	0.023	295.4
2026-07-21T00:00	34.68537	-175.83785	0.026	37.0
2026-07-21T00:10	34.68532	-175.83781	0.021	144.8
2026-07-21T00:20	34.68530	-175.83786	0.015	235.9
2026-07-21T00:30	34.68530	-175.83789	0.009	267.8
2026-07-21T00:40	34.68528	-175.83788	0.009	158.4
2026-07-21T00:50	34.68531	-175.83778	0.031	66.2
2026-07-21T01:00	34.68533	-175.83784	0.019	295.3
2026-07-21T01:10	34.68532	-175.83785	0.007	206.8
2026-07-21T01:20	34.68531	-175.83791	0.018	264.3
2026-07-21T01:30	34.68530	-175.83778	0.038	93.2
2026-07-21T01:40	34.68536	-175.83785	0.027	316.5
2026-07-21T01:50	34.68531	-175.83781	0.020	145.1
2026-07-21T02:00	34.68311	-175.84004	1.034	219.9
2026-07-21T02:10	34.69845	-175.86416	9.030	307.6
2026-07-21T02:20	34.70724	-175.87034	3.652	329.9
2026-07-21T02:30	34.70727	-175.87025	0.027	65.0
2026-07-21T02:40	34.70716	-175.87020	0.044	158.8
2026-07-21T02:50	34.70704	-175.87017	0.043	167.7
2026-07-21T03:00	34.70704	-175.87020	0.010	276.1
2026-07-21T03:10	34.70705	-175.87017	0.010	67.4
2026-07-21T03:20	34.70708	-175.87018	0.011	350.6
2026-07-21T03:30	34.70710	-175.87025	0.020	281.2
2026-07-21T03:40	34.70713	-175.87017	0.024	60.6
2026-07-21T03:50	34.70713	-175.87015	0.007	90.0
2026-07-21T04:00	34.70855	-175.87143	0.636	323.3
2026-07-21T04:10	34.71079	-175.87339	0.995	324.2
2026-07-21T04:20	34.71099	-175.87353	0.082	329.7
2026-07-21T04:30	34.71096	-175.87349	0.018	136.1
2026-07-21T04:40	34.71095	-175.87349	0.002	256.4
2026-07-21T04:50	34.71102	-175.87350	0.025	353.3
2026-07-21T05:00	34.71099	-175.87358	0.025	239.2
2026-07-21T05:10	34.71102	-175.87352	0.020	59.7
2026-07-21T05:20	34.71100	-175.87355	0.010	231.6
2026-07-21T05:30	34.71092	-175.87353	0.028	172.7
2026-07-21T05:40	34.71102	-175.87359	0.038	333.8
2026-07-21T05:50	34.71099	-175.87349	0.030	106.7
2026-07-21T06:00	34.71100	-175.87349	0.003	0.0
2026-07-21T06:10	34.71100	-175.87357	0.022	270.0
2026-07-21T06:20	34.71096	-175.87357	0.013	180.0
2026-07-21T06:30	34.71095	-175.87355	0.007	118.6
2026-07-21T06:40	34.71686	-175.87167	2.192	14.7
2026-07-21T06:50	34.74516	-175.87173	10.167	359.9
2026-07-21T07:00	34.77472	-175.87170	10.617	0.0
2026-07-21T07:10	34.80474	-175.87168	10.786	0.0
2026-07-21T07:20	34.83524	-175.87176	10.954	359.9
2026-07-21T07:30	34.85630	-175.89327	9.890	319.9
2026-07-21T07:40	34.84256	-175.91778	8.776	235.8
2026-07-21T07:50	34.81906	-175.91579	8.462	176.0
2026-07-21T08:00	34.79550	-175.90973	8.652	168.0
2026-07-21T08:10	34.77980	-175.90198	6.086	157.8
2026-07-21T08:20	34.78123	-175.89822	1.228	65.3
2026-07-21T08:30	34.78054	-175.89768	0.295	147.6
2026-07-21T08:40	34.78048	-175.89766	0.019	158.4
2026-07-21T08:50	34.78052	-175.89768	0.015	338.6
2026-07-21T09:00	34.78054	-175.89758	0.030	74.8
2026-07-21T09:10	34.78050	-175.89763	0.019	222.2
2026-07-21T09:20	34.78052	-175.89766	0.011	304.3
2026-07-21T09:30	34.78066	-175.89853	0.262	280.5
2026-07-21T09:40	34.78118	-175.90183	0.996	280.8
2026-07-21T09:50	34.78138	-175.90310	0.385	281.0
2026-07-21T10:00	34.78136	-175.90310	0.009	174.3
2026-07-21T10:10	34.78133	-175.90302	0.025	113.5
2026-07-21T10:20	34.78135	-175.90296	0.019	61.1
2026-07-21T10:30	34.78134	-175.90302	0.016	254.7
2026-07-21T10:40	34.78133	-175.90302	0.005	202.4
2026-07-21T10:50	34.78136	-175.90303	0.010	355.1
2026-07-21T11:00	34.78137	-175.90309	0.021	286.1
2026-07-21T11:10	34.78135	-175.90302	0.022	110.0
2026-07-21T11:20	34.78134	-175.90304	0.007	215.8
2026-07-21T11:30	34.78136	-175.90307	0.011	312.3
2026-07-21T11:40	34.78189	-175.90318	0.195	350.2
2026-07-21T11:50	34.78553	-175.89008	4.096	71.4
2026-07-21T12:00	34.77783	-175.85648	10.335	105.5
2026-07-21T12:10	34.77104	-175.84636	3.867	129.1
2026-07-21T12:20	34.77039	-175.84586	0.275	147.6
2026-07-21T12:30	34.77037	-175.84558	0.084	94.6
2026-07-21T12:40	34.77030	-175.84555	0.027	161.6
2026-07-21T12:50	34.77033	-175.84561	0.020	302.9
2026-07-21T13:00	34.77034	-175.84558	0.009	67.3
2026-07-21T13:10	34.77028	-175.84568	0.038	234.0
2026-07-21T13:20	34.77028	-175.84572	0.011	266.1
2026-07-21T13:30	34.77026	-175.84567	0.014	110.1
2026-07-21T13:40	34.77188	-175.84650	0.630	337.2
2026-07-21T13:50	34.77367	-175.84738	0.694	337.8
2026-07-21T14:00	34.77367	-175.84742	0.011	268.1
2026-07-21T14:10	34.77365	-175.84745	0.013	224.5
2026-07-21T14:20	34.77364	-175.84739	0.019	93.3
2026-07-21T14:30	34.77365	-175.84741	0.006	280.8
2026-07-21T14:40	34.77360	-175.84745	0.020	220.8
2026-07-21T14:50	34.77363	-175.84731	0.043	77.3
2026-07-21T15:00	34.77368	-175.84736	0.024	324.8
2026-07-21T15:10	34.77364	-175.84732	0.019	137.7
2026-07-21T15:20	34.77368	-175.84741	0.031	294.9
2026-07-21T15:30	34.77364	-175.84739	0.016	161.1
2026-07-21T15:40	34.77363	-175.84733	0.018	105.8
2026-07-21T15:50	34.76716	-175.85714	3.721	231.4
2026-07-21T16:00	34.76665	-175.89153	10.198	269.0
2026-07-21T16:10	34.76686	-175.92779	10.749	270.4
2026-07-21T16:20	34.76672	-175.96446	10.869	269.8
2026-07-21T16:30	34.76656	-175.99862	10.126	269.7
2026-07-21T16:40	34.76645	-176.03157	9.767	269.8
2026-07-21T16:50	34.77203	-176.05752	7.950	284.6
2026-07-21T17:00	34.79361	-176.04598	8.475	23.8
2026-07-21T17:10	34.79780	-176.01434	9.496	80.9
2026-07-21T17:20	34.81005	-175.99135	8.109	57.1
2026-07-21T17:30	34.81588	-175.98980	2.143	12.3
2026-07-21T17:40	34.81571	-175.98920	0.188	109.0
2026-07-21T17:50	34.81560	-175.98875	0.141	106.5
2026-07-21T18:00	34.81562	-175.98869	0.018	67.3
2026-07-21T18:10	34.81607	-175.99012	0.452	290.9
2026-07-21T18:20	34.81708	-175.99325	0.998	291.4
2026-07-21T18:30	34.81770	-175.99506	0.581	292.7
2026-07-21T18:40	34.81768	-175.99503	0.011	129.9
2026-07-21T18:50	34.81764	-175.99505	0.017	201.0
2026-07-21T19:00	34.81760	-175.99504	0.017	163.3
2026-07-21T19:10	34.81768	-175.99509	0.033	334.0
2026-07-21T19:20	34.81767	-175.99496	0.038	96.4
2026-07-21T19:30	34.81768	-175.99500	0.014	286.5
2026-07-21T19:40	34.81770	-175.99498	0.010	45.9
2026-07-21T19:50	34.81762	-175.99507	0.041	224.6
2026-07-21T20:00	34.82435	-175.99109	2.690	26.0
2026-07-21T20:10	34.85073	-175.97982	10.048	19.4
2026-07-21T20:20	34.87811	-175.96720	10.522	20.8
2026-07-21T20:30	34.90572	-175.95429	10.627	21.1
2026-07-21T20:40	34.93302	-175.94180	10.479	20.6
2026-07-21T20:50	34.96003	-175.92922	10.393	21.0
2026-07-21T21:00	34.98709	-175.91660	10.411	21.0
2026-07-21T21:10	35.01441	-175.90396	10.501	20.8
2026-07-21T21:20	35.03511	-175.88458	9.385	37.6
2026-07-21T21:30	35.02111	-175.86098	8.600	125.8
2026-07-21T21:40	34.99768	-175.86934	8.774	196.4
2026-07-21T21:50	34.97392	-175.88425	9.605	207.3
2026-07-21T22:00	34.95308	-175.90101	8.977	213.5
2026-07-21T22:10	34.94816	-175.89977	1.806	168.3
2026-07-21T22:20	34.94738	-175.89951	0.289	164.6
2026-07-21T22:30	34.94725	-175.89942	0.053	151.4
2026-07-21T22:40	34.94728	-175.89936	0.020	65.4
2026-07-21T22:50	34.94731	-175.89945	0.028	293.8
2026-07-21T23:00	34.94727	-175.89942	0.017	146.0
2026-07-21T23:10	34.94904	-175.90049	0.709	333.4
2026-07-21T23:20	34.95078	-175.90152	0.696	334.1
2026-07-21T23:30	34.95075	-175.90154	0.011	214.7
2026-07-21T23:40	34.95074	-175.90162	0.024	261.5
2026-07-21T23:50	34.95076	-175.90163	0.006	336.3
2026-07-22T00:00	34.95074	-175.90152	0.034	102.7
2026-07-22T00:10	34.95073	-175.90151	0.003	124.0
2026-07-22T00:20	34.95070	-175.90162	0.036	249.2
2026-07-22T00:30	34.95078	-175.90154	0.040	38.5
2026-07-22T00:40	34.95090	-175.90171	0.066	311.4
2026-07-22T00:50	34.95515	-175.89681	2.103	43.5
2026-07-22T01:00	34.98530	-175.88760	11.169	14.1
2026-07-22T01:10	35.01626	-175.87828	11.457	13.9
2026-07-22T01:20	35.04772	-175.86951	11.592	12.9
2026-07-22T01:30	35.07893	-175.86064	11.514	13.2
2026-07-22T01:40	35.10966	-175.85198	11.335	13.0
2026-07-22T01:50	35.14081	-175.84329	11.479	12.9
2026-07-22T02:00	35.16196	-175.82278	9.711	38.5
2026-07-22T02:10	35.17749	-175.79479	9.966	55.9
2026-07-22T02:20	35.18678	-175.76382	9.726	69.9
2026-07-22T02:30	35.19611	-175.73235	9.865	70.1
2026-07-22T02:40	35.20631	-175.69806	10.756	70.1
2026-07-22T02:50	35.21659	-175.66363	10.801	70.0
2026-07-22T03:00	35.22678	-175.62919	10.793	70.2
2026-07-22T03:10	35.23714	-175.59473	10.816	69.9
2026-07-22T03:20	35.24734	-175.56046	10.746	70.1
2026-07-22T03:30	35.24294	-175.52936	9.300	99.8
2026-07-22T03:40	35.22415	-175.50607	9.627	134.5
2026-07-22T03:50	35.20524	-175.48278	9.657	134.7
2026-07-22T04:00	35.18569	-175.45905	9.915	135.1
2026-07-22T04:10	35.16617	-175.43476	10.025	134.4
2026-07-22T04:20	35.14648	-175.41071	10.020	134.9
2026-07-22T04:30	35.12671	-175.38667	10.037	135.0
2026-07-22T04:40	35.10701	-175.36231	10.089	134.5
2026-07-22T04:50	35.08742	-175.33837	9.973	134.9
2026-07-22T05:00	35.07331	-175.31041	9.688	121.5
2026-07-22T05:10	35.08070	-175.27549	10.650	75.5
2026-07-22T05:20	35.08849	-175.23998	10.853	75.1
2026-07-22T05:30	35.09643	-175.20432	10.908	74.8
2026-07-22T05:40	35.10472	-175.17147	10.145	72.9
2026-07-22T05:50	35.12835	-175.17111	8.490	0.7
2026-07-22T06:00	35.12407	-175.20481	10.064	261.2
2026-07-22T06:10	35.12000	-175.22782	6.949	257.8
2026-07-22T06:20	35.11954	-175.22376	1.211	97.7
2026-07-22T06:30	35.11947	-175.22376	0.024	182.1
2026-07-22T06:40	35.11946	-175.22376	0.006	171.8
2026-07-22T06:50	35.11948	-175.22383	0.022	295.8
2026-07-22T07:00	35.11945	-175.22383	0.010	184.9
2026-07-22T07:10	35.11945	-175.22385	0.006	260.1
2026-07-22T07:20	35.11946	-175.22384	0.005	49.0
2026-07-22T07:30	35.11946	-175.22384	0.002	161.8
2026-07-22T07:40	35.11954	-175.22377	0.035	33.4
2026-07-22T07:50	35.11947	-175.22384	0.032	218.2
2026-07-22T08:00	35.12121	-175.22388	0.625	358.8
2026-07-22T08:10	35.12396	-175.22401	0.991	357.8
2026-07-22T08:20	35.12432	-175.22396	0.131	7.5
2026-07-22T08:30	35.12434	-175.22396	0.005	339.2
2026-07-22T08:40	35.12426	-175.22407	0.042	227.6
2026-07-22T08:50	35.12428	-175.22395	0.035	74.6
2026-07-22T09:00	35.12432	-175.22395	0.013	356.2
2026-07-22T09:10	35.12427	-175.22408	0.043	242.2
2026-07-22T09:20	35.12428	-175.22398	0.030	79.8
2026-07-22T09:30	35.12430	-175.22396	0.011	38.3
2026-07-22T09:40	35.12434	-175.22402	0.022	302.1
2026-07-22T09:50	35.12428	-175.22406	0.024	206.9
2026-07-22T10:00	35.12429	-175.22402	0.011	69.1
2026-07-22T10:10	35.12426	-175.22409	0.021	245.5
2026-07-22T10:20	35.12432	-175.22407	0.022	13.3
2026-07-22T10:30	35.12432	-175.22405	0.006	96.6
2026-07-22T10:40	35.12400	-175.22410	0.118	187.8
2026-07-22T10:50	35.12486	-175.20758	4.887	86.4
2026-07-22T11:00	35.13160	-175.17732	9.252	74.8
2026-07-22T11:10	35.13830	-175.14660	9.379	75.1
2026-07-22T11:20	35.14525	-175.11529	9.573	74.9
2026-07-22T11:30	35.15230	-175.08302	9.852	75.1
2026-07-22T11:40	35.16126	-175.05170	9.784	70.8
2026-07-22T11:50	35.17085	-175.01980	10.022	69.9
2026-07-22T12:00	35.18054	-174.98753	10.134	69.9
2026-07-22T12:10	35.19029	-174.99282	3.832	336.0
2026-07-22T12:20	35.18155	-175.02402	9.724	251.2
2026-07-22T12:30	35.17527	-175.05766	10.176	257.2
2026-07-22T12:40	35.16895	-175.09223	10.446	257.5
2026-07-22T12:50	35.16453	-175.12679	10.316	261.1
2026-07-22T13:00	35.16877	-175.13719	3.426	296.4
2026-07-22T13:10	35.16770	-175.13477	0.808	118.3
2026-07-22T13:20	35.16732	-175.13401	0.263	121.2
2026-07-22T13:30	35.16724	-175.13374	0.086	111.4
2026-07-22T13:40	35.16729	-175.13367	0.028	45.0
2026-07-22T13:50	35.16721	-175.13379	0.047	228.2
2026-07-22T14:00	35.16725	-175.13374	0.022	47.1
2026-07-22T14:10	35.16725	-175.13373	0.004	90.0
2026-07-22T14:20	35.16721	-175.13371	0.013	155.2
2026-07-22T14:30	35.16729	-175.13370	0.026	8.6
2026-07-22T14:40	35.16751	-175.13386	0.094	328.8
2026-07-22T14:50	35.16987	-175.13569	1.004	327.5
2026-07-22T15:00	35.17211	-175.13742	0.952	327.6
2026-07-22T15:10	35.17207	-175.13742	0.013	185.4
2026-07-22T15:20	35.17208	-175.13742	0.004	344.7
2026-07-22T15:30	35.17204	-175.13737	0.022	139.4
2026-07-22T15:40	35.17203	-175.13733	0.014	103.7
2026-07-22T15:50	35.17202	-175.13743	0.028	262.7
2026-07-22T16:00	35.17205	-175.13744	0.013	335.9
2026-07-22T16:10	35.17202	-175.13744	0.012	168.7
2026-07-22T16:20	35.17202	-175.13735	0.026	92.3
2026-07-22T16:30	35.17202	-175.13745	0.030	270.0
2026-07-22T16:40	35.17205	-175.13741	0.016	45.2
2026-07-22T16:50	35.17209	-175.13734	0.027	51.7
2026-07-22T17:00	35.17211	-175.13737	0.011	303.7
2026-07-22T17:10	35.17198	-175.13738	0.047	185.0
2026-07-22T17:20	35.17194	-175.13734	0.018	133.4
2026-07-22T17:30	35.16312	-175.14893	4.661	227.2
2026-07-22T17:40	35.14955	-175.17596	9.348	238.6
2026-07-22T17:50	35.13963	-175.18492	4.435	216.6
2026-07-22T18:00	35.13956	-175.18503	0.044	231.4
2026-07-22T18:10	35.13944	-175.18522	0.070	231.3
2026-07-22T18:20	35.13945	-175.18509	0.037	83.8
2026-07-22T18:30	35.13945	-175.18510	0.003	340.6
2026-07-22T18:40	35.13947	-175.18510	0.005	353.8
2026-07-22T18:50	35.13949	-175.18519	0.029	288.1
2026-07-22T19:00	35.13942	-175.18524	0.031	208.1
2026-07-22T19:10	35.13945	-175.18522	0.013	26.0
2026-07-22T19:20	35.13948	-175.18522	0.011	10.5
2026-07-22T19:30	35.14120	-175.18514	0.618	2.1
2026-07-22T19:40	35.14314	-175.18506	0.699	2.0
2026-07-22T19:50	35.14317	-175.18502	0.016	47.9
2026-07-22T20:00	35.14315	-175.18501	0.008	153.8
2026-07-22T20:10	35.14316	-175.18507	0.019	272.2
2026-07-22T20:20	35.14309	-175.18512	0.026	210.9
2026-07-22T20:30	35.14312	-175.18513	0.011	333.5
2026-07-22T20:40	35.14314	-175.18512	0.008	22.3
2026-07-22T20:50	35.14310	-175.18512	0.016	174.5
2026-07-22T21:00	35.14313	-175.18502	0.030	64.8
2026-07-22T21:10	35.14314	-175.18506	0.011	290.9
2026-07-22T21:20	35.14317	-175.18508	0.012	327.4
2026-07-22T21:30	35.14313	-175.18505	0.017	147.5
2026-07-22T21:40	35.14312	-175.18499	0.017	103.7
2026-07-22T21:50	35.14313	-175.18515	0.045	275.5
2026-07-22T22:00	35.14310	-175.18509	0.020	127.2
2026-07-22T22:10	35.14313	-175.18499	0.032	68.7
2026-07-22T22:20	35.14313	-175.18503	0.012	261.6
2026-07-22T22:30	35.14317	-175.18500	0.016	33.8
2026-07-22T22:40	35.14315	-175.18501	0.007	184.9
2026-07-22T22:50	35.14317	-175.18506	0.018	293.5
2026-07-22T23:00	35.14318	-175.18514	0.025	285.0
2026-07-22T23:10	35.14317	-175.18499	0.045	98.3
2026-07-22T23:20	35.14320	-175.18502	0.013	324.6
2026-07-22T23:30	35.14260	-175.18441	0.281	140.3
2026-07-22T23:40	35.13823	-175.16984	4.576	110.0
2026-07-22T23:50	35.13488	-175.15878	3.481	110.2
2026-07-23T00:00	35.13468	-175.15873	0.072	168.4
2026-07-23T00:10	35.13466	-175.15872	0.009	163.5
2026-07-23T00:20	35.13465	-175.15881	0.028	264.8
2026-07-23T00:30	35.13463	-175.15868	0.039	102.9
2026-07-23T00:40	35.13457	-175.15870	0.020	191.8
2026-07-23T00:50	35.13457	-175.15865	0.014	94.5
2026-07-23T01:00	35.13459	-175.15872	0.022	296.5
2026-07-23T01:10	35.13460	-175.15867	0.016	83.5
2026-07-23T01:20	35.13460	-175.15863	0.011	84.5
2026-07-23T01:30	35.13473	-175.15864	0.045	357.0
2026-07-23T01:40	35.13741	-175.15913	0.974	351.4
2026-07-23T01:50	35.14014	-175.15963	0.992	351.5
2026-07-23T02:00	35.14035	-175.15962	0.074	3.0
2026-07-23T02:10	35.14034	-175.15963	0.005	262.3
2026-07-23T02:20	35.14032	-175.15966	0.012	217.2
2026-07-23T02:30	35.14036	-175.15958	0.028	57.1
2026-07-23T02:40	35.14027	-175.15970	0.048	229.3
2026-07-23T02:50	35.14029	-175.15970	0.007	355.1
2026-07-23T03:00	35.14032	-175.15967	0.015	41.9
2026-07-23T03:10	35.14035	-175.15958	0.027	68.2
2026-07-23T03:20	35.14034	-175.15972	0.040	263.4
2026-07-23T03:30	35.14034	-175.15962	0.030	87.9
2026-07-23T03:40	35.14035	-175.15970	0.025	279.1
2026-07-23T03:50	35.14035	-175.15971	0.002	256.3
2026-07-23T04:00	35.14030	-175.15964	0.028	137.3
2026-07-23T04:10	35.14032	-175.15961	0.012	51.9
2026-07-23T04:20	35.14027	-175.15967	0.023	227.9
2026-07-23T04:30	35.14252	-175.16183	1.030	321.8
2026-07-23T04:40	35.16963	-175.16597	9.814	352.8
2026-07-23T04:50	35.19841	-175.17305	10.547	348.6
2026-07-23T05:00	35.22685	-175.18437	10.750	341.9
2026-07-23T05:10	35.25624	-175.19387	10.921	345.1
2026-07-23T05:20	35.28546	-175.20362	10.882	344.7
2026-07-23T05:30	35.31502	-175.21321	10.991	345.1
2026-07-23T05:40	35.34127	-175.22754	10.330	335.9
2026-07-23T05:50	35.35174	-175.25915	10.036	292.0
2026-07-23T06:00	35.36455	-175.28574	9.077	300.5
2026-07-23T06:10	35.35975	-175.28490	1.739	171.8
2026-07-23T06:20	35.35963	-175.28520	0.100	242.5
2026-07-23T06:30	35.35965	-175.28519	0.009	23.1
2026-07-23T06:40	35.35967	-175.28508	0.034	75.3
2026-07-23T06:50	35.35966	-175.28519	0.035	262.3
2026-07-23T07:00	35.35962	-175.28509	0.034	116.8
2026-07-23T07:10	35.35965	-175.28522	0.038	286.8
2026-07-23T07:20	35.35963	-175.28517	0.015	113.0
2026-07-23T07:30	35.36116	-175.28584	0.583	340.2
2026-07-23T07:40	35.36375	-175.28708	0.999	338.6
2026-07-23T07:50	35.36437	-175.28744	0.248	334.4
2026-07-23T08:00	35.36433	-175.28741	0.019	150.6
2026-07-23T08:10	35.36440	-175.28737	0.030	23.8
2026-07-23T08:20	35.36444	-175.28733	0.017	41.6
2026-07-23T08:30	35.36434	-175.28741	0.041	213.3
2026-07-23T08:40	35.36439	-175.28736	0.021	39.3
2026-07-23T08:50	35.36442	-175.28742	0.021	305.9
2026-07-23T09:00	35.36435	-175.28737	0.029	151.2
2026-07-23T09:10	35.36440	-175.28745	0.028	311.2
2026-07-23T09:20	35.36437	-175.28744	0.014	171.6
2026-07-23T09:30	35.36439	-175.28739	0.016	61.9
2026-07-23T09:40	35.36440	-175.28744	0.016	292.1
2026-07-23T09:50	35.36429	-175.28747	0.040	191.5
2026-07-23T10:00	35.37449	-175.30194	5.616	310.7
2026-07-23T10:10	35.39377	-175.32853	10.450	311.5
2026-07-23T10:20	35.41577	-175.34831	9.812	323.6
2026-07-23T10:30	35.44358	-175.33995	10.287	13.8
2026-07-23T10:40	35.47106	-175.33053	10.254	15.7
2026-07-23T10:50	35.48538	-175.32966	5.150	2.9
2026-07-23T11:00	35.47062	-175.34178	6.389	213.9
2026-07-23T11:10	35.44873	-175.35580	8.875	207.7
2026-07-23T11:20	35.44214	-175.35574	2.369	179.5
2026-07-23T11:30	35.44192	-175.35560	0.089	153.5
2026-07-23T11:40	35.44186	-175.35548	0.041	121.8
2026-07-23T11:50	35.44248	-175.35541	0.223	5.8
2026-07-23T12:00	35.44249	-175.35549	0.026	280.5
2026-07-23T12:10	35.44252	-175.35548	0.011	17.2
2026-07-23T12:20	35.44251	-175.35543	0.016	105.8
2026-07-23T12:30	35.44273	-175.35448	0.291	74.0
2026-07-23T12:40	35.44387	-175.35162	0.935	64.0
2026-07-23T12:50	35.44401	-175.35137	0.087	55.6
2026-07-23T13:00	35.44396	-175.35136	0.018	172.7
2026-07-23T13:10	35.44398	-175.35143	0.020	289.2
2026-07-23T13:20	35.44395	-175.35133	0.029	106.7
2026-07-23T13:30	35.44391	-175.35143	0.032	239.9
2026-07-23T13:40	35.44393	-175.35145	0.011	323.0
2026-07-23T13:50	35.44393	-175.35144	0.003	116.0
2026-07-23T14:00	35.44400	-175.35138	0.031	33.0
2026-07-23T14:10	35.44393	-175.35140	0.026	191.7
2026-07-23T14:20	35.44395	-175.35143	0.010	310.7
2026-07-23T14:30	35.44221	-175.35551	1.353	242.5
2026-07-23T14:40	35.46820	-175.34235	10.105	22.5
2026-07-23T14:50	35.49626	-175.32699	11.046	24.1
2026-07-23T15:00	35.50546	-175.31639	4.543	43.3
2026-07-23T15:10	35.50553	-175.31639	0.024	359.3
2026-07-23T15:20	35.50550	-175.31634	0.018	133.6
2026-07-23T15:30	35.50517	-175.31642	0.120	191.1
2026-07-23T15:40	35.50513	-175.31644	0.015	206.3
2026-07-23T15:50	35.50512	-175.31647	0.009	255.8
2026-07-23T16:00	35.50516	-175.31649	0.013	340.2
2026-07-23T16:10	35.50336	-175.31525	0.740	150.5
2026-07-23T16:20	35.50192	-175.31440	0.574	154.5
2026-07-23T16:30	35.50189	-175.31431	0.030	112.4
2026-07-23T16:40	35.50191	-175.31433	0.009	316.6
2026-07-23T16:50	35.50191	-175.31432	0.003	90.0
2026-07-23T17:00	35.50188	-175.31438	0.021	242.0
2026-07-23T17:10	35.50191	-175.31429	0.030	69.5
2026-07-23T17:20	35.50192	-175.31432	0.010	284.1
2026-07-23T17:30	35.50187	-175.31441	0.033	233.7
2026-07-23T17:40	35.50188	-175.31430	0.033	80.1
2026-07-23T17:50	35.50192	-175.31437	0.023	304.5
2026-07-23T18:00	35.50122	-175.31326	0.410	127.7
2026-07-23T18:10	35.50875	-175.29139	6.971	67.2
2026-07-23T18:20	35.51846	-175.25941	10.020	69.6
2026-07-23T18:30	35.52895	-175.22539	10.679	69.3
2026-07-23T18:40	35.54023	-175.19214	10.571	67.5
2026-07-23T18:50	35.55139	-175.15948	10.394	67.3
2026-07-23T19:00	35.56261	-175.12656	10.472	67.3
2026-07-23T19:10	35.57416	-175.09286	10.727	67.2
2026-07-23T19:20	35.58564	-175.05908	10.737	67.4
2026-07-23T19:30	35.59724	-175.02498	10.840	67.4
2026-07-23T19:40	35.60875	-174.99128	10.717	67.3
2026-07-23T19:50	35.62006	-174.95798	10.582	67.4
2026-07-23T20:00	35.63148	-174.92459	10.619	67.2
2026-07-23T20:10	35.64276	-174.89137	10.550	67.4
2026-07-23T20:20	35.65431	-174.85761	10.737	67.2
2026-07-23T20:30	35.66584	-174.82380	10.742	67.3
2026-07-23T20:40	35.67775	-174.78869	11.147	67.4
2026-07-23T20:50	35.68947	-174.75403	10.997	67.5
2026-07-23T21:00	35.70124	-174.71976	10.896	67.2
2026-07-23T21:10	35.71265	-174.68619	10.658	67.4
2026-07-23T21:20	35.72210	-174.65837	8.829	67.4
2026-07-23T21:30	35.73277	-174.62718	9.909	67.2
2026-07-23T21:40	35.74457	-174.59272	10.947	67.2
2026-07-23T21:50	35.75639	-174.55773	11.094	67.5
2026-07-23T22:00	35.76828	-174.52266	11.121	67.4
2026-07-23T22:10	35.78017	-174.48790	11.038	67.2
2026-07-23T22:20	35.79201	-174.45300	11.066	67.4
2026-07-23T22:30	35.80377	-174.41840	10.973	67.4
2026-07-23T22:40	35.81565	-174.38347	11.079	67.3
2026-07-23T22:50	35.82758	-174.34842	11.115	67.3
2026-07-23T23:00	35.83953	-174.31347	11.089	67.2
2026-07-23T23:10	35.85122	-174.27884	10.966	67.5
2026-07-23T23:20	35.86310	-174.24385	11.088	67.3
2026-07-23T23:30	35.87542	-174.20835	11.286	66.9
2026-07-23T23:40	35.88723	-174.17284	11.215	67.8
2026-07-23T23:50	35.89916	-174.13773	11.123	67.3
2026-07-24T00:00	35.91083	-174.10323	10.923	67.4
2026-07-24T00:10	35.92260	-174.06873	10.934	67.2
2026-07-24T00:20	35.93434	-174.03410	10.962	67.3
2026-07-24T00:30	35.94585	-173.99954	10.912	67.7
2026-07-24T00:40	35.95794	-173.96431	11.170	67.1
2026-07-24T00:50	35.97034	-173.92828	11.430	67.0
2026-07-24T01:00	35.98203	-173.89356	10.973	67.5
2026-07-24T01:10	35.99362	-173.85933	10.830	67.4
2026-07-24T01:20	36.00507	-173.82511	10.803	67.6
2026-07-24T01:30	36.01693	-173.79078	10.889	67.0
2026-07-24T01:40	36.02858	-173.75615	10.939	67.5
2026-07-24T01:50	36.03752	-173.72148	10.616	72.4
2026-07-24T02:00	36.04566	-173.68592	10.780	74.2
2026-07-24T02:10	36.05406	-173.64987	10.944	74.0
2026-07-24T02:20	36.06546	-173.61498	10.970	68.1
2026-07-24T02:30	36.07930	-173.58138	10.990	63.1
2026-07-24T02:40	36.09327	-173.54765	11.045	63.0
2026-07-24T02:50	36.10715	-173.51458	10.856	62.6
2026-07-24T03:00	36.12209	-173.48209	10.886	60.5
2026-07-24T03:10	36.14470	-173.45852	10.638	40.2
2026-07-24T03:20	36.16928	-173.43883	10.533	33.0
2026-07-24T03:30	36.19338	-173.41925	10.368	33.4
2026-07-24T03:40	36.21712	-173.39950	10.286	34.0
2026-07-24T03:50	36.24082	-173.37949	10.318	34.4
2026-07-24T04:00	36.26452	-173.35959	10.298	34.2
2026-07-24T04:10	36.28764	-173.34004	10.067	34.4
2026-07-24T04:20	36.31052	-173.32075	9.953	34.3
2026-07-24T04:30	36.33363	-173.30131	10.045	34.3
2026-07-24T04:40	36.35720	-173.28144	10.251	34.3
2026-07-24T04:50	36.38039	-173.26187	10.088	34.3
2026-07-24T05:00	36.40378	-173.24212	10.174	34.3
2026-07-24T05:10	36.42747	-173.22221	10.290	34.2
2026-07-24T05:20	36.45097	-173.20234	10.227	34.3
2026-07-24T05:30	36.47444	-173.18252	10.207	34.3
2026-07-24T05:40	36.49770	-173.16279	10.130	34.4
2026-07-24T05:50	36.52158	-173.14261	10.389	34.3
2026-07-24T06:00	36.54526	-173.12246	10.322	34.5
2026-07-24T06:10	36.56851	-173.10133	10.357	36.2
2026-07-24T06:20	36.58375	-173.07155	10.223	57.6
2026-07-24T06:30	36.59904	-173.04152	10.291	57.7
2026-07-24T06:40	36.61457	-173.01091	10.477	57.8
2026-07-24T06:50	36.63020	-172.97995	10.579	57.9
2026-07-24T07:00	36.64610	-172.94869	10.706	57.7
2026-07-24T07:10	36.66197	-172.91724	10.743	57.9
2026-07-24T07:20	36.67779	-172.88601	10.679	57.8
2026-07-24T07:30	36.69377	-172.85470	10.727	57.6
2026-07-24T07:40	36.70950	-172.82359	10.630	57.9
2026-07-24T07:50	36.72507	-172.79283	10.511	57.8
2026-07-24T08:00	36.74044	-172.76211	10.462	58.1
2026-07-24T08:10	36.75604	-172.73170	10.428	57.5
2026-07-24T08:20	36.77156	-172.70107	10.465	57.8
2026-07-24T08:30	36.78705	-172.67040	10.468	57.9
2026-07-24T08:40	36.80255	-172.63964	10.488	57.9
2026-07-24T08:50	36.81781	-172.60928	10.344	58.0
2026-07-24T09:00	36.83358	-172.57844	10.561	57.5
2026-07-24T09:10	36.84912	-172.54784	10.451	57.7
2026-07-24T09:20	36.86471	-172.51710	10.500	57.7
2026-07-24T09:30	36.87987	-172.48667	10.333	58.2
2026-07-24T09:40	36.89551	-172.45603	10.481	57.5
2026-07-24T09:50	36.91105	-172.42522	10.500	57.9
2026-07-24T10:00	36.92665	-172.39428	10.541	57.9
2026-07-24T10:10	36.94199	-172.36405	10.314	57.7
2026-07-24T10:20	36.95723	-172.33366	10.336	58.0
2026-07-24T10:30	36.97257	-172.30340	10.321	57.7
2026-07-24T10:40	36.98775	-172.27338	10.227	57.8
2026-07-24T10:50	37.00258	-172.24329	10.180	58.4
2026-07-24T11:00	37.01836	-172.21291	10.432	57.0
2026-07-24T11:10	37.03388	-172.18218	10.463	57.8
2026-07-24T11:20	37.04913	-172.15146	10.411	58.2
2026-07-24T11:30	37.06427	-172.12145	10.213	57.8
2026-07-24T11:40	37.07972	-172.09103	10.372	57.6
2026-07-24T11:50	37.09491	-172.06089	10.249	57.8
2026-07-24T12:00	37.10970	-172.03080	10.163	58.5
2026-07-24T12:10	37.12412	-171.99994	10.281	59.7
2026-07-24T12:20	37.13867	-171.96887	10.357	59.7
2026-07-24T12:30	37.15355	-171.93708	10.591	59.7
2026-07-24T12:40	37.16814	-171.90552	10.484	60.0
2026-07-24T12:50	37.18255	-171.87529	10.119	59.2
2026-07-24T13:00	37.19714	-171.84404	10.402	59.7
2026-07-24T13:10	37.21109	-171.81358	10.088	60.2
2026-07-24T13:20	37.22555	-171.78295	10.224	59.4
2026-07-24T13:30	37.24003	-171.75188	10.333	59.8
2026-07-24T13:40	37.25471	-171.72030	10.494	59.8
2026-07-24T13:50	37.26984	-171.68801	10.751	59.6
2026-07-24T14:00	37.28482	-171.65576	10.713	59.8
2026-07-24T14:10	37.29986	-171.62361	10.698	59.6
2026-07-24T14:20	37.31474	-171.59162	10.625	59.8
2026-07-24T14:30	37.32991	-171.55905	10.822	59.7
2026-07-24T14:40	37.34528	-171.52622	10.919	59.6
2026-07-24T14:50	37.36033	-171.49373	10.774	59.9
2026-07-24T15:00	37.37561	-171.46107	10.860	59.6
2026-07-24T15:10	37.39071	-171.42853	10.796	59.8
2026-07-24T15:20	37.40611	-171.39580	10.893	59.5
2026-07-24T15:30	37.42117	-171.36324	10.790	59.9
2026-07-24T15:40	37.43595	-171.33150	10.531	59.7
2026-07-24T15:50	37.45070	-171.29986	10.502	59.7
2026-07-24T16:00	37.46540	-171.26824	10.488	59.8
2026-07-24T16:10	37.48017	-171.23644	10.541	59.8
2026-07-24T16:20	37.49500	-171.20466	10.546	59.6
2026-07-24T16:30	37.50976	-171.17283	10.545	59.8
2026-07-24T16:40	37.52414	-171.14196	10.237	59.7
2026-07-24T16:50	37.53842	-171.11131	10.163	59.7
2026-07-24T17:00	37.55271	-171.08048	10.209	59.8
2026-07-24T17:10	37.56714	-171.04951	10.267	59.6
2026-07-24T17:20	37.58149	-171.01862	10.229	59.7
2026-07-24T17:30	37.59580	-170.98756	10.265	59.9
2026-07-24T17:40	37.61023	-170.95670	10.234	59.5
2026-07-24T17:50	37.62475	-170.92549	10.336	59.7
2026-07-24T18:00	37.63908	-170.89446	10.254	59.9
2026-07-24T18:10	37.65415	-170.86245	10.631	59.4
2026-07-24T18:20	37.68030	-170.85133	9.919	18.7
2026-07-24T18:30	37.70984	-170.84404	10.820	11.1
2026-07-24T18:40	37.73912	-170.83682	10.723	11.1
2026-07-24T18:50	37.76751	-170.83002	10.385	10.8
2026-07-24T19:00	37.79584	-170.82303	10.377	11.1
2026-07-24T19:10	37.82436	-170.81605	10.439	11.0
2026-07-24T19:20	37.85265	-170.80904	10.362	11.1
2026-07-24T19:30	37.88200	-170.80179	10.751	11.1
2026-07-24T19:40	37.91074	-170.79481	10.516	10.9
2026-07-24T19:50	37.93799	-170.78799	9.986	11.2
2026-07-24T20:00	37.96539	-170.78142	10.024	10.7
2026-07-24T20:10	37.99225	-170.77482	9.833	11.0
2026-07-24T20:20	38.02061	-170.76788	10.383	11.0
2026-07-24T20:30	38.04813	-170.76093	10.085	11.3
2026-07-24T20:40	38.07586	-170.75421	10.148	10.8
2026-07-24T20:50	38.10378	-170.74747	10.218	10.8
2026-07-24T21:00	38.11494	-170.71673	9.605	65.3
2026-07-24T21:10	38.12171	-170.68168	10.246	76.2
2026-07-24T21:20	38.12812	-170.64649	10.254	77.0
2026-07-24T21:30	38.13479	-170.61123	10.291	76.5
2026-07-24T21:40	38.14125	-170.57660	10.101	76.7
2026-07-24T21:50	38.14758	-170.54207	10.063	76.9
2026-07-24T22:00	38.15408	-170.50726	10.154	76.7
2026-07-24T22:10	38.16063	-170.47240	10.169	76.6
2026-07-24T22:20	38.16704	-170.43752	10.161	76.9
2026-07-24T22:30	38.17336	-170.40329	9.977	76.8
2026-07-24T22:40	38.17972	-170.36932	9.903	76.7
2026-07-24T22:50	38.18608	-170.33504	9.992	76.8
2026-07-24T23:00	38.19242	-170.30116	9.875	76.7
2026-07-24T23:10	38.19872	-170.26707	9.933	76.8
2026-07-24T23:20	38.20510	-170.23273	10.006	76.7
2026-07-24T23:30	38.21142	-170.19831	10.019	76.9
2026-07-24T23:40	38.21796	-170.16349	10.153	76.6
2026-07-24T23:50	38.22440	-170.12827	10.250	77.0
2026-07-25T00:00	38.23104	-170.09325	10.212	76.5
2026-07-25T00:10	38.23736	-170.05846	10.120	77.0
2026-07-25T00:20	38.24390	-170.02332	10.233	76.7
2026-07-25T00:30	38.25037	-169.98834	10.185	76.8
2026-07-25T00:40	38.25692	-169.95325	10.221	76.7
2026-07-25T00:50	38.26342	-169.91831	10.174	76.7
2026-07-25T01:00	38.27240	-169.88493	9.993	71.1
2026-07-25T01:10	38.28990	-169.85614	10.300	52.4
2026-07-25T01:20	38.30745	-169.82764	10.244	52.0
2026-07-25T01:30	38.32506	-169.79887	10.316	52.2
2026-07-25T01:40	38.34245	-169.77074	10.124	51.8
2026-07-25T01:50	38.35966	-169.74268	10.066	52.1
2026-07-25T02:00	38.37645	-169.71545	9.788	51.9
2026-07-25T02:10	38.39376	-169.68746	10.071	51.8
2026-07-25T02:20	38.41111	-169.65908	10.165	52.1
2026-07-25T02:30	38.42876	-169.63052	10.270	51.8
2026-07-25T02:40	38.44606	-169.60227	10.120	52.1
2026-07-25T02:50	38.46367	-169.57385	10.226	51.8
2026-07-25T03:00	38.48097	-169.54541	10.162	52.2
2026-07-25T03:10	38.49864	-169.51673	10.296	51.9
2026-07-25T03:20	38.51625	-169.48800	10.290	52.0
2026-07-25T03:30	38.53427	-169.45873	10.499	51.9
2026-07-25T03:40	38.55222	-169.42939	10.500	52.1
2026-07-25T03:50	38.56994	-169.40043	10.362	52.1
2026-07-25T04:00	38.58752	-169.37201	10.210	51.8
2026-07-25T04:10	38.60500	-169.34329	10.251	52.2
2026-07-25T04:20	38.62282	-169.31448	10.345	51.7
2026-07-25T04:30	38.64040	-169.28553	10.322	52.2
2026-07-25T04:40	38.65812	-169.25699	10.261	51.6
2026-07-25T04:50	38.67579	-169.22827	10.289	51.9
2026-07-25T05:00	38.69282	-169.20014	10.015	52.3
2026-07-25T05:10	38.70994	-169.17234	9.957	51.8
2026-07-25T05:20	38.72735	-169.14374	10.199	52.1
2026-07-25T05:30	38.74447	-169.11579	9.991	52.0
2026-07-25T05:40	38.76142	-169.08828	9.853	51.8
2026-07-25T05:50	38.77854	-169.06030	9.992	52.0
2026-07-25T06:00	38.79554	-169.03222	9.987	52.3
2026-07-25T06:10	38.81300	-169.00389	10.145	51.8
2026-07-25T06:20	38.83045	-168.97541	10.173	51.9
2026-07-25T06:30	38.84791	-168.94684	10.192	52.0
2026-07-25T06:40	38.86538	-168.91813	10.224	52.1
2026-07-25T06:50	38.88289	-168.88961	10.191	51.9
2026-07-25T07:00	38.90043	-168.86088	10.241	52.0
2026-07-25T07:10	38.91819	-168.83181	10.364	52.0
2026-07-25T07:20	38.93619	-168.80233	10.506	52.0
2026-07-25T07:30	38.95423	-168.77284	10.515	51.9
2026-07-25T07:40	38.97224	-168.74327	10.525	52.0
2026-07-25T07:50	38.99038	-168.71355	10.586	52.0
2026-07-25T08:00	39.00863	-168.68354	10.672	52.1
2026-07-25T08:10	39.02694	-168.65347	10.696	52.0
2026-07-25T08:20	39.04530	-168.62341	10.704	51.9
2026-07-25T08:30	39.06347	-168.59359	10.609	52.0
2026-07-25T08:40	39.08136	-168.56433	10.418	51.9
2026-07-25T08:50	39.09912	-168.53509	10.387	52.1
2026-07-25T09:00	39.11164	-168.50234	10.216	63.9
2026-07-25T09:10	39.12217	-168.46882	10.121	68.0
2026-07-25T09:20	39.13292	-168.43453	10.350	68.1
2026-07-25T09:30	39.14395	-168.39952	10.572	68.0
2026-07-25T09:40	39.15523	-168.36377	10.797	67.9
2026-07-25T09:50	39.16651	-168.32797	10.808	68.0
2026-07-25T10:00	39.17792	-168.29163	10.966	68.0
2026-07-25T10:10	39.18923	-168.25582	10.811	67.9
2026-07-25T10:20	39.20039	-168.22036	10.699	68.0
2026-07-25T10:30	39.21139	-168.18516	10.610	68.1
2026-07-25T10:40	39.22247	-168.15051	10.476	67.7
2026-07-25T10:50	39.23348	-168.11539	10.586	68.0
2026-07-25T11:00	39.24405	-168.08139	10.237	68.2
2026-07-25T11:10	39.25277	-168.05366	8.361	68.0
2026-07-25T11:20	39.26330	-168.02104	9.871	67.4
2026-07-25T11:30	39.27426	-167.98601	10.552	68.0
2026-07-25T11:40	39.28505	-167.95147	10.401	68.1
2026-07-25T11:50	39.29579	-167.91737	10.277	67.9
2026-07-25T12:00	39.30660	-167.88293	10.376	68.0
2026-07-25T12:10	39.31725	-167.84899	10.222	68.0
2026-07-25T12:20	39.32795	-167.81522	10.182	67.8
2026-07-25T12:30	39.33848	-167.78179	10.072	67.9
2026-07-25T12:40	39.34884	-167.74857	9.993	68.1
2026-07-25T12:50	39.35926	-167.71543	9.978	68.0
2026-07-25T13:00	39.36956	-167.68272	9.850	67.9
2026-07-25T13:10	39.38009	-167.64933	10.058	67.9
2026-07-25T13:20	39.39045	-167.61607	9.996	68.1
2026-07-25T13:30	39.40081	-167.58326	9.880	67.8
2026-07-25T13:40	39.41132	-167.55007	9.998	67.8
2026-07-25T13:50	39.42174	-167.51646	10.094	68.2
2026-07-25T14:00	39.43238	-167.48288	10.111	67.8
2026-07-25T14:10	39.44289	-167.44909	10.151	68.1
2026-07-25T14:20	39.45357	-167.41510	10.221	67.9
2026-07-25T14:30	39.46428	-167.38095	10.267	68.0
2026-07-25T14:40	39.47492	-167.34720	10.153	67.8
2026-07-25T14:50	39.48920	-167.31571	10.163	59.7
2026-07-25T15:00	39.50365	-167.28372	10.314	59.8
2026-07-25T15:10	39.51801	-167.25215	10.194	59.6
2026-07-25T15:20	39.53232	-167.22071	10.155	59.5
2026-07-25T15:30	39.54670	-167.18903	10.220	59.6
2026-07-25T15:40	39.56151	-167.15652	10.500	59.5
2026-07-25T15:50	39.57618	-167.12419	10.425	59.6
2026-07-25T16:00	39.59072	-167.09223	10.313	59.5
2026-07-25T16:10	39.60487	-167.06088	10.094	59.7
2026-07-25T16:20	39.61917	-167.02964	10.093	59.4
2026-07-25T16:30	39.63345	-166.99791	10.207	59.8
2026-07-25T16:40	39.64787	-166.96642	10.173	59.4
2026-07-25T16:50	39.66222	-166.93467	10.222	59.7
2026-07-25T17:00	39.67673	-166.90269	10.303	59.6
2026-07-25T17:10	39.69118	-166.87079	10.270	59.6
2026-07-25T17:20	39.70546	-166.83923	10.159	59.6
2026-07-25T17:30	39.71978	-166.80772	10.151	59.5
2026-07-25T17:40	39.73402	-166.77633	10.105	59.5
2026-07-25T17:50	39.74817	-166.74517	10.034	59.5
2026-07-25T18:00	39.76226	-166.71392	10.044	59.7
2026-07-25T18:10	39.77641	-166.68254	10.084	59.7
2026-07-25T18:20	39.78868	-166.65553	8.695	59.5
2026-07-25T18:30	39.80101	-166.62844	8.721	59.5
2026-07-25T18:40	39.81504	-166.59758	9.936	59.5
2026-07-25T18:50	39.82942	-166.56554	10.275	59.8
2026-07-25T19:00	39.83727	-166.53864	7.972	69.3
2026-07-25T19:10	39.83638	-166.53891	0.328	193.0
2026-07-25T19:20	39.83531	-166.53967	0.439	208.6
2026-07-25T19:30	39.83462	-166.53712	0.748	109.2
2026-07-25T19:40	39.84835	-166.50984	9.027	56.9
2026-07-25T19:50	39.86427	-166.47915	10.251	56.0
2026-07-25T20:00	39.88010	-166.44892	10.126	55.8
2026-07-25T20:10	39.89611	-166.41799	10.321	56.1
2026-07-25T20:20	39.91085	-166.38547	10.448	59.5
2026-07-25T20:30	39.92476	-166.35457	9.908	59.7
2026-07-25T20:40	39.93953	-166.32207	10.448	59.4
2026-07-25T20:50	39.95437	-166.28953	10.464	59.3
2026-07-25T21:00	39.96905	-166.25682	10.477	59.7
2026-07-25T21:10	39.98370	-166.22421	10.444	59.7
2026-07-25T21:20	39.99837	-166.19198	10.357	59.4
2026-07-25T21:30	40.01272	-166.16009	10.216	59.7
2026-07-25T21:40	40.02730	-166.12766	10.385	59.7
2026-07-25T21:50	40.04197	-166.09529	10.384	59.5
2026-07-25T22:00	40.05685	-166.06248	10.529	59.4
2026-07-25T22:10	40.07151	-166.02950	10.525	59.9
2026-07-25T22:20	40.08636	-165.99680	10.490	59.4
2026-07-25T22:30	40.10108	-165.96409	10.469	59.6
2026-07-25T22:40	40.11568	-165.93170	10.370	59.6
2026-07-25T22:50	40.13015	-165.89960	10.272	59.6
2026-07-25T23:00	40.14468	-165.86726	10.341	59.6
2026-07-25T23:10	40.15940	-165.83455	10.463	59.6
2026-07-25T23:20	40.17420	-165.80207	10.419	59.3
2026-07-25T23:30	40.18905	-165.76905	10.555	59.6
2026-07-25T23:40	40.20384	-165.73603	10.545	59.7
2026-07-25T23:50	40.21873	-165.70280	10.608	59.7
2026-07-26T00:00	40.23353	-165.67003	10.483	59.5
2026-07-26T00:10	40.24812	-165.63749	10.387	59.6
2026-07-26T00:20	40.26297	-165.60442	10.559	59.6
2026-07-26T00:30	40.27825	-165.57051	10.837	59.5
2026-07-26T00:40	40.29357	-165.53654	10.854	59.5
2026-07-26T00:50	40.30886	-165.50248	10.870	59.6
2026-07-26T01:00	40.32420	-165.46846	10.865	59.5
2026-07-26T01:10	40.33921	-165.43494	10.686	59.6
2026-07-26T01:20	40.35427	-165.40135	10.710	59.6
2026-07-26T01:30	40.36960	-165.36721	10.892	59.6
2026-07-26T01:40	40.38481	-165.33327	10.816	59.6
2026-07-26T01:50	40.39932	-165.30096	10.302	59.6
2026-07-26T02:00	40.41396	-165.26846	10.367	59.5
2026-07-26T02:10	40.42869	-165.23557	10.476	59.6
2026-07-26T02:20	40.44330	-165.20275	10.434	59.8
2026-07-26T02:30	40.45517	-165.17658	8.361	59.3
2026-07-26T02:40	40.46680	-165.15060	8.270	59.6
2026-07-26T02:50	40.48085	-165.11920	9.993	59.6
2026-07-26T03:00	40.49481	-165.08799	9.929	59.6
2026-07-26T03:10	40.50858	-165.05712	9.816	59.7
2026-07-26T03:20	40.52244	-165.02634	9.806	59.5
2026-07-26T03:30	40.53607	-164.99608	9.640	59.4
2026-07-26T03:40	40.54973	-164.96542	9.740	59.7
2026-07-26T03:50	40.56405	-164.93352	10.152	59.5
2026-07-26T04:00	40.57857	-164.90110	10.309	59.6
2026-07-26T04:10	40.59349	-164.86751	10.656	59.8
2026-07-26T04:20	40.60772	-164.83607	10.021	59.3
2026-07-26T04:30	40.62183	-164.80445	10.040	59.6
2026-07-26T04:40	40.63570	-164.77338	9.865	59.6
2026-07-26T04:50	40.65014	-164.74122	10.224	59.5
2026-07-26T05:00	40.66476	-164.70847	10.398	59.6
2026-07-26T05:10	40.67939	-164.67562	10.419	59.7
2026-07-26T05:20	40.69391	-164.64308	10.323	59.6
2026-07-26T05:30	40.70828	-164.61115	10.152	59.4
2026-07-26T05:40	40.72270	-164.57884	10.249	59.6
2026-07-26T05:50	40.73706	-164.54691	10.145	59.4
2026-07-26T06:00	40.75107	-164.51497	10.085	60.0
2026-07-26T06:10	40.76515	-164.48357	9.967	59.5
2026-07-26T06:20	40.77927	-164.45207	9.995	59.5
2026-07-26T06:30	40.79322	-164.42069	9.935	59.7
2026-07-26T06:40	40.80738	-164.38903	10.038	59.5
2026-07-26T06:50	40.82220	-164.35560	10.575	59.7
2026-07-26T07:00	40.83682	-164.32285	10.376	59.5
2026-07-26T07:10	40.85168	-164.28958	10.540	59.5
2026-07-26T07:20	40.86647	-164.25651	10.478	59.5
2026-07-26T07:30	40.88099	-164.22380	10.342	59.7
2026-07-26T07:40	40.89558	-164.19113	10.345	59.5
2026-07-26T07:50	40.91038	-164.15788	10.517	59.6
2026-07-26T08:00	40.92515	-164.12455	10.530	59.7
2026-07-26T08:10	40.94021	-164.09099	10.635	59.4
2026-07-26T08:20	40.95511	-164.05733	10.626	59.7
2026-07-26T08:30	40.96979	-164.02426	10.446	59.6
2026-07-26T08:40	40.98461	-163.99101	10.513	59.5
2026-07-26T08:50	40.99926	-163.95802	10.417	59.6
2026-07-26T09:00	41.01419	-163.92453	10.585	59.5
2026-07-26T09:10	41.02893	-163.89138	10.470	59.6
2026-07-26T09:20	41.04368	-163.85822	10.472	59.5
2026-07-26T09:30	41.05823	-163.82548	10.335	59.6
2026-07-26T09:40	41.07282	-163.79268	10.353	59.5
2026-07-26T09:50	41.08721	-163.76019	10.244	59.6
2026-07-26T10:00	41.10191	-163.72718	10.422	59.5
2026-07-26T10:10	41.11648	-163.69408	10.415	59.8
2026-07-26T10:20	41.13094	-163.66156	10.258	59.5
2026-07-26T10:30	41.14532	-163.62932	10.179	59.4
2026-07-26T10:40	41.16159	-163.59992	9.903	53.8
2026-07-26T10:50	41.18655	-163.58168	10.253	28.9
2026-07-26T11:00	41.21206	-163.56359	10.405	28.2
2026-07-26T11:10	41.23761	-163.54543	10.428	28.2
2026-07-26T11:20	41.26300	-163.52751	10.345	28.0
2026-07-26T11:30	41.28855	-163.50932	10.428	28.2
2026-07-26T11:40	41.31413	-163.49111	10.443	28.2
2026-07-26T11:50	41.33957	-163.47309	10.368	28.1
2026-07-26T12:00	41.36498	-163.45512	10.356	28.0
2026-07-26T12:10	41.39041	-163.43678	10.408	28.5
2026-07-26T12:20	41.41613	-163.41861	10.475	28.0
2026-07-26T12:30	41.44185	-163.40025	10.500	28.2
2026-07-26T12:40	41.46702	-163.38244	10.252	28.0
2026-07-26T12:50	41.49173	-163.36442	10.138	28.7
2026-07-26T13:00	41.50723	-163.33376	9.988	56.1
2026-07-26T13:10	41.52223	-163.30297	9.919	57.0
2026-07-26T13:20	41.53737	-163.27183	10.022	57.1
2026-07-26T13:30	41.55275	-163.24008	10.207	57.2
2026-07-26T13:40	41.56844	-163.20771	10.405	57.2
2026-07-26T13:50	41.58397	-163.17554	10.327	57.2
2026-07-26T14:00	41.59956	-163.14363	10.279	57.0
2026-07-26T14:10	41.61487	-163.11186	10.191	57.3
2026-07-26T14:20	41.63052	-163.07958	10.371	57.1
2026-07-26T14:30	41.64614	-163.04726	10.373	57.2
2026-07-26T14:40	41.66151	-163.01570	10.148	57.0
2026-07-26T14:50	41.67672	-162.98430	10.080	57.1
2026-07-26T15:00	41.69196	-162.95285	10.095	57.1
2026-07-26T15:10	41.70723	-162.92117	10.154	57.2
2026-07-26T15:20	41.72271	-162.88915	10.268	57.2
2026-07-26T15:30	41.73811	-162.85740	10.191	57.1
2026-07-26T15:40	41.75363	-162.82525	10.302	57.2
2026-07-26T15:50	41.76914	-162.79325	10.264	57.1
2026-07-26T16:00	41.78488	-162.76066	10.440	57.2
2026-07-26T16:10	41.80070	-162.72795	10.483	57.1
2026-07-26T16:20	41.81650	-162.69514	10.498	57.2
2026-07-26T16:30	41.83221	-162.66295	10.342	56.9
2026-07-26T16:40	41.84764	-162.63053	10.333	57.5
2026-07-26T16:50	41.86320	-162.59855	10.259	56.9
2026-07-26T17:00	41.87934	-162.56687	10.307	55.7
2026-07-26T17:10	41.89382	-162.53384	10.291	59.6
2026-07-26T17:20	41.90948	-162.50209	10.221	56.6
2026-07-26T17:30	41.92531	-162.46975	10.386	56.8
2026-07-26T17:40	41.94119	-162.43665	10.565	57.3
2026-07-26T17:50	41.95720	-162.40348	10.605	57.1
2026-07-26T18:00	41.97293	-162.37065	10.471	57.3
2026-07-26T18:10	41.98890	-162.33771	10.544	57.0
2026-07-26T18:20	42.00500	-162.30414	10.707	57.2
2026-07-26T18:30	42.02108	-162.27087	10.634	57.0
2026-07-26T18:40	42.03669	-162.23847	10.344	57.1
2026-07-26T18:50	42.05204	-162.20658	10.175	57.1
2026-07-26T19:00	42.06741	-162.17448	10.229	57.3
2026-07-26T19:10	42.08277	-162.14256	10.181	57.1
2026-07-26T19:20	42.09831	-162.11027	10.297	57.1
2026-07-26T19:30	42.11397	-162.07785	10.352	57.0
2026-07-26T19:40	42.12950	-162.04529	10.353	57.3
2026-07-26T19:50	42.14494	-162.01308	10.256	57.2
2026-07-26T20:00	42.16044	-161.98087	10.265	57.1
2026-07-26T20:10	42.17557	-161.94971	9.955	56.9
2026-07-26T20:20	42.19104	-161.91746	10.267	57.2
2026-07-26T20:30	42.20606	-161.88622	9.948	57.1
2026-07-26T20:40	42.22105	-161.85479	9.985	57.3
2026-07-26T20:50	42.23584	-161.82400	9.800	57.1
2026-07-26T21:00	42.24623	-161.79170	9.406	66.6
2026-07-26T21:10	42.24598	-161.75471	9.886	90.5
2026-07-26T21:20	42.24550	-161.71766	9.903	91.0
2026-07-26T21:30	42.24499	-161.68071	9.874	91.0
2026-07-26T21:40	42.24447	-161.64287	10.115	91.0
2026-07-26T21:50	42.24400	-161.60460	10.229	90.9
2026-07-26T22:00	42.24342	-161.56652	10.179	91.2
2026-07-26T22:10	42.24292	-161.52894	10.044	91.0
2026-07-26T22:20	42.24238	-161.49041	10.299	91.1
2026-07-26T22:30	42.24179	-161.45195	10.281	91.2
2026-07-26T22:40	42.24141	-161.41317	10.365	90.8
2026-07-26T22:50	42.24085	-161.37462	10.304	91.1
2026-07-26T23:00	42.24032	-161.33648	10.196	91.1
2026-07-26T23:10	42.23978	-161.29798	10.292	91.1
2026-07-26T23:20	42.23915	-161.25897	10.427	91.2
2026-07-26T23:30	42.23866	-161.22066	10.242	91.0
2026-07-26T23:40	42.23824	-161.18200	10.332	90.8
2026-07-26T23:50	42.23762	-161.14315	10.386	91.2
2026-07-27T00:00	42.23709	-161.10490	10.225	91.1
2026-07-27T00:10	42.24520	-161.07061	9.618	72.3
2026-07-27T00:20	42.25583	-161.03608	9.989	67.5
2026-07-27T00:30	42.26671	-161.00180	9.959	66.9
2026-07-27T00:40	42.27741	-160.96709	10.038	67.5
2026-07-27T00:50	42.28831	-160.93261	10.009	66.9
2026-07-27T01:00	42.29911	-160.89804	10.014	67.2
2026-07-27T01:10	42.30982	-160.86379	9.922	67.2
2026-07-27T01:20	42.32055	-160.82962	9.907	67.0
2026-07-27T01:30	42.33082	-160.79650	9.578	67.3
2026-07-27T01:40	42.34123	-160.76339	9.597	67.0
2026-07-27T01:50	42.35160	-160.72975	9.720	67.4
2026-07-27T02:00	42.36219	-160.69621	9.725	66.9
2026-07-27T02:10	42.37274	-160.66233	9.800	67.2
2026-07-27T02:20	42.38332	-160.62850	9.791	67.1
2026-07-27T02:30	42.39396	-160.59445	9.853	67.1
2026-07-27T02:40	42.40463	-160.56044	9.845	67.0
2026-07-27T02:50	42.41531	-160.52608	9.929	67.2
2026-07-27T03:00	42.42602	-160.49164	9.955	67.2
2026-07-27T03:10	42.43167	-160.45604	9.701	77.9
2026-07-27T03:20	42.44582	-160.42666	9.336	57.0
2026-07-27T03:30	42.45667	-160.39475	9.353	65.3
2026-07-27T03:40	42.46722	-160.36063	9.848	67.3
2026-07-27T03:50	42.47735	-160.32712	9.638	67.8
2026-07-27T04:00	42.48809	-160.29294	9.885	67.0
2026-07-27T04:10	42.49881	-160.25838	9.976	67.2
2026-07-27T04:20	42.50958	-160.22386	9.969	67.1
2026-07-27T04:30	42.52017	-160.19002	9.779	67.1
2026-07-27T04:40	42.53093	-160.15584	9.882	66.9
2026-07-27T04:50	42.54180	-160.12089	10.085	67.2
2026-07-27T05:00	42.55293	-160.08501	10.350	67.2
2026-07-27T05:10	42.56400	-160.04935	10.282	67.2
2026-07-27T05:20	42.57496	-160.01418	10.149	67.1
2026-07-27T05:30	42.58583	-159.97893	10.153	67.3
2026-07-27T05:40	42.59705	-159.94306	10.352	67.1
2026-07-27T05:50	42.60828	-159.90719	10.352	67.0
2026-07-27T06:00	42.61940	-159.87134	10.329	67.2
2026-07-27T06:10	42.63064	-159.83496	10.477	67.3
2026-07-27T06:20	42.64182	-159.79920	10.311	67.0
2026-07-27T06:30	42.65302	-159.76328	10.353	67.1
2026-07-27T06:40	42.66404	-159.72794	10.187	67.1
2026-07-27T06:50	42.67499	-159.69238	10.229	67.3
2026-07-27T07:00	42.68610	-159.65679	10.255	67.1
2026-07-27T07:10	42.69717	-159.62107	10.279	67.2
2026-07-27T07:20	42.70858	-159.58459	10.514	67.0
2026-07-27T07:30	42.71872	-159.54800	10.367	69.4
2026-07-27T07:40	42.71939	-159.50764	10.708	88.7
2026-07-27T07:50	42.72005	-159.46817	10.471	88.7
2026-07-27T08:00	42.72060	-159.42965	10.219	88.9
2026-07-27T08:10	42.72111	-159.39132	10.167	88.9
2026-07-27T08:20	42.72172	-159.35293	10.185	88.8
2026-07-27T08:30	42.72218	-159.31434	10.235	89.1
2026-07-27T08:40	42.72272	-159.27573	10.242	88.9
2026-07-27T08:50	42.72335	-159.23728	10.199	88.7
2026-07-27T09:00	42.72394	-159.19874	10.224	88.8
2026-07-27T09:10	42.72453	-159.15960	10.383	88.8
2026-07-27T09:20	42.72510	-159.12026	10.434	88.9
2026-07-27T09:30	42.72561	-159.08101	10.411	89.0
2026-07-27T09:40	42.72619	-159.04174	10.417	88.8
2026-07-27T09:50	42.72670	-159.00289	10.305	89.0
2026-07-27T10:00	42.72733	-158.96443	10.201	88.7
2026-07-27T10:10	42.72788	-158.92587	10.229	88.9
2026-07-27T10:20	42.72841	-158.88675	10.376	88.9
2026-07-27T10:30	42.72895	-158.84740	10.436	88.9
2026-07-27T10:40	42.72967	-158.80806	10.436	88.6
2026-07-27T10:50	42.73023	-158.76874	10.428	88.9
2026-07-27T11:00	42.73082	-158.72952	10.404	88.8
2026-07-27T11:10	42.73133	-158.69043	10.367	89.0
2026-07-27T11:20	42.73185	-158.65138	10.357	89.0
2026-07-27T11:30	42.73245	-158.61210	10.418	88.8
2026-07-27T11:40	42.73302	-158.57305	10.356	88.9
2026-07-27T11:50	42.73357	-158.53398	10.362	88.9
2026-07-27T12:00	42.73410	-158.49528	10.264	88.9
2026-07-27T12:10	42.73467	-158.45685	10.193	88.8
2026-07-27T12:20	42.73526	-158.41791	10.328	88.8
2026-07-27T12:30	42.73571	-158.37815	10.542	89.1
2026-07-27T12:40	42.73648	-158.33854	10.509	88.5
2026-07-27T12:50	42.73691	-158.29947	10.360	89.1
2026-07-27T13:00	42.73748	-158.26106	10.185	88.8
2026-07-27T13:10	42.73806	-158.22312	10.062	88.8
2026-07-27T13:20	42.73855	-158.18512	10.079	89.0
2026-07-27T13:30	42.73915	-158.14804	9.832	88.7
2026-07-27T13:40	42.73967	-158.11060	9.929	88.9
2026-07-27T13:50	42.74024	-158.07183	10.282	88.9
2026-07-27T14:00	42.74089	-158.03343	10.185	88.7
2026-07-27T14:10	42.74142	-157.99451	10.321	88.9
2026-07-27T14:20	42.74192	-157.95537	10.377	89.0
2026-07-27T14:30	42.75188	-157.92347	9.186	67.0
2026-07-27T14:40	42.77083	-157.89748	9.690	45.3
2026-07-27T14:50	42.78975	-157.87151	9.677	45.3
2026-07-27T15:00	42.80823	-157.84575	9.526	45.7
2026-07-27T15:10	42.82665	-157.82113	9.297	44.5
2026-07-27T15:20	42.84572	-157.79492	9.757	45.3
2026-07-27T15:30	42.86414	-157.76946	9.450	45.5
2026-07-27T15:40	42.88263	-157.74435	9.399	45.0
2026-07-27T15:50	42.90104	-157.71899	9.428	45.4
2026-07-27T16:00	42.91920	-157.69426	9.241	45.0
2026-07-27T16:10	42.93794	-157.66849	9.584	45.3
2026-07-27T16:20	42.95615	-157.64362	9.278	45.1
2026-07-27T16:30	42.97398	-157.61893	9.148	45.5
2026-07-27T16:40	42.99202	-157.59347	9.345	46.0
2026-07-27T16:50	43.01014	-157.56808	9.352	45.8
2026-07-27T17:00	43.02823	-157.54234	9.406	46.2
2026-07-27T17:10	43.04680	-157.51633	9.577	45.8
2026-07-27T17:20	43.06530	-157.49025	9.572	45.9
2026-07-27T17:30	43.08414	-157.46370	9.744	45.9
2026-07-27T17:40	43.10267	-157.43746	9.608	46.0
2026-07-27T17:50	43.12204	-157.41245	9.592	43.4
2026-07-27T18:00	43.14176	-157.38749	9.673	42.8
2026-07-27T18:10	43.16126	-157.36180	9.745	44.0
2026-07-27T18:20	43.18016	-157.33584	9.639	45.1
2026-07-27T18:30	43.19883	-157.31019	9.525	45.1
2026-07-27T18:40	43.21763	-157.28418	9.621	45.3
2026-07-27T18:50	43.23236	-157.26376	7.547	45.4
2026-07-27T19:00	43.25003	-157.23956	8.995	45.0
2026-07-27T19:10	43.26741	-157.21557	8.879	45.2
2026-07-27T19:20	43.28540	-157.19064	9.211	45.4
2026-07-27T19:30	43.30408	-157.16496	9.523	45.1
2026-07-27T19:40	43.32230	-157.14000	9.270	45.0
2026-07-27T19:50	43.34077	-157.11426	9.478	45.5
2026-07-27T20:00	43.35927	-157.08864	9.462	45.3
2026-07-27T20:10	43.37782	-157.06344	9.394	44.7
2026-07-27T20:20	43.39621	-157.03785	9.429	45.4
2026-07-27T20:30	43.41437	-157.01257	9.308	45.4
2026-07-27T20:40	43.43340	-156.98646	9.682	45.0
2026-07-27T20:50	43.45246	-156.96001	9.750	45.3
2026-07-27T21:00	43.47087	-156.93453	9.404	45.2
2026-07-27T21:10	43.48958	-156.90854	9.574	45.3
2026-07-27T21:20	43.50808	-156.88307	9.423	45.1
2026-07-27T21:30	43.52703	-156.85701	9.644	45.0
2026-07-27T21:40	43.54574	-156.83081	9.610	45.5
2026-07-27T21:50	43.56433	-156.80518	9.470	45.1
2026-07-27T22:00	43.58326	-156.77896	9.665	45.2
2026-07-27T22:10	43.60179	-156.75340	9.440	45.1
2026-07-27T22:20	43.62037	-156.72761	9.492	45.2
2026-07-27T22:30	43.63882	-156.70193	9.439	45.3
2026-07-27T22:40	43.65720	-156.67653	9.368	45.1
2026-07-27T22:50	43.67556	-156.65104	9.378	45.2
2026-07-27T23:00	43.69443	-156.62475	9.653	45.3
2026-07-27T23:10	43.71301	-156.59900	9.479	45.1
2026-07-27T23:20	43.73173	-156.57293	9.571	45.3
2026-07-27T23:30	43.75032	-156.54726	9.465	45.0
2026-07-27T23:40	43.76934	-156.52049	9.775	45.6
2026-07-27T23:50	43.78667	-156.49243	9.612	49.5
2026-07-28T00:00	43.78708	-156.45125	10.734	89.2
2026-07-28T00:10	43.78724	-156.40908	10.992	89.7
2026-07-28T00:20	43.78737	-156.36738	10.868	89.7
2026-07-28T00:30	43.78744	-156.32550	10.914	89.8
2026-07-28T00:40	43.78755	-156.28448	10.691	89.8
2026-07-28T00:50	43.78760	-156.24356	10.667	89.9
2026-07-28T01:00	43.78786	-156.20270	10.649	89.5
2026-07-28T01:10	43.78789	-156.16187	10.642	89.9
2026-07-28T01:20	43.78798	-156.12064	10.745	89.8
2026-07-28T01:30	43.78809	-156.07862	10.953	89.8
2026-07-28T01:40	43.78827	-156.04539	8.660	89.6
2026-07-28T01:50	43.78820	-156.00375	10.852	90.1
2026-07-28T02:00	43.78833	-155.96106	11.128	89.7
2026-07-28T02:10	43.78851	-155.91826	11.153	89.7
2026-07-28T02:20	43.78864	-155.87562	11.115	89.7
2026-07-28T02:30	43.78872	-155.83291	11.132	89.8
2026-07-28T02:40	43.78889	-155.79006	11.168	89.7
2026-07-28T02:50	43.78948	-155.74768	11.046	88.9
2026-07-28T03:00	43.80631	-155.71392	10.681	55.5
2026-07-28T03:10	43.82375	-155.68003	10.831	54.6
2026-07-28T03:20	43.84107	-155.64646	10.735	54.5
2026-07-28T03:30	43.85860	-155.61241	10.880	54.6
2026-07-28T03:40	43.87629	-155.57804	10.980	54.6
2026-07-28T03:50	43.89387	-155.54410	10.863	54.4
2026-07-28T04:00	43.91126	-155.51019	10.813	54.6
2026-07-28T04:10	43.92894	-155.47573	10.989	54.6
2026-07-28T04:20	43.94658	-155.44160	10.910	54.4
2026-07-28T04:30	43.96418	-155.40745	10.904	54.5
2026-07-28T04:40	43.98167	-155.37324	10.888	54.7
2026-07-28T04:50	43.99939	-155.33904	10.935	54.3
2026-07-28T05:00	44.01693	-155.30477	10.910	54.6
2026-07-28T05:10	44.03455	-155.27061	10.901	54.4
2026-07-28T05:20	44.05230	-155.23611	10.997	54.5
2026-07-28T05:30	44.07007	-155.20154	11.015	54.5
2026-07-28T05:40	44.08767	-155.16726	10.915	54.5
2026-07-28T05:50	44.10553	-155.13250	11.071	54.5
2026-07-28T06:00	44.12342	-155.09761	11.099	54.5
2026-07-28T06:10	44.14139	-155.06241	11.180	54.6
2026-07-28T06:20	44.15938	-155.02739	11.144	54.5
2026-07-28T06:30	44.17735	-154.99228	11.157	54.6
2026-07-28T06:40	44.19542	-154.95713	11.183	54.5
2026-07-28T06:50	44.21359	-154.92177	11.248	54.5
2026-07-28T07:00	44.23207	-154.88567	11.465	54.5
2026-07-28T07:10	44.25088	-154.84897	11.660	54.5
2026-07-28T07:20	44.26951	-154.81244	11.582	54.6
2026-07-28T07:30	44.28828	-154.77590	11.611	54.4
2026-07-28T07:40	44.30710	-154.73915	11.663	54.5
2026-07-28T07:50	44.32619	-154.70172	11.861	54.6
2026-07-28T08:00	44.34521	-154.66454	11.791	54.5
2026-07-28T08:10	44.36418	-154.62729	11.791	54.6
2026-07-28T08:20	44.38334	-154.59003	11.832	54.4
2026-07-28T08:30	44.40216	-154.55309	11.690	54.6
2026-07-28T08:40	44.42073	-154.51663	11.537	54.6
2026-07-28T08:50	44.43944	-154.48018	11.560	54.4
2026-07-28T09:00	44.45511	-154.44941	9.731	54.6
2026-07-28T09:10	44.47173	-154.41674	10.327	54.6
2026-07-28T09:20	44.49005	-154.38086	11.351	54.5
2026-07-28T09:30	44.50842	-154.34484	11.391	54.5
2026-07-28T09:40	44.52656	-154.30925	11.249	54.5
2026-07-28T09:50	44.54462	-154.27384	11.193	54.5
2026-07-28T10:00	44.56253	-154.23867	11.108	54.5
2026-07-28T10:10	44.58041	-154.20334	11.136	54.7
2026-07-28T10:20	44.59870	-154.16758	11.307	54.4
2026-07-28T10:30	44.61708	-154.13146	11.397	54.5
2026-07-28T10:40	44.63526	-154.09563	11.295	54.6
2026-07-28T10:50	44.65301	-154.06080	10.993	54.5
2026-07-28T11:00	44.67089	-154.02570	11.074	54.5
2026-07-28T11:10	44.68898	-153.99005	11.231	54.6
2026-07-28T11:20	44.70698	-153.95457	11.174	54.5
2026-07-28T11:30	44.72490	-153.91941	11.089	54.4
2026-07-28T11:40	44.74254	-153.88452	10.971	54.6
2026-07-28T11:50	44.76006	-153.85001	10.865	54.5
2026-07-28T12:00	44.77755	-153.81562	10.831	54.5
2026-07-28T12:10	44.79486	-153.78161	10.711	54.4
2026-07-28T12:20	44.81201	-153.74763	10.672	54.7
2026-07-28T12:30	44.82898	-153.71413	10.531	54.5
2026-07-28T12:40	44.84608	-153.68048	10.585	54.5
2026-07-28T12:50	44.86296	-153.64718	10.468	54.5
2026-07-28T13:00	44.87968	-153.61414	10.376	54.6
2026-07-28T13:10	44.89622	-153.58142	10.269	54.6
2026-07-28T13:20	44.91289	-153.54851	10.337	54.5
2026-07-28T13:30	44.92960	-153.51556	10.349	54.5
2026-07-28T13:40	44.94644	-153.48235	10.428	54.5
2026-07-28T13:50	44.96315	-153.44908	10.413	54.7
2026-07-28T14:00	44.98023	-153.41546	10.561	54.4
2026-07-28T14:10	44.99733	-153.38187	10.557	54.3
2026-07-28T14:20	45.01430	-153.34820	10.544	54.6
2026-07-28T14:30	45.02836	-153.31214	10.499	61.2
2026-07-28T14:40	45.04181	-153.27573	10.476	62.5
2026-07-28T14:50	45.05512	-153.23960	10.388	62.5
2026-07-28T15:00	45.06848	-153.20326	10.440	62.6
2026-07-28T15:10	45.08195	-153.16661	10.527	62.6
2026-07-28T15:20	45.09543	-153.12988	10.545	62.6
2026-07-28T15:30	45.10889	-153.09335	10.493	62.5
2026-07-28T15:40	45.12220	-153.05681	10.470	62.8
2026-07-28T15:50	45.13591	-153.02087	10.400	61.7
2026-07-28T16:00	45.14914	-152.98505	10.289	62.5
2026-07-28T16:10	45.16326	-152.95055	10.150	59.9
2026-07-28T16:20	45.17217	-152.91464	9.686	70.7
2026-07-28T16:30	45.18587	-152.88098	9.885	60.1
2026-07-28T16:40	45.19975	-152.84516	10.392	61.3
2026-07-28T16:50	45.21328	-152.80884	10.443	62.2
2026-07-28T17:00	45.22664	-152.77243	10.435	62.5
2026-07-28T17:10	45.24013	-152.73585	10.492	62.4
2026-07-28T17:20	45.25374	-152.69861	10.658	62.6
2026-07-28T17:30	45.26739	-152.66126	10.689	62.6
2026-07-28T17:40	45.28114	-152.62402	10.677	62.4
2026-07-28T17:50	45.29501	-152.58681	10.691	62.1
2026-07-28T18:00	45.30912	-152.55004	10.628	61.5
2026-07-28T18:10	45.32331	-152.51379	10.525	61.0
2026-07-28T18:20	45.33716	-152.47905	10.129	60.5
2026-07-28T18:30	45.34905	-152.44773	9.027	61.7
2026-07-28T18:40	45.36233	-152.41049	10.588	63.2
2026-07-28T18:50	45.37544	-152.37245	10.742	63.9
2026-07-28T19:00	45.38824	-152.33373	10.844	64.8
2026-07-28T19:10	45.40120	-152.29543	10.775	64.3
2026-07-28T19:20	45.41486	-152.25775	10.740	62.8
2026-07-28T19:30	45.42872	-152.22011	10.766	62.4
2026-07-28T19:40	45.44253	-152.18223	10.807	62.6
2026-07-28T19:50	45.45631	-152.14428	10.817	62.7
2026-07-28T20:00	45.47023	-152.10599	10.915	62.7
2026-07-28T20:10	45.48395	-152.06850	10.699	62.5
2026-07-28T20:20	45.49753	-152.03124	10.623	62.6
2026-07-28T20:30	45.51112	-151.99392	10.636	62.6
2026-07-28T20:40	45.52472	-151.95654	10.647	62.6
2026-07-28T20:50	45.53845	-151.91886	10.736	62.6
2026-07-28T21:00	45.55220	-151.88099	10.778	62.7
2026-07-28T21:10	45.56587	-151.84370	10.633	62.4
2026-07-28T21:20	45.57955	-151.80627	10.666	62.5
2026-07-28T21:30	45.57863	-151.76720	9.880	91.9
2026-07-28T21:40	45.56849	-151.72635	10.950	109.5
2026-07-28T21:50	45.55817	-151.68561	10.949	109.8
2026-07-28T22:00	45.54776	-151.64487	10.960	110.0
2026-07-28T22:10	45.53727	-151.60353	11.115	109.8
2026-07-28T22:20	45.52693	-151.56261	10.998	109.8
2026-07-28T22:30	45.51645	-151.52155	11.051	109.9
2026-07-28T22:40	45.50610	-151.48049	11.036	109.7
2026-07-28T22:50	45.49560	-151.43957	11.025	110.0
2026-07-28T23:00	45.48534	-151.39900	10.912	109.8
2026-07-28T23:10	45.47501	-151.35838	10.935	109.9
2026-07-28T23:20	45.46461	-151.31755	10.996	109.9
2026-07-28T23:30	45.45420	-151.27645	11.062	109.8
2026-07-28T23:40	45.44376	-151.23535	11.070	109.8
2026-07-28T23:50	45.43315	-151.19394	11.162	110.0
2026-07-29T00:00	45.42261	-151.15272	11.114	110.0
2026-07-29T00:10	45.41210	-151.11097	11.237	109.7
2026-07-29T00:20	45.41896	-151.06982	10.718	76.7
2026-07-29T00:30	45.43011	-151.02869	11.168	68.9
2026-07-29T00:40	45.44119	-150.98801	11.051	68.8
2026-07-29T00:50	45.45213	-150.94774	10.935	68.9
2026-07-29T01:00	45.46306	-150.90788	10.834	68.7
2026-07-29T01:10	45.47378	-150.86814	10.777	69.0
2026-07-29T01:20	45.48447	-150.82886	10.662	68.8
2026-07-29T01:30	45.49469	-150.79204	10.020	68.5
2026-07-29T01:40	45.50357	-150.75827	9.125	69.5
2026-07-29T01:50	45.51361	-150.72089	10.123	69.1
2026-07-29T02:00	45.52454	-150.68121	10.783	68.6
2026-07-29T02:10	45.53554	-150.64103	10.906	68.7
2026-07-29T02:20	45.54646	-150.60074	10.923	68.9
2026-07-29T02:30	45.55734	-150.56069	10.856	68.9
2026-07-29T02:40	45.56508	-150.51998	10.663	74.8
2026-07-29T02:50	45.57122	-150.47968	10.423	77.8
2026-07-29T03:00	45.57733	-150.43931	10.438	77.8
2026-07-29T03:10	45.58356	-150.39867	10.513	77.7
2026-07-29T03:20	45.58973	-150.35779	10.565	77.9
2026-07-29T03:30	45.59596	-150.31693	10.564	77.7
2026-07-29T03:40	45.60209	-150.27636	10.486	77.8
2026-07-29T03:50	45.60829	-150.23583	10.477	77.7
2026-07-29T04:00	45.61448	-150.19475	10.613	77.9
2026-07-29T04:10	45.62075	-150.15384	10.574	77.7
2026-07-29T04:20	45.62702	-150.11272	10.628	77.7
2026-07-29T04:30	45.63330	-150.07088	10.803	77.9
2026-07-29T04:40	45.63971	-150.02903	10.815	77.7
2026-07-29T04:50	45.64605	-149.98709	10.829	77.8
2026-07-29T05:00	45.65219	-149.94696	10.368	77.7
2026-07-29T05:10	45.65828	-149.90695	10.331	77.7
2026-07-29T05:20	45.66446	-149.86658	10.428	77.7
2026-07-29T05:30	45.67037	-149.82679	10.263	78.0
2026-07-29T05:40	45.67646	-149.78731	10.198	77.6
2026-07-29T05:50	45.68243	-149.74753	10.263	77.9
2026-07-29T06:00	45.68848	-149.70757	10.313	77.8
2026-07-29T06:10	45.69466	-149.66707	10.454	77.7
2026-07-29T06:20	45.70078	-149.62708	10.322	77.7
2026-07-29T06:30	45.70682	-149.58683	10.379	77.9
2026-07-29T06:40	45.71301	-149.54631	10.456	77.7
2026-07-29T06:50	45.71910	-149.50617	10.356	77.8
2026-07-29T07:00	45.72525	-149.46627	10.298	77.6
2026-07-29T07:10	45.73152	-149.42474	10.708	77.8
2026-07-29T07:20	45.73771	-149.38309	10.731	78.0
2026-07-29T07:30	45.74419	-149.34125	10.798	77.5
2026-07-29T07:40	45.75046	-149.29890	10.906	78.0
2026-07-29T07:50	45.75683	-149.25694	10.817	77.8
2026-07-29T08:00	45.76325	-149.21465	10.902	77.8
2026-07-29T08:10	45.76965	-149.17251	10.861	77.7
2026-07-29T08:20	45.77604	-149.13031	10.872	77.8
2026-07-29T08:30	45.78242	-149.08787	10.932	77.8
2026-07-29T08:40	45.78901	-149.04516	11.012	77.6
2026-07-29T08:50	45.79545	-149.00275	10.927	77.7
2026-07-29T09:00	45.80177	-148.96038	10.905	77.9
2026-07-29T09:10	45.80833	-148.91727	11.106	77.7
2026-07-29T09:20	45.81494	-148.87427	11.080	77.6
2026-07-29T09:30	45.82131	-148.83202	10.876	77.8
2026-07-29T09:40	45.82771	-148.78946	10.954	77.8
2026-07-29T09:50	45.83400	-148.74728	10.850	78.0
2026-07-29T10:00	45.84052	-148.70485	10.928	77.6
2026-07-29T10:10	45.84694	-148.66241	10.922	77.8
2026-07-29T10:20	45.85337	-148.62011	10.887	77.7
2026-07-29T10:30	45.85960	-148.57799	10.826	78.0
2026-07-29T10:40	45.86606	-148.53613	10.779	77.5
2026-07-29T10:50	45.87233	-148.49443	10.725	77.8
2026-07-29T11:00	45.87863	-148.45270	10.733	77.8
2026-07-29T11:10	45.88488	-148.41092	10.740	77.9
2026-07-29T11:20	45.89123	-148.36892	10.800	77.8
2026-07-29T11:30	45.89751	-148.32767	10.609	77.7
2026-07-29T11:40	45.90370	-148.28685	10.497	77.7
2026-07-29T11:50	45.90996	-148.24613	10.477	77.6
2026-07-29T12:00	45.91637	-148.20503	10.578	77.4
2026-07-29T12:10	45.92252	-148.16410	10.518	77.8
2026-07-29T12:20	45.92849	-148.12305	10.529	78.2
2026-07-29T12:30	45.93473	-148.08123	10.741	77.9
2026-07-29T12:40	45.94102	-148.03941	10.743	77.8
2026-07-29T12:50	45.94737	-147.99761	10.740	77.7
2026-07-29T13:00	45.95378	-147.95552	10.814	77.7
2026-07-29T13:10	45.96012	-147.91357	10.775	77.8
2026-07-29T13:20	45.96612	-147.87316	10.370	78.0
2026-07-29T13:30	45.97218	-147.83306	10.297	77.8
2026-07-29T13:40	45.97824	-147.79333	10.207	77.6
2026-07-29T13:50	45.98377	-147.75675	9.391	77.8
2026-07-29T14:00	45.98824	-147.72761	7.487	77.6
2026-07-29T14:10	45.99333	-147.69286	8.908	78.1
2026-07-29T14:20	45.99938	-147.65340	10.134	77.6
2026-07-29T14:30	46.00534	-147.61320	10.309	78.0
2026-07-29T14:40	46.01144	-147.57365	10.158	77.5
2026-07-29T14:50	46.01742	-147.53388	10.202	77.8
2026-07-29T15:00	46.02364	-147.49454	10.114	77.2
2026-07-29T15:10	46.02992	-147.45547	10.053	77.0
2026-07-29T15:20	46.03414	-147.42574	7.607	78.5
2026-07-29T15:30	46.03495	-147.40078	6.264	87.3
2026-07-29T15:40	46.03880	-147.36857	8.192	80.3
2026-07-29T15:50	46.04525	-147.33207	9.437	75.7
2026-07-29T16:00	46.05276	-147.29417	9.874	74.1
2026-07-29T16:10	46.05939	-147.25468	10.180	76.4
2026-07-29T16:20	46.06549	-147.21485	10.217	77.6
2026-07-29T16:30	46.07142	-147.17570	10.039	77.7
2026-07-29T16:40	46.07735	-147.13619	10.122	77.8
2026-07-29T16:50	46.08323	-147.09727	9.975	77.7
2026-07-29T17:00	46.08918	-147.05794	10.081	77.7
2026-07-29T17:10	46.09492	-147.02015	9.687	77.7
2026-07-29T17:20	46.10085	-146.98139	9.936	77.6
2026-07-29T17:30	46.10662	-146.94162	10.170	78.2
2026-07-29T17:40	46.11244	-146.90326	9.828	77.7
2026-07-29T17:50	46.11846	-146.86310	10.284	77.8
2026-07-29T18:00	46.12466	-146.82248	10.408	77.6
2026-07-29T18:10	46.13075	-146.78199	10.366	77.8
2026-07-29T18:20	46.13687	-146.74120	10.441	77.8
2026-07-29T18:30	46.14307	-146.70004	10.538	77.8
2026-07-29T18:40	46.14928	-146.65894	10.522	77.7
2026-07-29T18:50	46.15469	-146.61777	10.479	79.3
2026-07-29T19:00	46.15903	-146.57627	10.497	81.4
2026-07-29T19:10	46.16338	-146.53429	10.616	81.5
2026-07-29T19:20	46.16771	-146.49208	10.669	81.6
2026-07-29T19:30	46.17224	-146.44952	10.769	81.3
2026-07-29T19:40	46.17668	-146.40742	10.645	81.4
2026-07-29T19:50	46.18100	-146.36551	10.594	81.5
2026-07-29T20:00	46.18544	-146.32350	10.623	81.3
2026-07-29T20:10	46.18985	-146.28104	10.732	81.5
2026-07-29T20:20	46.19427	-146.23846	10.762	81.5
2026-07-29T20:30	46.19871	-146.19588	10.762	81.5
2026-07-29T20:40	46.20318	-146.15291	10.858	81.5
2026-07-29T20:50	46.20758	-146.11026	10.776	81.5
2026-07-29T21:00	46.21199	-146.06812	10.648	81.4
2026-07-29T21:10	46.21630	-146.02698	10.395	81.4
2026-07-29T21:20	46.22058	-145.98561	10.450	81.5
2026-07-29T21:30	46.22495	-145.94399	10.517	81.4
2026-07-29T21:40	46.22931	-145.90231	10.527	81.4
2026-07-29T21:50	46.23369	-145.86051	10.560	81.4
2026-07-29T22:00	46.23805	-145.81823	10.675	81.5
2026-07-29T22:10	46.24255	-145.77555	10.782	81.4
2026-07-29T22:20	46.24700	-145.73292	10.763	81.4
2026-07-29T22:30	46.25135	-145.69081	10.631	81.5
2026-07-29T22:40	46.25576	-145.64819	10.760	81.5
2026-07-29T22:50	46.26073	-145.60532	10.850	80.5
2026-07-29T23:00	46.26477	-145.56274	10.729	82.2
2026-07-29T23:10	46.26898	-145.52046	10.662	81.8
2026-07-29T23:20	46.27343	-145.47838	10.624	81.3
2026-07-29T23:30	46.27782	-145.43690	10.472	81.3
2026-07-29T23:40	46.28211	-145.39563	10.414	81.5
2026-07-29T23:50	46.28637	-145.35397	10.511	81.6
2026-07-30T00:00	46.29076	-145.31234	10.505	81.3
2026-07-30T00:10	46.29513	-145.27029	10.610	81.4
2026-07-30T00:20	46.29959	-145.22787	10.704	81.4
2026-07-30T00:30	46.30401	-145.18503	10.805	81.5
2026-07-30T00:40	46.30850	-145.14176	10.912	81.5
2026-07-30T00:50	46.31308	-145.09868	10.871	81.2
2026-07-30T01:00	46.31745	-145.05600	10.759	81.6
2026-07-30T01:10	46.32127	-145.01900	9.330	81.5
2026-07-30T01:20	46.32522	-144.98102	9.576	81.4
2026-07-30T01:30	46.32918	-144.94301	9.584	81.4
2026-07-30T01:40	46.33188	-144.92489	4.620	77.9
2026-07-30T01:50	46.33533	-144.90418	5.313	76.5
2026-07-30T02:00	46.33807	-144.87574	7.157	82.1
2026-07-30T02:10	46.34087	-144.84727	7.167	81.9
2026-07-30T02:20	46.34347	-144.81899	7.112	82.4
2026-07-30T02:30	46.34550	-144.79121	6.963	84.0
2026-07-30T02:40	46.34729	-144.76977	5.383	83.1
2026-07-30T02:50	46.34962	-144.74192	6.991	83.1
2026-07-30T03:00	46.35421	-144.70188	10.115	80.6
2026-07-30T03:10	46.35840	-144.66160	10.152	81.5
2026-07-30T03:20	46.36266	-144.62133	10.151	81.3
2026-07-30T03:30	46.36742	-144.58123	10.137	80.2
2026-07-30T03:40	46.37082	-144.54337	9.514	82.6
2026-07-30T03:50	46.37451	-144.50687	9.188	81.7
2026-07-30T04:00	46.37836	-144.47006	9.275	81.4
2026-07-30T04:10	46.38206	-144.43409	9.057	81.5
2026-07-30T04:20	46.38586	-144.39757	9.200	81.4
2026-07-30T04:30	46.38965	-144.36140	9.111	81.4
2026-07-30T04:40	46.39340	-144.32549	9.045	81.4
2026-07-30T04:50	46.39708	-144.28957	9.044	81.6
2026-07-30T05:00	46.40066	-144.25388	8.979	81.8
2026-07-30T05:10	46.40466	-144.21740	9.199	81.0
2026-07-30T05:20	46.40835	-144.18136	9.071	81.6
2026-07-30T05:30	46.41255	-144.14573	8.996	80.3
2026-07-30T05:40	46.41596	-144.10933	9.146	82.3
2026-07-30T05:50	46.41954	-144.07303	9.128	81.9
2026-07-30T06:00	46.42328	-144.03718	9.025	81.4
2026-07-30T06:10	46.42704	-144.00089	9.132	81.5
2026-07-30T06:20	46.43084	-143.96439	9.185	81.4
2026-07-30T06:30	46.43460	-143.92844	9.051	81.4
2026-07-30T06:40	46.43843	-143.89221	9.120	81.3
2026-07-30T06:50	46.44214	-143.85608	9.088	81.5
2026-07-30T07:00	46.44586	-143.81978	9.130	81.6
2026-07-30T07:10	46.44959	-143.78410	8.980	81.4
2026-07-30T07:20	46.45333	-143.74794	9.095	81.5
2026-07-30T07:30	46.45713	-143.71187	9.077	81.3
2026-07-30T07:40	46.46093	-143.67538	9.178	81.4
2026-07-30T07:50	46.46468	-143.63879	9.201	81.5
2026-07-30T08:00	46.46849	-143.60235	9.168	81.4
2026-07-30T08:10	46.47227	-143.56539	9.290	81.6
2026-07-30T08:20	46.47608	-143.52902	9.148	81.4
2026-07-30T08:30	46.47984	-143.49262	9.153	81.5
2026-07-30T08:40	46.48364	-143.45596	9.217	81.5
2026-07-30T08:50	46.48745	-143.41926	9.228	81.4
2026-07-30T09:00	46.49122	-143.38263	9.206	81.5
2026-07-30T09:10	46.49513	-143.34576	9.273	81.3
2026-07-30T09:20	46.49898	-143.30875	9.304	81.4
2026-07-30T09:30	46.50273	-143.27189	9.259	81.6
2026-07-30T09:40	46.50658	-143.23541	9.174	81.3
2026-07-30T09:50	46.51033	-143.19875	9.209	81.6
2026-07-30T10:00	46.51413	-143.16246	9.121	81.3
2026-07-30T10:10	46.51796	-143.12586	9.199	81.4
2026-07-30T10:20	46.52169	-143.08903	9.249	81.6
2026-07-30T10:30	46.52547	-143.05263	9.146	81.4
2026-07-30T10:40	46.52923	-143.01639	9.103	81.4
2026-07-30T10:50	46.53293	-142.98022	9.085	81.6
2026-07-30T11:00	46.53909	-142.94458	9.127	75.9
2026-07-30T11:10	46.54572	-142.90911	9.126	74.8
2026-07-30T11:20	46.55244	-142.87344	9.183	74.7
2026-07-30T11:30	46.55917	-142.83759	9.224	74.8
2026-07-30T11:40	46.56586	-142.80199	9.161	74.7
2026-07-30T11:50	46.57250	-142.76633	9.168	74.9
2026-07-30T12:00	46.57928	-142.73031	9.270	74.7
2026-07-30T12:10	46.58607	-142.69413	9.306	74.8
2026-07-30T12:20	46.59277	-142.65846	9.174	74.8
2026-07-30T12:30	46.59949	-142.62256	9.230	74.8
2026-07-30T12:40	46.60621	-142.58659	9.245	74.8
2026-07-30T12:50	46.61292	-142.55085	9.189	74.8
2026-07-30T13:00	46.61961	-142.51520	9.165	74.7
2026-07-30T13:10	46.62625	-142.47965	9.135	74.8
2026-07-30T13:20	46.63301	-142.44364	9.255	74.8
2026-07-30T13:30	46.63966	-142.40763	9.243	75.0
2026-07-30T13:40	46.64634	-142.37201	9.152	74.8
2026-07-30T13:50	46.65311	-142.33642	9.151	74.5
2026-07-30T14:00	46.65975	-142.30058	9.199	74.9
2026-07-30T14:10	46.66642	-142.26458	9.240	74.9
2026-07-30T14:20	46.67323	-142.22861	9.244	74.6
2026-07-30T14:30	46.68000	-142.19257	9.256	74.7
2026-07-30T14:40	46.68660	-142.15698	9.128	74.9
2026-07-30T14:50	46.69356	-142.12135	9.176	74.1
2026-07-30T15:00	46.70072	-142.08644	9.020	73.4
2026-07-30T15:10	46.70863	-142.05129	9.159	71.9
2026-07-30T15:20	46.71537	-142.01579	9.119	74.6
2026-07-30T15:30	46.72033	-141.97896	9.289	78.9
2026-07-30T15:40	46.72659	-141.94307	9.167	75.7
2026-07-30T15:50	46.73332	-141.90722	9.198	74.7
2026-07-30T16:00	46.74007	-141.87122	9.234	74.8
2026-07-30T16:10	46.74677	-141.83553	9.155	74.7
2026-07-30T16:20	46.75342	-141.79960	9.204	74.9
2026-07-30T16:30	46.76015	-141.76388	9.165	74.7
2026-07-30T16:40	46.76681	-141.72805	9.181	74.8
2026-07-30T16:50	46.77376	-141.69111	9.471	74.7
2026-07-30T17:00	46.78067	-141.65376	9.566	74.9
2026-07-30T17:10	46.78768	-141.61629	9.602	74.8
2026-07-30T17:20	46.79466	-141.57888	9.583	74.8
2026-07-30T17:30	46.80142	-141.54296	9.208	74.7
2026-07-30T17:40	46.80804	-141.50755	9.072	74.8
2026-07-30T17:50	46.81468	-141.47200	9.104	74.8
2026-07-30T18:00	46.82127	-141.43656	9.073	74.8
2026-07-30T18:10	46.82783	-141.40098	9.102	75.0
2026-07-30T18:20	46.83456	-141.36517	9.173	74.7
2026-07-30T18:30	46.84123	-141.32961	9.105	74.7
2026-07-30T18:40	46.84786	-141.29393	9.131	74.8
2026-07-30T18:50	46.85456	-141.25813	9.165	74.7
2026-07-30T19:00	46.86133	-141.22221	9.196	74.6
2026-07-30T19:10	46.86794	-141.18637	9.165	74.9
2026-07-30T19:20	46.87453	-141.15085	9.083	74.8
2026-07-30T19:30	46.88115	-141.11529	9.093	74.8
2026-07-30T19:40	46.88780	-141.07979	9.083	74.7
2026-07-30T19:50	46.89436	-141.04426	9.080	74.9
2026-07-30T20:00	46.90111	-141.00848	9.157	74.6
2026-07-30T20:10	46.90769	-140.97264	9.152	75.0
2026-07-30T20:20	46.91437	-140.93689	9.142	74.7
2026-07-30T20:30	46.92094	-140.90167	9.002	74.8
2026-07-30T20:40	46.92753	-140.86632	9.035	74.8
2026-07-30T20:50	46.93418	-140.83098	9.038	74.7
2026-07-30T21:00	46.94065	-140.79567	9.011	75.0
2026-07-30T21:10	46.94734	-140.76014	9.084	74.6
2026-07-30T21:20	46.95397	-140.72413	9.192	74.9
2026-07-30T21:30	46.96065	-140.68850	9.104	74.7
2026-07-30T21:40	46.96727	-140.65304	9.058	74.7
2026-07-30T21:50	46.97385	-140.61756	9.059	74.8
2026-07-30T22:00	46.98042	-140.58196	9.084	74.9
2026-07-30T22:10	46.98713	-140.54612	9.153	74.7
2026-07-30T22:20	46.99377	-140.51062	9.065	74.7
2026-07-30T22:30	47.00033	-140.47509	9.063	74.9
2026-07-30T22:40	47.00690	-140.43988	8.987	74.7
2026-07-30T22:50	47.01356	-140.40414	9.120	74.7
2026-07-30T23:00	47.02032	-140.36796	9.235	74.7
2026-07-30T23:10	47.02698	-140.33192	9.189	74.9
2026-07-30T23:20	47.03375	-140.29567	9.251	74.7
2026-07-30T23:30	47.04044	-140.25929	9.270	74.9
2026-07-30T23:40	47.04724	-140.22285	9.296	74.7
2026-07-30T23:50	47.05397	-140.18675	9.206	74.7
2026-07-31T00:00	47.06056	-140.15117	9.068	74.8
2026-07-31T00:10	47.06716	-140.11560	9.067	74.8
2026-07-31T00:20	47.07383	-140.07986	9.112	74.7
2026-07-31T00:30	47.08046	-140.04391	9.155	74.9
2026-07-31T00:40	47.08703	-140.00838	9.053	74.8
2026-07-31T00:50	47.09377	-139.97261	9.121	74.6
2026-07-31T01:00	47.10040	-139.93659	9.171	74.9
2026-07-31T01:10	47.10701	-139.90097	9.073	74.8
2026-07-31T01:20	47.11357	-139.86539	9.056	74.9
2026-07-31T01:30	47.12026	-139.82987	9.053	74.6
2026-07-31T01:40	47.12682	-139.79412	9.098	74.9
2026-07-31T01:50	47.13348	-139.75834	9.111	74.7
2026-07-31T02:00	47.14011	-139.72256	9.106	74.8
2026-07-31T02:10	47.14679	-139.68664	9.144	74.7
2026-07-31T02:20	47.15343	-139.65048	9.198	74.9
2026-07-31T02:30	47.16012	-139.61456	9.141	74.7
2026-07-31T02:40	47.16684	-139.57852	9.175	74.7
2026-07-31T02:50	47.17331	-139.54302	9.020	75.0
2026-07-31T03:00	47.17998	-139.50749	9.045	74.6
2026-07-31T03:10	47.18658	-139.47172	9.094	74.8
2026-07-31T03:20	47.19317	-139.43631	9.007	74.7
2026-07-31T03:30	47.19969	-139.40087	9.009	74.9
2026-07-31T03:40	47.20637	-139.36518	9.080	74.6
2026-07-31T03:50	47.21293	-139.32954	9.055	74.9
2026-07-31T04:00	47.21956	-139.29371	9.105	74.8
2026-07-31T04:10	47.22619	-139.25775	9.137	74.9
2026-07-31T04:20	47.23283	-139.22222	9.034	74.6
2026-07-31T04:30	47.23952	-139.18651	9.081	74.6
2026-07-31T04:40	47.24609	-139.15051	9.138	75.0
2026-07-31T04:50	47.25277	-139.11477	9.083	74.6
2026-07-31T05:00	47.25935	-139.07876	9.140	75.0
2026-07-31T05:10	47.26599	-139.04326	9.020	74.6
2026-07-31T05:20	47.27259	-139.00743	9.096	74.9
2026-07-31T05:30	47.27928	-138.97153	9.119	74.7
2026-07-31T05:40	47.28591	-138.93548	9.147	74.9
2026-07-31T05:50	47.29253	-138.89976	9.069	74.8
2026-07-31T06:00	47.29911	-138.86411	9.047	74.8
2026-07-31T06:10	47.30578	-138.82821	9.113	74.7
2026-07-31T06:20	47.31241	-138.79206	9.168	74.9
2026-07-31T06:30	47.31911	-138.75582	9.194	74.8
2026-07-31T06:40	47.32565	-138.72032	9.002	74.8
2026-07-31T06:50	47.33221	-138.68481	9.007	74.8
2026-07-31T07:00	47.33875	-138.64960	8.933	74.7
2026-07-31T07:10	47.34540	-138.61351	9.149	74.8
2026-07-31T07:20	47.35206	-138.57769	9.087	74.7
2026-07-31T07:30	47.35866	-138.54193	9.064	74.8
2026-07-31T07:40	47.36522	-138.50617	9.061	74.9
2026-07-31T07:50	47.37187	-138.47051	9.043	74.7
2026-07-31T08:00	47.37848	-138.43436	9.155	74.9
2026-07-31T08:10	47.38517	-138.39818	9.168	74.8
2026-07-31T08:20	47.39189	-138.36202	9.166	74.7
2026-07-31T08:30	47.39855	-138.32606	9.111	74.7
2026-07-31T08:40	47.40513	-138.29013	9.096	74.9
2026-07-31T08:50	47.41181	-138.25426	9.091	74.7
2026-07-31T09:00	47.41839	-138.21835	9.089	74.9
2026-07-31T09:10	47.42506	-138.18234	9.120	74.7
2026-07-31T09:20	47.43167	-138.14613	9.158	75.0
2026-07-31T09:30	47.43837	-138.11029	9.082	74.6
2026-07-31T09:40	47.44492	-138.07483	8.974	74.8
2026-07-31T09:50	47.45143	-138.03910	9.037	74.9
2026-07-31T10:00	47.45800	-138.00340	9.030	74.8
2026-07-31T10:10	47.46462	-137.96765	9.048	74.7
2026-07-31T10:20	47.47127	-137.93169	9.100	74.7
2026-07-31T10:30	47.47790	-137.89584	9.069	74.7
2026-07-31T10:40	47.48447	-137.85988	9.089	74.9
2026-07-31T10:50	47.49115	-137.82372	9.145	74.7
2026-07-31T11:00	47.49781	-137.78794	9.053	74.6
2026-07-31T11:10	47.50439	-137.75199	9.084	74.9
2026-07-31T11:20	47.51106	-137.71585	9.138	74.8
2026-07-31T11:30	47.51767	-137.68002	9.055	74.8
2026-07-31T11:40	47.52425	-137.64417	9.058	74.8
2026-07-31T11:50	47.53089	-137.60800	9.137	74.8
2026-07-31T12:00	47.53753	-137.57197	9.104	74.8
2026-07-31T12:10	47.54416	-137.53616	9.050	74.7
2026-07-31T12:20	47.55076	-137.50016	9.092	74.8
2026-07-31T12:30	47.55743	-137.46393	9.149	74.8
2026-07-31T12:40	47.56410	-137.42774	9.140	74.7
2026-07-31T12:50	47.57072	-137.39186	9.062	74.8
2026-07-31T13:00	47.57728	-137.35604	9.039	74.8
2026-07-31T13:10	47.58389	-137.32004	9.088	74.8
2026-07-31T13:20	47.59053	-137.28412	9.068	74.7
2026-07-31T13:30	47.59712	-137.24798	9.116	74.9
2026-07-31T13:40	47.60377	-137.21171	9.151	74.8
2026-07-31T13:50	47.61045	-137.17541	9.158	74.8
2026-07-31T14:00	47.61714	-137.13921	9.138	74.7
2026-07-31T14:10	47.62379	-137.10285	9.168	74.9
2026-07-31T14:20	47.63054	-137.06664	9.141	74.6
2026-07-31T14:30	47.63711	-137.03039	9.132	75.0
2026-07-31T14:40	47.64379	-136.99450	9.059	74.6
2026-07-31T14:50	47.65037	-136.95850	9.071	74.9
2026-07-31T15:00	47.65697	-136.92241	9.095	74.8
2026-07-31T15:10	47.66358	-136.88649	9.055	74.8
2026-07-31T15:20	47.67026	-136.85011	9.168	74.8
2026-07-31T15:30	47.67693	-136.81372	9.166	74.8
2026-07-31T15:40	47.68355	-136.77797	9.013	74.7
2026-07-31T15:50	47.69005	-136.74217	9.013	74.9
2026-07-31T16:00	47.69668	-136.70614	9.078	74.7
2026-07-31T16:10	47.70332	-136.67015	9.066	74.7
2026-07-31T16:20	47.70994	-136.63430	9.033	74.7
2026-07-31T16:30	47.71651	-136.59811	9.106	74.9
2026-07-31T16:40	47.72320	-136.56164	9.182	74.8
2026-07-31T16:50	47.73014	-136.52386	9.510	74.8
2026-07-31T17:00	47.73815	-136.48019	10.993	74.8
2026-07-31T17:10	47.74523	-136.44138	9.763	74.8
2026-07-31T17:20	47.75158	-136.40678	8.708	74.8
2026-07-31T17:30	47.75793	-136.37232	8.670	74.7
2026-07-31T17:40	47.76371	-136.34023	8.064	75.0
2026-07-31T17:50	47.76921	-136.31082	7.410	74.5
2026-07-31T18:00	47.77464	-136.28133	7.419	74.7
2026-07-31T18:10	47.78006	-136.25159	7.476	74.9
2026-07-31T18:20	47.78566	-136.22091	7.714	74.8
2026-07-31T18:30	47.79219	-136.18562	8.879	74.6
2026-07-31T18:40	47.79855	-136.15042	8.840	75.0
2026-07-31T18:50	47.80508	-136.11459	9.003	74.8
2026-07-31T19:00	47.81169	-136.07904	8.945	74.6
2026-07-31T19:10	47.81806	-136.04397	8.807	74.9
2026-07-31T19:20	47.82457	-136.00855	8.901	74.7
2026-07-31T19:30	47.83097	-135.97348	8.810	74.8
2026-07-31T19:40	47.83738	-135.93824	8.848	74.9
2026-07-31T19:50	47.84380	-135.90333	8.771	74.7
2026-07-31T20:00	47.85026	-135.86803	8.867	74.8
2026-07-31T20:10	47.85681	-135.83221	8.994	74.8
2026-07-31T20:20	47.86340	-135.79630	9.017	74.7
2026-07-31T20:30	47.87007	-135.76005	9.105	74.7
2026-07-31T20:40	47.87662	-135.72385	9.081	74.9
2026-07-31T20:50	47.88318	-135.68802	8.995	74.8
2026-07-31T21:00	47.88979	-135.65196	9.051	74.7
2026-07-31T21:10	47.89638	-135.61599	9.027	74.8
2026-07-31T21:20	47.90297	-135.57977	9.083	74.9
2026-07-31T21:30	47.90955	-135.54382	9.019	74.8
2026-07-31T21:40	47.91622	-135.50757	9.099	74.7
2026-07-31T21:50	47.92278	-135.47114	9.126	75.0
2026-07-31T22:00	47.92949	-135.43477	9.127	74.6
2026-07-31T22:10	47.93601	-135.39864	9.051	75.0
2026-07-31T22:20	47.94269	-135.36259	9.046	74.6
2026-07-31T22:30	47.94933	-135.32611	9.143	74.8
2026-07-31T22:40	47.95604	-135.28946	9.187	74.7
2026-07-31T22:50	47.96269	-135.25286	9.169	74.9
2026-07-31T23:00	47.96939	-135.21621	9.184	74.8
2026-07-31T23:10	47.97613	-135.17947	9.207	74.7
2026-07-31T23:20	47.97327	-135.14290	8.901	96.6
2026-07-31T23:30	47.96692	-135.10646	9.104	104.5
2026-07-31T23:40	47.96049	-135.07019	9.069	104.8
2026-07-31T23:50	47.95408	-135.03389	9.078	104.7
2026-08-01T00:00	47.94769	-134.99712	9.186	104.5
2026-08-01T00:10	47.94125	-134.96054	9.148	104.7
2026-08-01T00:20	47.93481	-134.92399	9.141	104.7
2026-08-01T00:30	47.92840	-134.88725	9.184	104.5
2026-08-01T00:40	47.92183	-134.85066	9.165	104.9
2026-08-01T00:50	47.91553	-134.81446	9.051	104.5
2026-08-01T01:00	47.90904	-134.77794	9.141	104.8
2026-08-01T01:10	47.90260	-134.74137	9.152	104.6
2026-08-01T01:20	47.89625	-134.70515	9.062	104.6
2026-08-01T01:30	47.88981	-134.66885	9.091	104.8
2026-08-01T01:40	47.88345	-134.63254	9.087	104.6
2026-08-01T01:50	47.87906	-134.59594	9.003	100.1
2026-08-01T02:00	47.87517	-134.55912	9.028	98.9
2026-08-01T02:10	47.87128	-134.52057	9.443	98.5
2026-08-01T02:20	47.86687	-134.47882	10.236	98.9
2026-08-01T02:30	47.86254	-134.43684	10.289	98.7
2026-08-01T02:40	47.85821	-134.39519	10.212	98.8
2026-08-01T02:50	47.85384	-134.35320	10.295	98.8
2026-08-01T03:00	47.84954	-134.31154	10.214	98.7
2026-08-01T03:10	47.84526	-134.26966	10.266	98.6
2026-08-01T03:20	47.84089	-134.22783	10.258	98.8
2026-08-01T03:30	47.83661	-134.18675	10.076	98.8
2026-08-01T03:40	47.83238	-134.14561	10.089	98.7
2026-08-01T03:50	47.82817	-134.10442	10.100	98.6
2026-08-01T04:00	47.82385	-134.06354	10.031	98.9
2026-08-01T04:10	47.81953	-134.02198	10.196	98.8
2026-08-01T04:20	47.81535	-133.98109	10.030	98.6
2026-08-01T04:30	47.81114	-133.93998	10.084	98.6
2026-08-01T04:40	47.80676	-133.89851	10.181	98.9
2026-08-01T04:50	47.80250	-133.85737	10.095	98.7
2026-08-01T05:00	47.79821	-133.81647	10.041	98.8
2026-08-01T05:10	47.79402	-133.77558	10.033	98.6
2026-08-01T05:20	47.78980	-133.73450	10.083	98.7
2026-08-01T05:30	47.78554	-133.69359	10.043	98.8
2026-08-01T05:40	47.78125	-133.65266	10.050	98.8
2026-08-01T05:50	47.77698	-133.61147	10.113	98.7
2026-08-01T06:00	47.77276	-133.57032	10.101	98.6
2026-08-01T06:10	47.76844	-133.52902	10.143	98.8
2026-08-01T06:20	47.76416	-133.48761	10.169	98.7
2026-08-01T06:30	47.75991	-133.44688	10.006	98.8
2026-08-01T06:40	47.75567	-133.40571	10.109	98.7
2026-08-01T06:50	47.75138	-133.36468	10.081	98.8
2026-08-01T07:00	47.74712	-133.32347	10.124	98.7
2026-08-01T07:10	47.74291	-133.28251	10.060	98.7
2026-08-01T07:20	47.73856	-133.24128	10.135	98.9
2026-08-01T07:30	47.73434	-133.20023	10.083	98.6
2026-08-01T07:40	47.73012	-133.15951	10.006	98.7
2026-08-01T07:50	47.72589	-133.11862	10.050	98.7
2026-08-01T08:00	47.72165	-133.07753	10.096	98.7
2026-08-01T08:10	47.71733	-133.03617	10.169	98.8
2026-08-01T08:20	47.71300	-132.99484	10.160	98.8
2026-08-01T08:30	47.70873	-132.95388	10.073	98.8
2026-08-01T08:40	47.70453	-132.91322	9.996	98.7
2026-08-01T08:50	47.70037	-132.87238	10.036	98.6
2026-08-01T09:00	47.69643	-132.83327	9.612	98.5
2026-08-01T09:10	47.70025	-132.79673	8.987	81.2
2026-08-01T09:20	47.70383	-132.76091	8.800	81.6
2026-08-01T09:30	47.70754	-132.72553	8.700	81.1
2026-08-01T09:40	47.71117	-132.68953	8.845	81.5
2026-08-01T09:50	47.71491	-132.65345	8.870	81.2
2026-08-01T10:00	47.71858	-132.61750	8.832	81.4
2026-08-01T10:10	47.72218	-132.58187	8.752	81.5
2026-08-01T10:20	47.72588	-132.54586	8.849	81.3
2026-08-01T10:30	47.72959	-132.51022	8.761	81.2
2026-08-01T10:40	47.73329	-132.47516	8.618	81.1
2026-08-01T10:50	47.73681	-132.43978	8.685	81.6
2026-08-01T11:00	47.74044	-132.40435	8.705	81.3
2026-08-01T11:10	47.74407	-132.36940	8.587	81.2
2026-08-01T11:20	47.74773	-132.33373	8.760	81.3
2026-08-01T11:30	47.75144	-132.29805	8.767	81.2
2026-08-01T11:40	47.75513	-132.26267	8.692	81.2
2026-08-01T11:50	47.75882	-132.22711	8.733	81.2
2026-08-01T12:00	47.76249	-132.19093	8.883	81.4
2026-08-01T12:10	47.76613	-132.15449	8.941	81.6
2026-08-01T12:20	47.76980	-132.11823	8.899	81.4
2026-08-01T12:30	47.77369	-132.08209	8.883	80.9
2026-08-01T12:40	47.77730	-132.04666	8.695	81.4
2026-08-01T12:50	47.78090	-132.01150	8.631	81.4
2026-08-01T13:00	47.78463	-131.97605	8.707	81.1
2026-08-01T13:10	47.78824	-131.93962	8.934	81.6
2026-08-01T13:20	47.79192	-131.90387	8.773	81.3
2026-08-01T13:30	47.79559	-131.86823	8.748	81.3
2026-08-01T13:40	47.79928	-131.83227	8.823	81.3
2026-08-01T13:50	47.80309	-131.79631	8.830	81.1
2026-08-01T14:00	47.80671	-131.76021	8.852	81.5
2026-08-01T14:10	47.81036	-131.72397	8.888	81.5
2026-08-01T14:20	47.81407	-131.68818	8.780	81.2
2026-08-01T14:30	47.81770	-131.65251	8.749	81.4
2026-08-01T14:40	47.82144	-131.61690	8.739	81.1
2026-08-01T14:50	47.82502	-131.58096	8.808	81.6
2026-08-01T15:00	47.82859	-131.54526	8.751	81.5
2026-08-01T15:10	47.83224	-131.50971	8.718	81.3
2026-08-01T15:20	47.83577	-131.47371	8.819	81.7
2026-08-01T15:30	47.83941	-131.43756	8.859	81.5
2026-08-01T15:40	47.84300	-131.40156	8.822	81.6
2026-08-01T15:50	47.84666	-131.36544	8.852	81.4
2026-08-01T16:00	47.85024	-131.32961	8.778	81.5
2026-08-01T16:10	47.85394	-131.29410	8.707	81.2
2026-08-01T16:20	47.85739	-131.25842	8.735	81.8
2026-08-01T16:30	47.86091	-131.22280	8.723	81.7
2026-08-01T16:40	47.86458	-131.18695	8.785	81.3
2026-08-01T16:50	47.86811	-131.15112	8.772	81.7
2026-08-01T17:00	47.87177	-131.11490	8.873	81.4
2026-08-01T17:10	47.87537	-131.07911	8.765	81.5
2026-08-01T17:20	47.87900	-131.04334	8.761	81.4
2026-08-01T17:30	47.88260	-131.00720	8.849	81.6
2026-08-01T17:40	47.88619	-130.97162	8.713	81.5
2026-08-01T17:50	47.88971	-130.93592	8.737	81.6
2026-08-01T18:00	47.89335	-130.90046	8.687	81.3
2026-08-01T18:10	47.89681	-130.86451	8.792	81.8
2026-08-01T18:20	47.90048	-130.82851	8.815	81.4
2026-08-01T18:30	47.90420	-130.79271	8.770	81.2
2026-08-01T18:40	47.90774	-130.75688	8.766	81.6
2026-08-01T18:50	47.91133	-130.72063	8.871	81.6
2026-08-01T19:00	47.91503	-130.68417	8.923	81.4
2026-08-01T19:10	47.91863	-130.64816	8.811	81.5
2026-08-01T19:20	47.92213	-130.61229	8.771	81.7
2026-08-01T19:30	47.92579	-130.57643	8.778	81.4
2026-08-01T19:40	47.92947	-130.54032	8.838	81.3
2026-08-01T19:50	47.93300	-130.50443	8.777	81.7
2026-08-01T20:00	47.93661	-130.46837	8.820	81.5
2026-08-01T20:10	47.94018	-130.43271	8.723	81.5
2026-08-01T20:20	47.94381	-130.39717	8.694	81.3
2026-08-01T20:30	47.94720	-130.36226	8.532	81.8
2026-08-01T20:40	47.95076	-130.32719	8.579	81.4
2026-08-01T20:50	47.95430	-130.29145	8.738	81.6
2026-08-01T21:00	47.95793	-130.25551	8.790	81.4
2026-08-01T21:10	47.96156	-130.21947	8.813	81.5
2026-08-01T21:20	47.96516	-130.18348	8.797	81.5
2026-08-01T21:30	47.96872	-130.14781	8.721	81.5
2026-08-01T21:40	47.97228	-130.11238	8.660	81.5
2026-08-01T21:50	47.97581	-130.07702	8.643	81.5
2026-08-01T22:00	47.97933	-130.04157	8.663	81.6
2026-08-01T22:10	47.98291	-130.00598	8.699	81.5
2026-08-01T22:20	47.98642	-129.97046	8.679	81.6
2026-08-01T22:30	47.99004	-129.93480	8.715	81.4
2026-08-01T22:40	47.99358	-129.89960	8.603	81.5
2026-08-01T22:50	47.99708	-129.86431	8.620	81.6
2026-08-01T23:00	48.00059	-129.82893	8.642	81.6
2026-08-01T23:10	48.00417	-129.79368	8.613	81.4
2026-08-01T23:20	48.00768	-129.75826	8.650	81.6
2026-08-01T23:30	48.01123	-129.72292	8.633	81.5
2026-08-01T23:40	48.01484	-129.68713	8.744	81.5
2026-08-01T23:50	48.01842	-129.65122	8.769	81.5
2026-08-02T00:00	48.02197	-129.61533	8.763	81.6
2026-08-02T00:10	48.02551	-129.57960	8.723	81.6
2026-08-02T00:20	48.02918	-129.54359	8.796	81.3
2026-08-02T00:30	48.03277	-129.50754	8.801	81.5
2026-08-02T00:40	48.03644	-129.47119	8.878	81.4
2026-08-02T00:50	48.04001	-129.43492	8.851	81.6
2026-08-02T01:00	48.04364	-129.39859	8.869	81.5
2026-08-02T01:10	48.04729	-129.36234	8.849	81.5
2026-08-02T01:20	48.05090	-129.32626	8.806	81.5
2026-08-02T01:30	48.05451	-129.28987	8.878	81.6
2026-08-02T01:40	48.05818	-129.25351	8.877	81.4
2026-08-02T01:50	48.06183	-129.21696	8.917	81.5
2026-08-02T02:00	48.06544	-129.18063	8.866	81.5
2026-08-02T02:10	48.06912	-129.14439	8.844	81.4
2026-08-02T02:20	48.07270	-129.10800	8.875	81.6
2026-08-02T02:30	48.07633	-129.07206	8.771	81.4
2026-08-02T02:40	48.07990	-129.03588	8.822	81.6
2026-08-02T02:50	48.08358	-128.99949	8.878	81.4
2026-08-02T03:00	48.08716	-128.96337	8.809	81.6
2026-08-02T03:10	48.09067	-128.92765	8.710	81.6
2026-08-02T03:20	48.09421	-128.89211	8.665	81.5
2026-08-02T03:30	48.09790	-128.85605	8.798	81.3
2026-08-02T03:40	48.10149	-128.82004	8.780	81.5
2026-08-02T03:50	48.10502	-128.78411	8.759	81.7
2026-08-02T04:00	48.10859	-128.74792	8.821	81.6
2026-08-02T04:10	48.11231	-128.71163	8.852	81.3
2026-08-02T04:20	48.11591	-128.67556	8.793	81.5
2026-08-02T04:30	48.11952	-128.63961	8.763	81.5
2026-08-02T04:40	48.12306	-128.60327	8.851	81.7
2026-08-02T04:50	48.12674	-128.56671	8.912	81.5
2026-08-02T05:00	48.13039	-128.53058	8.809	81.4
2026-08-02T05:10	48.13396	-128.49475	8.729	81.5
2026-08-02T05:20	48.13756	-128.45877	8.768	81.5
2026-08-02T05:30	48.14118	-128.42252	8.832	81.5
2026-08-02T05:40	48.14475	-128.38642	8.794	81.6
2026-08-02T05:50	48.14836	-128.35063	8.722	81.4
2026-08-02T06:00	48.15189	-128.31466	8.758	81.6
2026-08-02T06:10	48.15553	-128.27825	8.868	81.5
2026-08-02T06:20	48.15915	-128.24230	8.757	81.4
2026-08-02T06:30	48.16269	-128.20624	8.780	81.6
2026-08-02T06:40	48.16799	-128.17171	8.533	77.1
2026-08-02T06:50	48.16988	-128.13498	8.873	85.6
2026-08-02T07:00	48.17346	-128.09875	8.821	81.6
2026-08-02T07:10	48.17699	-128.06283	8.742	81.6
2026-08-02T07:20	48.18059	-128.02714	8.692	81.4
2026-08-02T07:30	48.18420	-127.99113	8.767	81.5
2026-08-02T07:40	48.18778	-127.95509	8.773	81.5
2026-08-02T07:50	48.19136	-127.91888	8.811	81.6
2026-08-02T08:00	48.19499	-127.88262	8.827	81.5
2026-08-02T08:10	48.19858	-127.84646	8.800	81.5
2026-08-02T08:20	48.20226	-127.81047	8.762	81.3
2026-08-02T08:30	48.20583	-127.77451	8.750	81.5
2026-08-02T08:40	48.20933	-127.73859	8.738	81.7
2026-08-02T08:50	48.21291	-127.70250	8.780	81.5
2026-08-02T09:00	48.21664	-127.66592	8.902	81.3
2026-08-02T09:10	48.22033	-127.62958	8.846	81.3
2026-08-02T09:20	48.22379	-127.59369	8.723	81.8
2026-08-02T09:30	48.22733	-127.55786	8.714	81.6
2026-08-02T09:40	48.23099	-127.52181	8.773	81.4
2026-08-02T09:50	48.23461	-127.48577	8.768	81.4
2026-08-02T10:00	48.23820	-127.44951	8.816	81.6
2026-08-02T10:10	48.24178	-127.41345	8.768	81.5
2026-08-02T10:20	48.24537	-127.37732	8.784	81.5
2026-08-02T10:30	48.24895	-127.34123	8.773	81.5
2026-08-02T10:40	48.25260	-127.30462	8.901	81.5
2026-08-02T10:50	48.25631	-127.26794	8.921	81.4
2026-08-02T11:00	48.25986	-127.23141	8.876	81.7
2026-08-02T11:10	48.26343	-127.19527	8.782	81.6
2026-08-02T11:20	48.26705	-127.15930	8.745	81.4
2026-08-02T11:30	48.27063	-127.12272	8.886	81.7
2026-08-02T11:40	48.27435	-127.08671	8.758	81.2
2026-08-02T11:50	48.27778	-127.05065	8.755	81.9
2026-08-02T12:00	48.28144	-127.01453	8.780	81.4
2026-08-02T12:10	48.28504	-126.97813	8.844	81.6
2026-08-02T12:20	48.28867	-126.94178	8.832	81.5
2026-08-02T12:30	48.29230	-126.90531	8.860	81.5
2026-08-02T12:40	48.29592	-126.86932	8.745	81.4
2026-08-02T12:50	48.29936	-126.83417	8.534	81.7
2026-08-02T13:00	48.30285	-126.79899	8.544	81.5
2026-08-02T13:10	48.30638	-126.76376	8.558	81.4
2026-08-02T13:20	48.30996	-126.72844	8.581	81.3
2026-08-02T13:30	48.31339	-126.69281	8.646	81.8
2026-08-02T13:40	48.31692	-126.65690	8.718	81.6
2026-08-02T13:50	48.32034	-126.62112	8.679	81.8
2026-08-02T14:00	48.32406	-126.58579	8.589	81.0
2026-08-02T14:10	48.32722	-126.55074	8.492	82.3
2026-08-02T14:20	48.33087	-126.51499	8.685	81.3
2026-08-02T14:30	48.33474	-126.47868	8.828	80.9
2026-08-02T14:40	48.33823	-126.44280	8.705	81.7
2026-08-02T14:50	48.34189	-126.40662	8.784	81.4
2026-08-02T15:00	48.34549	-126.37039	8.791	81.5
2026-08-02T15:10	48.34907	-126.33419	8.785	81.6
2026-08-02T15:20	48.35262	-126.29839	8.685	81.5
2026-08-02T15:30	48.35619	-126.26285	8.625	81.4
2026-08-02T15:40	48.36019	-126.22708	8.705	80.5
2026-08-02T15:50	48.36540	-126.19205	8.611	77.4
2026-08-02T16:00	48.36786	-126.15608	8.676	84.1
2026-08-02T16:10	48.37040	-126.12074	8.527	83.8
2026-08-02T16:20	48.37371	-126.08628	8.353	81.8
2026-08-02T16:30	48.37720	-126.05147	8.442	81.4
2026-08-02T16:40	48.38072	-126.01566	8.683	81.6
2026-08-02T16:50	48.38432	-125.97966	8.730	81.5
2026-08-02T17:00	48.38785	-125.94379	8.698	81.6
2026-08-02T17:10	48.39134	-125.90855	8.542	81.5
2026-08-02T17:20	48.39492	-125.87277	8.677	81.4
2026-08-02T17:30	48.39854	-125.83671	8.745	81.4
2026-08-02T17:40	48.40221	-125.80306	8.175	80.7
2026-08-02T17:50	48.40533	-125.76734	8.636	82.5
2026-08-02T18:00	48.40893	-125.73141	8.711	81.4
2026-08-02T18:10	48.41249	-125.69513	8.792	81.6
2026-08-02T18:20	48.41614	-125.65857	8.860	81.5
2026-08-02T18:30	48.41981	-125.62210	8.843	81.4
2026-08-02T18:40	48.42345	-125.58672	8.579	81.2
2026-08-02T18:50	48.42679	-125.55105	8.631	82.0
2026-08-02T19:00	48.43039	-125.51516	8.699	81.4
2026-08-02T19:10	48.43404	-125.47931	8.689	81.3
2026-08-02T19:20	48.43753	-125.44285	8.824	81.8
2026-08-02T19:30	48.44120	-125.40729	8.624	81.2
2026-08-02T19:40	48.44475	-125.37171	8.618	81.5
2026-08-02T19:50	48.44830	-125.33598	8.652	81.5
2026-08-02T20:00	48.45160	-125.30128	8.397	81.8
2026-08-02T20:10	48.45530	-125.26567	8.633	81.1
2026-08-02T20:20	48.45876	-125.22975	8.692	81.8
2026-08-02T20:30	48.46244	-125.19422	8.610	81.1
2026-08-02T20:40	48.46588	-125.15861	8.618	81.7
2026-08-02T20:50	48.47073	-125.12328	8.639	78.3
2026-08-02T21:00	48.47591	-125.08720	8.835	77.8
2026-08-02T21:10	48.48028	-125.05205	8.562	79.4
2026-08-02T21:20	48.48036	-125.01541	8.771	89.8
2026-08-02T21:30	48.48045	-124.97883	8.755	89.8
2026-08-02T21:40	48.48042	-124.94207	8.801	90.1
2026-08-02T21:50	48.48035	-124.90580	8.682	90.2
2026-08-02T22:00	48.48046	-124.86976	8.629	89.7
2026-08-02T22:10	48.48036	-124.83402	8.555	90.2
2026-08-02T22:20	48.48038	-124.79792	8.642	89.9
2026-08-02T22:30	48.48040	-124.76177	8.653	89.9
2026-08-02T22:40	48.47592	-124.72731	8.406	101.0
2026-08-02T22:50	48.46555	-124.69354	8.905	114.8
2026-08-02T23:00	48.45509	-124.66025	8.817	115.3
2026-08-02T23:10	48.44493	-124.62749	8.658	115.0
2026-08-02T23:20	48.43453	-124.59410	8.833	115.1
2026-08-02T23:30	48.42414	-124.56117	8.734	115.4
2026-08-02T23:40	48.41363	-124.52806	8.790	115.5
2026-08-02T23:50	48.40353	-124.49530	8.655	114.8
2026-08-03T00:00	48.39330	-124.46285	8.609	115.3
2026-08-03T00:10	48.38286	-124.42960	8.816	115.2
2026-08-03T00:20	48.37248	-124.39621	8.839	115.0
2026-08-03T00:30	48.36212	-124.36330	8.732	115.3
2026-08-03T00:40	48.35207	-124.33081	8.594	114.9
2026-08-03T00:50	48.34205	-124.29909	8.426	115.3
2026-08-03T01:00	48.33134	-124.26559	8.918	115.6
2026-08-03T01:10	48.32084	-124.23193	8.923	115.1
2026-08-03T01:20	48.31027	-124.19856	8.870	115.4
2026-08-03T01:30	48.30053	-124.16730	8.289	115.0
2026-08-03T01:40	48.29053	-124.13522	8.507	115.0
2026-08-03T01:50	48.28040	-124.10301	8.557	115.2
2026-08-03T02:00	48.27021	-124.07112	8.496	115.5
2026-08-03T02:10	48.26057	-124.03985	8.280	114.8
2026-08-03T02:20	48.25097	-124.00920	8.140	115.1
2026-08-03T02:30	48.24220	-123.97744	8.264	112.5
2026-08-03T02:40	48.23369	-123.94480	8.428	111.3
2026-08-03T02:50	48.22680	-123.91384	7.849	108.4
2026-08-03T03:00	48.22643	-123.88004	8.133	90.9
2026-08-03T03:10	48.22627	-123.84645	8.083	90.4
2026-08-03T03:20	48.22600	-123.81348	7.931	90.7
2026-08-03T03:30	48.22591	-123.78068	7.892	90.2
2026-08-03T03:40	48.22562	-123.74898	7.626	90.8
2026-08-03T03:50	48.22546	-123.71751	7.570	90.4
2026-08-03T04:00	48.22519	-123.68635	7.498	90.7
2026-08-03T04:10	48.22494	-123.65353	7.896	90.7
2026-08-03T04:20	48.22470	-123.61767	8.629	90.5
2026-08-03T04:30	48.22457	-123.58175	8.642	90.3
2026-08-03T04:40	48.22437	-123.54515	8.806	90.5
2026-08-03T04:50	48.23368	-123.51289	8.454	66.6
2026-08-03T05:00	48.24437	-123.47928	8.952	64.5
2026-08-03T05:10	48.25611	-123.44624	9.000	62.0
2026-08-03T05:20	48.27904	-123.43040	9.092	24.8
2026-08-03T05:30	48.30416	-123.41803	9.520	18.2
2026-08-03T05:40	48.33117	-123.40438	10.264	18.6
2026-08-03T05:50	48.35368	-123.38839	8.969	25.3
2026-08-03T06:00	48.36139	-123.34813	10.050	74.0
2026-08-03T06:10	48.36893	-123.30424	10.875	75.5
2026-08-03T06:20	48.38066	-123.26490	10.339	65.9
2026-08-03T06:30	48.39297	-123.22702	10.109	64.0
2026-08-03T06:40	48.41094	-123.19409	10.208	50.7
2026-08-03T06:50	48.43604	-123.17021	10.697	32.3
2026-08-03T07:00	48.46860	-123.16912	11.724	1.3
2026-08-03T07:10	48.50079	-123.18545	12.233	341.4
2026-08-03T07:20	48.53263	-123.19889	11.905	344.3
2026-08-03T07:30	48.55985	-123.21058	10.195	344.1
2026-08-03T07:40	48.58733	-123.22191	10.258	344.7
2026-08-03T07:50	48.61643	-123.23371	10.848	345.0
2026-08-03T08:00	48.64599	-123.24138	10.800	350.2
2026-08-03T08:10	48.67406	-123.24866	10.258	350.3
2026-08-03T08:20	48.70142	-123.24113	10.013	10.3
2026-08-03T08:30	48.71523	-123.19538	11.983	65.5
2026-08-03T08:40	48.72511	-123.15149	11.045	71.2
2026-08-03T08:50	48.73758	-123.10923	11.022	65.9
2026-08-03T09:00	48.75038	-123.06747	10.961	65.1
2026-08-03T09:10	48.76565	-123.02951	10.578	58.7
2026-08-03T09:20	48.78869	-122.99957	10.937	40.6
2026-08-03T09:30	48.81988	-122.99685	11.248	3.3
2026-08-03T09:40	48.85076	-123.01654	12.066	337.2
2026-08-03T09:50	48.87961	-123.04492	12.383	327.0
2026-08-03T10:00	48.90416	-123.08387	12.795	313.7
2026-08-03T10:10	48.92528	-123.12194	11.810	310.1
2026-08-03T10:20	48.94500	-123.15679	10.899	310.7
2026-08-03T10:30	48.96646	-123.19058	11.131	314.0
2026-08-03T10:40	48.98941	-123.22245	11.198	317.6
2026-08-03T10:50	49.01248	-123.25485	11.310	317.3
2026-08-03T11:00	49.03549	-123.28789	11.397	316.7
2026-08-03T11:10	49.05874	-123.32139	11.530	316.6
2026-08-03T11:20	49.08469	-123.34846	11.330	325.6
2026-08-03T11:30	49.11635	-123.34487	11.429	4.2
2026-08-03T11:40	49.14869	-123.33559	11.852	10.7
2026-08-03T11:50	49.17962	-123.32615	11.358	11.3
2026-08-03T12:00	49.20877	-123.31695	10.721	11.7
2026-08-03T12:10	49.23588	-123.30794	9.992	12.3
2026-08-03T12:20	49.26405	-123.29861	10.377	12.2
2026-08-03T12:30	49.29239	-123.29007	10.404	11.1
2026-08-03T12:40	49.30932	-123.25738	9.820	51.6
2026-08-03T12:50	49.31684	-123.21146	11.145	75.9
2026-08-03T13:00	49.31939	-123.16847	10.163	84.8
2026-08-03T13:10	49.31207	-123.13255	8.858	107.3
2026-08-03T13:20	49.30229	-123.10892	6.585	122.3
2026-08-03T13:30	49.29704	-123.10227	2.455	140.4
2026-08-03T13:40	49.29422	-123.09858	1.337	139.5
2026-08-03T13:50	49.29161	-123.09611	1.103	148.2
2026-08-03T14:00	49.28981	-123.09436	0.768	147.5
2026-08-03T14:10	49.28907	-123.09384	0.293	155.2
2026-08-03T14:20	49.28853	-123.09310	0.263	138.2
2026-08-03T14:30	49.28841	-123.09293	0.059	138.1
2026-08-03T14:40	49.28841	-123.09292	0.001	107.0
2026-08-03T14:50	49.28841	-123.09292	0.001	63.0
2026-08-03T15:00	49.28841	-123.09292	0.001	167.7
2026-08-03T15:10	49.28841	-123.09292	0.002	346.3
2026-08-03T15:10	49.28841	-123.09292		
